<?xml version="1.0" encoding="UTF-8" standalone="no" ?>
<gpx xmlns="http://www.topografix.com/GPX/1/1" xmlns:xsi="http://www.w3.org/2001/XMLSchema-instance" xsi:schemaLocation="http://www.topografix.com/GPX/1/1 http://www.topografix.com/GPX/1/1/gpx.xsd" version="1.1" creator="VisuGPX - https://www.visugpx.com">
  <metadata>
    <name>Circuit vélo Beaujolais 1/2 journée</name>
    <desc><![CDATA[Circuit vélo Beaujolais 1/2 journée]]></desc>
  </metadata>
  <trk>
    <name><![CDATA[OR-8058927--Arnas:test]]></name>
    <trkseg>
      <trkpt lat="46.02474" lon="4.70633">
        <ele>189</ele>
        <time>2017-10-29T08:05:49Z</time>
      </trkpt>
      <trkpt lat="46.02478" lon="4.70617">
        <ele>188</ele>
        <time>2017-10-29T08:07:49Z</time>
      </trkpt>
      <trkpt lat="46.02478" lon="4.70616">
        <ele>188</ele>
        <time>2017-10-29T08:09:49Z</time>
      </trkpt>
      <trkpt lat="46.02479" lon="4.70609">
        <ele>188</ele>
        <time>2017-10-29T08:11:49Z</time>
      </trkpt>
      <trkpt lat="46.02492" lon="4.70551">
        <ele>187</ele>
        <time>2017-10-29T08:13:49Z</time>
      </trkpt>
      <trkpt lat="46.02492" lon="4.7055">
        <ele>187</ele>
        <time>2017-10-29T08:15:49Z</time>
      </trkpt>
      <trkpt lat="46.02495" lon="4.7054">
        <ele>187</ele>
        <time>2017-10-29T08:17:49Z</time>
      </trkpt>
      <trkpt lat="46.02495" lon="4.70538">
        <ele>187</ele>
        <time>2017-10-29T08:19:49Z</time>
      </trkpt>
      <trkpt lat="46.02514" lon="4.70468">
        <ele>187</ele>
        <time>2017-10-29T08:21:49Z</time>
      </trkpt>
      <trkpt lat="46.02517" lon="4.7046">
        <ele>187</ele>
        <time>2017-10-29T08:23:49Z</time>
      </trkpt>
      <trkpt lat="46.02522" lon="4.70445">
        <ele>187</ele>
        <time>2017-10-29T08:25:49Z</time>
      </trkpt>
      <trkpt lat="46.02529" lon="4.70424">
        <ele>186</ele>
        <time>2017-10-29T08:27:49Z</time>
      </trkpt>
      <trkpt lat="46.02533" lon="4.70407">
        <ele>186</ele>
        <time>2017-10-29T08:29:49Z</time>
      </trkpt>
      <trkpt lat="46.0254" lon="4.70378">
        <ele>186</ele>
        <time>2017-10-29T08:31:49Z</time>
      </trkpt>
      <trkpt lat="46.02544" lon="4.70367">
        <ele>187</ele>
        <time>2017-10-29T08:33:49Z</time>
      </trkpt>
      <trkpt lat="46.02546" lon="4.70357">
        <ele>187</ele>
        <time>2017-10-29T08:35:49Z</time>
      </trkpt>
      <trkpt lat="46.02553" lon="4.70326">
        <ele>187</ele>
        <time>2017-10-29T08:37:49Z</time>
      </trkpt>
      <trkpt lat="46.02573" lon="4.70272">
        <ele>188</ele>
        <time>2017-10-29T08:39:49Z</time>
      </trkpt>
      <trkpt lat="46.02589" lon="4.70233">
        <ele>188</ele>
        <time>2017-10-29T08:41:49Z</time>
      </trkpt>
      <trkpt lat="46.02594" lon="4.70222">
        <ele>188</ele>
        <time>2017-10-29T08:43:49Z</time>
      </trkpt>
      <trkpt lat="46.02613" lon="4.70178">
        <ele>187</ele>
        <time>2017-10-29T08:45:49Z</time>
      </trkpt>
      <trkpt lat="46.02632" lon="4.70137">
        <ele>188</ele>
        <time>2017-10-29T08:47:49Z</time>
      </trkpt>
      <trkpt lat="46.02638" lon="4.70122">
        <ele>188</ele>
        <time>2017-10-29T08:49:49Z</time>
      </trkpt>
      <trkpt lat="46.02669" lon="4.70056">
        <ele>188</ele>
        <time>2017-10-29T08:51:49Z</time>
      </trkpt>
      <trkpt lat="46.02717" lon="4.69947">
        <ele>190</ele>
        <time>2017-10-29T08:53:49Z</time>
      </trkpt>
      <trkpt lat="46.0272" lon="4.69941">
        <ele>190</ele>
        <time>2017-10-29T08:55:49Z</time>
      </trkpt>
      <trkpt lat="46.02753" lon="4.69857">
        <ele>191</ele>
        <time>2017-10-29T08:57:49Z</time>
      </trkpt>
      <trkpt lat="46.02755" lon="4.69854">
        <ele>191</ele>
        <time>2017-10-29T08:59:49Z</time>
      </trkpt>
      <trkpt lat="46.02759" lon="4.69848">
        <ele>191</ele>
        <time>2017-10-29T09:01:49Z</time>
      </trkpt>
      <trkpt lat="46.02766" lon="4.69833">
        <ele>191</ele>
        <time>2017-10-29T09:03:49Z</time>
      </trkpt>
      <trkpt lat="46.02767" lon="4.69829">
        <ele>191</ele>
        <time>2017-10-29T09:05:49Z</time>
      </trkpt>
      <trkpt lat="46.02768" lon="4.69826">
        <ele>191</ele>
        <time>2017-10-29T09:07:49Z</time>
      </trkpt>
      <trkpt lat="46.02775" lon="4.69812">
        <ele>190</ele>
        <time>2017-10-29T09:09:49Z</time>
      </trkpt>
      <trkpt lat="46.02807" lon="4.69738">
        <ele>189</ele>
        <time>2017-10-29T09:11:49Z</time>
      </trkpt>
      <trkpt lat="46.02835" lon="4.69673">
        <ele>191</ele>
        <time>2017-10-29T09:13:49Z</time>
      </trkpt>
      <trkpt lat="46.02858" lon="4.69618">
        <ele>192</ele>
        <time>2017-10-29T09:15:49Z</time>
      </trkpt>
      <trkpt lat="46.0286" lon="4.69607">
        <ele>192</ele>
        <time>2017-10-29T09:17:49Z</time>
      </trkpt>
      <trkpt lat="46.02863" lon="4.69597">
        <ele>192</ele>
        <time>2017-10-29T09:19:49Z</time>
      </trkpt>
      <trkpt lat="46.0287" lon="4.6958">
        <ele>192</ele>
        <time>2017-10-29T09:21:49Z</time>
      </trkpt>
      <trkpt lat="46.02882" lon="4.69554">
        <ele>192</ele>
        <time>2017-10-29T09:23:49Z</time>
      </trkpt>
      <trkpt lat="46.02886" lon="4.69545">
        <ele>192</ele>
        <time>2017-10-29T09:25:49Z</time>
      </trkpt>
      <trkpt lat="46.02922" lon="4.69466">
        <ele>193</ele>
        <time>2017-10-29T09:27:49Z</time>
      </trkpt>
      <trkpt lat="46.02941" lon="4.69419">
        <ele>194</ele>
        <time>2017-10-29T09:29:49Z</time>
      </trkpt>
      <trkpt lat="46.02946" lon="4.69408">
        <ele>194</ele>
        <time>2017-10-29T09:31:49Z</time>
      </trkpt>
      <trkpt lat="46.02956" lon="4.69375">
        <ele>194</ele>
        <time>2017-10-29T09:33:49Z</time>
      </trkpt>
      <trkpt lat="46.02965" lon="4.69329">
        <ele>194</ele>
        <time>2017-10-29T09:35:49Z</time>
      </trkpt>
      <trkpt lat="46.02967" lon="4.69318">
        <ele>194</ele>
        <time>2017-10-29T09:37:49Z</time>
      </trkpt>
      <trkpt lat="46.02989" lon="4.69181">
        <ele>195</ele>
        <time>2017-10-29T09:39:49Z</time>
      </trkpt>
      <trkpt lat="46.03005" lon="4.69087">
        <ele>198</ele>
        <time>2017-10-29T09:41:49Z</time>
      </trkpt>
      <trkpt lat="46.03008" lon="4.69067">
        <ele>198</ele>
        <time>2017-10-29T09:43:49Z</time>
      </trkpt>
      <trkpt lat="46.03032" lon="4.68917">
        <ele>202</ele>
        <time>2017-10-29T09:45:49Z</time>
      </trkpt>
      <trkpt lat="46.03033" lon="4.68908">
        <ele>202</ele>
        <time>2017-10-29T09:47:49Z</time>
      </trkpt>
      <trkpt lat="46.03037" lon="4.68884">
        <ele>203</ele>
        <time>2017-10-29T09:49:49Z</time>
      </trkpt>
      <trkpt lat="46.03041" lon="4.68859">
        <ele>203</ele>
        <time>2017-10-29T09:51:49Z</time>
      </trkpt>
      <trkpt lat="46.03049" lon="4.68805">
        <ele>203</ele>
        <time>2017-10-29T09:53:49Z</time>
      </trkpt>
      <trkpt lat="46.03057" lon="4.68787">
        <ele>203</ele>
        <time>2017-10-29T09:55:49Z</time>
      </trkpt>
      <trkpt lat="46.03068" lon="4.68712">
        <ele>204</ele>
        <time>2017-10-29T09:57:49Z</time>
      </trkpt>
      <trkpt lat="46.03078" lon="4.68642">
        <ele>205</ele>
        <time>2017-10-29T09:59:49Z</time>
      </trkpt>
      <trkpt lat="46.03084" lon="4.68608">
        <ele>205</ele>
        <time>2017-10-29T10:01:49Z</time>
      </trkpt>
      <trkpt lat="46.03092" lon="4.68582">
        <ele>205</ele>
        <time>2017-10-29T10:03:49Z</time>
      </trkpt>
      <trkpt lat="46.03093" lon="4.68579">
        <ele>205</ele>
        <time>2017-10-29T10:05:49Z</time>
      </trkpt>
      <trkpt lat="46.03101" lon="4.6856">
        <ele>206</ele>
        <time>2017-10-29T10:07:49Z</time>
      </trkpt>
      <trkpt lat="46.03107" lon="4.68548">
        <ele>206</ele>
        <time>2017-10-29T10:09:49Z</time>
      </trkpt>
      <trkpt lat="46.03113" lon="4.68541">
        <ele>207</ele>
        <time>2017-10-29T10:11:49Z</time>
      </trkpt>
      <trkpt lat="46.03119" lon="4.68533">
        <ele>207</ele>
        <time>2017-10-29T10:13:49Z</time>
      </trkpt>
      <trkpt lat="46.03132" lon="4.68517">
        <ele>208</ele>
        <time>2017-10-29T10:15:49Z</time>
      </trkpt>
      <trkpt lat="46.03145" lon="4.68505">
        <ele>208</ele>
        <time>2017-10-29T10:17:49Z</time>
      </trkpt>
      <trkpt lat="46.03192" lon="4.68461">
        <ele>210</ele>
        <time>2017-10-29T10:19:49Z</time>
      </trkpt>
      <trkpt lat="46.03199" lon="4.68456">
        <ele>211</ele>
        <time>2017-10-29T10:21:49Z</time>
      </trkpt>
      <trkpt lat="46.03206" lon="4.68446">
        <ele>211</ele>
        <time>2017-10-29T10:23:49Z</time>
      </trkpt>
      <trkpt lat="46.03213" lon="4.68441">
        <ele>212</ele>
        <time>2017-10-29T10:25:49Z</time>
      </trkpt>
      <trkpt lat="46.0326" lon="4.68399">
        <ele>215</ele>
        <time>2017-10-29T10:27:49Z</time>
      </trkpt>
      <trkpt lat="46.03292" lon="4.68371">
        <ele>217</ele>
        <time>2017-10-29T10:29:49Z</time>
      </trkpt>
      <trkpt lat="46.03316" lon="4.68349">
        <ele>218</ele>
        <time>2017-10-29T10:31:49Z</time>
      </trkpt>
      <trkpt lat="46.03327" lon="4.6834">
        <ele>218</ele>
        <time>2017-10-29T10:33:49Z</time>
      </trkpt>
      <trkpt lat="46.03334" lon="4.68333">
        <ele>218</ele>
        <time>2017-10-29T10:35:49Z</time>
      </trkpt>
      <trkpt lat="46.03348" lon="4.6832">
        <ele>218</ele>
        <time>2017-10-29T10:37:49Z</time>
      </trkpt>
      <trkpt lat="46.03404" lon="4.68268">
        <ele>219</ele>
        <time>2017-10-29T10:39:49Z</time>
      </trkpt>
      <trkpt lat="46.03426" lon="4.68247">
        <ele>220</ele>
        <time>2017-10-29T10:41:49Z</time>
      </trkpt>
      <trkpt lat="46.03467" lon="4.68207">
        <ele>220</ele>
        <time>2017-10-29T10:43:49Z</time>
      </trkpt>
      <trkpt lat="46.03483" lon="4.68191">
        <ele>221</ele>
        <time>2017-10-29T10:45:49Z</time>
      </trkpt>
      <trkpt lat="46.03499" lon="4.68175">
        <ele>221</ele>
        <time>2017-10-29T10:47:49Z</time>
      </trkpt>
      <trkpt lat="46.03503" lon="4.68171">
        <ele>221</ele>
        <time>2017-10-29T10:49:49Z</time>
      </trkpt>
      <trkpt lat="46.03513" lon="4.68161">
        <ele>220</ele>
        <time>2017-10-29T10:51:49Z</time>
      </trkpt>
      <trkpt lat="46.03553" lon="4.68121">
        <ele>218</ele>
        <time>2017-10-29T10:53:49Z</time>
      </trkpt>
      <trkpt lat="46.03583" lon="4.6809">
        <ele>218</ele>
        <time>2017-10-29T10:55:49Z</time>
      </trkpt>
      <trkpt lat="46.03659" lon="4.68017">
        <ele>221</ele>
        <time>2017-10-29T10:57:49Z</time>
      </trkpt>
      <trkpt lat="46.03666" lon="4.68014">
        <ele>221</ele>
        <time>2017-10-29T10:59:49Z</time>
      </trkpt>
      <trkpt lat="46.03697" lon="4.67983">
        <ele>221</ele>
        <time>2017-10-29T11:01:49Z</time>
      </trkpt>
      <trkpt lat="46.03713" lon="4.67967">
        <ele>221</ele>
        <time>2017-10-29T11:03:49Z</time>
      </trkpt>
      <trkpt lat="46.03724" lon="4.67956">
        <ele>221</ele>
        <time>2017-10-29T11:05:49Z</time>
      </trkpt>
      <trkpt lat="46.03737" lon="4.67945">
        <ele>221</ele>
        <time>2017-10-29T11:07:49Z</time>
      </trkpt>
      <trkpt lat="46.03765" lon="4.67918">
        <ele>222</ele>
        <time>2017-10-29T11:09:49Z</time>
      </trkpt>
      <trkpt lat="46.03782" lon="4.67902">
        <ele>222</ele>
        <time>2017-10-29T11:11:49Z</time>
      </trkpt>
      <trkpt lat="46.03789" lon="4.67891">
        <ele>223</ele>
        <time>2017-10-29T11:13:49Z</time>
      </trkpt>
      <trkpt lat="46.03821" lon="4.6786">
        <ele>223</ele>
        <time>2017-10-29T11:15:49Z</time>
      </trkpt>
      <trkpt lat="46.0387" lon="4.67806">
        <ele>223</ele>
        <time>2017-10-29T11:17:49Z</time>
      </trkpt>
      <trkpt lat="46.03875" lon="4.67801">
        <ele>223</ele>
        <time>2017-10-29T11:19:49Z</time>
      </trkpt>
      <trkpt lat="46.0389" lon="4.67782">
        <ele>222</ele>
        <time>2017-10-29T11:21:49Z</time>
      </trkpt>
      <trkpt lat="46.03916" lon="4.67754">
        <ele>220</ele>
        <time>2017-10-29T11:23:49Z</time>
      </trkpt>
      <trkpt lat="46.03929" lon="4.67743">
        <ele>219</ele>
        <time>2017-10-29T11:25:49Z</time>
      </trkpt>
      <trkpt lat="46.03951" lon="4.67726">
        <ele>218</ele>
        <time>2017-10-29T11:27:49Z</time>
      </trkpt>
      <trkpt lat="46.03963" lon="4.67723">
        <ele>217</ele>
        <time>2017-10-29T11:29:49Z</time>
      </trkpt>
      <trkpt lat="46.03973" lon="4.67722">
        <ele>216</ele>
        <time>2017-10-29T11:31:49Z</time>
      </trkpt>
      <trkpt lat="46.03986" lon="4.6772">
        <ele>215</ele>
        <time>2017-10-29T11:33:49Z</time>
      </trkpt>
      <trkpt lat="46.03991" lon="4.67719">
        <ele>215</ele>
        <time>2017-10-29T11:35:49Z</time>
      </trkpt>
      <trkpt lat="46.03996" lon="4.67719">
        <ele>214</ele>
        <time>2017-10-29T11:37:49Z</time>
      </trkpt>
      <trkpt lat="46.04005" lon="4.67719">
        <ele>214</ele>
        <time>2017-10-29T11:39:49Z</time>
      </trkpt>
      <trkpt lat="46.04062" lon="4.67717">
        <ele>220</ele>
        <time>2017-10-29T11:41:49Z</time>
      </trkpt>
      <trkpt lat="46.04086" lon="4.67717">
        <ele>222</ele>
        <time>2017-10-29T11:43:49Z</time>
      </trkpt>
      <trkpt lat="46.04098" lon="4.67716">
        <ele>222</ele>
        <time>2017-10-29T11:45:49Z</time>
      </trkpt>
      <trkpt lat="46.04106" lon="4.67715">
        <ele>223</ele>
        <time>2017-10-29T11:47:49Z</time>
      </trkpt>
      <trkpt lat="46.04127" lon="4.67709">
        <ele>224</ele>
        <time>2017-10-29T11:49:49Z</time>
      </trkpt>
      <trkpt lat="46.04136" lon="4.67707">
        <ele>224</ele>
        <time>2017-10-29T11:51:49Z</time>
      </trkpt>
      <trkpt lat="46.0415" lon="4.677">
        <ele>225</ele>
        <time>2017-10-29T11:53:49Z</time>
      </trkpt>
      <trkpt lat="46.04154" lon="4.67698">
        <ele>225</ele>
        <time>2017-10-29T11:55:49Z</time>
      </trkpt>
      <trkpt lat="46.04165" lon="4.6769">
        <ele>226</ele>
        <time>2017-10-29T11:57:49Z</time>
      </trkpt>
      <trkpt lat="46.04174" lon="4.67681">
        <ele>226</ele>
        <time>2017-10-29T11:59:49Z</time>
      </trkpt>
      <trkpt lat="46.04182" lon="4.67669">
        <ele>226</ele>
        <time>2017-10-29T12:01:49Z</time>
      </trkpt>
      <trkpt lat="46.04183" lon="4.67667">
        <ele>226</ele>
        <time>2017-10-29T12:03:49Z</time>
      </trkpt>
      <trkpt lat="46.04185" lon="4.67664">
        <ele>226</ele>
        <time>2017-10-29T12:05:49Z</time>
      </trkpt>
      <trkpt lat="46.04186" lon="4.67662">
        <ele>226</ele>
        <time>2017-10-29T12:07:49Z</time>
      </trkpt>
      <trkpt lat="46.04199" lon="4.67633">
        <ele>227</ele>
        <time>2017-10-29T12:09:49Z</time>
      </trkpt>
      <trkpt lat="46.04215" lon="4.67601">
        <ele>227</ele>
        <time>2017-10-29T12:11:49Z</time>
      </trkpt>
      <trkpt lat="46.04224" lon="4.67582">
        <ele>227</ele>
        <time>2017-10-29T12:13:49Z</time>
      </trkpt>
      <trkpt lat="46.04236" lon="4.67562">
        <ele>227</ele>
        <time>2017-10-29T12:15:49Z</time>
      </trkpt>
      <trkpt lat="46.0425" lon="4.67542">
        <ele>228</ele>
        <time>2017-10-29T12:17:49Z</time>
      </trkpt>
      <trkpt lat="46.04266" lon="4.67529">
        <ele>229</ele>
        <time>2017-10-29T12:19:49Z</time>
      </trkpt>
      <trkpt lat="46.0428" lon="4.67515">
        <ele>229</ele>
        <time>2017-10-29T12:21:49Z</time>
      </trkpt>
      <trkpt lat="46.04298" lon="4.675">
        <ele>230</ele>
        <time>2017-10-29T12:23:49Z</time>
      </trkpt>
      <trkpt lat="46.04314" lon="4.67483">
        <ele>231</ele>
        <time>2017-10-29T12:25:49Z</time>
      </trkpt>
      <trkpt lat="46.04331" lon="4.67465">
        <ele>232</ele>
        <time>2017-10-29T12:27:49Z</time>
      </trkpt>
      <trkpt lat="46.04345" lon="4.67448">
        <ele>232</ele>
        <time>2017-10-29T12:29:49Z</time>
      </trkpt>
      <trkpt lat="46.04361" lon="4.67423">
        <ele>233</ele>
        <time>2017-10-29T12:31:49Z</time>
      </trkpt>
      <trkpt lat="46.04364" lon="4.67417">
        <ele>233</ele>
        <time>2017-10-29T12:33:49Z</time>
      </trkpt>
      <trkpt lat="46.04389" lon="4.6738">
        <ele>234</ele>
        <time>2017-10-29T12:35:49Z</time>
      </trkpt>
      <trkpt lat="46.04398" lon="4.67365">
        <ele>235</ele>
        <time>2017-10-29T12:37:49Z</time>
      </trkpt>
      <trkpt lat="46.04413" lon="4.6734">
        <ele>236</ele>
        <time>2017-10-29T12:39:49Z</time>
      </trkpt>
      <trkpt lat="46.04438" lon="4.67297">
        <ele>237</ele>
        <time>2017-10-29T12:41:49Z</time>
      </trkpt>
      <trkpt lat="46.04497" lon="4.67202">
        <ele>239</ele>
        <time>2017-10-29T12:43:49Z</time>
      </trkpt>
      <trkpt lat="46.04544" lon="4.67124">
        <ele>242</ele>
        <time>2017-10-29T12:45:49Z</time>
      </trkpt>
      <trkpt lat="46.04565" lon="4.67088">
        <ele>244</ele>
        <time>2017-10-29T12:47:49Z</time>
      </trkpt>
      <trkpt lat="46.046" lon="4.67031">
        <ele>246</ele>
        <time>2017-10-29T12:49:49Z</time>
      </trkpt>
      <trkpt lat="46.04635" lon="4.66972">
        <ele>249</ele>
        <time>2017-10-29T12:51:49Z</time>
      </trkpt>
      <trkpt lat="46.04637" lon="4.66969">
        <ele>249</ele>
        <time>2017-10-29T12:53:49Z</time>
      </trkpt>
      <trkpt lat="46.04683" lon="4.66892">
        <ele>250</ele>
        <time>2017-10-29T12:55:49Z</time>
      </trkpt>
      <trkpt lat="46.04683" lon="4.6689">
        <ele>250</ele>
        <time>2017-10-29T12:57:49Z</time>
      </trkpt>
      <trkpt lat="46.047" lon="4.66864">
        <ele>251</ele>
        <time>2017-10-29T12:59:49Z</time>
      </trkpt>
      <trkpt lat="46.0477" lon="4.6675">
        <ele>253</ele>
        <time>2017-10-29T13:01:49Z</time>
      </trkpt>
      <trkpt lat="46.04791" lon="4.66716">
        <ele>253</ele>
        <time>2017-10-29T13:03:49Z</time>
      </trkpt>
      <trkpt lat="46.04792" lon="4.66715">
        <ele>253</ele>
        <time>2017-10-29T13:05:49Z</time>
      </trkpt>
      <trkpt lat="46.0482" lon="4.6667">
        <ele>254</ele>
        <time>2017-10-29T13:07:49Z</time>
      </trkpt>
      <trkpt lat="46.04843" lon="4.66633">
        <ele>254</ele>
        <time>2017-10-29T13:09:49Z</time>
      </trkpt>
      <trkpt lat="46.04884" lon="4.66568">
        <ele>254</ele>
        <time>2017-10-29T13:11:49Z</time>
      </trkpt>
      <trkpt lat="46.04917" lon="4.66517">
        <ele>253</ele>
        <time>2017-10-29T13:13:49Z</time>
      </trkpt>
      <trkpt lat="46.04952" lon="4.66464">
        <ele>252</ele>
        <time>2017-10-29T13:15:49Z</time>
      </trkpt>
      <trkpt lat="46.04957" lon="4.66454">
        <ele>252</ele>
        <time>2017-10-29T13:17:49Z</time>
      </trkpt>
      <trkpt lat="46.0496" lon="4.6645">
        <ele>252</ele>
        <time>2017-10-29T13:19:49Z</time>
      </trkpt>
      <trkpt lat="46.04968" lon="4.66445">
        <ele>251</ele>
        <time>2017-10-29T13:21:49Z</time>
      </trkpt>
      <trkpt lat="46.04976" lon="4.66437">
        <ele>251</ele>
        <time>2017-10-29T13:23:49Z</time>
      </trkpt>
      <trkpt lat="46.04989" lon="4.66432">
        <ele>251</ele>
        <time>2017-10-29T13:25:49Z</time>
      </trkpt>
      <trkpt lat="46.05008" lon="4.66429">
        <ele>250</ele>
        <time>2017-10-29T13:27:49Z</time>
      </trkpt>
      <trkpt lat="46.05023" lon="4.6643">
        <ele>250</ele>
        <time>2017-10-29T13:29:49Z</time>
      </trkpt>
      <trkpt lat="46.05064" lon="4.6643">
        <ele>249</ele>
        <time>2017-10-29T13:31:49Z</time>
      </trkpt>
      <trkpt lat="46.05104" lon="4.6643">
        <ele>248</ele>
        <time>2017-10-29T13:33:49Z</time>
      </trkpt>
      <trkpt lat="46.0512" lon="4.66431">
        <ele>248</ele>
        <time>2017-10-29T13:35:49Z</time>
      </trkpt>
      <trkpt lat="46.05145" lon="4.66425">
        <ele>247</ele>
        <time>2017-10-29T13:37:49Z</time>
      </trkpt>
      <trkpt lat="46.05161" lon="4.66418">
        <ele>246</ele>
        <time>2017-10-29T13:39:49Z</time>
      </trkpt>
      <trkpt lat="46.05169" lon="4.6641">
        <ele>246</ele>
        <time>2017-10-29T13:41:49Z</time>
      </trkpt>
      <trkpt lat="46.05176" lon="4.66399">
        <ele>245</ele>
        <time>2017-10-29T13:43:49Z</time>
      </trkpt>
      <trkpt lat="46.05186" lon="4.66384">
        <ele>244</ele>
        <time>2017-10-29T13:45:49Z</time>
      </trkpt>
      <trkpt lat="46.05195" lon="4.66365">
        <ele>243</ele>
        <time>2017-10-29T13:47:49Z</time>
      </trkpt>
      <trkpt lat="46.05202" lon="4.66345">
        <ele>242</ele>
        <time>2017-10-29T13:49:49Z</time>
      </trkpt>
      <trkpt lat="46.05232" lon="4.66266">
        <ele>240</ele>
        <time>2017-10-29T13:51:49Z</time>
      </trkpt>
      <trkpt lat="46.05235" lon="4.66259">
        <ele>240</ele>
        <time>2017-10-29T13:53:49Z</time>
      </trkpt>
      <trkpt lat="46.05273" lon="4.66157">
        <ele>236</ele>
        <time>2017-10-29T13:55:49Z</time>
      </trkpt>
      <trkpt lat="46.05286" lon="4.66113">
        <ele>234</ele>
        <time>2017-10-29T13:57:49Z</time>
      </trkpt>
      <trkpt lat="46.05291" lon="4.66085">
        <ele>233</ele>
        <time>2017-10-29T13:59:49Z</time>
      </trkpt>
      <trkpt lat="46.05292" lon="4.66076">
        <ele>233</ele>
        <time>2017-10-29T14:01:49Z</time>
      </trkpt>
      <trkpt lat="46.05295" lon="4.66068">
        <ele>233</ele>
        <time>2017-10-29T14:03:49Z</time>
      </trkpt>
      <trkpt lat="46.05297" lon="4.66061">
        <ele>232</ele>
        <time>2017-10-29T14:05:49Z</time>
      </trkpt>
      <trkpt lat="46.05315" lon="4.65973">
        <ele>231</ele>
        <time>2017-10-29T14:07:49Z</time>
      </trkpt>
      <trkpt lat="46.05318" lon="4.65954">
        <ele>230</ele>
        <time>2017-10-29T14:09:49Z</time>
      </trkpt>
      <trkpt lat="46.0533" lon="4.65901">
        <ele>229</ele>
        <time>2017-10-29T14:11:49Z</time>
      </trkpt>
      <trkpt lat="46.05338" lon="4.65859">
        <ele>228</ele>
        <time>2017-10-29T14:13:49Z</time>
      </trkpt>
      <trkpt lat="46.05345" lon="4.65822">
        <ele>228</ele>
        <time>2017-10-29T14:15:49Z</time>
      </trkpt>
      <trkpt lat="46.05351" lon="4.65792">
        <ele>228</ele>
        <time>2017-10-29T14:17:49Z</time>
      </trkpt>
      <trkpt lat="46.05359" lon="4.65748">
        <ele>229</ele>
        <time>2017-10-29T14:19:49Z</time>
      </trkpt>
      <trkpt lat="46.05364" lon="4.65722">
        <ele>229</ele>
        <time>2017-10-29T14:21:49Z</time>
      </trkpt>
      <trkpt lat="46.05366" lon="4.6571">
        <ele>229</ele>
        <time>2017-10-29T14:23:49Z</time>
      </trkpt>
      <trkpt lat="46.05368" lon="4.65701">
        <ele>229</ele>
        <time>2017-10-29T14:25:49Z</time>
      </trkpt>
      <trkpt lat="46.05374" lon="4.65682">
        <ele>229</ele>
        <time>2017-10-29T14:27:49Z</time>
      </trkpt>
      <trkpt lat="46.05381" lon="4.65663">
        <ele>229</ele>
        <time>2017-10-29T14:29:49Z</time>
      </trkpt>
      <trkpt lat="46.05389" lon="4.65648">
        <ele>229</ele>
        <time>2017-10-29T14:31:49Z</time>
      </trkpt>
      <trkpt lat="46.05404" lon="4.65624">
        <ele>228</ele>
        <time>2017-10-29T14:33:49Z</time>
      </trkpt>
      <trkpt lat="46.05428" lon="4.65591">
        <ele>227</ele>
        <time>2017-10-29T14:35:49Z</time>
      </trkpt>
      <trkpt lat="46.05445" lon="4.65569">
        <ele>227</ele>
        <time>2017-10-29T14:37:49Z</time>
      </trkpt>
      <trkpt lat="46.05466" lon="4.65543">
        <ele>227</ele>
        <time>2017-10-29T14:39:49Z</time>
      </trkpt>
      <trkpt lat="46.05483" lon="4.65524">
        <ele>228</ele>
        <time>2017-10-29T14:41:49Z</time>
      </trkpt>
      <trkpt lat="46.05493" lon="4.65515">
        <ele>228</ele>
        <time>2017-10-29T14:43:49Z</time>
      </trkpt>
      <trkpt lat="46.05506" lon="4.65505">
        <ele>229</ele>
        <time>2017-10-29T14:45:49Z</time>
      </trkpt>
      <trkpt lat="46.0552" lon="4.65495">
        <ele>229</ele>
        <time>2017-10-29T14:47:49Z</time>
      </trkpt>
      <trkpt lat="46.05526" lon="4.65491">
        <ele>229</ele>
        <time>2017-10-29T14:49:49Z</time>
      </trkpt>
      <trkpt lat="46.05539" lon="4.65483">
        <ele>229</ele>
        <time>2017-10-29T14:51:49Z</time>
      </trkpt>
      <trkpt lat="46.05551" lon="4.65475">
        <ele>229</ele>
        <time>2017-10-29T14:53:49Z</time>
      </trkpt>
      <trkpt lat="46.05562" lon="4.65468">
        <ele>229</ele>
        <time>2017-10-29T14:55:49Z</time>
      </trkpt>
      <trkpt lat="46.05589" lon="4.65452">
        <ele>229</ele>
        <time>2017-10-29T14:57:49Z</time>
      </trkpt>
      <trkpt lat="46.05596" lon="4.65448">
        <ele>229</ele>
        <time>2017-10-29T14:59:49Z</time>
      </trkpt>
      <trkpt lat="46.05604" lon="4.65444">
        <ele>230</ele>
        <time>2017-10-29T15:01:49Z</time>
      </trkpt>
      <trkpt lat="46.05605" lon="4.65444">
        <ele>230</ele>
        <time>2017-10-29T15:03:49Z</time>
      </trkpt>
      <trkpt lat="46.05613" lon="4.65442">
        <ele>230</ele>
        <time>2017-10-29T15:05:49Z</time>
      </trkpt>
      <trkpt lat="46.05624" lon="4.65441">
        <ele>231</ele>
        <time>2017-10-29T15:07:49Z</time>
      </trkpt>
      <trkpt lat="46.05639" lon="4.65443">
        <ele>232</ele>
        <time>2017-10-29T15:09:49Z</time>
      </trkpt>
      <trkpt lat="46.05647" lon="4.65446">
        <ele>232</ele>
        <time>2017-10-29T15:11:49Z</time>
      </trkpt>
      <trkpt lat="46.05647" lon="4.65446">
        <ele>232</ele>
        <time>2017-10-29T15:13:49Z</time>
      </trkpt>
      <trkpt lat="46.05648" lon="4.65434">
        <ele>233</ele>
        <time>2017-10-29T15:15:49Z</time>
      </trkpt>
      <trkpt lat="46.05652" lon="4.65402">
        <ele>234</ele>
        <time>2017-10-29T15:17:49Z</time>
      </trkpt>
      <trkpt lat="46.05651" lon="4.65396">
        <ele>234</ele>
        <time>2017-10-29T15:19:49Z</time>
      </trkpt>
      <trkpt lat="46.05652" lon="4.65378">
        <ele>234</ele>
        <time>2017-10-29T15:21:49Z</time>
      </trkpt>
      <trkpt lat="46.05653" lon="4.65332">
        <ele>233</ele>
        <time>2017-10-29T15:23:49Z</time>
      </trkpt>
      <trkpt lat="46.05651" lon="4.65312">
        <ele>233</ele>
        <time>2017-10-29T15:25:49Z</time>
      </trkpt>
      <trkpt lat="46.05649" lon="4.65297">
        <ele>233</ele>
        <time>2017-10-29T15:27:49Z</time>
      </trkpt>
      <trkpt lat="46.05645" lon="4.6527">
        <ele>232</ele>
        <time>2017-10-29T15:29:49Z</time>
      </trkpt>
      <trkpt lat="46.05635" lon="4.6522">
        <ele>232</ele>
        <time>2017-10-29T15:31:49Z</time>
      </trkpt>
      <trkpt lat="46.05599" lon="4.65054">
        <ele>236</ele>
        <time>2017-10-29T15:33:49Z</time>
      </trkpt>
      <trkpt lat="46.05581" lon="4.64984">
        <ele>236</ele>
        <time>2017-10-29T15:35:49Z</time>
      </trkpt>
      <trkpt lat="46.05581" lon="4.64974">
        <ele>236</ele>
        <time>2017-10-29T15:37:49Z</time>
      </trkpt>
      <trkpt lat="46.05581" lon="4.64969">
        <ele>236</ele>
        <time>2017-10-29T15:39:49Z</time>
      </trkpt>
      <trkpt lat="46.05582" lon="4.64962">
        <ele>236</ele>
        <time>2017-10-29T15:41:49Z</time>
      </trkpt>
      <trkpt lat="46.05583" lon="4.64956">
        <ele>235</ele>
        <time>2017-10-29T15:43:49Z</time>
      </trkpt>
      <trkpt lat="46.05586" lon="4.64949">
        <ele>236</ele>
        <time>2017-10-29T15:45:49Z</time>
      </trkpt>
      <trkpt lat="46.0559" lon="4.64943">
        <ele>236</ele>
        <time>2017-10-29T15:47:49Z</time>
      </trkpt>
      <trkpt lat="46.05593" lon="4.64938">
        <ele>236</ele>
        <time>2017-10-29T15:49:49Z</time>
      </trkpt>
      <trkpt lat="46.05597" lon="4.64934">
        <ele>236</ele>
        <time>2017-10-29T15:51:49Z</time>
      </trkpt>
      <trkpt lat="46.0562" lon="4.6491">
        <ele>237</ele>
        <time>2017-10-29T15:53:49Z</time>
      </trkpt>
      <trkpt lat="46.05648" lon="4.64882">
        <ele>237</ele>
        <time>2017-10-29T15:55:49Z</time>
      </trkpt>
      <trkpt lat="46.05662" lon="4.64867">
        <ele>236</ele>
        <time>2017-10-29T15:57:49Z</time>
      </trkpt>
      <trkpt lat="46.05667" lon="4.64859">
        <ele>236</ele>
        <time>2017-10-29T15:59:49Z</time>
      </trkpt>
      <trkpt lat="46.05677" lon="4.64843">
        <ele>237</ele>
        <time>2017-10-29T16:01:49Z</time>
      </trkpt>
      <trkpt lat="46.05679" lon="4.64838">
        <ele>237</ele>
        <time>2017-10-29T16:03:49Z</time>
      </trkpt>
      <trkpt lat="46.05682" lon="4.6483">
        <ele>237</ele>
        <time>2017-10-29T16:05:49Z</time>
      </trkpt>
      <trkpt lat="46.05685" lon="4.64812">
        <ele>237</ele>
        <time>2017-10-29T16:07:49Z</time>
      </trkpt>
      <trkpt lat="46.05685" lon="4.64797">
        <ele>237</ele>
        <time>2017-10-29T16:09:49Z</time>
      </trkpt>
      <trkpt lat="46.05683" lon="4.64779">
        <ele>237</ele>
        <time>2017-10-29T16:11:49Z</time>
      </trkpt>
      <trkpt lat="46.05681" lon="4.64767">
        <ele>236</ele>
        <time>2017-10-29T16:13:49Z</time>
      </trkpt>
      <trkpt lat="46.05676" lon="4.6475">
        <ele>236</ele>
        <time>2017-10-29T16:15:49Z</time>
      </trkpt>
      <trkpt lat="46.05654" lon="4.6467">
        <ele>238</ele>
        <time>2017-10-29T16:17:49Z</time>
      </trkpt>
      <trkpt lat="46.05641" lon="4.64624">
        <ele>238</ele>
        <time>2017-10-29T16:19:49Z</time>
      </trkpt>
      <trkpt lat="46.05605" lon="4.6451">
        <ele>237</ele>
        <time>2017-10-29T16:21:49Z</time>
      </trkpt>
      <trkpt lat="46.05597" lon="4.64485">
        <ele>237</ele>
        <time>2017-10-29T16:23:49Z</time>
      </trkpt>
      <trkpt lat="46.05589" lon="4.64448">
        <ele>238</ele>
        <time>2017-10-29T16:25:49Z</time>
      </trkpt>
      <trkpt lat="46.05583" lon="4.64413">
        <ele>238</ele>
        <time>2017-10-29T16:27:49Z</time>
      </trkpt>
      <trkpt lat="46.05581" lon="4.64397">
        <ele>239</ele>
        <time>2017-10-29T16:29:49Z</time>
      </trkpt>
      <trkpt lat="46.05579" lon="4.64371">
        <ele>239</ele>
        <time>2017-10-29T16:31:49Z</time>
      </trkpt>
      <trkpt lat="46.05577" lon="4.64351">
        <ele>240</ele>
        <time>2017-10-29T16:33:49Z</time>
      </trkpt>
      <trkpt lat="46.05577" lon="4.64321">
        <ele>240</ele>
        <time>2017-10-29T16:35:49Z</time>
      </trkpt>
      <trkpt lat="46.05577" lon="4.643">
        <ele>241</ele>
        <time>2017-10-29T16:37:49Z</time>
      </trkpt>
      <trkpt lat="46.05578" lon="4.64278">
        <ele>241</ele>
        <time>2017-10-29T16:39:49Z</time>
      </trkpt>
      <trkpt lat="46.0558" lon="4.64254">
        <ele>241</ele>
        <time>2017-10-29T16:41:49Z</time>
      </trkpt>
      <trkpt lat="46.05582" lon="4.6424">
        <ele>241</ele>
        <time>2017-10-29T16:43:49Z</time>
      </trkpt>
      <trkpt lat="46.05584" lon="4.64227">
        <ele>241</ele>
        <time>2017-10-29T16:45:49Z</time>
      </trkpt>
      <trkpt lat="46.05589" lon="4.64206">
        <ele>242</ele>
        <time>2017-10-29T16:47:49Z</time>
      </trkpt>
      <trkpt lat="46.05596" lon="4.64183">
        <ele>243</ele>
        <time>2017-10-29T16:49:49Z</time>
      </trkpt>
      <trkpt lat="46.05603" lon="4.64164">
        <ele>244</ele>
        <time>2017-10-29T16:51:49Z</time>
      </trkpt>
      <trkpt lat="46.05616" lon="4.64128">
        <ele>245</ele>
        <time>2017-10-29T16:53:49Z</time>
      </trkpt>
      <trkpt lat="46.05627" lon="4.641">
        <ele>245</ele>
        <time>2017-10-29T16:55:49Z</time>
      </trkpt>
      <trkpt lat="46.05638" lon="4.64059">
        <ele>246</ele>
        <time>2017-10-29T16:57:49Z</time>
      </trkpt>
      <trkpt lat="46.05643" lon="4.64028">
        <ele>246</ele>
        <time>2017-10-29T16:59:49Z</time>
      </trkpt>
      <trkpt lat="46.05647" lon="4.63996">
        <ele>247</ele>
        <time>2017-10-29T17:01:49Z</time>
      </trkpt>
      <trkpt lat="46.05647" lon="4.6396">
        <ele>245</ele>
        <time>2017-10-29T17:03:49Z</time>
      </trkpt>
      <trkpt lat="46.05644" lon="4.63899">
        <ele>244</ele>
        <time>2017-10-29T17:05:49Z</time>
      </trkpt>
      <trkpt lat="46.05646" lon="4.63878">
        <ele>244</ele>
        <time>2017-10-29T17:07:49Z</time>
      </trkpt>
      <trkpt lat="46.05648" lon="4.63858">
        <ele>244</ele>
        <time>2017-10-29T17:09:49Z</time>
      </trkpt>
      <trkpt lat="46.05649" lon="4.63848">
        <ele>244</ele>
        <time>2017-10-29T17:11:49Z</time>
      </trkpt>
      <trkpt lat="46.05654" lon="4.63822">
        <ele>244</ele>
        <time>2017-10-29T17:13:49Z</time>
      </trkpt>
      <trkpt lat="46.0566" lon="4.63798">
        <ele>244</ele>
        <time>2017-10-29T17:15:49Z</time>
      </trkpt>
      <trkpt lat="46.05667" lon="4.63777">
        <ele>243</ele>
        <time>2017-10-29T17:17:49Z</time>
      </trkpt>
      <trkpt lat="46.05675" lon="4.63759">
        <ele>244</ele>
        <time>2017-10-29T17:19:49Z</time>
      </trkpt>
      <trkpt lat="46.05684" lon="4.63732">
        <ele>244</ele>
        <time>2017-10-29T17:21:49Z</time>
      </trkpt>
      <trkpt lat="46.05687" lon="4.63719">
        <ele>244</ele>
        <time>2017-10-29T17:23:49Z</time>
      </trkpt>
      <trkpt lat="46.05685" lon="4.63701">
        <ele>244</ele>
        <time>2017-10-29T17:25:49Z</time>
      </trkpt>
      <trkpt lat="46.05682" lon="4.63693">
        <ele>244</ele>
        <time>2017-10-29T17:27:49Z</time>
      </trkpt>
      <trkpt lat="46.05664" lon="4.63658">
        <ele>244</ele>
        <time>2017-10-29T17:29:49Z</time>
      </trkpt>
      <trkpt lat="46.05655" lon="4.63643">
        <ele>244</ele>
        <time>2017-10-29T17:31:49Z</time>
      </trkpt>
      <trkpt lat="46.05647" lon="4.63627">
        <ele>244</ele>
        <time>2017-10-29T17:33:49Z</time>
      </trkpt>
      <trkpt lat="46.05639" lon="4.63607">
        <ele>244</ele>
        <time>2017-10-29T17:35:49Z</time>
      </trkpt>
      <trkpt lat="46.05636" lon="4.63597">
        <ele>245</ele>
        <time>2017-10-29T17:37:49Z</time>
      </trkpt>
      <trkpt lat="46.05634" lon="4.63587">
        <ele>245</ele>
        <time>2017-10-29T17:39:49Z</time>
      </trkpt>
      <trkpt lat="46.05632" lon="4.63568">
        <ele>245</ele>
        <time>2017-10-29T17:41:49Z</time>
      </trkpt>
      <trkpt lat="46.05633" lon="4.63549">
        <ele>245</ele>
        <time>2017-10-29T17:43:49Z</time>
      </trkpt>
      <trkpt lat="46.05633" lon="4.6353">
        <ele>245</ele>
        <time>2017-10-29T17:45:49Z</time>
      </trkpt>
      <trkpt lat="46.05638" lon="4.63484">
        <ele>246</ele>
        <time>2017-10-29T17:47:49Z</time>
      </trkpt>
      <trkpt lat="46.0564" lon="4.63462">
        <ele>246</ele>
        <time>2017-10-29T17:49:49Z</time>
      </trkpt>
      <trkpt lat="46.05641" lon="4.63445">
        <ele>245</ele>
        <time>2017-10-29T17:51:49Z</time>
      </trkpt>
      <trkpt lat="46.05644" lon="4.63424">
        <ele>245</ele>
        <time>2017-10-29T17:53:49Z</time>
      </trkpt>
      <trkpt lat="46.05648" lon="4.63408">
        <ele>245</ele>
        <time>2017-10-29T17:55:49Z</time>
      </trkpt>
      <trkpt lat="46.0565" lon="4.63402">
        <ele>245</ele>
        <time>2017-10-29T17:57:49Z</time>
      </trkpt>
      <trkpt lat="46.05652" lon="4.63397">
        <ele>245</ele>
        <time>2017-10-29T17:59:49Z</time>
      </trkpt>
      <trkpt lat="46.05657" lon="4.63387">
        <ele>246</ele>
        <time>2017-10-29T18:01:49Z</time>
      </trkpt>
      <trkpt lat="46.0568" lon="4.6335">
        <ele>246</ele>
        <time>2017-10-29T18:03:49Z</time>
      </trkpt>
      <trkpt lat="46.05683" lon="4.63343">
        <ele>246</ele>
        <time>2017-10-29T18:05:49Z</time>
      </trkpt>
      <trkpt lat="46.05686" lon="4.63335">
        <ele>246</ele>
        <time>2017-10-29T18:07:49Z</time>
      </trkpt>
      <trkpt lat="46.05689" lon="4.63328">
        <ele>247</ele>
        <time>2017-10-29T18:09:49Z</time>
      </trkpt>
      <trkpt lat="46.05691" lon="4.63322">
        <ele>247</ele>
        <time>2017-10-29T18:11:49Z</time>
      </trkpt>
      <trkpt lat="46.05694" lon="4.63309">
        <ele>247</ele>
        <time>2017-10-29T18:13:49Z</time>
      </trkpt>
      <trkpt lat="46.05696" lon="4.63301">
        <ele>247</ele>
        <time>2017-10-29T18:15:49Z</time>
      </trkpt>
      <trkpt lat="46.05701" lon="4.63275">
        <ele>247</ele>
        <time>2017-10-29T18:17:49Z</time>
      </trkpt>
      <trkpt lat="46.05703" lon="4.63265">
        <ele>247</ele>
        <time>2017-10-29T18:19:49Z</time>
      </trkpt>
      <trkpt lat="46.05704" lon="4.63247">
        <ele>248</ele>
        <time>2017-10-29T18:21:49Z</time>
      </trkpt>
      <trkpt lat="46.05704" lon="4.63236">
        <ele>248</ele>
        <time>2017-10-29T18:23:49Z</time>
      </trkpt>
      <trkpt lat="46.05703" lon="4.63221">
        <ele>248</ele>
        <time>2017-10-29T18:25:49Z</time>
      </trkpt>
      <trkpt lat="46.05702" lon="4.63201">
        <ele>248</ele>
        <time>2017-10-29T18:27:49Z</time>
      </trkpt>
      <trkpt lat="46.057" lon="4.63185">
        <ele>249</ele>
        <time>2017-10-29T18:29:49Z</time>
      </trkpt>
      <trkpt lat="46.0569" lon="4.63123">
        <ele>250</ele>
        <time>2017-10-29T18:31:49Z</time>
      </trkpt>
      <trkpt lat="46.05685" lon="4.63099">
        <ele>251</ele>
        <time>2017-10-29T18:33:49Z</time>
      </trkpt>
      <trkpt lat="46.05684" lon="4.63089">
        <ele>251</ele>
        <time>2017-10-29T18:35:49Z</time>
      </trkpt>
      <trkpt lat="46.05683" lon="4.63077">
        <ele>251</ele>
        <time>2017-10-29T18:37:49Z</time>
      </trkpt>
      <trkpt lat="46.05682" lon="4.63063">
        <ele>251</ele>
        <time>2017-10-29T18:39:49Z</time>
      </trkpt>
      <trkpt lat="46.05683" lon="4.6305">
        <ele>251</ele>
        <time>2017-10-29T18:41:49Z</time>
      </trkpt>
      <trkpt lat="46.05687" lon="4.62997">
        <ele>250</ele>
        <time>2017-10-29T18:43:49Z</time>
      </trkpt>
      <trkpt lat="46.05689" lon="4.62961">
        <ele>250</ele>
        <time>2017-10-29T18:45:49Z</time>
      </trkpt>
      <trkpt lat="46.05694" lon="4.62916">
        <ele>249</ele>
        <time>2017-10-29T18:47:49Z</time>
      </trkpt>
      <trkpt lat="46.05697" lon="4.6289">
        <ele>250</ele>
        <time>2017-10-29T18:49:49Z</time>
      </trkpt>
      <trkpt lat="46.057" lon="4.62871">
        <ele>250</ele>
        <time>2017-10-29T18:51:49Z</time>
      </trkpt>
      <trkpt lat="46.05704" lon="4.62845">
        <ele>251</ele>
        <time>2017-10-29T18:53:49Z</time>
      </trkpt>
      <trkpt lat="46.05707" lon="4.62832">
        <ele>251</ele>
        <time>2017-10-29T18:55:49Z</time>
      </trkpt>
      <trkpt lat="46.05712" lon="4.62817">
        <ele>251</ele>
        <time>2017-10-29T18:57:49Z</time>
      </trkpt>
      <trkpt lat="46.0573" lon="4.6277">
        <ele>251</ele>
        <time>2017-10-29T18:59:49Z</time>
      </trkpt>
      <trkpt lat="46.05734" lon="4.62754">
        <ele>251</ele>
        <time>2017-10-29T19:01:49Z</time>
      </trkpt>
      <trkpt lat="46.05738" lon="4.6274">
        <ele>251</ele>
        <time>2017-10-29T19:03:49Z</time>
      </trkpt>
      <trkpt lat="46.05743" lon="4.62716">
        <ele>252</ele>
        <time>2017-10-29T19:05:49Z</time>
      </trkpt>
      <trkpt lat="46.05746" lon="4.62692">
        <ele>252</ele>
        <time>2017-10-29T19:07:49Z</time>
      </trkpt>
      <trkpt lat="46.05748" lon="4.62661">
        <ele>252</ele>
        <time>2017-10-29T19:09:49Z</time>
      </trkpt>
      <trkpt lat="46.0575" lon="4.62638">
        <ele>252</ele>
        <time>2017-10-29T19:11:49Z</time>
      </trkpt>
      <trkpt lat="46.05752" lon="4.6262">
        <ele>253</ele>
        <time>2017-10-29T19:13:49Z</time>
      </trkpt>
      <trkpt lat="46.05755" lon="4.62602">
        <ele>253</ele>
        <time>2017-10-29T19:15:49Z</time>
      </trkpt>
      <trkpt lat="46.0576" lon="4.62581">
        <ele>253</ele>
        <time>2017-10-29T19:17:49Z</time>
      </trkpt>
      <trkpt lat="46.05764" lon="4.6257">
        <ele>253</ele>
        <time>2017-10-29T19:19:49Z</time>
      </trkpt>
      <trkpt lat="46.05771" lon="4.6255">
        <ele>253</ele>
        <time>2017-10-29T19:21:49Z</time>
      </trkpt>
      <trkpt lat="46.05777" lon="4.62537">
        <ele>254</ele>
        <time>2017-10-29T19:23:49Z</time>
      </trkpt>
      <trkpt lat="46.05783" lon="4.62529">
        <ele>254</ele>
        <time>2017-10-29T19:25:49Z</time>
      </trkpt>
      <trkpt lat="46.05788" lon="4.62521">
        <ele>254</ele>
        <time>2017-10-29T19:27:49Z</time>
      </trkpt>
      <trkpt lat="46.0581" lon="4.62487">
        <ele>253</ele>
        <time>2017-10-29T19:29:49Z</time>
      </trkpt>
      <trkpt lat="46.05848" lon="4.62439">
        <ele>254</ele>
        <time>2017-10-29T19:31:49Z</time>
      </trkpt>
      <trkpt lat="46.05861" lon="4.62421">
        <ele>254</ele>
        <time>2017-10-29T19:33:49Z</time>
      </trkpt>
      <trkpt lat="46.05875" lon="4.62395">
        <ele>255</ele>
        <time>2017-10-29T19:35:49Z</time>
      </trkpt>
      <trkpt lat="46.05882" lon="4.6238">
        <ele>255</ele>
        <time>2017-10-29T19:37:49Z</time>
      </trkpt>
      <trkpt lat="46.05884" lon="4.62372">
        <ele>255</ele>
        <time>2017-10-29T19:39:49Z</time>
      </trkpt>
      <trkpt lat="46.0589" lon="4.62349">
        <ele>255</ele>
        <time>2017-10-29T19:41:49Z</time>
      </trkpt>
      <trkpt lat="46.05891" lon="4.62342">
        <ele>255</ele>
        <time>2017-10-29T19:43:49Z</time>
      </trkpt>
      <trkpt lat="46.05893" lon="4.62328">
        <ele>254</ele>
        <time>2017-10-29T19:45:49Z</time>
      </trkpt>
      <trkpt lat="46.05893" lon="4.62315">
        <ele>254</ele>
        <time>2017-10-29T19:47:49Z</time>
      </trkpt>
      <trkpt lat="46.05893" lon="4.62308">
        <ele>254</ele>
        <time>2017-10-29T19:49:49Z</time>
      </trkpt>
      <trkpt lat="46.05892" lon="4.62296">
        <ele>254</ele>
        <time>2017-10-29T19:51:49Z</time>
      </trkpt>
      <trkpt lat="46.05891" lon="4.62255">
        <ele>254</ele>
        <time>2017-10-29T19:53:49Z</time>
      </trkpt>
      <trkpt lat="46.05892" lon="4.62243">
        <ele>254</ele>
        <time>2017-10-29T19:55:49Z</time>
      </trkpt>
      <trkpt lat="46.05895" lon="4.62208">
        <ele>255</ele>
        <time>2017-10-29T19:57:49Z</time>
      </trkpt>
      <trkpt lat="46.05898" lon="4.62179">
        <ele>255</ele>
        <time>2017-10-29T19:59:49Z</time>
      </trkpt>
      <trkpt lat="46.05901" lon="4.62149">
        <ele>256</ele>
        <time>2017-10-29T20:01:49Z</time>
      </trkpt>
      <trkpt lat="46.05903" lon="4.62118">
        <ele>256</ele>
        <time>2017-10-29T20:03:49Z</time>
      </trkpt>
      <trkpt lat="46.05904" lon="4.62104">
        <ele>257</ele>
        <time>2017-10-29T20:05:49Z</time>
      </trkpt>
      <trkpt lat="46.05905" lon="4.62045">
        <ele>257</ele>
        <time>2017-10-29T20:07:49Z</time>
      </trkpt>
      <trkpt lat="46.05905" lon="4.62021">
        <ele>257</ele>
        <time>2017-10-29T20:09:49Z</time>
      </trkpt>
      <trkpt lat="46.05903" lon="4.61978">
        <ele>257</ele>
        <time>2017-10-29T20:11:49Z</time>
      </trkpt>
      <trkpt lat="46.05903" lon="4.61955">
        <ele>258</ele>
        <time>2017-10-29T20:13:49Z</time>
      </trkpt>
      <trkpt lat="46.05901" lon="4.6193">
        <ele>258</ele>
        <time>2017-10-29T20:15:49Z</time>
      </trkpt>
      <trkpt lat="46.05897" lon="4.61894">
        <ele>258</ele>
        <time>2017-10-29T20:17:49Z</time>
      </trkpt>
      <trkpt lat="46.05894" lon="4.61859">
        <ele>258</ele>
        <time>2017-10-29T20:19:49Z</time>
      </trkpt>
      <trkpt lat="46.05892" lon="4.61828">
        <ele>258</ele>
        <time>2017-10-29T20:21:49Z</time>
      </trkpt>
      <trkpt lat="46.05892" lon="4.61814">
        <ele>259</ele>
        <time>2017-10-29T20:23:49Z</time>
      </trkpt>
      <trkpt lat="46.05892" lon="4.61796">
        <ele>259</ele>
        <time>2017-10-29T20:25:49Z</time>
      </trkpt>
      <trkpt lat="46.05892" lon="4.61766">
        <ele>260</ele>
        <time>2017-10-29T20:27:49Z</time>
      </trkpt>
      <trkpt lat="46.05891" lon="4.61699">
        <ele>262</ele>
        <time>2017-10-29T20:29:49Z</time>
      </trkpt>
      <trkpt lat="46.05892" lon="4.61667">
        <ele>263</ele>
        <time>2017-10-29T20:31:49Z</time>
      </trkpt>
      <trkpt lat="46.05893" lon="4.61649">
        <ele>263</ele>
        <time>2017-10-29T20:33:49Z</time>
      </trkpt>
      <trkpt lat="46.05895" lon="4.61628">
        <ele>263</ele>
        <time>2017-10-29T20:35:49Z</time>
      </trkpt>
      <trkpt lat="46.05898" lon="4.61602">
        <ele>263</ele>
        <time>2017-10-29T20:37:49Z</time>
      </trkpt>
      <trkpt lat="46.05902" lon="4.61577">
        <ele>263</ele>
        <time>2017-10-29T20:39:49Z</time>
      </trkpt>
      <trkpt lat="46.0591" lon="4.61539">
        <ele>263</ele>
        <time>2017-10-29T20:41:49Z</time>
      </trkpt>
      <trkpt lat="46.05915" lon="4.61513">
        <ele>263</ele>
        <time>2017-10-29T20:43:49Z</time>
      </trkpt>
      <trkpt lat="46.05926" lon="4.61463">
        <ele>264</ele>
        <time>2017-10-29T20:45:49Z</time>
      </trkpt>
      <trkpt lat="46.05931" lon="4.61433">
        <ele>265</ele>
        <time>2017-10-29T20:47:49Z</time>
      </trkpt>
      <trkpt lat="46.05934" lon="4.61421">
        <ele>266</ele>
        <time>2017-10-29T20:49:49Z</time>
      </trkpt>
      <trkpt lat="46.05943" lon="4.61368">
        <ele>267</ele>
        <time>2017-10-29T20:51:49Z</time>
      </trkpt>
      <trkpt lat="46.05945" lon="4.61338">
        <ele>267</ele>
        <time>2017-10-29T20:53:49Z</time>
      </trkpt>
      <trkpt lat="46.05944" lon="4.61322">
        <ele>267</ele>
        <time>2017-10-29T20:55:49Z</time>
      </trkpt>
      <trkpt lat="46.05943" lon="4.61301">
        <ele>268</ele>
        <time>2017-10-29T20:57:49Z</time>
      </trkpt>
      <trkpt lat="46.05936" lon="4.61261">
        <ele>268</ele>
        <time>2017-10-29T20:59:49Z</time>
      </trkpt>
      <trkpt lat="46.05928" lon="4.61218">
        <ele>269</ele>
        <time>2017-10-29T21:01:49Z</time>
      </trkpt>
      <trkpt lat="46.05919" lon="4.61177">
        <ele>269</ele>
        <time>2017-10-29T21:03:49Z</time>
      </trkpt>
      <trkpt lat="46.05909" lon="4.61122">
        <ele>269</ele>
        <time>2017-10-29T21:05:49Z</time>
      </trkpt>
      <trkpt lat="46.05899" lon="4.61074">
        <ele>270</ele>
        <time>2017-10-29T21:07:49Z</time>
      </trkpt>
      <trkpt lat="46.05891" lon="4.61037">
        <ele>270</ele>
        <time>2017-10-29T21:09:49Z</time>
      </trkpt>
      <trkpt lat="46.05886" lon="4.61011">
        <ele>270</ele>
        <time>2017-10-29T21:11:49Z</time>
      </trkpt>
      <trkpt lat="46.05884" lon="4.60982">
        <ele>271</ele>
        <time>2017-10-29T21:13:49Z</time>
      </trkpt>
      <trkpt lat="46.05884" lon="4.60956">
        <ele>271</ele>
        <time>2017-10-29T21:15:49Z</time>
      </trkpt>
      <trkpt lat="46.05885" lon="4.60929">
        <ele>272</ele>
        <time>2017-10-29T21:17:49Z</time>
      </trkpt>
      <trkpt lat="46.0589" lon="4.60866">
        <ele>273</ele>
        <time>2017-10-29T21:19:49Z</time>
      </trkpt>
      <trkpt lat="46.05894" lon="4.60816">
        <ele>274</ele>
        <time>2017-10-29T21:21:49Z</time>
      </trkpt>
      <trkpt lat="46.05895" lon="4.60799">
        <ele>275</ele>
        <time>2017-10-29T21:23:49Z</time>
      </trkpt>
      <trkpt lat="46.05895" lon="4.60799">
        <ele>275</ele>
        <time>2017-10-29T21:25:49Z</time>
      </trkpt>
      <trkpt lat="46.05923" lon="4.60743">
        <ele>277</ele>
        <time>2017-10-29T21:27:49Z</time>
      </trkpt>
      <trkpt lat="46.05928" lon="4.60735">
        <ele>277</ele>
        <time>2017-10-29T21:29:49Z</time>
      </trkpt>
      <trkpt lat="46.05938" lon="4.60719">
        <ele>277</ele>
        <time>2017-10-29T21:31:49Z</time>
      </trkpt>
      <trkpt lat="46.05947" lon="4.60704">
        <ele>278</ele>
        <time>2017-10-29T21:33:49Z</time>
      </trkpt>
      <trkpt lat="46.05957" lon="4.60694">
        <ele>278</ele>
        <time>2017-10-29T21:35:49Z</time>
      </trkpt>
      <trkpt lat="46.05981" lon="4.60671">
        <ele>278</ele>
        <time>2017-10-29T21:37:49Z</time>
      </trkpt>
      <trkpt lat="46.06009" lon="4.60647">
        <ele>278</ele>
        <time>2017-10-29T21:39:49Z</time>
      </trkpt>
      <trkpt lat="46.06041" lon="4.6062">
        <ele>279</ele>
        <time>2017-10-29T21:41:49Z</time>
      </trkpt>
      <trkpt lat="46.06073" lon="4.60588">
        <ele>279</ele>
        <time>2017-10-29T21:43:49Z</time>
      </trkpt>
      <trkpt lat="46.06085" lon="4.60571">
        <ele>279</ele>
        <time>2017-10-29T21:45:49Z</time>
      </trkpt>
      <trkpt lat="46.06095" lon="4.60552">
        <ele>280</ele>
        <time>2017-10-29T21:47:49Z</time>
      </trkpt>
      <trkpt lat="46.06112" lon="4.60513">
        <ele>281</ele>
        <time>2017-10-29T21:49:49Z</time>
      </trkpt>
      <trkpt lat="46.06139" lon="4.60449">
        <ele>283</ele>
        <time>2017-10-29T21:51:49Z</time>
      </trkpt>
      <trkpt lat="46.06147" lon="4.60433">
        <ele>283</ele>
        <time>2017-10-29T21:53:49Z</time>
      </trkpt>
      <trkpt lat="46.0615" lon="4.60428">
        <ele>283</ele>
        <time>2017-10-29T21:55:49Z</time>
      </trkpt>
      <trkpt lat="46.06188" lon="4.60374">
        <ele>286</ele>
        <time>2017-10-29T21:57:49Z</time>
      </trkpt>
      <trkpt lat="46.06227" lon="4.60316">
        <ele>287</ele>
        <time>2017-10-29T21:59:49Z</time>
      </trkpt>
      <trkpt lat="46.0624" lon="4.60295">
        <ele>288</ele>
        <time>2017-10-29T22:01:49Z</time>
      </trkpt>
      <trkpt lat="46.0626" lon="4.60265">
        <ele>290</ele>
        <time>2017-10-29T22:03:49Z</time>
      </trkpt>
      <trkpt lat="46.06267" lon="4.60254">
        <ele>290</ele>
        <time>2017-10-29T22:05:49Z</time>
      </trkpt>
      <trkpt lat="46.06271" lon="4.60245">
        <ele>291</ele>
        <time>2017-10-29T22:07:49Z</time>
      </trkpt>
      <trkpt lat="46.06278" lon="4.60221">
        <ele>292</ele>
        <time>2017-10-29T22:09:49Z</time>
      </trkpt>
      <trkpt lat="46.0628" lon="4.60207">
        <ele>293</ele>
        <time>2017-10-29T22:11:49Z</time>
      </trkpt>
      <trkpt lat="46.06289" lon="4.60151">
        <ele>296</ele>
        <time>2017-10-29T22:13:49Z</time>
      </trkpt>
      <trkpt lat="46.0629" lon="4.60144">
        <ele>296</ele>
        <time>2017-10-29T22:15:49Z</time>
      </trkpt>
      <trkpt lat="46.0629" lon="4.60143">
        <ele>296</ele>
        <time>2017-10-29T22:17:49Z</time>
      </trkpt>
      <trkpt lat="46.06291" lon="4.6013">
        <ele>297</ele>
        <time>2017-10-29T22:19:49Z</time>
      </trkpt>
      <trkpt lat="46.06291" lon="4.60122">
        <ele>297</ele>
        <time>2017-10-29T22:21:49Z</time>
      </trkpt>
      <trkpt lat="46.06293" lon="4.60105">
        <ele>297</ele>
        <time>2017-10-29T22:23:49Z</time>
      </trkpt>
      <trkpt lat="46.06295" lon="4.60062">
        <ele>297</ele>
        <time>2017-10-29T22:25:49Z</time>
      </trkpt>
      <trkpt lat="46.06297" lon="4.60025">
        <ele>297</ele>
        <time>2017-10-29T22:27:49Z</time>
      </trkpt>
      <trkpt lat="46.063" lon="4.60005">
        <ele>297</ele>
        <time>2017-10-29T22:29:49Z</time>
      </trkpt>
      <trkpt lat="46.063" lon="4.59978">
        <ele>296</ele>
        <time>2017-10-29T22:31:49Z</time>
      </trkpt>
      <trkpt lat="46.06301" lon="4.59965">
        <ele>297</ele>
        <time>2017-10-29T22:33:49Z</time>
      </trkpt>
      <trkpt lat="46.06302" lon="4.59943">
        <ele>297</ele>
        <time>2017-10-29T22:35:49Z</time>
      </trkpt>
      <trkpt lat="46.06305" lon="4.59926">
        <ele>297</ele>
        <time>2017-10-29T22:37:49Z</time>
      </trkpt>
      <trkpt lat="46.06309" lon="4.59905">
        <ele>297</ele>
        <time>2017-10-29T22:39:49Z</time>
      </trkpt>
      <trkpt lat="46.06312" lon="4.59887">
        <ele>297</ele>
        <time>2017-10-29T22:41:49Z</time>
      </trkpt>
      <trkpt lat="46.06319" lon="4.59844">
        <ele>298</ele>
        <time>2017-10-29T22:43:49Z</time>
      </trkpt>
      <trkpt lat="46.06322" lon="4.59816">
        <ele>298</ele>
        <time>2017-10-29T22:45:49Z</time>
      </trkpt>
      <trkpt lat="46.0632" lon="4.59807">
        <ele>298</ele>
        <time>2017-10-29T22:47:49Z</time>
      </trkpt>
      <trkpt lat="46.06318" lon="4.59797">
        <ele>298</ele>
        <time>2017-10-29T22:49:49Z</time>
      </trkpt>
      <trkpt lat="46.06315" lon="4.59786">
        <ele>297</ele>
        <time>2017-10-29T22:51:49Z</time>
      </trkpt>
      <trkpt lat="46.0631" lon="4.59777">
        <ele>297</ele>
        <time>2017-10-29T22:53:49Z</time>
      </trkpt>
      <trkpt lat="46.06307" lon="4.5977">
        <ele>297</ele>
        <time>2017-10-29T22:55:49Z</time>
      </trkpt>
      <trkpt lat="46.06303" lon="4.59761">
        <ele>297</ele>
        <time>2017-10-29T22:57:49Z</time>
      </trkpt>
      <trkpt lat="46.06285" lon="4.59732">
        <ele>297</ele>
        <time>2017-10-29T22:59:49Z</time>
      </trkpt>
      <trkpt lat="46.0627" lon="4.59707">
        <ele>297</ele>
        <time>2017-10-29T23:01:49Z</time>
      </trkpt>
      <trkpt lat="46.06255" lon="4.59674">
        <ele>299</ele>
        <time>2017-10-29T23:03:49Z</time>
      </trkpt>
      <trkpt lat="46.06248" lon="4.59657">
        <ele>299</ele>
        <time>2017-10-29T23:05:49Z</time>
      </trkpt>
      <trkpt lat="46.06243" lon="4.59646">
        <ele>299</ele>
        <time>2017-10-29T23:07:49Z</time>
      </trkpt>
      <trkpt lat="46.0624" lon="4.59634">
        <ele>299</ele>
        <time>2017-10-29T23:09:49Z</time>
      </trkpt>
      <trkpt lat="46.06237" lon="4.5962">
        <ele>299</ele>
        <time>2017-10-29T23:11:49Z</time>
      </trkpt>
      <trkpt lat="46.06235" lon="4.59603">
        <ele>299</ele>
        <time>2017-10-29T23:13:49Z</time>
      </trkpt>
      <trkpt lat="46.06235" lon="4.59595">
        <ele>299</ele>
        <time>2017-10-29T23:15:49Z</time>
      </trkpt>
      <trkpt lat="46.06236" lon="4.5958">
        <ele>300</ele>
        <time>2017-10-29T23:17:49Z</time>
      </trkpt>
      <trkpt lat="46.0624" lon="4.5956">
        <ele>300</ele>
        <time>2017-10-29T23:19:49Z</time>
      </trkpt>
      <trkpt lat="46.06243" lon="4.59552">
        <ele>300</ele>
        <time>2017-10-29T23:21:49Z</time>
      </trkpt>
      <trkpt lat="46.06248" lon="4.59537">
        <ele>300</ele>
        <time>2017-10-29T23:23:49Z</time>
      </trkpt>
      <trkpt lat="46.06264" lon="4.59482">
        <ele>301</ele>
        <time>2017-10-29T23:25:49Z</time>
      </trkpt>
      <trkpt lat="46.0627" lon="4.59458">
        <ele>301</ele>
        <time>2017-10-29T23:27:49Z</time>
      </trkpt>
      <trkpt lat="46.06274" lon="4.59437">
        <ele>302</ele>
        <time>2017-10-29T23:29:49Z</time>
      </trkpt>
      <trkpt lat="46.06276" lon="4.59416">
        <ele>302</ele>
        <time>2017-10-29T23:31:49Z</time>
      </trkpt>
      <trkpt lat="46.06277" lon="4.59392">
        <ele>302</ele>
        <time>2017-10-29T23:33:49Z</time>
      </trkpt>
      <trkpt lat="46.06278" lon="4.59358">
        <ele>303</ele>
        <time>2017-10-29T23:35:49Z</time>
      </trkpt>
      <trkpt lat="46.06278" lon="4.5934">
        <ele>303</ele>
        <time>2017-10-29T23:37:49Z</time>
      </trkpt>
      <trkpt lat="46.06278" lon="4.59303">
        <ele>305</ele>
        <time>2017-10-29T23:39:49Z</time>
      </trkpt>
      <trkpt lat="46.06277" lon="4.59263">
        <ele>306</ele>
        <time>2017-10-29T23:41:49Z</time>
      </trkpt>
      <trkpt lat="46.06272" lon="4.59221">
        <ele>307</ele>
        <time>2017-10-29T23:43:49Z</time>
      </trkpt>
      <trkpt lat="46.06267" lon="4.59184">
        <ele>306</ele>
        <time>2017-10-29T23:45:49Z</time>
      </trkpt>
      <trkpt lat="46.06262" lon="4.59148">
        <ele>306</ele>
        <time>2017-10-29T23:47:49Z</time>
      </trkpt>
      <trkpt lat="46.06253" lon="4.59102">
        <ele>304</ele>
        <time>2017-10-29T23:49:49Z</time>
      </trkpt>
      <trkpt lat="46.06249" lon="4.59082">
        <ele>304</ele>
        <time>2017-10-29T23:51:49Z</time>
      </trkpt>
      <trkpt lat="46.06246" lon="4.59071">
        <ele>305</ele>
        <time>2017-10-29T23:53:49Z</time>
      </trkpt>
      <trkpt lat="46.06243" lon="4.59056">
        <ele>305</ele>
        <time>2017-10-29T23:55:49Z</time>
      </trkpt>
      <trkpt lat="46.06238" lon="4.59036">
        <ele>306</ele>
        <time>2017-10-29T23:57:49Z</time>
      </trkpt>
      <trkpt lat="46.06231" lon="4.59001">
        <ele>307</ele>
        <time>2017-10-29T23:59:49Z</time>
      </trkpt>
      <trkpt lat="46.06229" lon="4.58984">
        <ele>307</ele>
        <time>2017-10-30T00:01:49Z</time>
      </trkpt>
      <trkpt lat="46.06228" lon="4.5897">
        <ele>307</ele>
        <time>2017-10-30T00:03:49Z</time>
      </trkpt>
      <trkpt lat="46.06226" lon="4.58947">
        <ele>308</ele>
        <time>2017-10-30T00:05:49Z</time>
      </trkpt>
      <trkpt lat="46.06225" lon="4.58915">
        <ele>308</ele>
        <time>2017-10-30T00:07:49Z</time>
      </trkpt>
      <trkpt lat="46.06229" lon="4.58813">
        <ele>309</ele>
        <time>2017-10-30T00:09:49Z</time>
      </trkpt>
      <trkpt lat="46.06231" lon="4.58773">
        <ele>309</ele>
        <time>2017-10-30T00:11:49Z</time>
      </trkpt>
      <trkpt lat="46.06233" lon="4.58754">
        <ele>309</ele>
        <time>2017-10-30T00:13:49Z</time>
      </trkpt>
      <trkpt lat="46.06233" lon="4.58741">
        <ele>309</ele>
        <time>2017-10-30T00:15:49Z</time>
      </trkpt>
      <trkpt lat="46.06234" lon="4.58729">
        <ele>309</ele>
        <time>2017-10-30T00:17:49Z</time>
      </trkpt>
      <trkpt lat="46.06235" lon="4.58717">
        <ele>309</ele>
        <time>2017-10-30T00:19:49Z</time>
      </trkpt>
      <trkpt lat="46.06236" lon="4.587">
        <ele>309</ele>
        <time>2017-10-30T00:21:49Z</time>
      </trkpt>
      <trkpt lat="46.06237" lon="4.58682">
        <ele>309</ele>
        <time>2017-10-30T00:23:49Z</time>
      </trkpt>
      <trkpt lat="46.06239" lon="4.58669">
        <ele>310</ele>
        <time>2017-10-30T00:25:49Z</time>
      </trkpt>
      <trkpt lat="46.06241" lon="4.5866">
        <ele>310</ele>
        <time>2017-10-30T00:27:49Z</time>
      </trkpt>
      <trkpt lat="46.06242" lon="4.58653">
        <ele>310</ele>
        <time>2017-10-30T00:29:49Z</time>
      </trkpt>
      <trkpt lat="46.06247" lon="4.5863">
        <ele>311</ele>
        <time>2017-10-30T00:31:49Z</time>
      </trkpt>
      <trkpt lat="46.06253" lon="4.58604">
        <ele>312</ele>
        <time>2017-10-30T00:33:49Z</time>
      </trkpt>
      <trkpt lat="46.06257" lon="4.58576">
        <ele>314</ele>
        <time>2017-10-30T00:35:49Z</time>
      </trkpt>
      <trkpt lat="46.0626" lon="4.58549">
        <ele>315</ele>
        <time>2017-10-30T00:37:49Z</time>
      </trkpt>
      <trkpt lat="46.06261" lon="4.58529">
        <ele>315</ele>
        <time>2017-10-30T00:39:49Z</time>
      </trkpt>
      <trkpt lat="46.06263" lon="4.58492">
        <ele>316</ele>
        <time>2017-10-30T00:41:49Z</time>
      </trkpt>
      <trkpt lat="46.06264" lon="4.58475">
        <ele>317</ele>
        <time>2017-10-30T00:43:49Z</time>
      </trkpt>
      <trkpt lat="46.06265" lon="4.58464">
        <ele>317</ele>
        <time>2017-10-30T00:45:49Z</time>
      </trkpt>
      <trkpt lat="46.06266" lon="4.58451">
        <ele>318</ele>
        <time>2017-10-30T00:47:49Z</time>
      </trkpt>
      <trkpt lat="46.06266" lon="4.58435">
        <ele>319</ele>
        <time>2017-10-30T00:49:49Z</time>
      </trkpt>
      <trkpt lat="46.06266" lon="4.58406">
        <ele>320</ele>
        <time>2017-10-30T00:51:49Z</time>
      </trkpt>
      <trkpt lat="46.06267" lon="4.58391">
        <ele>321</ele>
        <time>2017-10-30T00:53:49Z</time>
      </trkpt>
      <trkpt lat="46.06268" lon="4.58381">
        <ele>322</ele>
        <time>2017-10-30T00:55:49Z</time>
      </trkpt>
      <trkpt lat="46.06271" lon="4.58373">
        <ele>322</ele>
        <time>2017-10-30T00:57:49Z</time>
      </trkpt>
      <trkpt lat="46.06273" lon="4.58366">
        <ele>323</ele>
        <time>2017-10-30T00:59:49Z</time>
      </trkpt>
      <trkpt lat="46.06282" lon="4.58346">
        <ele>324</ele>
        <time>2017-10-30T01:01:49Z</time>
      </trkpt>
      <trkpt lat="46.06293" lon="4.58314">
        <ele>326</ele>
        <time>2017-10-30T01:03:49Z</time>
      </trkpt>
      <trkpt lat="46.06295" lon="4.58303">
        <ele>327</ele>
        <time>2017-10-30T01:05:49Z</time>
      </trkpt>
      <trkpt lat="46.06299" lon="4.58289">
        <ele>328</ele>
        <time>2017-10-30T01:07:49Z</time>
      </trkpt>
      <trkpt lat="46.06302" lon="4.58269">
        <ele>330</ele>
        <time>2017-10-30T01:09:49Z</time>
      </trkpt>
      <trkpt lat="46.06306" lon="4.5825">
        <ele>331</ele>
        <time>2017-10-30T01:11:49Z</time>
      </trkpt>
      <trkpt lat="46.0631" lon="4.58232">
        <ele>333</ele>
        <time>2017-10-30T01:13:49Z</time>
      </trkpt>
      <trkpt lat="46.06317" lon="4.58218">
        <ele>334</ele>
        <time>2017-10-30T01:15:49Z</time>
      </trkpt>
      <trkpt lat="46.06327" lon="4.58197">
        <ele>337</ele>
        <time>2017-10-30T01:17:49Z</time>
      </trkpt>
      <trkpt lat="46.06334" lon="4.5818">
        <ele>339</ele>
        <time>2017-10-30T01:19:49Z</time>
      </trkpt>
      <trkpt lat="46.06339" lon="4.58167">
        <ele>340</ele>
        <time>2017-10-30T01:21:49Z</time>
      </trkpt>
      <trkpt lat="46.06346" lon="4.58152">
        <ele>340</ele>
        <time>2017-10-30T01:23:49Z</time>
      </trkpt>
      <trkpt lat="46.06359" lon="4.58124">
        <ele>341</ele>
        <time>2017-10-30T01:25:49Z</time>
      </trkpt>
      <trkpt lat="46.06363" lon="4.58119">
        <ele>341</ele>
        <time>2017-10-30T01:27:49Z</time>
      </trkpt>
      <trkpt lat="46.06369" lon="4.58111">
        <ele>342</ele>
        <time>2017-10-30T01:29:49Z</time>
      </trkpt>
      <trkpt lat="46.06375" lon="4.58105">
        <ele>342</ele>
        <time>2017-10-30T01:31:49Z</time>
      </trkpt>
      <trkpt lat="46.0638" lon="4.581">
        <ele>342</ele>
        <time>2017-10-30T01:33:49Z</time>
      </trkpt>
      <trkpt lat="46.06389" lon="4.58089">
        <ele>343</ele>
        <time>2017-10-30T01:35:49Z</time>
      </trkpt>
      <trkpt lat="46.06405" lon="4.58067">
        <ele>345</ele>
        <time>2017-10-30T01:37:49Z</time>
      </trkpt>
      <trkpt lat="46.06423" lon="4.58043">
        <ele>347</ele>
        <time>2017-10-30T01:39:49Z</time>
      </trkpt>
      <trkpt lat="46.06439" lon="4.58016">
        <ele>348</ele>
        <time>2017-10-30T01:41:49Z</time>
      </trkpt>
      <trkpt lat="46.06456" lon="4.57986">
        <ele>348</ele>
        <time>2017-10-30T01:43:49Z</time>
      </trkpt>
      <trkpt lat="46.06473" lon="4.57951">
        <ele>350</ele>
        <time>2017-10-30T01:45:49Z</time>
      </trkpt>
      <trkpt lat="46.06492" lon="4.57909">
        <ele>354</ele>
        <time>2017-10-30T01:47:49Z</time>
      </trkpt>
      <trkpt lat="46.06503" lon="4.57884">
        <ele>357</ele>
        <time>2017-10-30T01:49:49Z</time>
      </trkpt>
      <trkpt lat="46.06509" lon="4.57871">
        <ele>358</ele>
        <time>2017-10-30T01:51:49Z</time>
      </trkpt>
      <trkpt lat="46.06516" lon="4.57852">
        <ele>359</ele>
        <time>2017-10-30T01:53:49Z</time>
      </trkpt>
      <trkpt lat="46.06519" lon="4.57838">
        <ele>360</ele>
        <time>2017-10-30T01:55:49Z</time>
      </trkpt>
      <trkpt lat="46.06522" lon="4.57824">
        <ele>361</ele>
        <time>2017-10-30T01:57:49Z</time>
      </trkpt>
      <trkpt lat="46.06524" lon="4.57811">
        <ele>361</ele>
        <time>2017-10-30T01:59:49Z</time>
      </trkpt>
      <trkpt lat="46.06524" lon="4.57797">
        <ele>362</ele>
        <time>2017-10-30T02:01:49Z</time>
      </trkpt>
      <trkpt lat="46.06524" lon="4.57785">
        <ele>363</ele>
        <time>2017-10-30T02:03:49Z</time>
      </trkpt>
      <trkpt lat="46.06523" lon="4.5777">
        <ele>364</ele>
        <time>2017-10-30T02:05:49Z</time>
      </trkpt>
      <trkpt lat="46.0652" lon="4.57744">
        <ele>366</ele>
        <time>2017-10-30T02:07:49Z</time>
      </trkpt>
      <trkpt lat="46.06517" lon="4.5772">
        <ele>368</ele>
        <time>2017-10-30T02:09:49Z</time>
      </trkpt>
      <trkpt lat="46.06516" lon="4.57711">
        <ele>369</ele>
        <time>2017-10-30T02:11:49Z</time>
      </trkpt>
      <trkpt lat="46.06503" lon="4.57624">
        <ele>379</ele>
        <time>2017-10-30T02:13:49Z</time>
      </trkpt>
      <trkpt lat="46.06495" lon="4.57583">
        <ele>383</ele>
        <time>2017-10-30T02:15:49Z</time>
      </trkpt>
      <trkpt lat="46.0649" lon="4.57568">
        <ele>384</ele>
        <time>2017-10-30T02:17:49Z</time>
      </trkpt>
      <trkpt lat="46.06485" lon="4.57553">
        <ele>385</ele>
        <time>2017-10-30T02:19:49Z</time>
      </trkpt>
      <trkpt lat="46.06481" lon="4.57545">
        <ele>385</ele>
        <time>2017-10-30T02:21:49Z</time>
      </trkpt>
      <trkpt lat="46.06471" lon="4.57532">
        <ele>386</ele>
        <time>2017-10-30T02:23:49Z</time>
      </trkpt>
      <trkpt lat="46.06465" lon="4.57522">
        <ele>387</ele>
        <time>2017-10-30T02:25:49Z</time>
      </trkpt>
      <trkpt lat="46.06454" lon="4.5751">
        <ele>387</ele>
        <time>2017-10-30T02:27:49Z</time>
      </trkpt>
      <trkpt lat="46.06448" lon="4.57503">
        <ele>388</ele>
        <time>2017-10-30T02:29:49Z</time>
      </trkpt>
      <trkpt lat="46.06432" lon="4.57489">
        <ele>389</ele>
        <time>2017-10-30T02:31:49Z</time>
      </trkpt>
      <trkpt lat="46.06415" lon="4.57473">
        <ele>390</ele>
        <time>2017-10-30T02:33:49Z</time>
      </trkpt>
      <trkpt lat="46.06407" lon="4.57463">
        <ele>391</ele>
        <time>2017-10-30T02:35:49Z</time>
      </trkpt>
      <trkpt lat="46.06396" lon="4.57448">
        <ele>392</ele>
        <time>2017-10-30T02:37:49Z</time>
      </trkpt>
      <trkpt lat="46.06392" lon="4.57441">
        <ele>392</ele>
        <time>2017-10-30T02:39:49Z</time>
      </trkpt>
      <trkpt lat="46.06374" lon="4.57411">
        <ele>394</ele>
        <time>2017-10-30T02:41:49Z</time>
      </trkpt>
      <trkpt lat="46.06358" lon="4.57382">
        <ele>396</ele>
        <time>2017-10-30T02:43:49Z</time>
      </trkpt>
      <trkpt lat="46.06353" lon="4.57369">
        <ele>397</ele>
        <time>2017-10-30T02:45:49Z</time>
      </trkpt>
      <trkpt lat="46.06348" lon="4.57353">
        <ele>398</ele>
        <time>2017-10-30T02:47:49Z</time>
      </trkpt>
      <trkpt lat="46.06341" lon="4.57315">
        <ele>402</ele>
        <time>2017-10-30T02:49:49Z</time>
      </trkpt>
      <trkpt lat="46.0633" lon="4.57257">
        <ele>406</ele>
        <time>2017-10-30T02:51:49Z</time>
      </trkpt>
      <trkpt lat="46.06325" lon="4.57225">
        <ele>408</ele>
        <time>2017-10-30T02:53:49Z</time>
      </trkpt>
      <trkpt lat="46.06322" lon="4.57205">
        <ele>410</ele>
        <time>2017-10-30T02:55:49Z</time>
      </trkpt>
      <trkpt lat="46.06314" lon="4.57155">
        <ele>414</ele>
        <time>2017-10-30T02:57:49Z</time>
      </trkpt>
      <trkpt lat="46.06306" lon="4.57122">
        <ele>417</ele>
        <time>2017-10-30T02:59:49Z</time>
      </trkpt>
      <trkpt lat="46.06281" lon="4.57052">
        <ele>421</ele>
        <time>2017-10-30T03:01:49Z</time>
      </trkpt>
      <trkpt lat="46.06277" lon="4.57037">
        <ele>422</ele>
        <time>2017-10-30T03:03:49Z</time>
      </trkpt>
      <trkpt lat="46.06273" lon="4.5702">
        <ele>423</ele>
        <time>2017-10-30T03:05:49Z</time>
      </trkpt>
      <trkpt lat="46.06272" lon="4.57005">
        <ele>425</ele>
        <time>2017-10-30T03:07:49Z</time>
      </trkpt>
      <trkpt lat="46.06272" lon="4.56967">
        <ele>430</ele>
        <time>2017-10-30T03:09:49Z</time>
      </trkpt>
      <trkpt lat="46.06272" lon="4.56959">
        <ele>431</ele>
        <time>2017-10-30T03:11:49Z</time>
      </trkpt>
      <trkpt lat="46.06272" lon="4.56942">
        <ele>433</ele>
        <time>2017-10-30T03:13:49Z</time>
      </trkpt>
      <trkpt lat="46.0627" lon="4.56928">
        <ele>434</ele>
        <time>2017-10-30T03:15:49Z</time>
      </trkpt>
      <trkpt lat="46.06267" lon="4.56917">
        <ele>434</ele>
        <time>2017-10-30T03:17:49Z</time>
      </trkpt>
      <trkpt lat="46.06262" lon="4.56902">
        <ele>436</ele>
        <time>2017-10-30T03:19:49Z</time>
      </trkpt>
      <trkpt lat="46.06254" lon="4.56884">
        <ele>437</ele>
        <time>2017-10-30T03:21:49Z</time>
      </trkpt>
      <trkpt lat="46.06253" lon="4.56882">
        <ele>437</ele>
        <time>2017-10-30T03:23:49Z</time>
      </trkpt>
      <trkpt lat="46.06247" lon="4.56873">
        <ele>438</ele>
        <time>2017-10-30T03:25:49Z</time>
      </trkpt>
      <trkpt lat="46.06241" lon="4.56866">
        <ele>438</ele>
        <time>2017-10-30T03:27:49Z</time>
      </trkpt>
      <trkpt lat="46.06229" lon="4.56857">
        <ele>438</ele>
        <time>2017-10-30T03:29:49Z</time>
      </trkpt>
      <trkpt lat="46.06216" lon="4.56841">
        <ele>438</ele>
        <time>2017-10-30T03:31:49Z</time>
      </trkpt>
      <trkpt lat="46.0621" lon="4.56832">
        <ele>438</ele>
        <time>2017-10-30T03:33:49Z</time>
      </trkpt>
      <trkpt lat="46.06201" lon="4.56811">
        <ele>439</ele>
        <time>2017-10-30T03:35:49Z</time>
      </trkpt>
      <trkpt lat="46.06198" lon="4.56798">
        <ele>439</ele>
        <time>2017-10-30T03:37:49Z</time>
      </trkpt>
      <trkpt lat="46.06198" lon="4.56786">
        <ele>440</ele>
        <time>2017-10-30T03:39:49Z</time>
      </trkpt>
      <trkpt lat="46.062" lon="4.56773">
        <ele>442</ele>
        <time>2017-10-30T03:41:49Z</time>
      </trkpt>
      <trkpt lat="46.06204" lon="4.56756">
        <ele>444</ele>
        <time>2017-10-30T03:43:49Z</time>
      </trkpt>
      <trkpt lat="46.0621" lon="4.56738">
        <ele>446</ele>
        <time>2017-10-30T03:45:49Z</time>
      </trkpt>
      <trkpt lat="46.06221" lon="4.56705">
        <ele>450</ele>
        <time>2017-10-30T03:47:49Z</time>
      </trkpt>
      <trkpt lat="46.06224" lon="4.56694">
        <ele>451</ele>
        <time>2017-10-30T03:49:49Z</time>
      </trkpt>
      <trkpt lat="46.06236" lon="4.56654">
        <ele>455</ele>
        <time>2017-10-30T03:51:49Z</time>
      </trkpt>
      <trkpt lat="46.06244" lon="4.56621">
        <ele>456</ele>
        <time>2017-10-30T03:53:49Z</time>
      </trkpt>
      <trkpt lat="46.06247" lon="4.56608">
        <ele>457</ele>
        <time>2017-10-30T03:55:49Z</time>
      </trkpt>
      <trkpt lat="46.06252" lon="4.56575">
        <ele>458</ele>
        <time>2017-10-30T03:57:49Z</time>
      </trkpt>
      <trkpt lat="46.06256" lon="4.56555">
        <ele>459</ele>
        <time>2017-10-30T03:59:49Z</time>
      </trkpt>
      <trkpt lat="46.06258" lon="4.56547">
        <ele>459</ele>
        <time>2017-10-30T04:01:49Z</time>
      </trkpt>
      <trkpt lat="46.06263" lon="4.56531">
        <ele>460</ele>
        <time>2017-10-30T04:03:49Z</time>
      </trkpt>
      <trkpt lat="46.06267" lon="4.56522">
        <ele>460</ele>
        <time>2017-10-30T04:05:49Z</time>
      </trkpt>
      <trkpt lat="46.06275" lon="4.56506">
        <ele>462</ele>
        <time>2017-10-30T04:07:49Z</time>
      </trkpt>
      <trkpt lat="46.06291" lon="4.56483">
        <ele>463</ele>
        <time>2017-10-30T04:09:49Z</time>
      </trkpt>
      <trkpt lat="46.06324" lon="4.56446">
        <ele>466</ele>
        <time>2017-10-30T04:11:49Z</time>
      </trkpt>
      <trkpt lat="46.06333" lon="4.56436">
        <ele>466</ele>
        <time>2017-10-30T04:13:49Z</time>
      </trkpt>
      <trkpt lat="46.06342" lon="4.56428">
        <ele>468</ele>
        <time>2017-10-30T04:15:49Z</time>
      </trkpt>
      <trkpt lat="46.06358" lon="4.56419">
        <ele>471</ele>
        <time>2017-10-30T04:17:49Z</time>
      </trkpt>
      <trkpt lat="46.06376" lon="4.5641">
        <ele>475</ele>
        <time>2017-10-30T04:19:49Z</time>
      </trkpt>
      <trkpt lat="46.06412" lon="4.56392">
        <ele>482</ele>
        <time>2017-10-30T04:21:49Z</time>
      </trkpt>
      <trkpt lat="46.06427" lon="4.56384">
        <ele>484</ele>
        <time>2017-10-30T04:23:49Z</time>
      </trkpt>
      <trkpt lat="46.06439" lon="4.56376">
        <ele>485</ele>
        <time>2017-10-30T04:25:49Z</time>
      </trkpt>
      <trkpt lat="46.06463" lon="4.56357">
        <ele>486</ele>
        <time>2017-10-30T04:27:49Z</time>
      </trkpt>
      <trkpt lat="46.0649" lon="4.56336">
        <ele>489</ele>
        <time>2017-10-30T04:29:49Z</time>
      </trkpt>
      <trkpt lat="46.06499" lon="4.56329">
        <ele>490</ele>
        <time>2017-10-30T04:31:49Z</time>
      </trkpt>
      <trkpt lat="46.06519" lon="4.56314">
        <ele>492</ele>
        <time>2017-10-30T04:33:49Z</time>
      </trkpt>
      <trkpt lat="46.06526" lon="4.56308">
        <ele>492</ele>
        <time>2017-10-30T04:35:49Z</time>
      </trkpt>
      <trkpt lat="46.06533" lon="4.56302">
        <ele>493</ele>
        <time>2017-10-30T04:37:49Z</time>
      </trkpt>
      <trkpt lat="46.06541" lon="4.56298">
        <ele>494</ele>
        <time>2017-10-30T04:39:49Z</time>
      </trkpt>
      <trkpt lat="46.06548" lon="4.563">
        <ele>496</ele>
        <time>2017-10-30T04:41:49Z</time>
      </trkpt>
      <trkpt lat="46.0655" lon="4.56305">
        <ele>498</ele>
        <time>2017-10-30T04:43:49Z</time>
      </trkpt>
      <trkpt lat="46.0655" lon="4.56305">
        <ele>498</ele>
        <time>2017-10-30T04:45:49Z</time>
      </trkpt>
      <trkpt lat="46.0655" lon="4.5631">
        <ele>499</ele>
        <time>2017-10-30T04:47:49Z</time>
      </trkpt>
      <trkpt lat="46.06545" lon="4.56319">
        <ele>499</ele>
        <time>2017-10-30T04:49:49Z</time>
      </trkpt>
      <trkpt lat="46.06537" lon="4.56326">
        <ele>498</ele>
        <time>2017-10-30T04:51:49Z</time>
      </trkpt>
      <trkpt lat="46.06525" lon="4.56336">
        <ele>497</ele>
        <time>2017-10-30T04:53:49Z</time>
      </trkpt>
      <trkpt lat="46.06516" lon="4.56347">
        <ele>497</ele>
        <time>2017-10-30T04:55:49Z</time>
      </trkpt>
      <trkpt lat="46.06503" lon="4.56368">
        <ele>498</ele>
        <time>2017-10-30T04:57:49Z</time>
      </trkpt>
      <trkpt lat="46.06496" lon="4.56381">
        <ele>499</ele>
        <time>2017-10-30T04:59:49Z</time>
      </trkpt>
      <trkpt lat="46.06488" lon="4.56396">
        <ele>500</ele>
        <time>2017-10-30T05:01:49Z</time>
      </trkpt>
      <trkpt lat="46.06478" lon="4.56419">
        <ele>502</ele>
        <time>2017-10-30T05:03:49Z</time>
      </trkpt>
      <trkpt lat="46.06444" lon="4.56482">
        <ele>505</ele>
        <time>2017-10-30T05:05:49Z</time>
      </trkpt>
      <trkpt lat="46.06421" lon="4.56524">
        <ele>505</ele>
        <time>2017-10-30T05:07:49Z</time>
      </trkpt>
      <trkpt lat="46.06414" lon="4.56536">
        <ele>505</ele>
        <time>2017-10-30T05:09:49Z</time>
      </trkpt>
      <trkpt lat="46.06405" lon="4.56554">
        <ele>504</ele>
        <time>2017-10-30T05:11:49Z</time>
      </trkpt>
      <trkpt lat="46.06401" lon="4.56563">
        <ele>504</ele>
        <time>2017-10-30T05:13:49Z</time>
      </trkpt>
      <trkpt lat="46.064" lon="4.5657">
        <ele>504</ele>
        <time>2017-10-30T05:15:49Z</time>
      </trkpt>
      <trkpt lat="46.06401" lon="4.56575">
        <ele>505</ele>
        <time>2017-10-30T05:17:49Z</time>
      </trkpt>
      <trkpt lat="46.06401" lon="4.56575">
        <ele>505</ele>
        <time>2017-10-30T05:19:49Z</time>
      </trkpt>
      <trkpt lat="46.06404" lon="4.56576">
        <ele>506</ele>
        <time>2017-10-30T05:21:49Z</time>
      </trkpt>
      <trkpt lat="46.06408" lon="4.56576">
        <ele>507</ele>
        <time>2017-10-30T05:23:49Z</time>
      </trkpt>
      <trkpt lat="46.06411" lon="4.56576">
        <ele>508</ele>
        <time>2017-10-30T05:25:49Z</time>
      </trkpt>
      <trkpt lat="46.06414" lon="4.56571">
        <ele>508</ele>
        <time>2017-10-30T05:27:49Z</time>
      </trkpt>
      <trkpt lat="46.0642" lon="4.56565">
        <ele>509</ele>
        <time>2017-10-30T05:29:49Z</time>
      </trkpt>
      <trkpt lat="46.06436" lon="4.56544">
        <ele>510</ele>
        <time>2017-10-30T05:31:49Z</time>
      </trkpt>
      <trkpt lat="46.06459" lon="4.56518">
        <ele>513</ele>
        <time>2017-10-30T05:33:49Z</time>
      </trkpt>
      <trkpt lat="46.06505" lon="4.56475">
        <ele>517</ele>
        <time>2017-10-30T05:35:49Z</time>
      </trkpt>
      <trkpt lat="46.06511" lon="4.56469">
        <ele>518</ele>
        <time>2017-10-30T05:37:49Z</time>
      </trkpt>
      <trkpt lat="46.06527" lon="4.56457">
        <ele>519</ele>
        <time>2017-10-30T05:39:49Z</time>
      </trkpt>
      <trkpt lat="46.06542" lon="4.56446">
        <ele>520</ele>
        <time>2017-10-30T05:41:49Z</time>
      </trkpt>
      <trkpt lat="46.06554" lon="4.5644">
        <ele>522</ele>
        <time>2017-10-30T05:43:49Z</time>
      </trkpt>
      <trkpt lat="46.0657" lon="4.5643">
        <ele>524</ele>
        <time>2017-10-30T05:45:49Z</time>
      </trkpt>
      <trkpt lat="46.06588" lon="4.56423">
        <ele>527</ele>
        <time>2017-10-30T05:47:49Z</time>
      </trkpt>
      <trkpt lat="46.0661" lon="4.56413">
        <ele>530</ele>
        <time>2017-10-30T05:49:49Z</time>
      </trkpt>
      <trkpt lat="46.06623" lon="4.56406">
        <ele>531</ele>
        <time>2017-10-30T05:51:49Z</time>
      </trkpt>
      <trkpt lat="46.06632" lon="4.56399">
        <ele>532</ele>
        <time>2017-10-30T05:53:49Z</time>
      </trkpt>
      <trkpt lat="46.0664" lon="4.56393">
        <ele>533</ele>
        <time>2017-10-30T05:55:49Z</time>
      </trkpt>
      <trkpt lat="46.06646" lon="4.56387">
        <ele>533</ele>
        <time>2017-10-30T05:57:49Z</time>
      </trkpt>
      <trkpt lat="46.06654" lon="4.56375">
        <ele>533</ele>
        <time>2017-10-30T05:59:49Z</time>
      </trkpt>
      <trkpt lat="46.06661" lon="4.56364">
        <ele>533</ele>
        <time>2017-10-30T06:01:49Z</time>
      </trkpt>
      <trkpt lat="46.06668" lon="4.56349">
        <ele>533</ele>
        <time>2017-10-30T06:03:49Z</time>
      </trkpt>
      <trkpt lat="46.06681" lon="4.56315">
        <ele>534</ele>
        <time>2017-10-30T06:05:49Z</time>
      </trkpt>
      <trkpt lat="46.06687" lon="4.56302">
        <ele>535</ele>
        <time>2017-10-30T06:07:49Z</time>
      </trkpt>
      <trkpt lat="46.06697" lon="4.56289">
        <ele>537</ele>
        <time>2017-10-30T06:09:49Z</time>
      </trkpt>
      <trkpt lat="46.06711" lon="4.56268">
        <ele>539</ele>
        <time>2017-10-30T06:11:49Z</time>
      </trkpt>
      <trkpt lat="46.06717" lon="4.56263">
        <ele>540</ele>
        <time>2017-10-30T06:13:49Z</time>
      </trkpt>
      <trkpt lat="46.06745" lon="4.5624">
        <ele>545</ele>
        <time>2017-10-30T06:15:49Z</time>
      </trkpt>
      <trkpt lat="46.06768" lon="4.56226">
        <ele>548</ele>
        <time>2017-10-30T06:17:49Z</time>
      </trkpt>
      <trkpt lat="46.06809" lon="4.56201">
        <ele>552</ele>
        <time>2017-10-30T06:19:49Z</time>
      </trkpt>
      <trkpt lat="46.06818" lon="4.56197">
        <ele>554</ele>
        <time>2017-10-30T06:21:49Z</time>
      </trkpt>
      <trkpt lat="46.06828" lon="4.56193">
        <ele>556</ele>
        <time>2017-10-30T06:23:49Z</time>
      </trkpt>
      <trkpt lat="46.06839" lon="4.56184">
        <ele>556</ele>
        <time>2017-10-30T06:25:49Z</time>
      </trkpt>
      <trkpt lat="46.06847" lon="4.56178">
        <ele>557</ele>
        <time>2017-10-30T06:27:49Z</time>
      </trkpt>
      <trkpt lat="46.06855" lon="4.5617">
        <ele>558</ele>
        <time>2017-10-30T06:29:49Z</time>
      </trkpt>
      <trkpt lat="46.06862" lon="4.56161">
        <ele>559</ele>
        <time>2017-10-30T06:31:49Z</time>
      </trkpt>
      <trkpt lat="46.06865" lon="4.56147">
        <ele>559</ele>
        <time>2017-10-30T06:33:49Z</time>
      </trkpt>
      <trkpt lat="46.06868" lon="4.56136">
        <ele>560</ele>
        <time>2017-10-30T06:35:49Z</time>
      </trkpt>
      <trkpt lat="46.06869" lon="4.56118">
        <ele>561</ele>
        <time>2017-10-30T06:37:49Z</time>
      </trkpt>
      <trkpt lat="46.06871" lon="4.56092">
        <ele>562</ele>
        <time>2017-10-30T06:39:49Z</time>
      </trkpt>
      <trkpt lat="46.06872" lon="4.56047">
        <ele>565</ele>
        <time>2017-10-30T06:41:49Z</time>
      </trkpt>
      <trkpt lat="46.06871" lon="4.56004">
        <ele>568</ele>
        <time>2017-10-30T06:43:49Z</time>
      </trkpt>
      <trkpt lat="46.06869" lon="4.55961">
        <ele>570</ele>
        <time>2017-10-30T06:45:49Z</time>
      </trkpt>
      <trkpt lat="46.06869" lon="4.55941">
        <ele>571</ele>
        <time>2017-10-30T06:47:49Z</time>
      </trkpt>
      <trkpt lat="46.06872" lon="4.55918">
        <ele>573</ele>
        <time>2017-10-30T06:49:49Z</time>
      </trkpt>
      <trkpt lat="46.06876" lon="4.55894">
        <ele>574</ele>
        <time>2017-10-30T06:51:49Z</time>
      </trkpt>
      <trkpt lat="46.0688" lon="4.5588">
        <ele>574</ele>
        <time>2017-10-30T06:53:49Z</time>
      </trkpt>
      <trkpt lat="46.0689" lon="4.55856">
        <ele>576</ele>
        <time>2017-10-30T06:55:49Z</time>
      </trkpt>
      <trkpt lat="46.06898" lon="4.5584">
        <ele>578</ele>
        <time>2017-10-30T06:57:49Z</time>
      </trkpt>
      <trkpt lat="46.06909" lon="4.55822">
        <ele>579</ele>
        <time>2017-10-30T06:59:49Z</time>
      </trkpt>
      <trkpt lat="46.0692" lon="4.55811">
        <ele>580</ele>
        <time>2017-10-30T07:01:49Z</time>
      </trkpt>
      <trkpt lat="46.06925" lon="4.55806">
        <ele>580</ele>
        <time>2017-10-30T07:03:49Z</time>
      </trkpt>
      <trkpt lat="46.06931" lon="4.558">
        <ele>580</ele>
        <time>2017-10-30T07:05:49Z</time>
      </trkpt>
      <trkpt lat="46.06957" lon="4.55779">
        <ele>582</ele>
        <time>2017-10-30T07:07:49Z</time>
      </trkpt>
      <trkpt lat="46.0699" lon="4.55752">
        <ele>586</ele>
        <time>2017-10-30T07:09:49Z</time>
      </trkpt>
      <trkpt lat="46.07016" lon="4.55729">
        <ele>589</ele>
        <time>2017-10-30T07:11:49Z</time>
      </trkpt>
      <trkpt lat="46.07018" lon="4.55728">
        <ele>589</ele>
        <time>2017-10-30T07:13:49Z</time>
      </trkpt>
      <trkpt lat="46.07023" lon="4.55722">
        <ele>589</ele>
        <time>2017-10-30T07:15:49Z</time>
      </trkpt>
      <trkpt lat="46.07028" lon="4.55716">
        <ele>590</ele>
        <time>2017-10-30T07:17:49Z</time>
      </trkpt>
      <trkpt lat="46.07033" lon="4.55709">
        <ele>590</ele>
        <time>2017-10-30T07:19:49Z</time>
      </trkpt>
      <trkpt lat="46.07036" lon="4.55704">
        <ele>591</ele>
        <time>2017-10-30T07:21:49Z</time>
      </trkpt>
      <trkpt lat="46.07061" lon="4.55677">
        <ele>595</ele>
        <time>2017-10-30T07:23:49Z</time>
      </trkpt>
      <trkpt lat="46.07077" lon="4.55663">
        <ele>598</ele>
        <time>2017-10-30T07:25:49Z</time>
      </trkpt>
      <trkpt lat="46.07083" lon="4.55656">
        <ele>600</ele>
        <time>2017-10-30T07:27:49Z</time>
      </trkpt>
      <trkpt lat="46.07102" lon="4.55639">
        <ele>601</ele>
        <time>2017-10-30T07:29:49Z</time>
      </trkpt>
      <trkpt lat="46.07112" lon="4.55627">
        <ele>602</ele>
        <time>2017-10-30T07:31:49Z</time>
      </trkpt>
      <trkpt lat="46.07128" lon="4.55603">
        <ele>605</ele>
        <time>2017-10-30T07:33:49Z</time>
      </trkpt>
      <trkpt lat="46.07137" lon="4.55588">
        <ele>607</ele>
        <time>2017-10-30T07:35:49Z</time>
      </trkpt>
      <trkpt lat="46.07147" lon="4.5557">
        <ele>610</ele>
        <time>2017-10-30T07:37:49Z</time>
      </trkpt>
      <trkpt lat="46.07156" lon="4.55557">
        <ele>611</ele>
        <time>2017-10-30T07:39:49Z</time>
      </trkpt>
      <trkpt lat="46.07172" lon="4.55531">
        <ele>615</ele>
        <time>2017-10-30T07:41:49Z</time>
      </trkpt>
      <trkpt lat="46.07182" lon="4.55517">
        <ele>615</ele>
        <time>2017-10-30T07:43:49Z</time>
      </trkpt>
      <trkpt lat="46.07193" lon="4.55503">
        <ele>616</ele>
        <time>2017-10-30T07:45:49Z</time>
      </trkpt>
      <trkpt lat="46.07219" lon="4.55476">
        <ele>618</ele>
        <time>2017-10-30T07:47:49Z</time>
      </trkpt>
      <trkpt lat="46.07242" lon="4.55455">
        <ele>619</ele>
        <time>2017-10-30T07:49:49Z</time>
      </trkpt>
      <trkpt lat="46.07255" lon="4.55442">
        <ele>620</ele>
        <time>2017-10-30T07:51:49Z</time>
      </trkpt>
      <trkpt lat="46.07267" lon="4.55428">
        <ele>622</ele>
        <time>2017-10-30T07:53:49Z</time>
      </trkpt>
      <trkpt lat="46.0728" lon="4.55412">
        <ele>624</ele>
        <time>2017-10-30T07:55:49Z</time>
      </trkpt>
      <trkpt lat="46.07326" lon="4.55351">
        <ele>632</ele>
        <time>2017-10-30T07:57:49Z</time>
      </trkpt>
      <trkpt lat="46.07333" lon="4.55346">
        <ele>632</ele>
        <time>2017-10-30T07:59:49Z</time>
      </trkpt>
      <trkpt lat="46.07341" lon="4.55343">
        <ele>632</ele>
        <time>2017-10-30T08:01:49Z</time>
      </trkpt>
      <trkpt lat="46.07351" lon="4.5534">
        <ele>633</ele>
        <time>2017-10-30T08:03:49Z</time>
      </trkpt>
      <trkpt lat="46.07361" lon="4.55338">
        <ele>633</ele>
        <time>2017-10-30T08:05:49Z</time>
      </trkpt>
      <trkpt lat="46.07377" lon="4.55335">
        <ele>633</ele>
        <time>2017-10-30T08:07:49Z</time>
      </trkpt>
      <trkpt lat="46.07395" lon="4.55325">
        <ele>636</ele>
        <time>2017-10-30T08:09:49Z</time>
      </trkpt>
      <trkpt lat="46.07411" lon="4.55316">
        <ele>638</ele>
        <time>2017-10-30T08:11:49Z</time>
      </trkpt>
      <trkpt lat="46.07435" lon="4.55302">
        <ele>639</ele>
        <time>2017-10-30T08:13:49Z</time>
      </trkpt>
      <trkpt lat="46.07447" lon="4.55292">
        <ele>639</ele>
        <time>2017-10-30T08:15:49Z</time>
      </trkpt>
      <trkpt lat="46.07454" lon="4.55285">
        <ele>640</ele>
        <time>2017-10-30T08:17:49Z</time>
      </trkpt>
      <trkpt lat="46.07462" lon="4.55276">
        <ele>641</ele>
        <time>2017-10-30T08:19:49Z</time>
      </trkpt>
      <trkpt lat="46.07478" lon="4.55258">
        <ele>643</ele>
        <time>2017-10-30T08:21:49Z</time>
      </trkpt>
      <trkpt lat="46.07491" lon="4.55238">
        <ele>645</ele>
        <time>2017-10-30T08:23:49Z</time>
      </trkpt>
      <trkpt lat="46.07505" lon="4.55222">
        <ele>646</ele>
        <time>2017-10-30T08:25:49Z</time>
      </trkpt>
      <trkpt lat="46.07519" lon="4.55204">
        <ele>648</ele>
        <time>2017-10-30T08:27:49Z</time>
      </trkpt>
      <trkpt lat="46.07532" lon="4.55187">
        <ele>650</ele>
        <time>2017-10-30T08:29:49Z</time>
      </trkpt>
      <trkpt lat="46.0755" lon="4.55167">
        <ele>651</ele>
        <time>2017-10-30T08:31:49Z</time>
      </trkpt>
      <trkpt lat="46.07573" lon="4.55143">
        <ele>651</ele>
        <time>2017-10-30T08:33:49Z</time>
      </trkpt>
      <trkpt lat="46.07583" lon="4.55132">
        <ele>651</ele>
        <time>2017-10-30T08:35:49Z</time>
      </trkpt>
      <trkpt lat="46.07601" lon="4.55119">
        <ele>653</ele>
        <time>2017-10-30T08:37:49Z</time>
      </trkpt>
      <trkpt lat="46.07617" lon="4.55108">
        <ele>654</ele>
        <time>2017-10-30T08:39:49Z</time>
      </trkpt>
      <trkpt lat="46.07629" lon="4.55103">
        <ele>655</ele>
        <time>2017-10-30T08:41:49Z</time>
      </trkpt>
      <trkpt lat="46.07656" lon="4.55097">
        <ele>655</ele>
        <time>2017-10-30T08:43:49Z</time>
      </trkpt>
      <trkpt lat="46.07674" lon="4.55095">
        <ele>656</ele>
        <time>2017-10-30T08:45:49Z</time>
      </trkpt>
      <trkpt lat="46.07708" lon="4.55094">
        <ele>658</ele>
        <time>2017-10-30T08:47:49Z</time>
      </trkpt>
      <trkpt lat="46.07734" lon="4.55098">
        <ele>658</ele>
        <time>2017-10-30T08:49:49Z</time>
      </trkpt>
      <trkpt lat="46.07751" lon="4.55097">
        <ele>659</ele>
        <time>2017-10-30T08:51:49Z</time>
      </trkpt>
      <trkpt lat="46.07754" lon="4.55096">
        <ele>659</ele>
        <time>2017-10-30T08:53:49Z</time>
      </trkpt>
      <trkpt lat="46.07756" lon="4.55093">
        <ele>660</ele>
        <time>2017-10-30T08:55:49Z</time>
      </trkpt>
      <trkpt lat="46.07757" lon="4.55089">
        <ele>661</ele>
        <time>2017-10-30T08:57:49Z</time>
      </trkpt>
      <trkpt lat="46.07757" lon="4.55082">
        <ele>662</ele>
        <time>2017-10-30T08:59:49Z</time>
      </trkpt>
      <trkpt lat="46.07755" lon="4.55077">
        <ele>664</ele>
        <time>2017-10-30T09:01:49Z</time>
      </trkpt>
      <trkpt lat="46.07752" lon="4.55074">
        <ele>664</ele>
        <time>2017-10-30T09:03:49Z</time>
      </trkpt>
      <trkpt lat="46.07749" lon="4.55071">
        <ele>665</ele>
        <time>2017-10-30T09:05:49Z</time>
      </trkpt>
      <trkpt lat="46.07742" lon="4.55068">
        <ele>666</ele>
        <time>2017-10-30T09:07:49Z</time>
      </trkpt>
      <trkpt lat="46.07725" lon="4.55061">
        <ele>667</ele>
        <time>2017-10-30T09:09:49Z</time>
      </trkpt>
      <trkpt lat="46.07703" lon="4.55051">
        <ele>668</ele>
        <time>2017-10-30T09:11:49Z</time>
      </trkpt>
      <trkpt lat="46.0767" lon="4.55034">
        <ele>671</ele>
        <time>2017-10-30T09:13:49Z</time>
      </trkpt>
      <trkpt lat="46.07632" lon="4.55023">
        <ele>676</ele>
        <time>2017-10-30T09:15:49Z</time>
      </trkpt>
      <trkpt lat="46.07611" lon="4.5502">
        <ele>678</ele>
        <time>2017-10-30T09:17:49Z</time>
      </trkpt>
      <trkpt lat="46.07572" lon="4.55021">
        <ele>683</ele>
        <time>2017-10-30T09:19:49Z</time>
      </trkpt>
      <trkpt lat="46.0757" lon="4.55019">
        <ele>684</ele>
        <time>2017-10-30T09:21:49Z</time>
      </trkpt>
      <trkpt lat="46.07568" lon="4.55018">
        <ele>685</ele>
        <time>2017-10-30T09:23:49Z</time>
      </trkpt>
      <trkpt lat="46.07567" lon="4.55014">
        <ele>686</ele>
        <time>2017-10-30T09:25:49Z</time>
      </trkpt>
      <trkpt lat="46.07567" lon="4.55009">
        <ele>688</ele>
        <time>2017-10-30T09:27:49Z</time>
      </trkpt>
      <trkpt lat="46.07569" lon="4.55004">
        <ele>689</ele>
        <time>2017-10-30T09:29:49Z</time>
      </trkpt>
      <trkpt lat="46.07573" lon="4.54999">
        <ele>690</ele>
        <time>2017-10-30T09:31:49Z</time>
      </trkpt>
      <trkpt lat="46.07581" lon="4.54996">
        <ele>689</ele>
        <time>2017-10-30T09:33:49Z</time>
      </trkpt>
      <trkpt lat="46.07594" lon="4.54991">
        <ele>689</ele>
        <time>2017-10-30T09:35:49Z</time>
      </trkpt>
      <trkpt lat="46.07609" lon="4.54987">
        <ele>689</ele>
        <time>2017-10-30T09:37:49Z</time>
      </trkpt>
      <trkpt lat="46.07626" lon="4.5498">
        <ele>689</ele>
        <time>2017-10-30T09:39:49Z</time>
      </trkpt>
      <trkpt lat="46.07661" lon="4.5497">
        <ele>689</ele>
        <time>2017-10-30T09:41:49Z</time>
      </trkpt>
      <trkpt lat="46.07705" lon="4.54959">
        <ele>692</ele>
        <time>2017-10-30T09:43:49Z</time>
      </trkpt>
      <trkpt lat="46.07723" lon="4.54955">
        <ele>694</ele>
        <time>2017-10-30T09:45:49Z</time>
      </trkpt>
      <trkpt lat="46.07742" lon="4.54954">
        <ele>695</ele>
        <time>2017-10-30T09:47:49Z</time>
      </trkpt>
      <trkpt lat="46.07761" lon="4.54954">
        <ele>696</ele>
        <time>2017-10-30T09:49:49Z</time>
      </trkpt>
      <trkpt lat="46.07785" lon="4.54955">
        <ele>697</ele>
        <time>2017-10-30T09:51:49Z</time>
      </trkpt>
      <trkpt lat="46.07806" lon="4.54953">
        <ele>698</ele>
        <time>2017-10-30T09:53:49Z</time>
      </trkpt>
      <trkpt lat="46.0785" lon="4.54943">
        <ele>704</ele>
        <time>2017-10-30T09:55:49Z</time>
      </trkpt>
      <trkpt lat="46.07871" lon="4.54939">
        <ele>706</ele>
        <time>2017-10-30T09:57:49Z</time>
      </trkpt>
      <trkpt lat="46.07893" lon="4.54939">
        <ele>707</ele>
        <time>2017-10-30T09:59:49Z</time>
      </trkpt>
      <trkpt lat="46.07925" lon="4.54937">
        <ele>709</ele>
        <time>2017-10-30T10:01:49Z</time>
      </trkpt>
      <trkpt lat="46.07949" lon="4.54939">
        <ele>711</ele>
        <time>2017-10-30T10:03:49Z</time>
      </trkpt>
      <trkpt lat="46.07971" lon="4.54941">
        <ele>712</ele>
        <time>2017-10-30T10:05:49Z</time>
      </trkpt>
      <trkpt lat="46.07988" lon="4.54947">
        <ele>713</ele>
        <time>2017-10-30T10:07:49Z</time>
      </trkpt>
      <trkpt lat="46.07993" lon="4.5495">
        <ele>713</ele>
        <time>2017-10-30T10:09:49Z</time>
      </trkpt>
      <trkpt lat="46.07998" lon="4.54953">
        <ele>713</ele>
        <time>2017-10-30T10:11:49Z</time>
      </trkpt>
      <trkpt lat="46.08001" lon="4.54956">
        <ele>713</ele>
        <time>2017-10-30T10:13:49Z</time>
      </trkpt>
      <trkpt lat="46.08013" lon="4.54966">
        <ele>712</ele>
        <time>2017-10-30T10:15:49Z</time>
      </trkpt>
      <trkpt lat="46.08022" lon="4.54975">
        <ele>711</ele>
        <time>2017-10-30T10:17:49Z</time>
      </trkpt>
      <trkpt lat="46.08031" lon="4.54984">
        <ele>711</ele>
        <time>2017-10-30T10:19:49Z</time>
      </trkpt>
      <trkpt lat="46.08039" lon="4.54991">
        <ele>710</ele>
        <time>2017-10-30T10:21:49Z</time>
      </trkpt>
      <trkpt lat="46.08045" lon="4.54994">
        <ele>710</ele>
        <time>2017-10-30T10:23:49Z</time>
      </trkpt>
      <trkpt lat="46.08053" lon="4.54995">
        <ele>711</ele>
        <time>2017-10-30T10:25:49Z</time>
      </trkpt>
      <trkpt lat="46.08056" lon="4.54994">
        <ele>712</ele>
        <time>2017-10-30T10:27:49Z</time>
      </trkpt>
      <trkpt lat="46.08057" lon="4.54993">
        <ele>712</ele>
        <time>2017-10-30T10:29:49Z</time>
      </trkpt>
      <trkpt lat="46.08059" lon="4.54989">
        <ele>713</ele>
        <time>2017-10-30T10:31:49Z</time>
      </trkpt>
      <trkpt lat="46.08059" lon="4.54989">
        <ele>713</ele>
        <time>2017-10-30T10:33:49Z</time>
      </trkpt>
      <trkpt lat="46.08059" lon="4.54984">
        <ele>714</ele>
        <time>2017-10-30T10:35:49Z</time>
      </trkpt>
      <trkpt lat="46.08058" lon="4.54982">
        <ele>714</ele>
        <time>2017-10-30T10:37:49Z</time>
      </trkpt>
      <trkpt lat="46.08055" lon="4.54979">
        <ele>714</ele>
        <time>2017-10-30T10:39:49Z</time>
      </trkpt>
      <trkpt lat="46.08051" lon="4.54974">
        <ele>715</ele>
        <time>2017-10-30T10:41:49Z</time>
      </trkpt>
      <trkpt lat="46.08043" lon="4.54967">
        <ele>715</ele>
        <time>2017-10-30T10:43:49Z</time>
      </trkpt>
      <trkpt lat="46.08034" lon="4.54955">
        <ele>716</ele>
        <time>2017-10-30T10:45:49Z</time>
      </trkpt>
      <trkpt lat="46.08025" lon="4.54941">
        <ele>718</ele>
        <time>2017-10-30T10:47:49Z</time>
      </trkpt>
      <trkpt lat="46.08017" lon="4.54926">
        <ele>720</ele>
        <time>2017-10-30T10:49:49Z</time>
      </trkpt>
      <trkpt lat="46.0801" lon="4.5491">
        <ele>721</ele>
        <time>2017-10-30T10:51:49Z</time>
      </trkpt>
      <trkpt lat="46.08006" lon="4.54894">
        <ele>722</ele>
        <time>2017-10-30T10:53:49Z</time>
      </trkpt>
      <trkpt lat="46.08004" lon="4.54883">
        <ele>722</ele>
        <time>2017-10-30T10:55:49Z</time>
      </trkpt>
      <trkpt lat="46.08004" lon="4.54883">
        <ele>722</ele>
        <time>2017-10-30T10:57:49Z</time>
      </trkpt>
      <trkpt lat="46.08015" lon="4.54876">
        <ele>723</ele>
        <time>2017-10-30T10:59:49Z</time>
      </trkpt>
      <trkpt lat="46.08024" lon="4.5487">
        <ele>724</ele>
        <time>2017-10-30T11:01:49Z</time>
      </trkpt>
      <trkpt lat="46.08031" lon="4.54863">
        <ele>724</ele>
        <time>2017-10-30T11:03:49Z</time>
      </trkpt>
      <trkpt lat="46.08047" lon="4.54852">
        <ele>725</ele>
        <time>2017-10-30T11:05:49Z</time>
      </trkpt>
      <trkpt lat="46.08055" lon="4.54845">
        <ele>726</ele>
        <time>2017-10-30T11:07:49Z</time>
      </trkpt>
      <trkpt lat="46.08061" lon="4.54841">
        <ele>726</ele>
        <time>2017-10-30T11:09:49Z</time>
      </trkpt>
      <trkpt lat="46.08068" lon="4.54835">
        <ele>726</ele>
        <time>2017-10-30T11:11:49Z</time>
      </trkpt>
      <trkpt lat="46.08078" lon="4.54829">
        <ele>726</ele>
        <time>2017-10-30T11:13:49Z</time>
      </trkpt>
      <trkpt lat="46.0809" lon="4.54825">
        <ele>727</ele>
        <time>2017-10-30T11:15:49Z</time>
      </trkpt>
      <trkpt lat="46.08119" lon="4.54817">
        <ele>727</ele>
        <time>2017-10-30T11:17:49Z</time>
      </trkpt>
      <trkpt lat="46.08132" lon="4.54813">
        <ele>728</ele>
        <time>2017-10-30T11:19:49Z</time>
      </trkpt>
      <trkpt lat="46.0817" lon="4.54807">
        <ele>729</ele>
        <time>2017-10-30T11:21:49Z</time>
      </trkpt>
      <trkpt lat="46.08174" lon="4.54804">
        <ele>729</ele>
        <time>2017-10-30T11:23:49Z</time>
      </trkpt>
      <trkpt lat="46.08211" lon="4.54793">
        <ele>731</ele>
        <time>2017-10-30T11:25:49Z</time>
      </trkpt>
      <trkpt lat="46.08229" lon="4.54789">
        <ele>731</ele>
        <time>2017-10-30T11:27:49Z</time>
      </trkpt>
      <trkpt lat="46.08294" lon="4.54762">
        <ele>734</ele>
        <time>2017-10-30T11:29:49Z</time>
      </trkpt>
      <trkpt lat="46.08316" lon="4.54749">
        <ele>735</ele>
        <time>2017-10-30T11:31:49Z</time>
      </trkpt>
      <trkpt lat="46.08334" lon="4.54733">
        <ele>735</ele>
        <time>2017-10-30T11:33:49Z</time>
      </trkpt>
      <trkpt lat="46.08343" lon="4.54723">
        <ele>735</ele>
        <time>2017-10-30T11:35:49Z</time>
      </trkpt>
      <trkpt lat="46.08351" lon="4.54712">
        <ele>735</ele>
        <time>2017-10-30T11:37:49Z</time>
      </trkpt>
      <trkpt lat="46.08368" lon="4.54686">
        <ele>734</ele>
        <time>2017-10-30T11:39:49Z</time>
      </trkpt>
      <trkpt lat="46.08383" lon="4.54673">
        <ele>734</ele>
        <time>2017-10-30T11:41:49Z</time>
      </trkpt>
      <trkpt lat="46.08389" lon="4.54669">
        <ele>734</ele>
        <time>2017-10-30T11:43:49Z</time>
      </trkpt>
      <trkpt lat="46.08394" lon="4.54668">
        <ele>735</ele>
        <time>2017-10-30T11:45:49Z</time>
      </trkpt>
      <trkpt lat="46.08401" lon="4.54668">
        <ele>736</ele>
        <time>2017-10-30T11:47:49Z</time>
      </trkpt>
      <trkpt lat="46.08408" lon="4.5467">
        <ele>737</ele>
        <time>2017-10-30T11:49:49Z</time>
      </trkpt>
      <trkpt lat="46.08427" lon="4.54678">
        <ele>738</ele>
        <time>2017-10-30T11:51:49Z</time>
      </trkpt>
      <trkpt lat="46.08437" lon="4.54684">
        <ele>737</ele>
        <time>2017-10-30T11:53:49Z</time>
      </trkpt>
      <trkpt lat="46.08461" lon="4.54701">
        <ele>737</ele>
        <time>2017-10-30T11:55:49Z</time>
      </trkpt>
      <trkpt lat="46.08485" lon="4.54721">
        <ele>739</ele>
        <time>2017-10-30T11:57:49Z</time>
      </trkpt>
      <trkpt lat="46.08496" lon="4.54731">
        <ele>741</ele>
        <time>2017-10-30T11:59:49Z</time>
      </trkpt>
      <trkpt lat="46.08507" lon="4.54744">
        <ele>743</ele>
        <time>2017-10-30T12:01:49Z</time>
      </trkpt>
      <trkpt lat="46.08515" lon="4.54756">
        <ele>743</ele>
        <time>2017-10-30T12:03:49Z</time>
      </trkpt>
      <trkpt lat="46.08526" lon="4.5477">
        <ele>742</ele>
        <time>2017-10-30T12:05:49Z</time>
      </trkpt>
      <trkpt lat="46.08555" lon="4.54819">
        <ele>740</ele>
        <time>2017-10-30T12:07:49Z</time>
      </trkpt>
      <trkpt lat="46.08567" lon="4.54836">
        <ele>739</ele>
        <time>2017-10-30T12:09:49Z</time>
      </trkpt>
      <trkpt lat="46.08575" lon="4.54852">
        <ele>739</ele>
        <time>2017-10-30T12:11:49Z</time>
      </trkpt>
      <trkpt lat="46.08585" lon="4.54862">
        <ele>737</ele>
        <time>2017-10-30T12:13:49Z</time>
      </trkpt>
      <trkpt lat="46.08595" lon="4.54869">
        <ele>738</ele>
        <time>2017-10-30T12:15:49Z</time>
      </trkpt>
      <trkpt lat="46.08603" lon="4.54874">
        <ele>738</ele>
        <time>2017-10-30T12:17:49Z</time>
      </trkpt>
      <trkpt lat="46.08623" lon="4.54885">
        <ele>739</ele>
        <time>2017-10-30T12:19:49Z</time>
      </trkpt>
      <trkpt lat="46.08633" lon="4.54889">
        <ele>739</ele>
        <time>2017-10-30T12:21:49Z</time>
      </trkpt>
      <trkpt lat="46.08639" lon="4.5489">
        <ele>739</ele>
        <time>2017-10-30T12:23:49Z</time>
      </trkpt>
      <trkpt lat="46.08641" lon="4.5489">
        <ele>739</ele>
        <time>2017-10-30T12:25:49Z</time>
      </trkpt>
      <trkpt lat="46.08662" lon="4.54888">
        <ele>737</ele>
        <time>2017-10-30T12:27:49Z</time>
      </trkpt>
      <trkpt lat="46.08672" lon="4.54884">
        <ele>737</ele>
        <time>2017-10-30T12:29:49Z</time>
      </trkpt>
      <trkpt lat="46.08684" lon="4.54879">
        <ele>739</ele>
        <time>2017-10-30T12:31:49Z</time>
      </trkpt>
      <trkpt lat="46.08694" lon="4.54871">
        <ele>739</ele>
        <time>2017-10-30T12:33:49Z</time>
      </trkpt>
      <trkpt lat="46.08704" lon="4.5486">
        <ele>739</ele>
        <time>2017-10-30T12:35:49Z</time>
      </trkpt>
      <trkpt lat="46.08716" lon="4.54847">
        <ele>738</ele>
        <time>2017-10-30T12:37:49Z</time>
      </trkpt>
      <trkpt lat="46.08723" lon="4.54836">
        <ele>737</ele>
        <time>2017-10-30T12:39:49Z</time>
      </trkpt>
      <trkpt lat="46.08739" lon="4.54817">
        <ele>736</ele>
        <time>2017-10-30T12:41:49Z</time>
      </trkpt>
      <trkpt lat="46.08752" lon="4.54807">
        <ele>735</ele>
        <time>2017-10-30T12:43:49Z</time>
      </trkpt>
      <trkpt lat="46.08766" lon="4.54798">
        <ele>734</ele>
        <time>2017-10-30T12:45:49Z</time>
      </trkpt>
      <trkpt lat="46.08791" lon="4.54785">
        <ele>734</ele>
        <time>2017-10-30T12:47:49Z</time>
      </trkpt>
      <trkpt lat="46.08814" lon="4.54777">
        <ele>735</ele>
        <time>2017-10-30T12:49:49Z</time>
      </trkpt>
      <trkpt lat="46.08867" lon="4.54761">
        <ele>737</ele>
        <time>2017-10-30T12:51:49Z</time>
      </trkpt>
      <trkpt lat="46.08883" lon="4.54757">
        <ele>737</ele>
        <time>2017-10-30T12:53:49Z</time>
      </trkpt>
      <trkpt lat="46.08897" lon="4.54751">
        <ele>737</ele>
        <time>2017-10-30T12:55:49Z</time>
      </trkpt>
      <trkpt lat="46.08925" lon="4.54736">
        <ele>737</ele>
        <time>2017-10-30T12:57:49Z</time>
      </trkpt>
      <trkpt lat="46.08938" lon="4.54725">
        <ele>736</ele>
        <time>2017-10-30T12:59:49Z</time>
      </trkpt>
      <trkpt lat="46.08948" lon="4.54716">
        <ele>735</ele>
        <time>2017-10-30T13:01:49Z</time>
      </trkpt>
      <trkpt lat="46.08956" lon="4.54708">
        <ele>735</ele>
        <time>2017-10-30T13:03:49Z</time>
      </trkpt>
      <trkpt lat="46.08966" lon="4.547">
        <ele>734</ele>
        <time>2017-10-30T13:05:49Z</time>
      </trkpt>
      <trkpt lat="46.08991" lon="4.54677">
        <ele>734</ele>
        <time>2017-10-30T13:07:49Z</time>
      </trkpt>
      <trkpt lat="46.09016" lon="4.54651">
        <ele>736</ele>
        <time>2017-10-30T13:09:49Z</time>
      </trkpt>
      <trkpt lat="46.09033" lon="4.5463">
        <ele>738</ele>
        <time>2017-10-30T13:11:49Z</time>
      </trkpt>
      <trkpt lat="46.09043" lon="4.54619">
        <ele>739</ele>
        <time>2017-10-30T13:13:49Z</time>
      </trkpt>
      <trkpt lat="46.09052" lon="4.54604">
        <ele>740</ele>
        <time>2017-10-30T13:15:49Z</time>
      </trkpt>
      <trkpt lat="46.09057" lon="4.54594">
        <ele>741</ele>
        <time>2017-10-30T13:17:49Z</time>
      </trkpt>
      <trkpt lat="46.09059" lon="4.54587">
        <ele>741</ele>
        <time>2017-10-30T13:19:49Z</time>
      </trkpt>
      <trkpt lat="46.09063" lon="4.54574">
        <ele>741</ele>
        <time>2017-10-30T13:21:49Z</time>
      </trkpt>
      <trkpt lat="46.09065" lon="4.54565">
        <ele>741</ele>
        <time>2017-10-30T13:23:49Z</time>
      </trkpt>
      <trkpt lat="46.09067" lon="4.54524">
        <ele>739</ele>
        <time>2017-10-30T13:25:49Z</time>
      </trkpt>
      <trkpt lat="46.09068" lon="4.54492">
        <ele>738</ele>
        <time>2017-10-30T13:27:49Z</time>
      </trkpt>
      <trkpt lat="46.09068" lon="4.54443">
        <ele>735</ele>
        <time>2017-10-30T13:29:49Z</time>
      </trkpt>
      <trkpt lat="46.09067" lon="4.54426">
        <ele>734</ele>
        <time>2017-10-30T13:31:49Z</time>
      </trkpt>
      <trkpt lat="46.09063" lon="4.54402">
        <ele>732</ele>
        <time>2017-10-30T13:33:49Z</time>
      </trkpt>
      <trkpt lat="46.09059" lon="4.54393">
        <ele>730</ele>
        <time>2017-10-30T13:35:49Z</time>
      </trkpt>
      <trkpt lat="46.09056" lon="4.54382">
        <ele>729</ele>
        <time>2017-10-30T13:37:49Z</time>
      </trkpt>
      <trkpt lat="46.09052" lon="4.54371">
        <ele>728</ele>
        <time>2017-10-30T13:39:49Z</time>
      </trkpt>
      <trkpt lat="46.09045" lon="4.5435">
        <ele>727</ele>
        <time>2017-10-30T13:41:49Z</time>
      </trkpt>
      <trkpt lat="46.09044" lon="4.54342">
        <ele>726</ele>
        <time>2017-10-30T13:43:49Z</time>
      </trkpt>
      <trkpt lat="46.09043" lon="4.54332">
        <ele>726</ele>
        <time>2017-10-30T13:45:49Z</time>
      </trkpt>
      <trkpt lat="46.09043" lon="4.54321">
        <ele>726</ele>
        <time>2017-10-30T13:47:49Z</time>
      </trkpt>
      <trkpt lat="46.09045" lon="4.54312">
        <ele>726</ele>
        <time>2017-10-30T13:49:49Z</time>
      </trkpt>
      <trkpt lat="46.09049" lon="4.54304">
        <ele>727</ele>
        <time>2017-10-30T13:51:49Z</time>
      </trkpt>
      <trkpt lat="46.09057" lon="4.54293">
        <ele>727</ele>
        <time>2017-10-30T13:53:49Z</time>
      </trkpt>
      <trkpt lat="46.09067" lon="4.54287">
        <ele>728</ele>
        <time>2017-10-30T13:55:49Z</time>
      </trkpt>
      <trkpt lat="46.09075" lon="4.5428">
        <ele>728</ele>
        <time>2017-10-30T13:57:49Z</time>
      </trkpt>
      <trkpt lat="46.09084" lon="4.54274">
        <ele>728</ele>
        <time>2017-10-30T13:59:49Z</time>
      </trkpt>
      <trkpt lat="46.09092" lon="4.5427">
        <ele>728</ele>
        <time>2017-10-30T14:01:49Z</time>
      </trkpt>
      <trkpt lat="46.091" lon="4.54268">
        <ele>727</ele>
        <time>2017-10-30T14:03:49Z</time>
      </trkpt>
      <trkpt lat="46.09113" lon="4.54268">
        <ele>726</ele>
        <time>2017-10-30T14:05:49Z</time>
      </trkpt>
      <trkpt lat="46.0912" lon="4.54269">
        <ele>726</ele>
        <time>2017-10-30T14:07:49Z</time>
      </trkpt>
      <trkpt lat="46.09128" lon="4.54271">
        <ele>725</ele>
        <time>2017-10-30T14:09:49Z</time>
      </trkpt>
      <trkpt lat="46.09142" lon="4.54278">
        <ele>726</ele>
        <time>2017-10-30T14:11:49Z</time>
      </trkpt>
      <trkpt lat="46.09181" lon="4.543">
        <ele>728</ele>
        <time>2017-10-30T14:13:49Z</time>
      </trkpt>
      <trkpt lat="46.09201" lon="4.54308">
        <ele>728</ele>
        <time>2017-10-30T14:15:49Z</time>
      </trkpt>
      <trkpt lat="46.09228" lon="4.54315">
        <ele>728</ele>
        <time>2017-10-30T14:17:49Z</time>
      </trkpt>
      <trkpt lat="46.09258" lon="4.54316">
        <ele>726</ele>
        <time>2017-10-30T14:19:49Z</time>
      </trkpt>
      <trkpt lat="46.09261" lon="4.54316">
        <ele>726</ele>
        <time>2017-10-30T14:21:49Z</time>
      </trkpt>
      <trkpt lat="46.09288" lon="4.54307">
        <ele>723</ele>
        <time>2017-10-30T14:23:49Z</time>
      </trkpt>
      <trkpt lat="46.09331" lon="4.54291">
        <ele>719</ele>
        <time>2017-10-30T14:25:49Z</time>
      </trkpt>
      <trkpt lat="46.09341" lon="4.54287">
        <ele>719</ele>
        <time>2017-10-30T14:27:49Z</time>
      </trkpt>
      <trkpt lat="46.09355" lon="4.54279">
        <ele>719</ele>
        <time>2017-10-30T14:29:49Z</time>
      </trkpt>
      <trkpt lat="46.09374" lon="4.54266">
        <ele>718</ele>
        <time>2017-10-30T14:31:49Z</time>
      </trkpt>
      <trkpt lat="46.09432" lon="4.54226">
        <ele>712</ele>
        <time>2017-10-30T14:33:49Z</time>
      </trkpt>
      <trkpt lat="46.09445" lon="4.54217">
        <ele>710</ele>
        <time>2017-10-30T14:35:49Z</time>
      </trkpt>
      <trkpt lat="46.09456" lon="4.54208">
        <ele>708</ele>
        <time>2017-10-30T14:37:49Z</time>
      </trkpt>
      <trkpt lat="46.09464" lon="4.54201">
        <ele>707</ele>
        <time>2017-10-30T14:39:49Z</time>
      </trkpt>
      <trkpt lat="46.09477" lon="4.54186">
        <ele>704</ele>
        <time>2017-10-30T14:41:49Z</time>
      </trkpt>
      <trkpt lat="46.09503" lon="4.54152">
        <ele>700</ele>
        <time>2017-10-30T14:43:49Z</time>
      </trkpt>
      <trkpt lat="46.09517" lon="4.54138">
        <ele>696</ele>
        <time>2017-10-30T14:45:49Z</time>
      </trkpt>
      <trkpt lat="46.09523" lon="4.54134">
        <ele>695</ele>
        <time>2017-10-30T14:47:49Z</time>
      </trkpt>
      <trkpt lat="46.09529" lon="4.54131">
        <ele>694</ele>
        <time>2017-10-30T14:49:49Z</time>
      </trkpt>
      <trkpt lat="46.09536" lon="4.5413">
        <ele>694</ele>
        <time>2017-10-30T14:51:49Z</time>
      </trkpt>
      <trkpt lat="46.09542" lon="4.5413">
        <ele>693</ele>
        <time>2017-10-30T14:53:49Z</time>
      </trkpt>
      <trkpt lat="46.09552" lon="4.54132">
        <ele>693</ele>
        <time>2017-10-30T14:55:49Z</time>
      </trkpt>
      <trkpt lat="46.09567" lon="4.54139">
        <ele>692</ele>
        <time>2017-10-30T14:57:49Z</time>
      </trkpt>
      <trkpt lat="46.09623" lon="4.54168">
        <ele>691</ele>
        <time>2017-10-30T14:59:49Z</time>
      </trkpt>
      <trkpt lat="46.09686" lon="4.54202">
        <ele>688</ele>
        <time>2017-10-30T15:01:49Z</time>
      </trkpt>
      <trkpt lat="46.09705" lon="4.54208">
        <ele>689</ele>
        <time>2017-10-30T15:03:49Z</time>
      </trkpt>
      <trkpt lat="46.0971" lon="4.54209">
        <ele>689</ele>
        <time>2017-10-30T15:05:49Z</time>
      </trkpt>
      <trkpt lat="46.09715" lon="4.54207">
        <ele>689</ele>
        <time>2017-10-30T15:07:49Z</time>
      </trkpt>
      <trkpt lat="46.09717" lon="4.54207">
        <ele>689</ele>
        <time>2017-10-30T15:09:49Z</time>
      </trkpt>
      <trkpt lat="46.0972" lon="4.54205">
        <ele>689</ele>
        <time>2017-10-30T15:11:49Z</time>
      </trkpt>
      <trkpt lat="46.09722" lon="4.54204">
        <ele>689</ele>
        <time>2017-10-30T15:13:49Z</time>
      </trkpt>
      <trkpt lat="46.09726" lon="4.54203">
        <ele>689</ele>
        <time>2017-10-30T15:15:49Z</time>
      </trkpt>
      <trkpt lat="46.09726" lon="4.54203">
        <ele>689</ele>
        <time>2017-10-30T15:17:49Z</time>
      </trkpt>
      <trkpt lat="46.09725" lon="4.54194">
        <ele>690</ele>
        <time>2017-10-30T15:19:49Z</time>
      </trkpt>
      <trkpt lat="46.09725" lon="4.54187">
        <ele>690</ele>
        <time>2017-10-30T15:21:49Z</time>
      </trkpt>
      <trkpt lat="46.09726" lon="4.54179">
        <ele>690</ele>
        <time>2017-10-30T15:23:49Z</time>
      </trkpt>
      <trkpt lat="46.09728" lon="4.54163">
        <ele>691</ele>
        <time>2017-10-30T15:25:49Z</time>
      </trkpt>
      <trkpt lat="46.09732" lon="4.54139">
        <ele>690</ele>
        <time>2017-10-30T15:27:49Z</time>
      </trkpt>
      <trkpt lat="46.09739" lon="4.54097">
        <ele>690</ele>
        <time>2017-10-30T15:29:49Z</time>
      </trkpt>
      <trkpt lat="46.09749" lon="4.54025">
        <ele>686</ele>
        <time>2017-10-30T15:31:49Z</time>
      </trkpt>
      <trkpt lat="46.0975" lon="4.54016">
        <ele>685</ele>
        <time>2017-10-30T15:33:49Z</time>
      </trkpt>
      <trkpt lat="46.0975" lon="4.54014">
        <ele>685</ele>
        <time>2017-10-30T15:35:49Z</time>
      </trkpt>
      <trkpt lat="46.09752" lon="4.54001">
        <ele>685</ele>
        <time>2017-10-30T15:37:49Z</time>
      </trkpt>
      <trkpt lat="46.09754" lon="4.53983">
        <ele>684</ele>
        <time>2017-10-30T15:39:49Z</time>
      </trkpt>
      <trkpt lat="46.09758" lon="4.53953">
        <ele>682</ele>
        <time>2017-10-30T15:41:49Z</time>
      </trkpt>
      <trkpt lat="46.0976" lon="4.53941">
        <ele>681</ele>
        <time>2017-10-30T15:43:49Z</time>
      </trkpt>
      <trkpt lat="46.09761" lon="4.53934">
        <ele>681</ele>
        <time>2017-10-30T15:45:49Z</time>
      </trkpt>
      <trkpt lat="46.09763" lon="4.53925">
        <ele>680</ele>
        <time>2017-10-30T15:47:49Z</time>
      </trkpt>
      <trkpt lat="46.09765" lon="4.53918">
        <ele>680</ele>
        <time>2017-10-30T15:49:49Z</time>
      </trkpt>
      <trkpt lat="46.09767" lon="4.53906">
        <ele>679</ele>
        <time>2017-10-30T15:51:49Z</time>
      </trkpt>
      <trkpt lat="46.09769" lon="4.53898">
        <ele>678</ele>
        <time>2017-10-30T15:53:49Z</time>
      </trkpt>
      <trkpt lat="46.09772" lon="4.53891">
        <ele>678</ele>
        <time>2017-10-30T15:55:49Z</time>
      </trkpt>
      <trkpt lat="46.09774" lon="4.53884">
        <ele>677</ele>
        <time>2017-10-30T15:57:49Z</time>
      </trkpt>
      <trkpt lat="46.09777" lon="4.53877">
        <ele>677</ele>
        <time>2017-10-30T15:59:49Z</time>
      </trkpt>
      <trkpt lat="46.09781" lon="4.53867">
        <ele>677</ele>
        <time>2017-10-30T16:01:49Z</time>
      </trkpt>
      <trkpt lat="46.09785" lon="4.53858">
        <ele>676</ele>
        <time>2017-10-30T16:03:49Z</time>
      </trkpt>
      <trkpt lat="46.09791" lon="4.53846">
        <ele>676</ele>
        <time>2017-10-30T16:05:49Z</time>
      </trkpt>
      <trkpt lat="46.09799" lon="4.53831">
        <ele>676</ele>
        <time>2017-10-30T16:07:49Z</time>
      </trkpt>
      <trkpt lat="46.09804" lon="4.53824">
        <ele>676</ele>
        <time>2017-10-30T16:09:49Z</time>
      </trkpt>
      <trkpt lat="46.09808" lon="4.53816">
        <ele>676</ele>
        <time>2017-10-30T16:11:49Z</time>
      </trkpt>
      <trkpt lat="46.09827" lon="4.53783">
        <ele>676</ele>
        <time>2017-10-30T16:13:49Z</time>
      </trkpt>
      <trkpt lat="46.09838" lon="4.53761">
        <ele>676</ele>
        <time>2017-10-30T16:15:49Z</time>
      </trkpt>
      <trkpt lat="46.09847" lon="4.53741">
        <ele>674</ele>
        <time>2017-10-30T16:17:49Z</time>
      </trkpt>
      <trkpt lat="46.09859" lon="4.53718">
        <ele>672</ele>
        <time>2017-10-30T16:19:49Z</time>
      </trkpt>
      <trkpt lat="46.09873" lon="4.53696">
        <ele>671</ele>
        <time>2017-10-30T16:21:49Z</time>
      </trkpt>
      <trkpt lat="46.09888" lon="4.53677">
        <ele>670</ele>
        <time>2017-10-30T16:23:49Z</time>
      </trkpt>
      <trkpt lat="46.09915" lon="4.53646">
        <ele>668</ele>
        <time>2017-10-30T16:25:49Z</time>
      </trkpt>
      <trkpt lat="46.09929" lon="4.53635">
        <ele>666</ele>
        <time>2017-10-30T16:27:49Z</time>
      </trkpt>
      <trkpt lat="46.09948" lon="4.53623">
        <ele>665</ele>
        <time>2017-10-30T16:29:49Z</time>
      </trkpt>
      <trkpt lat="46.10013" lon="4.53586">
        <ele>663</ele>
        <time>2017-10-30T16:31:49Z</time>
      </trkpt>
      <trkpt lat="46.10048" lon="4.53565">
        <ele>662</ele>
        <time>2017-10-30T16:33:49Z</time>
      </trkpt>
      <trkpt lat="46.10073" lon="4.53548">
        <ele>662</ele>
        <time>2017-10-30T16:35:49Z</time>
      </trkpt>
      <trkpt lat="46.10093" lon="4.5353">
        <ele>662</ele>
        <time>2017-10-30T16:37:49Z</time>
      </trkpt>
      <trkpt lat="46.10108" lon="4.53514">
        <ele>663</ele>
        <time>2017-10-30T16:39:49Z</time>
      </trkpt>
      <trkpt lat="46.10112" lon="4.53508">
        <ele>663</ele>
        <time>2017-10-30T16:41:49Z</time>
      </trkpt>
      <trkpt lat="46.10119" lon="4.53498">
        <ele>663</ele>
        <time>2017-10-30T16:43:49Z</time>
      </trkpt>
      <trkpt lat="46.10124" lon="4.53489">
        <ele>664</ele>
        <time>2017-10-30T16:45:49Z</time>
      </trkpt>
      <trkpt lat="46.10126" lon="4.53484">
        <ele>665</ele>
        <time>2017-10-30T16:47:49Z</time>
      </trkpt>
      <trkpt lat="46.10127" lon="4.53478">
        <ele>665</ele>
        <time>2017-10-30T16:49:49Z</time>
      </trkpt>
      <trkpt lat="46.10127" lon="4.53471">
        <ele>665</ele>
        <time>2017-10-30T16:51:49Z</time>
      </trkpt>
      <trkpt lat="46.10128" lon="4.53465">
        <ele>665</ele>
        <time>2017-10-30T16:53:49Z</time>
      </trkpt>
      <trkpt lat="46.10127" lon="4.53459">
        <ele>665</ele>
        <time>2017-10-30T16:55:49Z</time>
      </trkpt>
      <trkpt lat="46.10127" lon="4.53451">
        <ele>665</ele>
        <time>2017-10-30T16:57:49Z</time>
      </trkpt>
      <trkpt lat="46.10125" lon="4.53443">
        <ele>665</ele>
        <time>2017-10-30T16:59:49Z</time>
      </trkpt>
      <trkpt lat="46.10123" lon="4.53435">
        <ele>665</ele>
        <time>2017-10-30T17:01:49Z</time>
      </trkpt>
      <trkpt lat="46.1012" lon="4.53425">
        <ele>664</ele>
        <time>2017-10-30T17:03:49Z</time>
      </trkpt>
      <trkpt lat="46.10112" lon="4.53404">
        <ele>663</ele>
        <time>2017-10-30T17:05:49Z</time>
      </trkpt>
      <trkpt lat="46.10107" lon="4.53392">
        <ele>663</ele>
        <time>2017-10-30T17:07:49Z</time>
      </trkpt>
      <trkpt lat="46.10102" lon="4.53376">
        <ele>662</ele>
        <time>2017-10-30T17:09:49Z</time>
      </trkpt>
      <trkpt lat="46.10098" lon="4.53363">
        <ele>662</ele>
        <time>2017-10-30T17:11:49Z</time>
      </trkpt>
      <trkpt lat="46.10093" lon="4.53345">
        <ele>662</ele>
        <time>2017-10-30T17:13:49Z</time>
      </trkpt>
      <trkpt lat="46.10088" lon="4.53328">
        <ele>661</ele>
        <time>2017-10-30T17:15:49Z</time>
      </trkpt>
      <trkpt lat="46.10085" lon="4.53313">
        <ele>661</ele>
        <time>2017-10-30T17:17:49Z</time>
      </trkpt>
      <trkpt lat="46.10083" lon="4.53299">
        <ele>662</ele>
        <time>2017-10-30T17:19:49Z</time>
      </trkpt>
      <trkpt lat="46.10081" lon="4.5329">
        <ele>662</ele>
        <time>2017-10-30T17:21:49Z</time>
      </trkpt>
      <trkpt lat="46.10079" lon="4.53286">
        <ele>662</ele>
        <time>2017-10-30T17:23:49Z</time>
      </trkpt>
      <trkpt lat="46.10077" lon="4.53282">
        <ele>662</ele>
        <time>2017-10-30T17:25:49Z</time>
      </trkpt>
      <trkpt lat="46.10075" lon="4.53279">
        <ele>662</ele>
        <time>2017-10-30T17:27:49Z</time>
      </trkpt>
      <trkpt lat="46.10072" lon="4.53276">
        <ele>662</ele>
        <time>2017-10-30T17:29:49Z</time>
      </trkpt>
      <trkpt lat="46.10069" lon="4.53275">
        <ele>662</ele>
        <time>2017-10-30T17:31:49Z</time>
      </trkpt>
      <trkpt lat="46.10063" lon="4.53274">
        <ele>662</ele>
        <time>2017-10-30T17:33:49Z</time>
      </trkpt>
      <trkpt lat="46.10059" lon="4.53275">
        <ele>662</ele>
        <time>2017-10-30T17:35:49Z</time>
      </trkpt>
      <trkpt lat="46.10056" lon="4.53277">
        <ele>662</ele>
        <time>2017-10-30T17:37:49Z</time>
      </trkpt>
      <trkpt lat="46.10051" lon="4.5328">
        <ele>661</ele>
        <time>2017-10-30T17:39:49Z</time>
      </trkpt>
      <trkpt lat="46.10047" lon="4.53283">
        <ele>661</ele>
        <time>2017-10-30T17:41:49Z</time>
      </trkpt>
      <trkpt lat="46.10038" lon="4.5329">
        <ele>659</ele>
        <time>2017-10-30T17:43:49Z</time>
      </trkpt>
      <trkpt lat="46.10031" lon="4.53296">
        <ele>658</ele>
        <time>2017-10-30T17:45:49Z</time>
      </trkpt>
      <trkpt lat="46.10026" lon="4.53299">
        <ele>658</ele>
        <time>2017-10-30T17:47:49Z</time>
      </trkpt>
      <trkpt lat="46.1002" lon="4.53303">
        <ele>657</ele>
        <time>2017-10-30T17:49:49Z</time>
      </trkpt>
      <trkpt lat="46.10015" lon="4.53306">
        <ele>656</ele>
        <time>2017-10-30T17:51:49Z</time>
      </trkpt>
      <trkpt lat="46.10009" lon="4.53308">
        <ele>655</ele>
        <time>2017-10-30T17:53:49Z</time>
      </trkpt>
      <trkpt lat="46.10007" lon="4.53308">
        <ele>655</ele>
        <time>2017-10-30T17:55:49Z</time>
      </trkpt>
      <trkpt lat="46.10003" lon="4.53309">
        <ele>654</ele>
        <time>2017-10-30T17:57:49Z</time>
      </trkpt>
      <trkpt lat="46.09999" lon="4.53308">
        <ele>654</ele>
        <time>2017-10-30T17:59:49Z</time>
      </trkpt>
      <trkpt lat="46.09991" lon="4.53307">
        <ele>654</ele>
        <time>2017-10-30T18:01:49Z</time>
      </trkpt>
      <trkpt lat="46.09977" lon="4.53305">
        <ele>655</ele>
        <time>2017-10-30T18:03:49Z</time>
      </trkpt>
      <trkpt lat="46.09971" lon="4.53305">
        <ele>655</ele>
        <time>2017-10-30T18:05:49Z</time>
      </trkpt>
      <trkpt lat="46.09965" lon="4.53305">
        <ele>655</ele>
        <time>2017-10-30T18:07:49Z</time>
      </trkpt>
      <trkpt lat="46.09962" lon="4.53306">
        <ele>654</ele>
        <time>2017-10-30T18:09:49Z</time>
      </trkpt>
      <trkpt lat="46.09958" lon="4.53307">
        <ele>654</ele>
        <time>2017-10-30T18:11:49Z</time>
      </trkpt>
      <trkpt lat="46.09955" lon="4.53308">
        <ele>654</ele>
        <time>2017-10-30T18:13:49Z</time>
      </trkpt>
      <trkpt lat="46.09954" lon="4.53309">
        <ele>654</ele>
        <time>2017-10-30T18:15:49Z</time>
      </trkpt>
      <trkpt lat="46.09951" lon="4.53311">
        <ele>654</ele>
        <time>2017-10-30T18:17:49Z</time>
      </trkpt>
      <trkpt lat="46.09947" lon="4.53314">
        <ele>653</ele>
        <time>2017-10-30T18:19:49Z</time>
      </trkpt>
      <trkpt lat="46.09942" lon="4.53318">
        <ele>652</ele>
        <time>2017-10-30T18:21:49Z</time>
      </trkpt>
      <trkpt lat="46.09937" lon="4.53325">
        <ele>651</ele>
        <time>2017-10-30T18:23:49Z</time>
      </trkpt>
      <trkpt lat="46.09932" lon="4.53331">
        <ele>650</ele>
        <time>2017-10-30T18:25:49Z</time>
      </trkpt>
      <trkpt lat="46.09926" lon="4.53338">
        <ele>649</ele>
        <time>2017-10-30T18:27:49Z</time>
      </trkpt>
      <trkpt lat="46.09921" lon="4.53344">
        <ele>648</ele>
        <time>2017-10-30T18:29:49Z</time>
      </trkpt>
      <trkpt lat="46.09915" lon="4.53348">
        <ele>647</ele>
        <time>2017-10-30T18:31:49Z</time>
      </trkpt>
      <trkpt lat="46.09909" lon="4.53351">
        <ele>646</ele>
        <time>2017-10-30T18:33:49Z</time>
      </trkpt>
      <trkpt lat="46.09902" lon="4.53352">
        <ele>645</ele>
        <time>2017-10-30T18:35:49Z</time>
      </trkpt>
      <trkpt lat="46.09901" lon="4.53352">
        <ele>645</ele>
        <time>2017-10-30T18:37:49Z</time>
      </trkpt>
      <trkpt lat="46.09895" lon="4.53351">
        <ele>644</ele>
        <time>2017-10-30T18:39:49Z</time>
      </trkpt>
      <trkpt lat="46.09886" lon="4.53348">
        <ele>644</ele>
        <time>2017-10-30T18:41:49Z</time>
      </trkpt>
      <trkpt lat="46.09879" lon="4.53346">
        <ele>643</ele>
        <time>2017-10-30T18:43:49Z</time>
      </trkpt>
      <trkpt lat="46.0987" lon="4.53341">
        <ele>643</ele>
        <time>2017-10-30T18:45:49Z</time>
      </trkpt>
      <trkpt lat="46.09861" lon="4.53335">
        <ele>643</ele>
        <time>2017-10-30T18:47:49Z</time>
      </trkpt>
      <trkpt lat="46.09852" lon="4.53329">
        <ele>643</ele>
        <time>2017-10-30T18:49:49Z</time>
      </trkpt>
      <trkpt lat="46.09843" lon="4.53321">
        <ele>644</ele>
        <time>2017-10-30T18:51:49Z</time>
      </trkpt>
      <trkpt lat="46.09836" lon="4.53316">
        <ele>644</ele>
        <time>2017-10-30T18:53:49Z</time>
      </trkpt>
      <trkpt lat="46.09831" lon="4.53311">
        <ele>645</ele>
        <time>2017-10-30T18:55:49Z</time>
      </trkpt>
      <trkpt lat="46.09828" lon="4.53309">
        <ele>645</ele>
        <time>2017-10-30T18:57:49Z</time>
      </trkpt>
      <trkpt lat="46.09825" lon="4.53306">
        <ele>645</ele>
        <time>2017-10-30T18:59:49Z</time>
      </trkpt>
      <trkpt lat="46.09822" lon="4.53304">
        <ele>646</ele>
        <time>2017-10-30T19:01:49Z</time>
      </trkpt>
      <trkpt lat="46.09815" lon="4.53301">
        <ele>646</ele>
        <time>2017-10-30T19:03:49Z</time>
      </trkpt>
      <trkpt lat="46.09809" lon="4.53299">
        <ele>646</ele>
        <time>2017-10-30T19:05:49Z</time>
      </trkpt>
      <trkpt lat="46.09803" lon="4.53298">
        <ele>646</ele>
        <time>2017-10-30T19:07:49Z</time>
      </trkpt>
      <trkpt lat="46.09796" lon="4.53299">
        <ele>645</ele>
        <time>2017-10-30T19:09:49Z</time>
      </trkpt>
      <trkpt lat="46.0979" lon="4.53301">
        <ele>644</ele>
        <time>2017-10-30T19:11:49Z</time>
      </trkpt>
      <trkpt lat="46.09783" lon="4.53303">
        <ele>643</ele>
        <time>2017-10-30T19:13:49Z</time>
      </trkpt>
      <trkpt lat="46.09777" lon="4.53306">
        <ele>642</ele>
        <time>2017-10-30T19:15:49Z</time>
      </trkpt>
      <trkpt lat="46.0977" lon="4.5331">
        <ele>641</ele>
        <time>2017-10-30T19:17:49Z</time>
      </trkpt>
      <trkpt lat="46.0976" lon="4.53315">
        <ele>639</ele>
        <time>2017-10-30T19:19:49Z</time>
      </trkpt>
      <trkpt lat="46.09754" lon="4.53319">
        <ele>638</ele>
        <time>2017-10-30T19:21:49Z</time>
      </trkpt>
      <trkpt lat="46.09749" lon="4.5332">
        <ele>638</ele>
        <time>2017-10-30T19:23:49Z</time>
      </trkpt>
      <trkpt lat="46.09742" lon="4.53322">
        <ele>636</ele>
        <time>2017-10-30T19:25:49Z</time>
      </trkpt>
      <trkpt lat="46.09736" lon="4.53322">
        <ele>635</ele>
        <time>2017-10-30T19:27:49Z</time>
      </trkpt>
      <trkpt lat="46.09729" lon="4.53322">
        <ele>634</ele>
        <time>2017-10-30T19:29:49Z</time>
      </trkpt>
      <trkpt lat="46.09723" lon="4.5332">
        <ele>633</ele>
        <time>2017-10-30T19:31:49Z</time>
      </trkpt>
      <trkpt lat="46.09716" lon="4.53318">
        <ele>633</ele>
        <time>2017-10-30T19:33:49Z</time>
      </trkpt>
      <trkpt lat="46.09709" lon="4.53314">
        <ele>632</ele>
        <time>2017-10-30T19:35:49Z</time>
      </trkpt>
      <trkpt lat="46.09666" lon="4.53294">
        <ele>628</ele>
        <time>2017-10-30T19:37:49Z</time>
      </trkpt>
      <trkpt lat="46.09657" lon="4.53289">
        <ele>627</ele>
        <time>2017-10-30T19:39:49Z</time>
      </trkpt>
      <trkpt lat="46.09646" lon="4.53281">
        <ele>625</ele>
        <time>2017-10-30T19:41:49Z</time>
      </trkpt>
      <trkpt lat="46.09642" lon="4.53275">
        <ele>625</ele>
        <time>2017-10-30T19:43:49Z</time>
      </trkpt>
      <trkpt lat="46.09637" lon="4.53269">
        <ele>624</ele>
        <time>2017-10-30T19:45:49Z</time>
      </trkpt>
      <trkpt lat="46.09633" lon="4.53263">
        <ele>624</ele>
        <time>2017-10-30T19:47:49Z</time>
      </trkpt>
      <trkpt lat="46.0963" lon="4.53255">
        <ele>624</ele>
        <time>2017-10-30T19:49:49Z</time>
      </trkpt>
      <trkpt lat="46.09627" lon="4.53247">
        <ele>624</ele>
        <time>2017-10-30T19:51:49Z</time>
      </trkpt>
      <trkpt lat="46.09624" lon="4.53238">
        <ele>624</ele>
        <time>2017-10-30T19:53:49Z</time>
      </trkpt>
      <trkpt lat="46.09622" lon="4.53228">
        <ele>624</ele>
        <time>2017-10-30T19:55:49Z</time>
      </trkpt>
      <trkpt lat="46.09621" lon="4.5322">
        <ele>624</ele>
        <time>2017-10-30T19:57:49Z</time>
      </trkpt>
      <trkpt lat="46.0962" lon="4.53212">
        <ele>625</ele>
        <time>2017-10-30T19:59:49Z</time>
      </trkpt>
      <trkpt lat="46.09618" lon="4.53195">
        <ele>625</ele>
        <time>2017-10-30T20:01:49Z</time>
      </trkpt>
      <trkpt lat="46.09617" lon="4.53185">
        <ele>626</ele>
        <time>2017-10-30T20:03:49Z</time>
      </trkpt>
      <trkpt lat="46.09616" lon="4.53178">
        <ele>626</ele>
        <time>2017-10-30T20:05:49Z</time>
      </trkpt>
      <trkpt lat="46.09615" lon="4.53171">
        <ele>626</ele>
        <time>2017-10-30T20:07:49Z</time>
      </trkpt>
      <trkpt lat="46.09613" lon="4.53167">
        <ele>626</ele>
        <time>2017-10-30T20:09:49Z</time>
      </trkpt>
      <trkpt lat="46.0961" lon="4.53158">
        <ele>626</ele>
        <time>2017-10-30T20:11:49Z</time>
      </trkpt>
      <trkpt lat="46.09607" lon="4.53153">
        <ele>626</ele>
        <time>2017-10-30T20:13:49Z</time>
      </trkpt>
      <trkpt lat="46.09599" lon="4.53147">
        <ele>625</ele>
        <time>2017-10-30T20:15:49Z</time>
      </trkpt>
      <trkpt lat="46.09589" lon="4.5314">
        <ele>623</ele>
        <time>2017-10-30T20:17:49Z</time>
      </trkpt>
      <trkpt lat="46.09578" lon="4.53136">
        <ele>621</ele>
        <time>2017-10-30T20:19:49Z</time>
      </trkpt>
      <trkpt lat="46.09572" lon="4.53131">
        <ele>620</ele>
        <time>2017-10-30T20:21:49Z</time>
      </trkpt>
      <trkpt lat="46.09558" lon="4.53122">
        <ele>617</ele>
        <time>2017-10-30T20:23:49Z</time>
      </trkpt>
      <trkpt lat="46.09543" lon="4.53106">
        <ele>616</ele>
        <time>2017-10-30T20:25:49Z</time>
      </trkpt>
      <trkpt lat="46.09527" lon="4.53079">
        <ele>615</ele>
        <time>2017-10-30T20:27:49Z</time>
      </trkpt>
      <trkpt lat="46.09527" lon="4.53079">
        <ele>615</ele>
        <time>2017-10-30T20:29:49Z</time>
      </trkpt>
      <trkpt lat="46.09524" lon="4.53073">
        <ele>615</ele>
        <time>2017-10-30T20:31:49Z</time>
      </trkpt>
      <trkpt lat="46.09501" lon="4.53032">
        <ele>613</ele>
        <time>2017-10-30T20:33:49Z</time>
      </trkpt>
      <trkpt lat="46.09432" lon="4.52899">
        <ele>606</ele>
        <time>2017-10-30T20:35:49Z</time>
      </trkpt>
      <trkpt lat="46.09423" lon="4.52883">
        <ele>605</ele>
        <time>2017-10-30T20:37:49Z</time>
      </trkpt>
      <trkpt lat="46.0941" lon="4.52855">
        <ele>603</ele>
        <time>2017-10-30T20:39:49Z</time>
      </trkpt>
      <trkpt lat="46.09401" lon="4.52839">
        <ele>603</ele>
        <time>2017-10-30T20:41:49Z</time>
      </trkpt>
      <trkpt lat="46.09396" lon="4.5283">
        <ele>602</ele>
        <time>2017-10-30T20:43:49Z</time>
      </trkpt>
      <trkpt lat="46.09391" lon="4.52823">
        <ele>601</ele>
        <time>2017-10-30T20:45:49Z</time>
      </trkpt>
      <trkpt lat="46.09386" lon="4.52816">
        <ele>600</ele>
        <time>2017-10-30T20:47:49Z</time>
      </trkpt>
      <trkpt lat="46.09373" lon="4.52801">
        <ele>599</ele>
        <time>2017-10-30T20:49:49Z</time>
      </trkpt>
      <trkpt lat="46.09356" lon="4.52781">
        <ele>597</ele>
        <time>2017-10-30T20:51:49Z</time>
      </trkpt>
      <trkpt lat="46.09346" lon="4.52768">
        <ele>596</ele>
        <time>2017-10-30T20:53:49Z</time>
      </trkpt>
      <trkpt lat="46.09334" lon="4.52747">
        <ele>596</ele>
        <time>2017-10-30T20:55:49Z</time>
      </trkpt>
      <trkpt lat="46.0933" lon="4.52739">
        <ele>595</ele>
        <time>2017-10-30T20:57:49Z</time>
      </trkpt>
      <trkpt lat="46.09327" lon="4.5273">
        <ele>594</ele>
        <time>2017-10-30T20:59:49Z</time>
      </trkpt>
      <trkpt lat="46.09326" lon="4.52721">
        <ele>593</ele>
        <time>2017-10-30T21:01:49Z</time>
      </trkpt>
      <trkpt lat="46.09326" lon="4.52714">
        <ele>593</ele>
        <time>2017-10-30T21:03:49Z</time>
      </trkpt>
      <trkpt lat="46.09327" lon="4.52706">
        <ele>593</ele>
        <time>2017-10-30T21:05:49Z</time>
      </trkpt>
      <trkpt lat="46.09328" lon="4.52698">
        <ele>592</ele>
        <time>2017-10-30T21:07:49Z</time>
      </trkpt>
      <trkpt lat="46.0933" lon="4.52692">
        <ele>593</ele>
        <time>2017-10-30T21:09:49Z</time>
      </trkpt>
      <trkpt lat="46.09335" lon="4.52672">
        <ele>592</ele>
        <time>2017-10-30T21:11:49Z</time>
      </trkpt>
      <trkpt lat="46.09338" lon="4.52663">
        <ele>592</ele>
        <time>2017-10-30T21:13:49Z</time>
      </trkpt>
      <trkpt lat="46.09344" lon="4.52642">
        <ele>589</ele>
        <time>2017-10-30T21:15:49Z</time>
      </trkpt>
      <trkpt lat="46.09349" lon="4.52628">
        <ele>587</ele>
        <time>2017-10-30T21:17:49Z</time>
      </trkpt>
      <trkpt lat="46.09354" lon="4.52618">
        <ele>586</ele>
        <time>2017-10-30T21:19:49Z</time>
      </trkpt>
      <trkpt lat="46.09359" lon="4.52609">
        <ele>585</ele>
        <time>2017-10-30T21:21:49Z</time>
      </trkpt>
      <trkpt lat="46.09364" lon="4.52601">
        <ele>584</ele>
        <time>2017-10-30T21:23:49Z</time>
      </trkpt>
      <trkpt lat="46.0937" lon="4.52594">
        <ele>583</ele>
        <time>2017-10-30T21:25:49Z</time>
      </trkpt>
      <trkpt lat="46.09377" lon="4.52586">
        <ele>583</ele>
        <time>2017-10-30T21:27:49Z</time>
      </trkpt>
      <trkpt lat="46.09385" lon="4.52579">
        <ele>582</ele>
        <time>2017-10-30T21:29:49Z</time>
      </trkpt>
      <trkpt lat="46.09403" lon="4.52569">
        <ele>581</ele>
        <time>2017-10-30T21:31:49Z</time>
      </trkpt>
      <trkpt lat="46.09419" lon="4.52561">
        <ele>581</ele>
        <time>2017-10-30T21:33:49Z</time>
      </trkpt>
      <trkpt lat="46.09439" lon="4.52554">
        <ele>581</ele>
        <time>2017-10-30T21:35:49Z</time>
      </trkpt>
      <trkpt lat="46.0945" lon="4.52552">
        <ele>582</ele>
        <time>2017-10-30T21:37:49Z</time>
      </trkpt>
      <trkpt lat="46.09458" lon="4.52551">
        <ele>582</ele>
        <time>2017-10-30T21:39:49Z</time>
      </trkpt>
      <trkpt lat="46.09483" lon="4.52549">
        <ele>584</ele>
        <time>2017-10-30T21:41:49Z</time>
      </trkpt>
      <trkpt lat="46.09504" lon="4.52548">
        <ele>586</ele>
        <time>2017-10-30T21:43:49Z</time>
      </trkpt>
      <trkpt lat="46.09516" lon="4.52547">
        <ele>587</ele>
        <time>2017-10-30T21:45:49Z</time>
      </trkpt>
      <trkpt lat="46.09522" lon="4.52546">
        <ele>588</ele>
        <time>2017-10-30T21:47:49Z</time>
      </trkpt>
      <trkpt lat="46.09527" lon="4.52545">
        <ele>588</ele>
        <time>2017-10-30T21:49:49Z</time>
      </trkpt>
      <trkpt lat="46.09533" lon="4.52542">
        <ele>588</ele>
        <time>2017-10-30T21:51:49Z</time>
      </trkpt>
      <trkpt lat="46.09537" lon="4.52539">
        <ele>588</ele>
        <time>2017-10-30T21:53:49Z</time>
      </trkpt>
      <trkpt lat="46.09539" lon="4.52537">
        <ele>588</ele>
        <time>2017-10-30T21:55:49Z</time>
      </trkpt>
      <trkpt lat="46.09541" lon="4.52533">
        <ele>588</ele>
        <time>2017-10-30T21:57:49Z</time>
      </trkpt>
      <trkpt lat="46.09544" lon="4.52528">
        <ele>588</ele>
        <time>2017-10-30T21:59:49Z</time>
      </trkpt>
      <trkpt lat="46.09545" lon="4.52525">
        <ele>588</ele>
        <time>2017-10-30T22:01:49Z</time>
      </trkpt>
      <trkpt lat="46.09545" lon="4.52521">
        <ele>588</ele>
        <time>2017-10-30T22:03:49Z</time>
      </trkpt>
      <trkpt lat="46.09545" lon="4.52518">
        <ele>588</ele>
        <time>2017-10-30T22:05:49Z</time>
      </trkpt>
      <trkpt lat="46.09545" lon="4.52515">
        <ele>587</ele>
        <time>2017-10-30T22:07:49Z</time>
      </trkpt>
      <trkpt lat="46.09545" lon="4.52511">
        <ele>587</ele>
        <time>2017-10-30T22:09:49Z</time>
      </trkpt>
      <trkpt lat="46.09545" lon="4.52508">
        <ele>587</ele>
        <time>2017-10-30T22:11:49Z</time>
      </trkpt>
      <trkpt lat="46.09544" lon="4.52505">
        <ele>586</ele>
        <time>2017-10-30T22:13:49Z</time>
      </trkpt>
      <trkpt lat="46.09542" lon="4.52501">
        <ele>586</ele>
        <time>2017-10-30T22:15:49Z</time>
      </trkpt>
      <trkpt lat="46.09539" lon="4.52495">
        <ele>586</ele>
        <time>2017-10-30T22:17:49Z</time>
      </trkpt>
      <trkpt lat="46.09535" lon="4.52488">
        <ele>587</ele>
        <time>2017-10-30T22:19:49Z</time>
      </trkpt>
      <trkpt lat="46.09529" lon="4.52481">
        <ele>587</ele>
        <time>2017-10-30T22:21:49Z</time>
      </trkpt>
      <trkpt lat="46.09523" lon="4.52473">
        <ele>588</ele>
        <time>2017-10-30T22:23:49Z</time>
      </trkpt>
      <trkpt lat="46.09512" lon="4.52461">
        <ele>588</ele>
        <time>2017-10-30T22:25:49Z</time>
      </trkpt>
      <trkpt lat="46.09497" lon="4.52448">
        <ele>587</ele>
        <time>2017-10-30T22:27:49Z</time>
      </trkpt>
      <trkpt lat="46.09481" lon="4.52436">
        <ele>585</ele>
        <time>2017-10-30T22:29:49Z</time>
      </trkpt>
      <trkpt lat="46.09433" lon="4.52407">
        <ele>576</ele>
        <time>2017-10-30T22:31:49Z</time>
      </trkpt>
      <trkpt lat="46.0941" lon="4.52394">
        <ele>574</ele>
        <time>2017-10-30T22:33:49Z</time>
      </trkpt>
      <trkpt lat="46.09386" lon="4.5238">
        <ele>572</ele>
        <time>2017-10-30T22:35:49Z</time>
      </trkpt>
      <trkpt lat="46.0937" lon="4.5237">
        <ele>569</ele>
        <time>2017-10-30T22:37:49Z</time>
      </trkpt>
      <trkpt lat="46.0936" lon="4.52361">
        <ele>568</ele>
        <time>2017-10-30T22:39:49Z</time>
      </trkpt>
      <trkpt lat="46.09349" lon="4.52351">
        <ele>567</ele>
        <time>2017-10-30T22:41:49Z</time>
      </trkpt>
      <trkpt lat="46.09342" lon="4.52343">
        <ele>566</ele>
        <time>2017-10-30T22:43:49Z</time>
      </trkpt>
      <trkpt lat="46.09334" lon="4.52333">
        <ele>564</ele>
        <time>2017-10-30T22:45:49Z</time>
      </trkpt>
      <trkpt lat="46.09318" lon="4.52313">
        <ele>564</ele>
        <time>2017-10-30T22:47:49Z</time>
      </trkpt>
      <trkpt lat="46.09308" lon="4.523">
        <ele>563</ele>
        <time>2017-10-30T22:49:49Z</time>
      </trkpt>
      <trkpt lat="46.09299" lon="4.52291">
        <ele>562</ele>
        <time>2017-10-30T22:51:49Z</time>
      </trkpt>
      <trkpt lat="46.09296" lon="4.52288">
        <ele>562</ele>
        <time>2017-10-30T22:53:49Z</time>
      </trkpt>
      <trkpt lat="46.09291" lon="4.52283">
        <ele>561</ele>
        <time>2017-10-30T22:55:49Z</time>
      </trkpt>
      <trkpt lat="46.09285" lon="4.52278">
        <ele>560</ele>
        <time>2017-10-30T22:57:49Z</time>
      </trkpt>
      <trkpt lat="46.09278" lon="4.52272">
        <ele>558</ele>
        <time>2017-10-30T22:59:49Z</time>
      </trkpt>
      <trkpt lat="46.09272" lon="4.52265">
        <ele>557</ele>
        <time>2017-10-30T23:01:49Z</time>
      </trkpt>
      <trkpt lat="46.09269" lon="4.52262">
        <ele>556</ele>
        <time>2017-10-30T23:03:49Z</time>
      </trkpt>
      <trkpt lat="46.09264" lon="4.52255">
        <ele>556</ele>
        <time>2017-10-30T23:05:49Z</time>
      </trkpt>
      <trkpt lat="46.09259" lon="4.52248">
        <ele>555</ele>
        <time>2017-10-30T23:07:49Z</time>
      </trkpt>
      <trkpt lat="46.09248" lon="4.52228">
        <ele>553</ele>
        <time>2017-10-30T23:09:49Z</time>
      </trkpt>
      <trkpt lat="46.09241" lon="4.52216">
        <ele>553</ele>
        <time>2017-10-30T23:11:49Z</time>
      </trkpt>
      <trkpt lat="46.09234" lon="4.52201">
        <ele>553</ele>
        <time>2017-10-30T23:13:49Z</time>
      </trkpt>
      <trkpt lat="46.09227" lon="4.52189">
        <ele>552</ele>
        <time>2017-10-30T23:15:49Z</time>
      </trkpt>
      <trkpt lat="46.09222" lon="4.52178">
        <ele>552</ele>
        <time>2017-10-30T23:17:49Z</time>
      </trkpt>
      <trkpt lat="46.09217" lon="4.52167">
        <ele>551</ele>
        <time>2017-10-30T23:19:49Z</time>
      </trkpt>
      <trkpt lat="46.09214" lon="4.52159">
        <ele>551</ele>
        <time>2017-10-30T23:21:49Z</time>
      </trkpt>
      <trkpt lat="46.09211" lon="4.5215">
        <ele>550</ele>
        <time>2017-10-30T23:23:49Z</time>
      </trkpt>
      <trkpt lat="46.0921" lon="4.52145">
        <ele>550</ele>
        <time>2017-10-30T23:25:49Z</time>
      </trkpt>
      <trkpt lat="46.09209" lon="4.5214">
        <ele>550</ele>
        <time>2017-10-30T23:27:49Z</time>
      </trkpt>
      <trkpt lat="46.09208" lon="4.52135">
        <ele>550</ele>
        <time>2017-10-30T23:29:49Z</time>
      </trkpt>
      <trkpt lat="46.09208" lon="4.52127">
        <ele>551</ele>
        <time>2017-10-30T23:31:49Z</time>
      </trkpt>
      <trkpt lat="46.09207" lon="4.52121">
        <ele>551</ele>
        <time>2017-10-30T23:33:49Z</time>
      </trkpt>
      <trkpt lat="46.09208" lon="4.52115">
        <ele>552</ele>
        <time>2017-10-30T23:35:49Z</time>
      </trkpt>
      <trkpt lat="46.09208" lon="4.52108">
        <ele>552</ele>
        <time>2017-10-30T23:37:49Z</time>
      </trkpt>
      <trkpt lat="46.09209" lon="4.52099">
        <ele>553</ele>
        <time>2017-10-30T23:39:49Z</time>
      </trkpt>
      <trkpt lat="46.0921" lon="4.52087">
        <ele>554</ele>
        <time>2017-10-30T23:41:49Z</time>
      </trkpt>
      <trkpt lat="46.09211" lon="4.52074">
        <ele>555</ele>
        <time>2017-10-30T23:43:49Z</time>
      </trkpt>
      <trkpt lat="46.09211" lon="4.52067">
        <ele>555</ele>
        <time>2017-10-30T23:45:49Z</time>
      </trkpt>
      <trkpt lat="46.0921" lon="4.52062">
        <ele>555</ele>
        <time>2017-10-30T23:47:49Z</time>
      </trkpt>
      <trkpt lat="46.09209" lon="4.52057">
        <ele>555</ele>
        <time>2017-10-30T23:49:49Z</time>
      </trkpt>
      <trkpt lat="46.09208" lon="4.52053">
        <ele>555</ele>
        <time>2017-10-30T23:51:49Z</time>
      </trkpt>
      <trkpt lat="46.09207" lon="4.52048">
        <ele>554</ele>
        <time>2017-10-30T23:53:49Z</time>
      </trkpt>
      <trkpt lat="46.09198" lon="4.52038">
        <ele>553</ele>
        <time>2017-10-30T23:55:49Z</time>
      </trkpt>
      <trkpt lat="46.09194" lon="4.52035">
        <ele>552</ele>
        <time>2017-10-30T23:57:49Z</time>
      </trkpt>
      <trkpt lat="46.0919" lon="4.52033">
        <ele>551</ele>
        <time>2017-10-30T23:59:49Z</time>
      </trkpt>
      <trkpt lat="46.09186" lon="4.52032">
        <ele>550</ele>
        <time>2017-10-31T00:01:49Z</time>
      </trkpt>
      <trkpt lat="46.09182" lon="4.52032">
        <ele>549</ele>
        <time>2017-10-31T00:03:49Z</time>
      </trkpt>
      <trkpt lat="46.09177" lon="4.52033">
        <ele>548</ele>
        <time>2017-10-31T00:05:49Z</time>
      </trkpt>
      <trkpt lat="46.09159" lon="4.52037">
        <ele>543</ele>
        <time>2017-10-31T00:07:49Z</time>
      </trkpt>
      <trkpt lat="46.09147" lon="4.5204">
        <ele>540</ele>
        <time>2017-10-31T00:09:49Z</time>
      </trkpt>
      <trkpt lat="46.09141" lon="4.52041">
        <ele>539</ele>
        <time>2017-10-31T00:11:49Z</time>
      </trkpt>
      <trkpt lat="46.09135" lon="4.52041">
        <ele>538</ele>
        <time>2017-10-31T00:13:49Z</time>
      </trkpt>
      <trkpt lat="46.09131" lon="4.52039">
        <ele>537</ele>
        <time>2017-10-31T00:15:49Z</time>
      </trkpt>
      <trkpt lat="46.09127" lon="4.52037">
        <ele>536</ele>
        <time>2017-10-31T00:17:49Z</time>
      </trkpt>
      <trkpt lat="46.09123" lon="4.52034">
        <ele>536</ele>
        <time>2017-10-31T00:19:49Z</time>
      </trkpt>
      <trkpt lat="46.09118" lon="4.52027">
        <ele>535</ele>
        <time>2017-10-31T00:21:49Z</time>
      </trkpt>
      <trkpt lat="46.09114" lon="4.52019">
        <ele>535</ele>
        <time>2017-10-31T00:23:49Z</time>
      </trkpt>
      <trkpt lat="46.09112" lon="4.52013">
        <ele>535</ele>
        <time>2017-10-31T00:25:49Z</time>
      </trkpt>
      <trkpt lat="46.09111" lon="4.52007">
        <ele>535</ele>
        <time>2017-10-31T00:27:49Z</time>
      </trkpt>
      <trkpt lat="46.09109" lon="4.51997">
        <ele>535</ele>
        <time>2017-10-31T00:29:49Z</time>
      </trkpt>
      <trkpt lat="46.09108" lon="4.51987">
        <ele>535</ele>
        <time>2017-10-31T00:31:49Z</time>
      </trkpt>
      <trkpt lat="46.09108" lon="4.51979">
        <ele>535</ele>
        <time>2017-10-31T00:33:49Z</time>
      </trkpt>
      <trkpt lat="46.09108" lon="4.51972">
        <ele>534</ele>
        <time>2017-10-31T00:35:49Z</time>
      </trkpt>
      <trkpt lat="46.09108" lon="4.51962">
        <ele>534</ele>
        <time>2017-10-31T00:37:49Z</time>
      </trkpt>
      <trkpt lat="46.09109" lon="4.51951">
        <ele>534</ele>
        <time>2017-10-31T00:39:49Z</time>
      </trkpt>
      <trkpt lat="46.09109" lon="4.51942">
        <ele>533</ele>
        <time>2017-10-31T00:41:49Z</time>
      </trkpt>
      <trkpt lat="46.09111" lon="4.5193">
        <ele>533</ele>
        <time>2017-10-31T00:43:49Z</time>
      </trkpt>
      <trkpt lat="46.09114" lon="4.51914">
        <ele>533</ele>
        <time>2017-10-31T00:45:49Z</time>
      </trkpt>
      <trkpt lat="46.09116" lon="4.51904">
        <ele>533</ele>
        <time>2017-10-31T00:47:49Z</time>
      </trkpt>
      <trkpt lat="46.0912" lon="4.51887">
        <ele>532</ele>
        <time>2017-10-31T00:49:49Z</time>
      </trkpt>
      <trkpt lat="46.09123" lon="4.51878">
        <ele>532</ele>
        <time>2017-10-31T00:51:49Z</time>
      </trkpt>
      <trkpt lat="46.09125" lon="4.51873">
        <ele>532</ele>
        <time>2017-10-31T00:53:49Z</time>
      </trkpt>
      <trkpt lat="46.09127" lon="4.51867">
        <ele>531</ele>
        <time>2017-10-31T00:55:49Z</time>
      </trkpt>
      <trkpt lat="46.09131" lon="4.51857">
        <ele>531</ele>
        <time>2017-10-31T00:57:49Z</time>
      </trkpt>
      <trkpt lat="46.09137" lon="4.51843">
        <ele>531</ele>
        <time>2017-10-31T00:59:49Z</time>
      </trkpt>
      <trkpt lat="46.09143" lon="4.51832">
        <ele>531</ele>
        <time>2017-10-31T01:01:49Z</time>
      </trkpt>
      <trkpt lat="46.09148" lon="4.51822">
        <ele>531</ele>
        <time>2017-10-31T01:03:49Z</time>
      </trkpt>
      <trkpt lat="46.09153" lon="4.51812">
        <ele>531</ele>
        <time>2017-10-31T01:05:49Z</time>
      </trkpt>
      <trkpt lat="46.09188" lon="4.51753">
        <ele>530</ele>
        <time>2017-10-31T01:07:49Z</time>
      </trkpt>
      <trkpt lat="46.09203" lon="4.51727">
        <ele>528</ele>
        <time>2017-10-31T01:09:49Z</time>
      </trkpt>
      <trkpt lat="46.09218" lon="4.51702">
        <ele>527</ele>
        <time>2017-10-31T01:11:49Z</time>
      </trkpt>
      <trkpt lat="46.09239" lon="4.51665">
        <ele>525</ele>
        <time>2017-10-31T01:13:49Z</time>
      </trkpt>
      <trkpt lat="46.0925" lon="4.51647">
        <ele>526</ele>
        <time>2017-10-31T01:15:49Z</time>
      </trkpt>
      <trkpt lat="46.09256" lon="4.51635">
        <ele>526</ele>
        <time>2017-10-31T01:17:49Z</time>
      </trkpt>
      <trkpt lat="46.09259" lon="4.51629">
        <ele>526</ele>
        <time>2017-10-31T01:19:49Z</time>
      </trkpt>
      <trkpt lat="46.09264" lon="4.51619">
        <ele>526</ele>
        <time>2017-10-31T01:21:49Z</time>
      </trkpt>
      <trkpt lat="46.09266" lon="4.51613">
        <ele>526</ele>
        <time>2017-10-31T01:23:49Z</time>
      </trkpt>
      <trkpt lat="46.09268" lon="4.51608">
        <ele>526</ele>
        <time>2017-10-31T01:25:49Z</time>
      </trkpt>
      <trkpt lat="46.09268" lon="4.51602">
        <ele>526</ele>
        <time>2017-10-31T01:27:49Z</time>
      </trkpt>
      <trkpt lat="46.09268" lon="4.51595">
        <ele>526</ele>
        <time>2017-10-31T01:29:49Z</time>
      </trkpt>
      <trkpt lat="46.09267" lon="4.51591">
        <ele>525</ele>
        <time>2017-10-31T01:31:49Z</time>
      </trkpt>
      <trkpt lat="46.09263" lon="4.51583">
        <ele>524</ele>
        <time>2017-10-31T01:33:49Z</time>
      </trkpt>
      <trkpt lat="46.09258" lon="4.51578">
        <ele>524</ele>
        <time>2017-10-31T01:35:49Z</time>
      </trkpt>
      <trkpt lat="46.09255" lon="4.51576">
        <ele>524</ele>
        <time>2017-10-31T01:37:49Z</time>
      </trkpt>
      <trkpt lat="46.09252" lon="4.51575">
        <ele>524</ele>
        <time>2017-10-31T01:39:49Z</time>
      </trkpt>
      <trkpt lat="46.09243" lon="4.51573">
        <ele>523</ele>
        <time>2017-10-31T01:41:49Z</time>
      </trkpt>
      <trkpt lat="46.09234" lon="4.51573">
        <ele>522</ele>
        <time>2017-10-31T01:43:49Z</time>
      </trkpt>
      <trkpt lat="46.0921" lon="4.51572">
        <ele>520</ele>
        <time>2017-10-31T01:45:49Z</time>
      </trkpt>
      <trkpt lat="46.09185" lon="4.51572">
        <ele>517</ele>
        <time>2017-10-31T01:47:49Z</time>
      </trkpt>
      <trkpt lat="46.09161" lon="4.51568">
        <ele>514</ele>
        <time>2017-10-31T01:49:49Z</time>
      </trkpt>
      <trkpt lat="46.09153" lon="4.51565">
        <ele>513</ele>
        <time>2017-10-31T01:51:49Z</time>
      </trkpt>
      <trkpt lat="46.09146" lon="4.51562">
        <ele>513</ele>
        <time>2017-10-31T01:53:49Z</time>
      </trkpt>
      <trkpt lat="46.0914" lon="4.51558">
        <ele>512</ele>
        <time>2017-10-31T01:55:49Z</time>
      </trkpt>
      <trkpt lat="46.09134" lon="4.51552">
        <ele>512</ele>
        <time>2017-10-31T01:57:49Z</time>
      </trkpt>
      <trkpt lat="46.09129" lon="4.51546">
        <ele>511</ele>
        <time>2017-10-31T01:59:49Z</time>
      </trkpt>
      <trkpt lat="46.09124" lon="4.51538">
        <ele>511</ele>
        <time>2017-10-31T02:01:49Z</time>
      </trkpt>
      <trkpt lat="46.09122" lon="4.51533">
        <ele>511</ele>
        <time>2017-10-31T02:03:49Z</time>
      </trkpt>
      <trkpt lat="46.0912" lon="4.51528">
        <ele>511</ele>
        <time>2017-10-31T02:05:49Z</time>
      </trkpt>
      <trkpt lat="46.09118" lon="4.51518">
        <ele>511</ele>
        <time>2017-10-31T02:07:49Z</time>
      </trkpt>
      <trkpt lat="46.09116" lon="4.51511">
        <ele>510</ele>
        <time>2017-10-31T02:09:49Z</time>
      </trkpt>
      <trkpt lat="46.09114" lon="4.51499">
        <ele>511</ele>
        <time>2017-10-31T02:11:49Z</time>
      </trkpt>
      <trkpt lat="46.09113" lon="4.51491">
        <ele>510</ele>
        <time>2017-10-31T02:13:49Z</time>
      </trkpt>
      <trkpt lat="46.09111" lon="4.51478">
        <ele>510</ele>
        <time>2017-10-31T02:15:49Z</time>
      </trkpt>
      <trkpt lat="46.09108" lon="4.51441">
        <ele>508</ele>
        <time>2017-10-31T02:17:49Z</time>
      </trkpt>
      <trkpt lat="46.09106" lon="4.51427">
        <ele>508</ele>
        <time>2017-10-31T02:19:49Z</time>
      </trkpt>
      <trkpt lat="46.09104" lon="4.51415">
        <ele>507</ele>
        <time>2017-10-31T02:21:49Z</time>
      </trkpt>
      <trkpt lat="46.09102" lon="4.51407">
        <ele>508</ele>
        <time>2017-10-31T02:23:49Z</time>
      </trkpt>
      <trkpt lat="46.09099" lon="4.51398">
        <ele>508</ele>
        <time>2017-10-31T02:25:49Z</time>
      </trkpt>
      <trkpt lat="46.09096" lon="4.51393">
        <ele>508</ele>
        <time>2017-10-31T02:27:49Z</time>
      </trkpt>
      <trkpt lat="46.09094" lon="4.51389">
        <ele>507</ele>
        <time>2017-10-31T02:29:49Z</time>
      </trkpt>
      <trkpt lat="46.09089" lon="4.51384">
        <ele>507</ele>
        <time>2017-10-31T02:31:49Z</time>
      </trkpt>
      <trkpt lat="46.09082" lon="4.51379">
        <ele>506</ele>
        <time>2017-10-31T02:33:49Z</time>
      </trkpt>
      <trkpt lat="46.09077" lon="4.51376">
        <ele>506</ele>
        <time>2017-10-31T02:35:49Z</time>
      </trkpt>
      <trkpt lat="46.0907" lon="4.51372">
        <ele>505</ele>
        <time>2017-10-31T02:37:49Z</time>
      </trkpt>
      <trkpt lat="46.09058" lon="4.51367">
        <ele>504</ele>
        <time>2017-10-31T02:39:49Z</time>
      </trkpt>
      <trkpt lat="46.09044" lon="4.51361">
        <ele>503</ele>
        <time>2017-10-31T02:41:49Z</time>
      </trkpt>
      <trkpt lat="46.09029" lon="4.51353">
        <ele>501</ele>
        <time>2017-10-31T02:43:49Z</time>
      </trkpt>
      <trkpt lat="46.09021" lon="4.51348">
        <ele>501</ele>
        <time>2017-10-31T02:45:49Z</time>
      </trkpt>
      <trkpt lat="46.09013" lon="4.51342">
        <ele>500</ele>
        <time>2017-10-31T02:47:49Z</time>
      </trkpt>
      <trkpt lat="46.09008" lon="4.51336">
        <ele>500</ele>
        <time>2017-10-31T02:49:49Z</time>
      </trkpt>
      <trkpt lat="46.09003" lon="4.5133">
        <ele>500</ele>
        <time>2017-10-31T02:51:49Z</time>
      </trkpt>
      <trkpt lat="46.08999" lon="4.51324">
        <ele>500</ele>
        <time>2017-10-31T02:53:49Z</time>
      </trkpt>
      <trkpt lat="46.08995" lon="4.51317">
        <ele>500</ele>
        <time>2017-10-31T02:55:49Z</time>
      </trkpt>
      <trkpt lat="46.08992" lon="4.51311">
        <ele>500</ele>
        <time>2017-10-31T02:57:49Z</time>
      </trkpt>
      <trkpt lat="46.0899" lon="4.51306">
        <ele>500</ele>
        <time>2017-10-31T02:59:49Z</time>
      </trkpt>
      <trkpt lat="46.08986" lon="4.51298">
        <ele>500</ele>
        <time>2017-10-31T03:01:49Z</time>
      </trkpt>
      <trkpt lat="46.08981" lon="4.51286">
        <ele>500</ele>
        <time>2017-10-31T03:03:49Z</time>
      </trkpt>
      <trkpt lat="46.08971" lon="4.51261">
        <ele>500</ele>
        <time>2017-10-31T03:05:49Z</time>
      </trkpt>
      <trkpt lat="46.08958" lon="4.51228">
        <ele>498</ele>
        <time>2017-10-31T03:07:49Z</time>
      </trkpt>
      <trkpt lat="46.08949" lon="4.51205">
        <ele>497</ele>
        <time>2017-10-31T03:09:49Z</time>
      </trkpt>
      <trkpt lat="46.08942" lon="4.5119">
        <ele>495</ele>
        <time>2017-10-31T03:11:49Z</time>
      </trkpt>
      <trkpt lat="46.08937" lon="4.51179">
        <ele>494</ele>
        <time>2017-10-31T03:13:49Z</time>
      </trkpt>
      <trkpt lat="46.08932" lon="4.5117">
        <ele>493</ele>
        <time>2017-10-31T03:15:49Z</time>
      </trkpt>
      <trkpt lat="46.08927" lon="4.51161">
        <ele>492</ele>
        <time>2017-10-31T03:17:49Z</time>
      </trkpt>
      <trkpt lat="46.08919" lon="4.51148">
        <ele>490</ele>
        <time>2017-10-31T03:19:49Z</time>
      </trkpt>
      <trkpt lat="46.08913" lon="4.51141">
        <ele>489</ele>
        <time>2017-10-31T03:21:49Z</time>
      </trkpt>
      <trkpt lat="46.08905" lon="4.51131">
        <ele>489</ele>
        <time>2017-10-31T03:23:49Z</time>
      </trkpt>
      <trkpt lat="46.08895" lon="4.51118">
        <ele>487</ele>
        <time>2017-10-31T03:25:49Z</time>
      </trkpt>
      <trkpt lat="46.0889" lon="4.51113">
        <ele>487</ele>
        <time>2017-10-31T03:27:49Z</time>
      </trkpt>
      <trkpt lat="46.08886" lon="4.51107">
        <ele>486</ele>
        <time>2017-10-31T03:29:49Z</time>
      </trkpt>
      <trkpt lat="46.08883" lon="4.51101">
        <ele>486</ele>
        <time>2017-10-31T03:31:49Z</time>
      </trkpt>
      <trkpt lat="46.0888" lon="4.51096">
        <ele>485</ele>
        <time>2017-10-31T03:33:49Z</time>
      </trkpt>
      <trkpt lat="46.08879" lon="4.51089">
        <ele>485</ele>
        <time>2017-10-31T03:35:49Z</time>
      </trkpt>
      <trkpt lat="46.08878" lon="4.51084">
        <ele>485</ele>
        <time>2017-10-31T03:37:49Z</time>
      </trkpt>
      <trkpt lat="46.08878" lon="4.51078">
        <ele>485</ele>
        <time>2017-10-31T03:39:49Z</time>
      </trkpt>
      <trkpt lat="46.08878" lon="4.51072">
        <ele>485</ele>
        <time>2017-10-31T03:41:49Z</time>
      </trkpt>
      <trkpt lat="46.08879" lon="4.51067">
        <ele>485</ele>
        <time>2017-10-31T03:43:49Z</time>
      </trkpt>
      <trkpt lat="46.0888" lon="4.51061">
        <ele>485</ele>
        <time>2017-10-31T03:45:49Z</time>
      </trkpt>
      <trkpt lat="46.08881" lon="4.51055">
        <ele>484</ele>
        <time>2017-10-31T03:47:49Z</time>
      </trkpt>
      <trkpt lat="46.08884" lon="4.51048">
        <ele>485</ele>
        <time>2017-10-31T03:49:49Z</time>
      </trkpt>
      <trkpt lat="46.08887" lon="4.51038">
        <ele>485</ele>
        <time>2017-10-31T03:51:49Z</time>
      </trkpt>
      <trkpt lat="46.0889" lon="4.51031">
        <ele>485</ele>
        <time>2017-10-31T03:53:49Z</time>
      </trkpt>
      <trkpt lat="46.08893" lon="4.51024">
        <ele>486</ele>
        <time>2017-10-31T03:55:49Z</time>
      </trkpt>
      <trkpt lat="46.08897" lon="4.51014">
        <ele>486</ele>
        <time>2017-10-31T03:57:49Z</time>
      </trkpt>
      <trkpt lat="46.08898" lon="4.51">
        <ele>486</ele>
        <time>2017-10-31T03:59:49Z</time>
      </trkpt>
      <trkpt lat="46.08899" lon="4.50992">
        <ele>486</ele>
        <time>2017-10-31T04:01:49Z</time>
      </trkpt>
      <trkpt lat="46.089" lon="4.50984">
        <ele>486</ele>
        <time>2017-10-31T04:03:49Z</time>
      </trkpt>
      <trkpt lat="46.08899" lon="4.50976">
        <ele>485</ele>
        <time>2017-10-31T04:05:49Z</time>
      </trkpt>
      <trkpt lat="46.08898" lon="4.50963">
        <ele>484</ele>
        <time>2017-10-31T04:07:49Z</time>
      </trkpt>
      <trkpt lat="46.08896" lon="4.50943">
        <ele>483</ele>
        <time>2017-10-31T04:09:49Z</time>
      </trkpt>
      <trkpt lat="46.08895" lon="4.50933">
        <ele>482</ele>
        <time>2017-10-31T04:11:49Z</time>
      </trkpt>
      <trkpt lat="46.08894" lon="4.50924">
        <ele>481</ele>
        <time>2017-10-31T04:13:49Z</time>
      </trkpt>
      <trkpt lat="46.08893" lon="4.50912">
        <ele>481</ele>
        <time>2017-10-31T04:15:49Z</time>
      </trkpt>
      <trkpt lat="46.08893" lon="4.50899">
        <ele>480</ele>
        <time>2017-10-31T04:17:49Z</time>
      </trkpt>
      <trkpt lat="46.08892" lon="4.50886">
        <ele>479</ele>
        <time>2017-10-31T04:19:49Z</time>
      </trkpt>
      <trkpt lat="46.08892" lon="4.50872">
        <ele>478</ele>
        <time>2017-10-31T04:21:49Z</time>
      </trkpt>
      <trkpt lat="46.08893" lon="4.5086">
        <ele>477</ele>
        <time>2017-10-31T04:23:49Z</time>
      </trkpt>
      <trkpt lat="46.08893" lon="4.50853">
        <ele>477</ele>
        <time>2017-10-31T04:25:49Z</time>
      </trkpt>
      <trkpt lat="46.08894" lon="4.50847">
        <ele>476</ele>
        <time>2017-10-31T04:27:49Z</time>
      </trkpt>
      <trkpt lat="46.08895" lon="4.50839">
        <ele>476</ele>
        <time>2017-10-31T04:29:49Z</time>
      </trkpt>
      <trkpt lat="46.08897" lon="4.50831">
        <ele>476</ele>
        <time>2017-10-31T04:31:49Z</time>
      </trkpt>
      <trkpt lat="46.089" lon="4.50818">
        <ele>476</ele>
        <time>2017-10-31T04:33:49Z</time>
      </trkpt>
      <trkpt lat="46.08903" lon="4.50809">
        <ele>476</ele>
        <time>2017-10-31T04:35:49Z</time>
      </trkpt>
      <trkpt lat="46.08906" lon="4.50799">
        <ele>475</ele>
        <time>2017-10-31T04:37:49Z</time>
      </trkpt>
      <trkpt lat="46.08909" lon="4.50789">
        <ele>475</ele>
        <time>2017-10-31T04:39:49Z</time>
      </trkpt>
      <trkpt lat="46.08911" lon="4.50782">
        <ele>475</ele>
        <time>2017-10-31T04:41:49Z</time>
      </trkpt>
      <trkpt lat="46.08913" lon="4.50776">
        <ele>475</ele>
        <time>2017-10-31T04:43:49Z</time>
      </trkpt>
      <trkpt lat="46.08914" lon="4.5077">
        <ele>475</ele>
        <time>2017-10-31T04:45:49Z</time>
      </trkpt>
      <trkpt lat="46.08914" lon="4.50765">
        <ele>475</ele>
        <time>2017-10-31T04:47:49Z</time>
      </trkpt>
      <trkpt lat="46.08914" lon="4.5076">
        <ele>474</ele>
        <time>2017-10-31T04:49:49Z</time>
      </trkpt>
      <trkpt lat="46.08913" lon="4.50755">
        <ele>474</ele>
        <time>2017-10-31T04:51:49Z</time>
      </trkpt>
      <trkpt lat="46.08911" lon="4.50751">
        <ele>473</ele>
        <time>2017-10-31T04:53:49Z</time>
      </trkpt>
      <trkpt lat="46.08908" lon="4.50748">
        <ele>473</ele>
        <time>2017-10-31T04:55:49Z</time>
      </trkpt>
      <trkpt lat="46.08905" lon="4.50746">
        <ele>473</ele>
        <time>2017-10-31T04:57:49Z</time>
      </trkpt>
      <trkpt lat="46.089" lon="4.50746">
        <ele>473</ele>
        <time>2017-10-31T04:59:49Z</time>
      </trkpt>
      <trkpt lat="46.08896" lon="4.50746">
        <ele>472</ele>
        <time>2017-10-31T05:01:49Z</time>
      </trkpt>
      <trkpt lat="46.0889" lon="4.50749">
        <ele>471</ele>
        <time>2017-10-31T05:03:49Z</time>
      </trkpt>
      <trkpt lat="46.08882" lon="4.50753">
        <ele>470</ele>
        <time>2017-10-31T05:05:49Z</time>
      </trkpt>
      <trkpt lat="46.08876" lon="4.50756">
        <ele>469</ele>
        <time>2017-10-31T05:07:49Z</time>
      </trkpt>
      <trkpt lat="46.08873" lon="4.50758">
        <ele>469</ele>
        <time>2017-10-31T05:09:49Z</time>
      </trkpt>
      <trkpt lat="46.08869" lon="4.50758">
        <ele>469</ele>
        <time>2017-10-31T05:11:49Z</time>
      </trkpt>
      <trkpt lat="46.08866" lon="4.50758">
        <ele>468</ele>
        <time>2017-10-31T05:13:49Z</time>
      </trkpt>
      <trkpt lat="46.08861" lon="4.50757">
        <ele>468</ele>
        <time>2017-10-31T05:15:49Z</time>
      </trkpt>
      <trkpt lat="46.08857" lon="4.50754">
        <ele>467</ele>
        <time>2017-10-31T05:17:49Z</time>
      </trkpt>
      <trkpt lat="46.08853" lon="4.5075">
        <ele>466</ele>
        <time>2017-10-31T05:19:49Z</time>
      </trkpt>
      <trkpt lat="46.08849" lon="4.50745">
        <ele>466</ele>
        <time>2017-10-31T05:21:49Z</time>
      </trkpt>
      <trkpt lat="46.08844" lon="4.50738">
        <ele>467</ele>
        <time>2017-10-31T05:23:49Z</time>
      </trkpt>
      <trkpt lat="46.08841" lon="4.50732">
        <ele>467</ele>
        <time>2017-10-31T05:25:49Z</time>
      </trkpt>
      <trkpt lat="46.0884" lon="4.50728">
        <ele>467</ele>
        <time>2017-10-31T05:27:49Z</time>
      </trkpt>
      <trkpt lat="46.08837" lon="4.5072">
        <ele>467</ele>
        <time>2017-10-31T05:29:49Z</time>
      </trkpt>
      <trkpt lat="46.08834" lon="4.50709">
        <ele>468</ele>
        <time>2017-10-31T05:31:49Z</time>
      </trkpt>
      <trkpt lat="46.08829" lon="4.50694">
        <ele>470</ele>
        <time>2017-10-31T05:33:49Z</time>
      </trkpt>
      <trkpt lat="46.08827" lon="4.50684">
        <ele>471</ele>
        <time>2017-10-31T05:35:49Z</time>
      </trkpt>
      <trkpt lat="46.08825" lon="4.50675">
        <ele>471</ele>
        <time>2017-10-31T05:37:49Z</time>
      </trkpt>
      <trkpt lat="46.08822" lon="4.50668">
        <ele>472</ele>
        <time>2017-10-31T05:39:49Z</time>
      </trkpt>
      <trkpt lat="46.08819" lon="4.50659">
        <ele>473</ele>
        <time>2017-10-31T05:41:49Z</time>
      </trkpt>
      <trkpt lat="46.08815" lon="4.50649">
        <ele>474</ele>
        <time>2017-10-31T05:43:49Z</time>
      </trkpt>
      <trkpt lat="46.0881" lon="4.50636">
        <ele>474</ele>
        <time>2017-10-31T05:45:49Z</time>
      </trkpt>
      <trkpt lat="46.08804" lon="4.50626">
        <ele>474</ele>
        <time>2017-10-31T05:47:49Z</time>
      </trkpt>
      <trkpt lat="46.08779" lon="4.50569">
        <ele>471</ele>
        <time>2017-10-31T05:49:49Z</time>
      </trkpt>
      <trkpt lat="46.08779" lon="4.50568">
        <ele>471</ele>
        <time>2017-10-31T05:51:49Z</time>
      </trkpt>
      <trkpt lat="46.08764" lon="4.50538">
        <ele>469</ele>
        <time>2017-10-31T05:53:49Z</time>
      </trkpt>
      <trkpt lat="46.08761" lon="4.50533">
        <ele>469</ele>
        <time>2017-10-31T05:55:49Z</time>
      </trkpt>
      <trkpt lat="46.08753" lon="4.50519">
        <ele>467</ele>
        <time>2017-10-31T05:57:49Z</time>
      </trkpt>
      <trkpt lat="46.08741" lon="4.50499">
        <ele>467</ele>
        <time>2017-10-31T05:59:49Z</time>
      </trkpt>
      <trkpt lat="46.08727" lon="4.50479">
        <ele>466</ele>
        <time>2017-10-31T06:01:49Z</time>
      </trkpt>
      <trkpt lat="46.08718" lon="4.50468">
        <ele>465</ele>
        <time>2017-10-31T06:03:49Z</time>
      </trkpt>
      <trkpt lat="46.08712" lon="4.50461">
        <ele>464</ele>
        <time>2017-10-31T06:05:49Z</time>
      </trkpt>
      <trkpt lat="46.08702" lon="4.5045">
        <ele>462</ele>
        <time>2017-10-31T06:07:49Z</time>
      </trkpt>
      <trkpt lat="46.08694" lon="4.50443">
        <ele>460</ele>
        <time>2017-10-31T06:09:49Z</time>
      </trkpt>
      <trkpt lat="46.08689" lon="4.50438">
        <ele>459</ele>
        <time>2017-10-31T06:11:49Z</time>
      </trkpt>
      <trkpt lat="46.08686" lon="4.50435">
        <ele>458</ele>
        <time>2017-10-31T06:13:49Z</time>
      </trkpt>
      <trkpt lat="46.08684" lon="4.50433">
        <ele>457</ele>
        <time>2017-10-31T06:15:49Z</time>
      </trkpt>
      <trkpt lat="46.08681" lon="4.5043">
        <ele>456</ele>
        <time>2017-10-31T06:17:49Z</time>
      </trkpt>
      <trkpt lat="46.08676" lon="4.50426">
        <ele>455</ele>
        <time>2017-10-31T06:19:49Z</time>
      </trkpt>
      <trkpt lat="46.08671" lon="4.50421">
        <ele>453</ele>
        <time>2017-10-31T06:21:49Z</time>
      </trkpt>
      <trkpt lat="46.08666" lon="4.50414">
        <ele>451</ele>
        <time>2017-10-31T06:23:49Z</time>
      </trkpt>
      <trkpt lat="46.08661" lon="4.50407">
        <ele>452</ele>
        <time>2017-10-31T06:25:49Z</time>
      </trkpt>
      <trkpt lat="46.08658" lon="4.50401">
        <ele>452</ele>
        <time>2017-10-31T06:27:49Z</time>
      </trkpt>
      <trkpt lat="46.08656" lon="4.50397">
        <ele>452</ele>
        <time>2017-10-31T06:29:49Z</time>
      </trkpt>
      <trkpt lat="46.08655" lon="4.50394">
        <ele>452</ele>
        <time>2017-10-31T06:31:49Z</time>
      </trkpt>
      <trkpt lat="46.08652" lon="4.50387">
        <ele>452</ele>
        <time>2017-10-31T06:33:49Z</time>
      </trkpt>
      <trkpt lat="46.0865" lon="4.5038">
        <ele>452</ele>
        <time>2017-10-31T06:35:49Z</time>
      </trkpt>
      <trkpt lat="46.08649" lon="4.50373">
        <ele>452</ele>
        <time>2017-10-31T06:37:49Z</time>
      </trkpt>
      <trkpt lat="46.08648" lon="4.50366">
        <ele>451</ele>
        <time>2017-10-31T06:39:49Z</time>
      </trkpt>
      <trkpt lat="46.08647" lon="4.50357">
        <ele>451</ele>
        <time>2017-10-31T06:41:49Z</time>
      </trkpt>
      <trkpt lat="46.08647" lon="4.50348">
        <ele>450</ele>
        <time>2017-10-31T06:43:49Z</time>
      </trkpt>
      <trkpt lat="46.08647" lon="4.50332">
        <ele>449</ele>
        <time>2017-10-31T06:45:49Z</time>
      </trkpt>
      <trkpt lat="46.08647" lon="4.50322">
        <ele>448</ele>
        <time>2017-10-31T06:47:49Z</time>
      </trkpt>
      <trkpt lat="46.08647" lon="4.50314">
        <ele>447</ele>
        <time>2017-10-31T06:49:49Z</time>
      </trkpt>
      <trkpt lat="46.08646" lon="4.50307">
        <ele>446</ele>
        <time>2017-10-31T06:51:49Z</time>
      </trkpt>
      <trkpt lat="46.08645" lon="4.50295">
        <ele>444</ele>
        <time>2017-10-31T06:53:49Z</time>
      </trkpt>
      <trkpt lat="46.08644" lon="4.50289">
        <ele>443</ele>
        <time>2017-10-31T06:55:49Z</time>
      </trkpt>
      <trkpt lat="46.08644" lon="4.50284">
        <ele>442</ele>
        <time>2017-10-31T06:57:49Z</time>
      </trkpt>
      <trkpt lat="46.08641" lon="4.50272">
        <ele>440</ele>
        <time>2017-10-31T06:59:49Z</time>
      </trkpt>
      <trkpt lat="46.0864" lon="4.50263">
        <ele>439</ele>
        <time>2017-10-31T07:01:49Z</time>
      </trkpt>
      <trkpt lat="46.08639" lon="4.50258">
        <ele>438</ele>
        <time>2017-10-31T07:03:49Z</time>
      </trkpt>
      <trkpt lat="46.08638" lon="4.50253">
        <ele>437</ele>
        <time>2017-10-31T07:05:49Z</time>
      </trkpt>
      <trkpt lat="46.08638" lon="4.50247">
        <ele>436</ele>
        <time>2017-10-31T07:07:49Z</time>
      </trkpt>
      <trkpt lat="46.08638" lon="4.50243">
        <ele>436</ele>
        <time>2017-10-31T07:09:49Z</time>
      </trkpt>
      <trkpt lat="46.08638" lon="4.50241">
        <ele>436</ele>
        <time>2017-10-31T07:11:49Z</time>
      </trkpt>
      <trkpt lat="46.08639" lon="4.50234">
        <ele>435</ele>
        <time>2017-10-31T07:13:49Z</time>
      </trkpt>
      <trkpt lat="46.08641" lon="4.50228">
        <ele>434</ele>
        <time>2017-10-31T07:15:49Z</time>
      </trkpt>
      <trkpt lat="46.08642" lon="4.50223">
        <ele>434</ele>
        <time>2017-10-31T07:17:49Z</time>
      </trkpt>
      <trkpt lat="46.08645" lon="4.50216">
        <ele>434</ele>
        <time>2017-10-31T07:19:49Z</time>
      </trkpt>
      <trkpt lat="46.08649" lon="4.5021">
        <ele>433</ele>
        <time>2017-10-31T07:21:49Z</time>
      </trkpt>
      <trkpt lat="46.08652" lon="4.50205">
        <ele>433</ele>
        <time>2017-10-31T07:23:49Z</time>
      </trkpt>
      <trkpt lat="46.08659" lon="4.50195">
        <ele>433</ele>
        <time>2017-10-31T07:25:49Z</time>
      </trkpt>
      <trkpt lat="46.08674" lon="4.50178">
        <ele>432</ele>
        <time>2017-10-31T07:27:49Z</time>
      </trkpt>
      <trkpt lat="46.08709" lon="4.50136">
        <ele>432</ele>
        <time>2017-10-31T07:29:49Z</time>
      </trkpt>
      <trkpt lat="46.08728" lon="4.50112">
        <ele>431</ele>
        <time>2017-10-31T07:31:49Z</time>
      </trkpt>
      <trkpt lat="46.08733" lon="4.50107">
        <ele>430</ele>
        <time>2017-10-31T07:33:49Z</time>
      </trkpt>
      <trkpt lat="46.08737" lon="4.50103">
        <ele>430</ele>
        <time>2017-10-31T07:35:49Z</time>
      </trkpt>
      <trkpt lat="46.08737" lon="4.50103">
        <ele>430</ele>
        <time>2017-10-31T07:37:49Z</time>
      </trkpt>
      <trkpt lat="46.08736" lon="4.50097">
        <ele>429</ele>
        <time>2017-10-31T07:39:49Z</time>
      </trkpt>
      <trkpt lat="46.08735" lon="4.50093">
        <ele>428</ele>
        <time>2017-10-31T07:41:49Z</time>
      </trkpt>
      <trkpt lat="46.08734" lon="4.50087">
        <ele>428</ele>
        <time>2017-10-31T07:43:49Z</time>
      </trkpt>
      <trkpt lat="46.0873" lon="4.50078">
        <ele>427</ele>
        <time>2017-10-31T07:45:49Z</time>
      </trkpt>
      <trkpt lat="46.08723" lon="4.5007">
        <ele>428</ele>
        <time>2017-10-31T07:47:49Z</time>
      </trkpt>
      <trkpt lat="46.08721" lon="4.50066">
        <ele>428</ele>
        <time>2017-10-31T07:49:49Z</time>
      </trkpt>
      <trkpt lat="46.08717" lon="4.50061">
        <ele>428</ele>
        <time>2017-10-31T07:51:49Z</time>
      </trkpt>
      <trkpt lat="46.08712" lon="4.50056">
        <ele>429</ele>
        <time>2017-10-31T07:53:49Z</time>
      </trkpt>
      <trkpt lat="46.08708" lon="4.50054">
        <ele>429</ele>
        <time>2017-10-31T07:55:49Z</time>
      </trkpt>
      <trkpt lat="46.08705" lon="4.50052">
        <ele>429</ele>
        <time>2017-10-31T07:57:49Z</time>
      </trkpt>
      <trkpt lat="46.08694" lon="4.50051">
        <ele>429</ele>
        <time>2017-10-31T07:59:49Z</time>
      </trkpt>
      <trkpt lat="46.08686" lon="4.50054">
        <ele>429</ele>
        <time>2017-10-31T08:01:49Z</time>
      </trkpt>
      <trkpt lat="46.0868" lon="4.50058">
        <ele>429</ele>
        <time>2017-10-31T08:03:49Z</time>
      </trkpt>
      <trkpt lat="46.08674" lon="4.50062">
        <ele>429</ele>
        <time>2017-10-31T08:05:49Z</time>
      </trkpt>
      <trkpt lat="46.08638" lon="4.50082">
        <ele>427</ele>
        <time>2017-10-31T08:07:49Z</time>
      </trkpt>
      <trkpt lat="46.0863" lon="4.50084">
        <ele>426</ele>
        <time>2017-10-31T08:09:49Z</time>
      </trkpt>
      <trkpt lat="46.08622" lon="4.50085">
        <ele>426</ele>
        <time>2017-10-31T08:11:49Z</time>
      </trkpt>
      <trkpt lat="46.08616" lon="4.50085">
        <ele>426</ele>
        <time>2017-10-31T08:13:49Z</time>
      </trkpt>
      <trkpt lat="46.08611" lon="4.50084">
        <ele>425</ele>
        <time>2017-10-31T08:15:49Z</time>
      </trkpt>
      <trkpt lat="46.08605" lon="4.50081">
        <ele>425</ele>
        <time>2017-10-31T08:17:49Z</time>
      </trkpt>
      <trkpt lat="46.08599" lon="4.50076">
        <ele>425</ele>
        <time>2017-10-31T08:19:49Z</time>
      </trkpt>
      <trkpt lat="46.08595" lon="4.50071">
        <ele>425</ele>
        <time>2017-10-31T08:21:49Z</time>
      </trkpt>
      <trkpt lat="46.08591" lon="4.50066">
        <ele>426</ele>
        <time>2017-10-31T08:23:49Z</time>
      </trkpt>
      <trkpt lat="46.08586" lon="4.50059">
        <ele>426</ele>
        <time>2017-10-31T08:25:49Z</time>
      </trkpt>
      <trkpt lat="46.08582" lon="4.5005">
        <ele>426</ele>
        <time>2017-10-31T08:27:49Z</time>
      </trkpt>
      <trkpt lat="46.08576" lon="4.50039">
        <ele>427</ele>
        <time>2017-10-31T08:29:49Z</time>
      </trkpt>
      <trkpt lat="46.0857" lon="4.50025">
        <ele>427</ele>
        <time>2017-10-31T08:31:49Z</time>
      </trkpt>
      <trkpt lat="46.08564" lon="4.5001">
        <ele>428</ele>
        <time>2017-10-31T08:33:49Z</time>
      </trkpt>
      <trkpt lat="46.08559" lon="4.5">
        <ele>428</ele>
        <time>2017-10-31T08:35:49Z</time>
      </trkpt>
      <trkpt lat="46.0855" lon="4.49986">
        <ele>429</ele>
        <time>2017-10-31T08:37:49Z</time>
      </trkpt>
      <trkpt lat="46.08541" lon="4.49976">
        <ele>429</ele>
        <time>2017-10-31T08:39:49Z</time>
      </trkpt>
      <trkpt lat="46.08529" lon="4.49964">
        <ele>430</ele>
        <time>2017-10-31T08:41:49Z</time>
      </trkpt>
      <trkpt lat="46.08512" lon="4.49952">
        <ele>430</ele>
        <time>2017-10-31T08:43:49Z</time>
      </trkpt>
      <trkpt lat="46.08495" lon="4.49939">
        <ele>431</ele>
        <time>2017-10-31T08:45:49Z</time>
      </trkpt>
      <trkpt lat="46.08476" lon="4.49927">
        <ele>431</ele>
        <time>2017-10-31T08:47:49Z</time>
      </trkpt>
      <trkpt lat="46.08459" lon="4.49918">
        <ele>430</ele>
        <time>2017-10-31T08:49:49Z</time>
      </trkpt>
      <trkpt lat="46.08433" lon="4.49907">
        <ele>429</ele>
        <time>2017-10-31T08:51:49Z</time>
      </trkpt>
      <trkpt lat="46.08427" lon="4.49905">
        <ele>429</ele>
        <time>2017-10-31T08:53:49Z</time>
      </trkpt>
      <trkpt lat="46.08418" lon="4.49901">
        <ele>428</ele>
        <time>2017-10-31T08:55:49Z</time>
      </trkpt>
      <trkpt lat="46.08402" lon="4.49891">
        <ele>428</ele>
        <time>2017-10-31T08:57:49Z</time>
      </trkpt>
      <trkpt lat="46.08393" lon="4.49885">
        <ele>428</ele>
        <time>2017-10-31T08:59:49Z</time>
      </trkpt>
      <trkpt lat="46.08383" lon="4.49875">
        <ele>428</ele>
        <time>2017-10-31T09:01:49Z</time>
      </trkpt>
      <trkpt lat="46.08373" lon="4.49862">
        <ele>428</ele>
        <time>2017-10-31T09:03:49Z</time>
      </trkpt>
      <trkpt lat="46.08365" lon="4.49852">
        <ele>428</ele>
        <time>2017-10-31T09:05:49Z</time>
      </trkpt>
      <trkpt lat="46.0836" lon="4.49844">
        <ele>429</ele>
        <time>2017-10-31T09:07:49Z</time>
      </trkpt>
      <trkpt lat="46.08351" lon="4.49829">
        <ele>429</ele>
        <time>2017-10-31T09:09:49Z</time>
      </trkpt>
      <trkpt lat="46.08344" lon="4.4982">
        <ele>429</ele>
        <time>2017-10-31T09:11:49Z</time>
      </trkpt>
      <trkpt lat="46.08341" lon="4.49816">
        <ele>429</ele>
        <time>2017-10-31T09:13:49Z</time>
      </trkpt>
      <trkpt lat="46.08337" lon="4.49811">
        <ele>429</ele>
        <time>2017-10-31T09:15:49Z</time>
      </trkpt>
      <trkpt lat="46.08331" lon="4.49806">
        <ele>429</ele>
        <time>2017-10-31T09:17:49Z</time>
      </trkpt>
      <trkpt lat="46.08319" lon="4.49795">
        <ele>429</ele>
        <time>2017-10-31T09:19:49Z</time>
      </trkpt>
      <trkpt lat="46.08267" lon="4.49761">
        <ele>428</ele>
        <time>2017-10-31T09:21:49Z</time>
      </trkpt>
      <trkpt lat="46.08264" lon="4.49759">
        <ele>428</ele>
        <time>2017-10-31T09:23:49Z</time>
      </trkpt>
      <trkpt lat="46.08244" lon="4.49749">
        <ele>428</ele>
        <time>2017-10-31T09:25:49Z</time>
      </trkpt>
      <trkpt lat="46.08238" lon="4.49747">
        <ele>428</ele>
        <time>2017-10-31T09:27:49Z</time>
      </trkpt>
      <trkpt lat="46.08233" lon="4.49745">
        <ele>429</ele>
        <time>2017-10-31T09:29:49Z</time>
      </trkpt>
      <trkpt lat="46.08227" lon="4.49744">
        <ele>429</ele>
        <time>2017-10-31T09:31:49Z</time>
      </trkpt>
      <trkpt lat="46.0822" lon="4.49744">
        <ele>429</ele>
        <time>2017-10-31T09:33:49Z</time>
      </trkpt>
      <trkpt lat="46.08212" lon="4.49744">
        <ele>429</ele>
        <time>2017-10-31T09:35:49Z</time>
      </trkpt>
      <trkpt lat="46.08204" lon="4.49746">
        <ele>429</ele>
        <time>2017-10-31T09:37:49Z</time>
      </trkpt>
      <trkpt lat="46.08194" lon="4.49749">
        <ele>428</ele>
        <time>2017-10-31T09:39:49Z</time>
      </trkpt>
      <trkpt lat="46.08187" lon="4.49751">
        <ele>428</ele>
        <time>2017-10-31T09:41:49Z</time>
      </trkpt>
      <trkpt lat="46.08177" lon="4.49756">
        <ele>427</ele>
        <time>2017-10-31T09:43:49Z</time>
      </trkpt>
      <trkpt lat="46.08169" lon="4.49761">
        <ele>426</ele>
        <time>2017-10-31T09:45:49Z</time>
      </trkpt>
      <trkpt lat="46.08163" lon="4.49767">
        <ele>425</ele>
        <time>2017-10-31T09:47:49Z</time>
      </trkpt>
      <trkpt lat="46.0815" lon="4.49779">
        <ele>424</ele>
        <time>2017-10-31T09:49:49Z</time>
      </trkpt>
      <trkpt lat="46.08132" lon="4.49794">
        <ele>422</ele>
        <time>2017-10-31T09:51:49Z</time>
      </trkpt>
      <trkpt lat="46.08125" lon="4.49798">
        <ele>422</ele>
        <time>2017-10-31T09:53:49Z</time>
      </trkpt>
      <trkpt lat="46.08116" lon="4.49803">
        <ele>422</ele>
        <time>2017-10-31T09:55:49Z</time>
      </trkpt>
      <trkpt lat="46.08106" lon="4.49805">
        <ele>422</ele>
        <time>2017-10-31T09:57:49Z</time>
      </trkpt>
      <trkpt lat="46.08098" lon="4.49806">
        <ele>422</ele>
        <time>2017-10-31T09:59:49Z</time>
      </trkpt>
      <trkpt lat="46.08093" lon="4.49806">
        <ele>422</ele>
        <time>2017-10-31T10:01:49Z</time>
      </trkpt>
      <trkpt lat="46.08083" lon="4.49805">
        <ele>422</ele>
        <time>2017-10-31T10:03:49Z</time>
      </trkpt>
      <trkpt lat="46.08078" lon="4.49804">
        <ele>422</ele>
        <time>2017-10-31T10:05:49Z</time>
      </trkpt>
      <trkpt lat="46.08072" lon="4.49804">
        <ele>422</ele>
        <time>2017-10-31T10:07:49Z</time>
      </trkpt>
      <trkpt lat="46.08065" lon="4.49802">
        <ele>422</ele>
        <time>2017-10-31T10:09:49Z</time>
      </trkpt>
      <trkpt lat="46.08059" lon="4.49801">
        <ele>422</ele>
        <time>2017-10-31T10:11:49Z</time>
      </trkpt>
      <trkpt lat="46.08048" lon="4.49799">
        <ele>422</ele>
        <time>2017-10-31T10:13:49Z</time>
      </trkpt>
      <trkpt lat="46.0804" lon="4.49798">
        <ele>422</ele>
        <time>2017-10-31T10:15:49Z</time>
      </trkpt>
      <trkpt lat="46.08016" lon="4.49796">
        <ele>421</ele>
        <time>2017-10-31T10:17:49Z</time>
      </trkpt>
      <trkpt lat="46.07997" lon="4.49794">
        <ele>421</ele>
        <time>2017-10-31T10:19:49Z</time>
      </trkpt>
      <trkpt lat="46.07989" lon="4.49793">
        <ele>420</ele>
        <time>2017-10-31T10:21:49Z</time>
      </trkpt>
      <trkpt lat="46.07982" lon="4.49792">
        <ele>419</ele>
        <time>2017-10-31T10:23:49Z</time>
      </trkpt>
      <trkpt lat="46.07974" lon="4.4979">
        <ele>419</ele>
        <time>2017-10-31T10:25:49Z</time>
      </trkpt>
      <trkpt lat="46.07966" lon="4.49788">
        <ele>418</ele>
        <time>2017-10-31T10:27:49Z</time>
      </trkpt>
      <trkpt lat="46.07959" lon="4.49785">
        <ele>418</ele>
        <time>2017-10-31T10:29:49Z</time>
      </trkpt>
      <trkpt lat="46.07953" lon="4.49782">
        <ele>418</ele>
        <time>2017-10-31T10:31:49Z</time>
      </trkpt>
      <trkpt lat="46.07905" lon="4.49752">
        <ele>415</ele>
        <time>2017-10-31T10:33:49Z</time>
      </trkpt>
      <trkpt lat="46.07889" lon="4.49742">
        <ele>414</ele>
        <time>2017-10-31T10:35:49Z</time>
      </trkpt>
      <trkpt lat="46.07872" lon="4.49733">
        <ele>413</ele>
        <time>2017-10-31T10:37:49Z</time>
      </trkpt>
      <trkpt lat="46.07854" lon="4.49725">
        <ele>412</ele>
        <time>2017-10-31T10:39:49Z</time>
      </trkpt>
      <trkpt lat="46.07854" lon="4.49725">
        <ele>412</ele>
        <time>2017-10-31T10:41:49Z</time>
      </trkpt>
      <trkpt lat="46.07862" lon="4.49688">
        <ele>416</ele>
        <time>2017-10-31T10:43:49Z</time>
      </trkpt>
      <trkpt lat="46.07865" lon="4.49676">
        <ele>418</ele>
        <time>2017-10-31T10:45:49Z</time>
      </trkpt>
      <trkpt lat="46.07867" lon="4.49672">
        <ele>419</ele>
        <time>2017-10-31T10:47:49Z</time>
      </trkpt>
      <trkpt lat="46.07868" lon="4.49671">
        <ele>419</ele>
        <time>2017-10-31T10:49:49Z</time>
      </trkpt>
      <trkpt lat="46.07869" lon="4.4967">
        <ele>419</ele>
        <time>2017-10-31T10:51:49Z</time>
      </trkpt>
      <trkpt lat="46.0787" lon="4.4967">
        <ele>419</ele>
        <time>2017-10-31T10:53:49Z</time>
      </trkpt>
      <trkpt lat="46.07875" lon="4.49672">
        <ele>419</ele>
        <time>2017-10-31T10:55:49Z</time>
      </trkpt>
      <trkpt lat="46.07893" lon="4.49684">
        <ele>420</ele>
        <time>2017-10-31T10:57:49Z</time>
      </trkpt>
      <trkpt lat="46.07911" lon="4.49697">
        <ele>421</ele>
        <time>2017-10-31T10:59:49Z</time>
      </trkpt>
      <trkpt lat="46.07941" lon="4.49718">
        <ele>423</ele>
        <time>2017-10-31T11:01:49Z</time>
      </trkpt>
      <trkpt lat="46.07955" lon="4.49725">
        <ele>425</ele>
        <time>2017-10-31T11:03:49Z</time>
      </trkpt>
      <trkpt lat="46.07971" lon="4.49731">
        <ele>426</ele>
        <time>2017-10-31T11:05:49Z</time>
      </trkpt>
      <trkpt lat="46.07983" lon="4.49733">
        <ele>428</ele>
        <time>2017-10-31T11:07:49Z</time>
      </trkpt>
      <trkpt lat="46.07983" lon="4.49733">
        <ele>428</ele>
        <time>2017-10-31T11:09:49Z</time>
      </trkpt>
      <trkpt lat="46.0799" lon="4.49734">
        <ele>429</ele>
        <time>2017-10-31T11:11:49Z</time>
      </trkpt>
      <trkpt lat="46.07999" lon="4.49734">
        <ele>430</ele>
        <time>2017-10-31T11:13:49Z</time>
      </trkpt>
      <trkpt lat="46.08009" lon="4.49733">
        <ele>430</ele>
        <time>2017-10-31T11:15:49Z</time>
      </trkpt>
      <trkpt lat="46.08019" lon="4.49732">
        <ele>431</ele>
        <time>2017-10-31T11:17:49Z</time>
      </trkpt>
      <trkpt lat="46.0803" lon="4.49729">
        <ele>431</ele>
        <time>2017-10-31T11:19:49Z</time>
      </trkpt>
      <trkpt lat="46.0805" lon="4.49723">
        <ele>433</ele>
        <time>2017-10-31T11:21:49Z</time>
      </trkpt>
      <trkpt lat="46.08082" lon="4.49714">
        <ele>435</ele>
        <time>2017-10-31T11:23:49Z</time>
      </trkpt>
      <trkpt lat="46.08109" lon="4.49706">
        <ele>436</ele>
        <time>2017-10-31T11:25:49Z</time>
      </trkpt>
      <trkpt lat="46.08128" lon="4.49699">
        <ele>437</ele>
        <time>2017-10-31T11:27:49Z</time>
      </trkpt>
      <trkpt lat="46.08141" lon="4.49695">
        <ele>437</ele>
        <time>2017-10-31T11:29:49Z</time>
      </trkpt>
      <trkpt lat="46.08152" lon="4.49691">
        <ele>438</ele>
        <time>2017-10-31T11:31:49Z</time>
      </trkpt>
      <trkpt lat="46.08162" lon="4.49688">
        <ele>438</ele>
        <time>2017-10-31T11:33:49Z</time>
      </trkpt>
      <trkpt lat="46.08172" lon="4.49685">
        <ele>439</ele>
        <time>2017-10-31T11:35:49Z</time>
      </trkpt>
      <trkpt lat="46.08181" lon="4.49684">
        <ele>439</ele>
        <time>2017-10-31T11:37:49Z</time>
      </trkpt>
      <trkpt lat="46.08189" lon="4.49685">
        <ele>438</ele>
        <time>2017-10-31T11:39:49Z</time>
      </trkpt>
      <trkpt lat="46.08197" lon="4.49688">
        <ele>438</ele>
        <time>2017-10-31T11:41:49Z</time>
      </trkpt>
      <trkpt lat="46.082" lon="4.4969">
        <ele>437</ele>
        <time>2017-10-31T11:43:49Z</time>
      </trkpt>
      <trkpt lat="46.082" lon="4.4969">
        <ele>437</ele>
        <time>2017-10-31T11:45:49Z</time>
      </trkpt>
      <trkpt lat="46.08197" lon="4.49688">
        <ele>438</ele>
        <time>2017-10-31T11:47:49Z</time>
      </trkpt>
      <trkpt lat="46.08189" lon="4.49685">
        <ele>438</ele>
        <time>2017-10-31T11:49:49Z</time>
      </trkpt>
      <trkpt lat="46.08181" lon="4.49684">
        <ele>439</ele>
        <time>2017-10-31T11:51:49Z</time>
      </trkpt>
      <trkpt lat="46.08172" lon="4.49685">
        <ele>439</ele>
        <time>2017-10-31T11:53:49Z</time>
      </trkpt>
      <trkpt lat="46.08162" lon="4.49688">
        <ele>438</ele>
        <time>2017-10-31T11:55:49Z</time>
      </trkpt>
      <trkpt lat="46.08152" lon="4.49691">
        <ele>438</ele>
        <time>2017-10-31T11:57:49Z</time>
      </trkpt>
      <trkpt lat="46.08141" lon="4.49695">
        <ele>437</ele>
        <time>2017-10-31T11:59:49Z</time>
      </trkpt>
      <trkpt lat="46.08128" lon="4.49699">
        <ele>437</ele>
        <time>2017-10-31T12:01:49Z</time>
      </trkpt>
      <trkpt lat="46.08109" lon="4.49706">
        <ele>436</ele>
        <time>2017-10-31T12:03:49Z</time>
      </trkpt>
      <trkpt lat="46.08082" lon="4.49714">
        <ele>435</ele>
        <time>2017-10-31T12:05:49Z</time>
      </trkpt>
      <trkpt lat="46.0805" lon="4.49723">
        <ele>433</ele>
        <time>2017-10-31T12:07:49Z</time>
      </trkpt>
      <trkpt lat="46.0803" lon="4.49729">
        <ele>431</ele>
        <time>2017-10-31T12:09:49Z</time>
      </trkpt>
      <trkpt lat="46.08019" lon="4.49732">
        <ele>431</ele>
        <time>2017-10-31T12:11:49Z</time>
      </trkpt>
      <trkpt lat="46.08009" lon="4.49733">
        <ele>430</ele>
        <time>2017-10-31T12:13:49Z</time>
      </trkpt>
      <trkpt lat="46.07999" lon="4.49734">
        <ele>430</ele>
        <time>2017-10-31T12:15:49Z</time>
      </trkpt>
      <trkpt lat="46.0799" lon="4.49734">
        <ele>429</ele>
        <time>2017-10-31T12:17:49Z</time>
      </trkpt>
      <trkpt lat="46.07983" lon="4.49733">
        <ele>428</ele>
        <time>2017-10-31T12:19:49Z</time>
      </trkpt>
      <trkpt lat="46.07971" lon="4.49731">
        <ele>426</ele>
        <time>2017-10-31T12:21:49Z</time>
      </trkpt>
      <trkpt lat="46.07955" lon="4.49725">
        <ele>425</ele>
        <time>2017-10-31T12:23:49Z</time>
      </trkpt>
      <trkpt lat="46.07941" lon="4.49718">
        <ele>423</ele>
        <time>2017-10-31T12:25:49Z</time>
      </trkpt>
      <trkpt lat="46.07911" lon="4.49697">
        <ele>421</ele>
        <time>2017-10-31T12:27:49Z</time>
      </trkpt>
      <trkpt lat="46.07893" lon="4.49684">
        <ele>420</ele>
        <time>2017-10-31T12:29:49Z</time>
      </trkpt>
      <trkpt lat="46.07875" lon="4.49672">
        <ele>419</ele>
        <time>2017-10-31T12:31:49Z</time>
      </trkpt>
      <trkpt lat="46.0787" lon="4.4967">
        <ele>419</ele>
        <time>2017-10-31T12:33:49Z</time>
      </trkpt>
      <trkpt lat="46.07869" lon="4.4967">
        <ele>419</ele>
        <time>2017-10-31T12:35:49Z</time>
      </trkpt>
      <trkpt lat="46.07868" lon="4.49671">
        <ele>419</ele>
        <time>2017-10-31T12:37:49Z</time>
      </trkpt>
      <trkpt lat="46.07867" lon="4.49672">
        <ele>419</ele>
        <time>2017-10-31T12:39:49Z</time>
      </trkpt>
      <trkpt lat="46.07865" lon="4.49676">
        <ele>418</ele>
        <time>2017-10-31T12:41:49Z</time>
      </trkpt>
      <trkpt lat="46.07862" lon="4.49688">
        <ele>416</ele>
        <time>2017-10-31T12:43:49Z</time>
      </trkpt>
      <trkpt lat="46.07854" lon="4.49725">
        <ele>412</ele>
        <time>2017-10-31T12:45:49Z</time>
      </trkpt>
      <trkpt lat="46.07854" lon="4.49725">
        <ele>412</ele>
        <time>2017-10-31T12:47:49Z</time>
      </trkpt>
      <trkpt lat="46.07782" lon="4.49693">
        <ele>408</ele>
        <time>2017-10-31T12:49:49Z</time>
      </trkpt>
      <trkpt lat="46.07756" lon="4.4968">
        <ele>407</ele>
        <time>2017-10-31T12:51:49Z</time>
      </trkpt>
      <trkpt lat="46.07718" lon="4.49667">
        <ele>405</ele>
        <time>2017-10-31T12:53:49Z</time>
      </trkpt>
      <trkpt lat="46.07699" lon="4.49659">
        <ele>404</ele>
        <time>2017-10-31T12:55:49Z</time>
      </trkpt>
      <trkpt lat="46.07677" lon="4.4965">
        <ele>403</ele>
        <time>2017-10-31T12:57:49Z</time>
      </trkpt>
      <trkpt lat="46.07666" lon="4.49645">
        <ele>403</ele>
        <time>2017-10-31T12:59:49Z</time>
      </trkpt>
      <trkpt lat="46.07645" lon="4.49635">
        <ele>402</ele>
        <time>2017-10-31T13:01:49Z</time>
      </trkpt>
      <trkpt lat="46.07608" lon="4.49612">
        <ele>401</ele>
        <time>2017-10-31T13:03:49Z</time>
      </trkpt>
      <trkpt lat="46.07591" lon="4.49599">
        <ele>401</ele>
        <time>2017-10-31T13:05:49Z</time>
      </trkpt>
      <trkpt lat="46.07565" lon="4.49576">
        <ele>401</ele>
        <time>2017-10-31T13:07:49Z</time>
      </trkpt>
      <trkpt lat="46.07517" lon="4.49538">
        <ele>402</ele>
        <time>2017-10-31T13:09:49Z</time>
      </trkpt>
      <trkpt lat="46.07474" lon="4.49504">
        <ele>402</ele>
        <time>2017-10-31T13:11:49Z</time>
      </trkpt>
      <trkpt lat="46.0747" lon="4.49499">
        <ele>402</ele>
        <time>2017-10-31T13:13:49Z</time>
      </trkpt>
      <trkpt lat="46.07462" lon="4.49491">
        <ele>402</ele>
        <time>2017-10-31T13:15:49Z</time>
      </trkpt>
      <trkpt lat="46.07447" lon="4.49475">
        <ele>402</ele>
        <time>2017-10-31T13:17:49Z</time>
      </trkpt>
      <trkpt lat="46.07438" lon="4.49463">
        <ele>401</ele>
        <time>2017-10-31T13:19:49Z</time>
      </trkpt>
      <trkpt lat="46.07429" lon="4.49451">
        <ele>401</ele>
        <time>2017-10-31T13:21:49Z</time>
      </trkpt>
      <trkpt lat="46.07404" lon="4.49413">
        <ele>401</ele>
        <time>2017-10-31T13:23:49Z</time>
      </trkpt>
      <trkpt lat="46.07346" lon="4.4932">
        <ele>398</ele>
        <time>2017-10-31T13:25:49Z</time>
      </trkpt>
      <trkpt lat="46.07342" lon="4.49314">
        <ele>397</ele>
        <time>2017-10-31T13:27:49Z</time>
      </trkpt>
      <trkpt lat="46.0734" lon="4.4931">
        <ele>397</ele>
        <time>2017-10-31T13:29:49Z</time>
      </trkpt>
      <trkpt lat="46.07337" lon="4.49303">
        <ele>397</ele>
        <time>2017-10-31T13:31:49Z</time>
      </trkpt>
      <trkpt lat="46.07333" lon="4.49296">
        <ele>396</ele>
        <time>2017-10-31T13:33:49Z</time>
      </trkpt>
      <trkpt lat="46.0733" lon="4.49289">
        <ele>396</ele>
        <time>2017-10-31T13:35:49Z</time>
      </trkpt>
      <trkpt lat="46.07328" lon="4.49285">
        <ele>396</ele>
        <time>2017-10-31T13:37:49Z</time>
      </trkpt>
      <trkpt lat="46.07327" lon="4.4928">
        <ele>396</ele>
        <time>2017-10-31T13:39:49Z</time>
      </trkpt>
      <trkpt lat="46.07326" lon="4.49273">
        <ele>396</ele>
        <time>2017-10-31T13:41:49Z</time>
      </trkpt>
      <trkpt lat="46.07326" lon="4.49273">
        <ele>396</ele>
        <time>2017-10-31T13:43:49Z</time>
      </trkpt>
      <trkpt lat="46.07322" lon="4.49271">
        <ele>396</ele>
        <time>2017-10-31T13:45:49Z</time>
      </trkpt>
      <trkpt lat="46.07318" lon="4.49268">
        <ele>396</ele>
        <time>2017-10-31T13:47:49Z</time>
      </trkpt>
      <trkpt lat="46.07309" lon="4.49261">
        <ele>396</ele>
        <time>2017-10-31T13:49:49Z</time>
      </trkpt>
      <trkpt lat="46.07304" lon="4.49255">
        <ele>395</ele>
        <time>2017-10-31T13:51:49Z</time>
      </trkpt>
      <trkpt lat="46.07296" lon="4.49247">
        <ele>395</ele>
        <time>2017-10-31T13:53:49Z</time>
      </trkpt>
      <trkpt lat="46.07287" lon="4.49239">
        <ele>394</ele>
        <time>2017-10-31T13:55:49Z</time>
      </trkpt>
      <trkpt lat="46.07273" lon="4.49224">
        <ele>393</ele>
        <time>2017-10-31T13:57:49Z</time>
      </trkpt>
      <trkpt lat="46.07268" lon="4.4922">
        <ele>392</ele>
        <time>2017-10-31T13:59:49Z</time>
      </trkpt>
      <trkpt lat="46.07266" lon="4.49219">
        <ele>392</ele>
        <time>2017-10-31T14:01:49Z</time>
      </trkpt>
      <trkpt lat="46.07261" lon="4.49219">
        <ele>392</ele>
        <time>2017-10-31T14:03:49Z</time>
      </trkpt>
      <trkpt lat="46.07257" lon="4.49219">
        <ele>392</ele>
        <time>2017-10-31T14:05:49Z</time>
      </trkpt>
      <trkpt lat="46.07254" lon="4.49218">
        <ele>391</ele>
        <time>2017-10-31T14:07:49Z</time>
      </trkpt>
      <trkpt lat="46.07251" lon="4.49214">
        <ele>391</ele>
        <time>2017-10-31T14:09:49Z</time>
      </trkpt>
      <trkpt lat="46.07246" lon="4.49204">
        <ele>391</ele>
        <time>2017-10-31T14:11:49Z</time>
      </trkpt>
      <trkpt lat="46.07246" lon="4.49204">
        <ele>391</ele>
        <time>2017-10-31T14:13:49Z</time>
      </trkpt>
      <trkpt lat="46.07243" lon="4.49195">
        <ele>391</ele>
        <time>2017-10-31T14:15:49Z</time>
      </trkpt>
      <trkpt lat="46.0724" lon="4.49185">
        <ele>390</ele>
        <time>2017-10-31T14:17:49Z</time>
      </trkpt>
      <trkpt lat="46.0723" lon="4.49171">
        <ele>390</ele>
        <time>2017-10-31T14:19:49Z</time>
      </trkpt>
      <trkpt lat="46.07222" lon="4.49156">
        <ele>390</ele>
        <time>2017-10-31T14:21:49Z</time>
      </trkpt>
      <trkpt lat="46.07211" lon="4.49143">
        <ele>390</ele>
        <time>2017-10-31T14:23:49Z</time>
      </trkpt>
      <trkpt lat="46.072" lon="4.49133">
        <ele>390</ele>
        <time>2017-10-31T14:25:49Z</time>
      </trkpt>
      <trkpt lat="46.0719" lon="4.49119">
        <ele>391</ele>
        <time>2017-10-31T14:27:49Z</time>
      </trkpt>
      <trkpt lat="46.07186" lon="4.491">
        <ele>391</ele>
        <time>2017-10-31T14:29:49Z</time>
      </trkpt>
      <trkpt lat="46.07178" lon="4.49075">
        <ele>394</ele>
        <time>2017-10-31T14:31:49Z</time>
      </trkpt>
      <trkpt lat="46.07173" lon="4.49063">
        <ele>398</ele>
        <time>2017-10-31T14:33:49Z</time>
      </trkpt>
      <trkpt lat="46.07151" lon="4.49046">
        <ele>403</ele>
        <time>2017-10-31T14:35:49Z</time>
      </trkpt>
      <trkpt lat="46.07137" lon="4.4904">
        <ele>405</ele>
        <time>2017-10-31T14:37:49Z</time>
      </trkpt>
      <trkpt lat="46.07133" lon="4.49038">
        <ele>406</ele>
        <time>2017-10-31T14:39:49Z</time>
      </trkpt>
      <trkpt lat="46.07126" lon="4.49033">
        <ele>407</ele>
        <time>2017-10-31T14:41:49Z</time>
      </trkpt>
      <trkpt lat="46.07124" lon="4.4903">
        <ele>408</ele>
        <time>2017-10-31T14:43:49Z</time>
      </trkpt>
      <trkpt lat="46.07121" lon="4.49027">
        <ele>409</ele>
        <time>2017-10-31T14:45:49Z</time>
      </trkpt>
      <trkpt lat="46.07121" lon="4.49027">
        <ele>409</ele>
        <time>2017-10-31T14:47:49Z</time>
      </trkpt>
      <trkpt lat="46.07104" lon="4.49032">
        <ele>408</ele>
        <time>2017-10-31T14:49:49Z</time>
      </trkpt>
      <trkpt lat="46.0709" lon="4.49038">
        <ele>407</ele>
        <time>2017-10-31T14:51:49Z</time>
      </trkpt>
      <trkpt lat="46.07056" lon="4.49054">
        <ele>406</ele>
        <time>2017-10-31T14:53:49Z</time>
      </trkpt>
      <trkpt lat="46.07026" lon="4.49068">
        <ele>406</ele>
        <time>2017-10-31T14:55:49Z</time>
      </trkpt>
      <trkpt lat="46.06989" lon="4.49086">
        <ele>407</ele>
        <time>2017-10-31T14:57:49Z</time>
      </trkpt>
      <trkpt lat="46.0688" lon="4.49135">
        <ele>412</ele>
        <time>2017-10-31T14:59:49Z</time>
      </trkpt>
      <trkpt lat="46.06842" lon="4.49151">
        <ele>412</ele>
        <time>2017-10-31T15:01:49Z</time>
      </trkpt>
      <trkpt lat="46.06825" lon="4.49158">
        <ele>409</ele>
        <time>2017-10-31T15:03:49Z</time>
      </trkpt>
      <trkpt lat="46.06804" lon="4.49166">
        <ele>406</ele>
        <time>2017-10-31T15:05:49Z</time>
      </trkpt>
      <trkpt lat="46.06795" lon="4.4917">
        <ele>405</ele>
        <time>2017-10-31T15:07:49Z</time>
      </trkpt>
      <trkpt lat="46.06786" lon="4.49172">
        <ele>405</ele>
        <time>2017-10-31T15:09:49Z</time>
      </trkpt>
      <trkpt lat="46.0677" lon="4.49179">
        <ele>404</ele>
        <time>2017-10-31T15:11:49Z</time>
      </trkpt>
      <trkpt lat="46.0673" lon="4.49193">
        <ele>402</ele>
        <time>2017-10-31T15:13:49Z</time>
      </trkpt>
      <trkpt lat="46.06711" lon="4.49199">
        <ele>400</ele>
        <time>2017-10-31T15:15:49Z</time>
      </trkpt>
      <trkpt lat="46.06653" lon="4.49218">
        <ele>397</ele>
        <time>2017-10-31T15:17:49Z</time>
      </trkpt>
      <trkpt lat="46.06643" lon="4.4922">
        <ele>396</ele>
        <time>2017-10-31T15:19:49Z</time>
      </trkpt>
      <trkpt lat="46.06632" lon="4.49223">
        <ele>395</ele>
        <time>2017-10-31T15:21:49Z</time>
      </trkpt>
      <trkpt lat="46.06618" lon="4.49224">
        <ele>395</ele>
        <time>2017-10-31T15:23:49Z</time>
      </trkpt>
      <trkpt lat="46.06562" lon="4.49224">
        <ele>393</ele>
        <time>2017-10-31T15:25:49Z</time>
      </trkpt>
      <trkpt lat="46.06523" lon="4.49224">
        <ele>391</ele>
        <time>2017-10-31T15:27:49Z</time>
      </trkpt>
      <trkpt lat="46.06488" lon="4.49225">
        <ele>389</ele>
        <time>2017-10-31T15:29:49Z</time>
      </trkpt>
      <trkpt lat="46.06484" lon="4.49225">
        <ele>389</ele>
        <time>2017-10-31T15:31:49Z</time>
      </trkpt>
      <trkpt lat="46.06481" lon="4.49226">
        <ele>389</ele>
        <time>2017-10-31T15:33:49Z</time>
      </trkpt>
      <trkpt lat="46.06432" lon="4.49246">
        <ele>387</ele>
        <time>2017-10-31T15:35:49Z</time>
      </trkpt>
      <trkpt lat="46.06424" lon="4.49249">
        <ele>386</ele>
        <time>2017-10-31T15:37:49Z</time>
      </trkpt>
      <trkpt lat="46.06417" lon="4.49252">
        <ele>386</ele>
        <time>2017-10-31T15:39:49Z</time>
      </trkpt>
      <trkpt lat="46.06414" lon="4.49252">
        <ele>386</ele>
        <time>2017-10-31T15:41:49Z</time>
      </trkpt>
      <trkpt lat="46.06411" lon="4.49252">
        <ele>386</ele>
        <time>2017-10-31T15:43:49Z</time>
      </trkpt>
      <trkpt lat="46.06407" lon="4.49251">
        <ele>386</ele>
        <time>2017-10-31T15:45:49Z</time>
      </trkpt>
      <trkpt lat="46.06403" lon="4.49249">
        <ele>386</ele>
        <time>2017-10-31T15:47:49Z</time>
      </trkpt>
      <trkpt lat="46.06396" lon="4.49246">
        <ele>386</ele>
        <time>2017-10-31T15:49:49Z</time>
      </trkpt>
      <trkpt lat="46.06393" lon="4.49244">
        <ele>386</ele>
        <time>2017-10-31T15:51:49Z</time>
      </trkpt>
      <trkpt lat="46.06378" lon="4.49231">
        <ele>386</ele>
        <time>2017-10-31T15:53:49Z</time>
      </trkpt>
      <trkpt lat="46.06361" lon="4.49216">
        <ele>385</ele>
        <time>2017-10-31T15:55:49Z</time>
      </trkpt>
      <trkpt lat="46.06333" lon="4.49192">
        <ele>384</ele>
        <time>2017-10-31T15:57:49Z</time>
      </trkpt>
      <trkpt lat="46.06333" lon="4.49192">
        <ele>384</ele>
        <time>2017-10-31T15:59:49Z</time>
      </trkpt>
      <trkpt lat="46.06325" lon="4.49216">
        <ele>384</ele>
        <time>2017-10-31T16:01:49Z</time>
      </trkpt>
      <trkpt lat="46.0632" lon="4.49228">
        <ele>384</ele>
        <time>2017-10-31T16:03:49Z</time>
      </trkpt>
      <trkpt lat="46.06314" lon="4.4924">
        <ele>385</ele>
        <time>2017-10-31T16:05:49Z</time>
      </trkpt>
      <trkpt lat="46.06312" lon="4.49244">
        <ele>385</ele>
        <time>2017-10-31T16:07:49Z</time>
      </trkpt>
      <trkpt lat="46.06312" lon="4.49247">
        <ele>385</ele>
        <time>2017-10-31T16:09:49Z</time>
      </trkpt>
      <trkpt lat="46.06311" lon="4.4925">
        <ele>385</ele>
        <time>2017-10-31T16:11:49Z</time>
      </trkpt>
      <trkpt lat="46.06311" lon="4.4925">
        <ele>385</ele>
        <time>2017-10-31T16:13:49Z</time>
      </trkpt>
      <trkpt lat="46.06308" lon="4.49246">
        <ele>385</ele>
        <time>2017-10-31T16:15:49Z</time>
      </trkpt>
      <trkpt lat="46.06306" lon="4.49244">
        <ele>385</ele>
        <time>2017-10-31T16:17:49Z</time>
      </trkpt>
      <trkpt lat="46.06303" lon="4.49243">
        <ele>385</ele>
        <time>2017-10-31T16:19:49Z</time>
      </trkpt>
      <trkpt lat="46.063" lon="4.49243">
        <ele>385</ele>
        <time>2017-10-31T16:21:49Z</time>
      </trkpt>
      <trkpt lat="46.06298" lon="4.49243">
        <ele>385</ele>
        <time>2017-10-31T16:23:49Z</time>
      </trkpt>
      <trkpt lat="46.06296" lon="4.49243">
        <ele>385</ele>
        <time>2017-10-31T16:25:49Z</time>
      </trkpt>
      <trkpt lat="46.06294" lon="4.49244">
        <ele>385</ele>
        <time>2017-10-31T16:27:49Z</time>
      </trkpt>
      <trkpt lat="46.06289" lon="4.49246">
        <ele>385</ele>
        <time>2017-10-31T16:29:49Z</time>
      </trkpt>
      <trkpt lat="46.06285" lon="4.49249">
        <ele>386</ele>
        <time>2017-10-31T16:31:49Z</time>
      </trkpt>
      <trkpt lat="46.06279" lon="4.49253">
        <ele>386</ele>
        <time>2017-10-31T16:33:49Z</time>
      </trkpt>
      <trkpt lat="46.06274" lon="4.49257">
        <ele>387</ele>
        <time>2017-10-31T16:35:49Z</time>
      </trkpt>
      <trkpt lat="46.06272" lon="4.4926">
        <ele>387</ele>
        <time>2017-10-31T16:37:49Z</time>
      </trkpt>
      <trkpt lat="46.06269" lon="4.49263">
        <ele>387</ele>
        <time>2017-10-31T16:39:49Z</time>
      </trkpt>
      <trkpt lat="46.06265" lon="4.49271">
        <ele>388</ele>
        <time>2017-10-31T16:41:49Z</time>
      </trkpt>
      <trkpt lat="46.06265" lon="4.49271">
        <ele>388</ele>
        <time>2017-10-31T16:43:49Z</time>
      </trkpt>
      <trkpt lat="46.0626" lon="4.49287">
        <ele>389</ele>
        <time>2017-10-31T16:45:49Z</time>
      </trkpt>
      <trkpt lat="46.0626" lon="4.4929">
        <ele>389</ele>
        <time>2017-10-31T16:47:49Z</time>
      </trkpt>
      <trkpt lat="46.06259" lon="4.49293">
        <ele>389</ele>
        <time>2017-10-31T16:49:49Z</time>
      </trkpt>
      <trkpt lat="46.06256" lon="4.49307">
        <ele>390</ele>
        <time>2017-10-31T16:51:49Z</time>
      </trkpt>
      <trkpt lat="46.06249" lon="4.49318">
        <ele>390</ele>
        <time>2017-10-31T16:53:49Z</time>
      </trkpt>
      <trkpt lat="46.06244" lon="4.49322">
        <ele>391</ele>
        <time>2017-10-31T16:55:49Z</time>
      </trkpt>
      <trkpt lat="46.06238" lon="4.49322">
        <ele>392</ele>
        <time>2017-10-31T16:57:49Z</time>
      </trkpt>
      <trkpt lat="46.06233" lon="4.49319">
        <ele>392</ele>
        <time>2017-10-31T16:59:49Z</time>
      </trkpt>
      <trkpt lat="46.06228" lon="4.4931">
        <ele>392</ele>
        <time>2017-10-31T17:01:49Z</time>
      </trkpt>
      <trkpt lat="46.06217" lon="4.49288">
        <ele>391</ele>
        <time>2017-10-31T17:03:49Z</time>
      </trkpt>
      <trkpt lat="46.0621" lon="4.49277">
        <ele>391</ele>
        <time>2017-10-31T17:05:49Z</time>
      </trkpt>
      <trkpt lat="46.06206" lon="4.49273">
        <ele>391</ele>
        <time>2017-10-31T17:07:49Z</time>
      </trkpt>
      <trkpt lat="46.062" lon="4.49273">
        <ele>391</ele>
        <time>2017-10-31T17:09:49Z</time>
      </trkpt>
      <trkpt lat="46.06192" lon="4.49276">
        <ele>392</ele>
        <time>2017-10-31T17:11:49Z</time>
      </trkpt>
      <trkpt lat="46.06188" lon="4.49284">
        <ele>393</ele>
        <time>2017-10-31T17:13:49Z</time>
      </trkpt>
      <trkpt lat="46.06186" lon="4.49315">
        <ele>396</ele>
        <time>2017-10-31T17:15:49Z</time>
      </trkpt>
      <trkpt lat="46.06186" lon="4.49315">
        <ele>396</ele>
        <time>2017-10-31T17:17:49Z</time>
      </trkpt>
      <trkpt lat="46.06175" lon="4.49316">
        <ele>397</ele>
        <time>2017-10-31T17:19:49Z</time>
      </trkpt>
      <trkpt lat="46.06175" lon="4.49316">
        <ele>397</ele>
        <time>2017-10-31T17:21:49Z</time>
      </trkpt>
      <trkpt lat="46.0617" lon="4.49326">
        <ele>399</ele>
        <time>2017-10-31T17:23:49Z</time>
      </trkpt>
      <trkpt lat="46.06168" lon="4.49336">
        <ele>400</ele>
        <time>2017-10-31T17:25:49Z</time>
      </trkpt>
      <trkpt lat="46.06168" lon="4.49339">
        <ele>400</ele>
        <time>2017-10-31T17:27:49Z</time>
      </trkpt>
      <trkpt lat="46.06168" lon="4.49354">
        <ele>401</ele>
        <time>2017-10-31T17:29:49Z</time>
      </trkpt>
      <trkpt lat="46.06168" lon="4.4936">
        <ele>402</ele>
        <time>2017-10-31T17:31:49Z</time>
      </trkpt>
      <trkpt lat="46.06169" lon="4.49364">
        <ele>402</ele>
        <time>2017-10-31T17:33:49Z</time>
      </trkpt>
      <trkpt lat="46.06171" lon="4.4937">
        <ele>402</ele>
        <time>2017-10-31T17:35:49Z</time>
      </trkpt>
      <trkpt lat="46.06173" lon="4.49378">
        <ele>402</ele>
        <time>2017-10-31T17:37:49Z</time>
      </trkpt>
      <trkpt lat="46.06173" lon="4.49378">
        <ele>402</ele>
        <time>2017-10-31T17:39:49Z</time>
      </trkpt>
      <trkpt lat="46.06174" lon="4.49381">
        <ele>403</ele>
        <time>2017-10-31T17:41:49Z</time>
      </trkpt>
      <trkpt lat="46.06175" lon="4.494">
        <ele>404</ele>
        <time>2017-10-31T17:43:49Z</time>
      </trkpt>
      <trkpt lat="46.06176" lon="4.49411">
        <ele>404</ele>
        <time>2017-10-31T17:45:49Z</time>
      </trkpt>
      <trkpt lat="46.06179" lon="4.49433">
        <ele>405</ele>
        <time>2017-10-31T17:47:49Z</time>
      </trkpt>
      <trkpt lat="46.06178" lon="4.49445">
        <ele>406</ele>
        <time>2017-10-31T17:49:49Z</time>
      </trkpt>
      <trkpt lat="46.06174" lon="4.49481">
        <ele>407</ele>
        <time>2017-10-31T17:51:49Z</time>
      </trkpt>
      <trkpt lat="46.06174" lon="4.49481">
        <ele>407</ele>
        <time>2017-10-31T17:53:49Z</time>
      </trkpt>
      <trkpt lat="46.06174" lon="4.49485">
        <ele>407</ele>
        <time>2017-10-31T17:55:49Z</time>
      </trkpt>
      <trkpt lat="46.06175" lon="4.49489">
        <ele>407</ele>
        <time>2017-10-31T17:57:49Z</time>
      </trkpt>
      <trkpt lat="46.06176" lon="4.49493">
        <ele>407</ele>
        <time>2017-10-31T17:59:49Z</time>
      </trkpt>
      <trkpt lat="46.06178" lon="4.49498">
        <ele>407</ele>
        <time>2017-10-31T18:01:49Z</time>
      </trkpt>
      <trkpt lat="46.06179" lon="4.49503">
        <ele>407</ele>
        <time>2017-10-31T18:03:49Z</time>
      </trkpt>
      <trkpt lat="46.06181" lon="4.49508">
        <ele>407</ele>
        <time>2017-10-31T18:05:49Z</time>
      </trkpt>
      <trkpt lat="46.06181" lon="4.49513">
        <ele>407</ele>
        <time>2017-10-31T18:07:49Z</time>
      </trkpt>
      <trkpt lat="46.0618" lon="4.49519">
        <ele>407</ele>
        <time>2017-10-31T18:09:49Z</time>
      </trkpt>
      <trkpt lat="46.06179" lon="4.49525">
        <ele>407</ele>
        <time>2017-10-31T18:11:49Z</time>
      </trkpt>
      <trkpt lat="46.06177" lon="4.49531">
        <ele>407</ele>
        <time>2017-10-31T18:13:49Z</time>
      </trkpt>
      <trkpt lat="46.06174" lon="4.49538">
        <ele>407</ele>
        <time>2017-10-31T18:15:49Z</time>
      </trkpt>
      <trkpt lat="46.06171" lon="4.49544">
        <ele>407</ele>
        <time>2017-10-31T18:17:49Z</time>
      </trkpt>
      <trkpt lat="46.06169" lon="4.49548">
        <ele>407</ele>
        <time>2017-10-31T18:19:49Z</time>
      </trkpt>
      <trkpt lat="46.06168" lon="4.4955">
        <ele>407</ele>
        <time>2017-10-31T18:21:49Z</time>
      </trkpt>
      <trkpt lat="46.06166" lon="4.49553">
        <ele>408</ele>
        <time>2017-10-31T18:23:49Z</time>
      </trkpt>
      <trkpt lat="46.06164" lon="4.49556">
        <ele>408</ele>
        <time>2017-10-31T18:25:49Z</time>
      </trkpt>
      <trkpt lat="46.0616" lon="4.49557">
        <ele>409</ele>
        <time>2017-10-31T18:27:49Z</time>
      </trkpt>
      <trkpt lat="46.06156" lon="4.49583">
        <ele>410</ele>
        <time>2017-10-31T18:29:49Z</time>
      </trkpt>
      <trkpt lat="46.06148" lon="4.49609">
        <ele>412</ele>
        <time>2017-10-31T18:31:49Z</time>
      </trkpt>
      <trkpt lat="46.06138" lon="4.49627">
        <ele>415</ele>
        <time>2017-10-31T18:33:49Z</time>
      </trkpt>
      <trkpt lat="46.06122" lon="4.49656">
        <ele>419</ele>
        <time>2017-10-31T18:35:49Z</time>
      </trkpt>
      <trkpt lat="46.06117" lon="4.49665">
        <ele>421</ele>
        <time>2017-10-31T18:37:49Z</time>
      </trkpt>
      <trkpt lat="46.06118" lon="4.4967">
        <ele>420</ele>
        <time>2017-10-31T18:39:49Z</time>
      </trkpt>
      <trkpt lat="46.06119" lon="4.49678">
        <ele>421</ele>
        <time>2017-10-31T18:41:49Z</time>
      </trkpt>
      <trkpt lat="46.06124" lon="4.49686">
        <ele>420</ele>
        <time>2017-10-31T18:43:49Z</time>
      </trkpt>
      <trkpt lat="46.0613" lon="4.49694">
        <ele>419</ele>
        <time>2017-10-31T18:45:49Z</time>
      </trkpt>
      <trkpt lat="46.06137" lon="4.49708">
        <ele>418</ele>
        <time>2017-10-31T18:47:49Z</time>
      </trkpt>
      <trkpt lat="46.06143" lon="4.49724">
        <ele>417</ele>
        <time>2017-10-31T18:49:49Z</time>
      </trkpt>
      <trkpt lat="46.06147" lon="4.4974">
        <ele>417</ele>
        <time>2017-10-31T18:51:49Z</time>
      </trkpt>
      <trkpt lat="46.06147" lon="4.49755">
        <ele>417</ele>
        <time>2017-10-31T18:53:49Z</time>
      </trkpt>
      <trkpt lat="46.06147" lon="4.49774">
        <ele>418</ele>
        <time>2017-10-31T18:55:49Z</time>
      </trkpt>
      <trkpt lat="46.06144" lon="4.49812">
        <ele>419</ele>
        <time>2017-10-31T18:57:49Z</time>
      </trkpt>
      <trkpt lat="46.06144" lon="4.49832">
        <ele>419</ele>
        <time>2017-10-31T18:59:49Z</time>
      </trkpt>
      <trkpt lat="46.06144" lon="4.49878">
        <ele>420</ele>
        <time>2017-10-31T19:01:49Z</time>
      </trkpt>
      <trkpt lat="46.0615" lon="4.49966">
        <ele>420</ele>
        <time>2017-10-31T19:03:49Z</time>
      </trkpt>
      <trkpt lat="46.06151" lon="4.49981">
        <ele>420</ele>
        <time>2017-10-31T19:05:49Z</time>
      </trkpt>
      <trkpt lat="46.06151" lon="4.49981">
        <ele>420</ele>
        <time>2017-10-31T19:07:49Z</time>
      </trkpt>
      <trkpt lat="46.06152" lon="4.4999">
        <ele>420</ele>
        <time>2017-10-31T19:09:49Z</time>
      </trkpt>
      <trkpt lat="46.06152" lon="4.50053">
        <ele>422</ele>
        <time>2017-10-31T19:11:49Z</time>
      </trkpt>
      <trkpt lat="46.06153" lon="4.50063">
        <ele>422</ele>
        <time>2017-10-31T19:13:49Z</time>
      </trkpt>
      <trkpt lat="46.06156" lon="4.5009">
        <ele>422</ele>
        <time>2017-10-31T19:15:49Z</time>
      </trkpt>
      <trkpt lat="46.06159" lon="4.50114">
        <ele>422</ele>
        <time>2017-10-31T19:17:49Z</time>
      </trkpt>
      <trkpt lat="46.06162" lon="4.50121">
        <ele>422</ele>
        <time>2017-10-31T19:19:49Z</time>
      </trkpt>
      <trkpt lat="46.06162" lon="4.50121">
        <ele>422</ele>
        <time>2017-10-31T19:21:49Z</time>
      </trkpt>
      <trkpt lat="46.06154" lon="4.50148">
        <ele>424</ele>
        <time>2017-10-31T19:23:49Z</time>
      </trkpt>
      <trkpt lat="46.06147" lon="4.50161">
        <ele>425</ele>
        <time>2017-10-31T19:25:49Z</time>
      </trkpt>
      <trkpt lat="46.06142" lon="4.50179">
        <ele>427</ele>
        <time>2017-10-31T19:27:49Z</time>
      </trkpt>
      <trkpt lat="46.0614" lon="4.50193">
        <ele>429</ele>
        <time>2017-10-31T19:29:49Z</time>
      </trkpt>
      <trkpt lat="46.0614" lon="4.50223">
        <ele>431</ele>
        <time>2017-10-31T19:31:49Z</time>
      </trkpt>
      <trkpt lat="46.06139" lon="4.50236">
        <ele>432</ele>
        <time>2017-10-31T19:33:49Z</time>
      </trkpt>
      <trkpt lat="46.06135" lon="4.5025">
        <ele>433</ele>
        <time>2017-10-31T19:35:49Z</time>
      </trkpt>
      <trkpt lat="46.06127" lon="4.50279">
        <ele>437</ele>
        <time>2017-10-31T19:37:49Z</time>
      </trkpt>
      <trkpt lat="46.0612" lon="4.50313">
        <ele>440</ele>
        <time>2017-10-31T19:39:49Z</time>
      </trkpt>
      <trkpt lat="46.06118" lon="4.50318">
        <ele>441</ele>
        <time>2017-10-31T19:41:49Z</time>
      </trkpt>
      <trkpt lat="46.06114" lon="4.50371">
        <ele>443</ele>
        <time>2017-10-31T19:43:49Z</time>
      </trkpt>
      <trkpt lat="46.06116" lon="4.50398">
        <ele>444</ele>
        <time>2017-10-31T19:45:49Z</time>
      </trkpt>
      <trkpt lat="46.06117" lon="4.50404">
        <ele>444</ele>
        <time>2017-10-31T19:47:49Z</time>
      </trkpt>
      <trkpt lat="46.06122" lon="4.50427">
        <ele>446</ele>
        <time>2017-10-31T19:49:49Z</time>
      </trkpt>
      <trkpt lat="46.06125" lon="4.50437">
        <ele>447</ele>
        <time>2017-10-31T19:51:49Z</time>
      </trkpt>
      <trkpt lat="46.0613" lon="4.50447">
        <ele>448</ele>
        <time>2017-10-31T19:53:49Z</time>
      </trkpt>
      <trkpt lat="46.06134" lon="4.50461">
        <ele>449</ele>
        <time>2017-10-31T19:55:49Z</time>
      </trkpt>
      <trkpt lat="46.06135" lon="4.50478">
        <ele>451</ele>
        <time>2017-10-31T19:57:49Z</time>
      </trkpt>
      <trkpt lat="46.06135" lon="4.5052">
        <ele>454</ele>
        <time>2017-10-31T19:59:49Z</time>
      </trkpt>
      <trkpt lat="46.06134" lon="4.50557">
        <ele>458</ele>
        <time>2017-10-31T20:01:49Z</time>
      </trkpt>
      <trkpt lat="46.06132" lon="4.50579">
        <ele>459</ele>
        <time>2017-10-31T20:03:49Z</time>
      </trkpt>
      <trkpt lat="46.06127" lon="4.50603">
        <ele>460</ele>
        <time>2017-10-31T20:05:49Z</time>
      </trkpt>
      <trkpt lat="46.06125" lon="4.50612">
        <ele>460</ele>
        <time>2017-10-31T20:07:49Z</time>
      </trkpt>
      <trkpt lat="46.06115" lon="4.50646">
        <ele>459</ele>
        <time>2017-10-31T20:09:49Z</time>
      </trkpt>
      <trkpt lat="46.06109" lon="4.50682">
        <ele>460</ele>
        <time>2017-10-31T20:11:49Z</time>
      </trkpt>
      <trkpt lat="46.06107" lon="4.50706">
        <ele>461</ele>
        <time>2017-10-31T20:13:49Z</time>
      </trkpt>
      <trkpt lat="46.06108" lon="4.50727">
        <ele>464</ele>
        <time>2017-10-31T20:15:49Z</time>
      </trkpt>
      <trkpt lat="46.06111" lon="4.50745">
        <ele>466</ele>
        <time>2017-10-31T20:17:49Z</time>
      </trkpt>
      <trkpt lat="46.06114" lon="4.50758">
        <ele>468</ele>
        <time>2017-10-31T20:19:49Z</time>
      </trkpt>
      <trkpt lat="46.06117" lon="4.50775">
        <ele>471</ele>
        <time>2017-10-31T20:21:49Z</time>
      </trkpt>
      <trkpt lat="46.06116" lon="4.50795">
        <ele>472</ele>
        <time>2017-10-31T20:23:49Z</time>
      </trkpt>
      <trkpt lat="46.06112" lon="4.50843">
        <ele>476</ele>
        <time>2017-10-31T20:25:49Z</time>
      </trkpt>
      <trkpt lat="46.06107" lon="4.50884">
        <ele>480</ele>
        <time>2017-10-31T20:27:49Z</time>
      </trkpt>
      <trkpt lat="46.06106" lon="4.50906">
        <ele>483</ele>
        <time>2017-10-31T20:29:49Z</time>
      </trkpt>
      <trkpt lat="46.06103" lon="4.50953">
        <ele>484</ele>
        <time>2017-10-31T20:31:49Z</time>
      </trkpt>
      <trkpt lat="46.06104" lon="4.51021">
        <ele>488</ele>
        <time>2017-10-31T20:33:49Z</time>
      </trkpt>
      <trkpt lat="46.06102" lon="4.51032">
        <ele>488</ele>
        <time>2017-10-31T20:35:49Z</time>
      </trkpt>
      <trkpt lat="46.061" lon="4.5104">
        <ele>488</ele>
        <time>2017-10-31T20:37:49Z</time>
      </trkpt>
      <trkpt lat="46.061" lon="4.51061">
        <ele>490</ele>
        <time>2017-10-31T20:39:49Z</time>
      </trkpt>
      <trkpt lat="46.06098" lon="4.51145">
        <ele>493</ele>
        <time>2017-10-31T20:41:49Z</time>
      </trkpt>
      <trkpt lat="46.061" lon="4.51166">
        <ele>494</ele>
        <time>2017-10-31T20:43:49Z</time>
      </trkpt>
      <trkpt lat="46.06102" lon="4.51182">
        <ele>495</ele>
        <time>2017-10-31T20:45:49Z</time>
      </trkpt>
      <trkpt lat="46.06108" lon="4.512">
        <ele>497</ele>
        <time>2017-10-31T20:47:49Z</time>
      </trkpt>
      <trkpt lat="46.0612" lon="4.51237">
        <ele>500</ele>
        <time>2017-10-31T20:49:49Z</time>
      </trkpt>
      <trkpt lat="46.0612" lon="4.51244">
        <ele>500</ele>
        <time>2017-10-31T20:51:49Z</time>
      </trkpt>
      <trkpt lat="46.0612" lon="4.51249">
        <ele>500</ele>
        <time>2017-10-31T20:53:49Z</time>
      </trkpt>
      <trkpt lat="46.06119" lon="4.51258">
        <ele>500</ele>
        <time>2017-10-31T20:55:49Z</time>
      </trkpt>
      <trkpt lat="46.06117" lon="4.51269">
        <ele>500</ele>
        <time>2017-10-31T20:57:49Z</time>
      </trkpt>
      <trkpt lat="46.06117" lon="4.51269">
        <ele>500</ele>
        <time>2017-10-31T20:59:49Z</time>
      </trkpt>
      <trkpt lat="46.06214" lon="4.51322">
        <ele>522</ele>
        <time>2017-10-31T21:01:49Z</time>
      </trkpt>
      <trkpt lat="46.06241" lon="4.51338">
        <ele>527</ele>
        <time>2017-10-31T21:03:49Z</time>
      </trkpt>
      <trkpt lat="46.06283" lon="4.51359">
        <ele>547</ele>
        <time>2017-10-31T21:05:49Z</time>
      </trkpt>
      <trkpt lat="46.06288" lon="4.51361">
        <ele>549</ele>
        <time>2017-10-31T21:07:49Z</time>
      </trkpt>
      <trkpt lat="46.06291" lon="4.51361">
        <ele>550</ele>
        <time>2017-10-31T21:09:49Z</time>
      </trkpt>
      <trkpt lat="46.06293" lon="4.51361">
        <ele>550</ele>
        <time>2017-10-31T21:11:49Z</time>
      </trkpt>
      <trkpt lat="46.06294" lon="4.5136">
        <ele>551</ele>
        <time>2017-10-31T21:13:49Z</time>
      </trkpt>
      <trkpt lat="46.06297" lon="4.51357">
        <ele>551</ele>
        <time>2017-10-31T21:15:49Z</time>
      </trkpt>
      <trkpt lat="46.06304" lon="4.51346">
        <ele>554</ele>
        <time>2017-10-31T21:17:49Z</time>
      </trkpt>
      <trkpt lat="46.06304" lon="4.51346">
        <ele>554</ele>
        <time>2017-10-31T21:19:49Z</time>
      </trkpt>
      <trkpt lat="46.06306" lon="4.51356">
        <ele>555</ele>
        <time>2017-10-31T21:21:49Z</time>
      </trkpt>
      <trkpt lat="46.06307" lon="4.51362">
        <ele>555</ele>
        <time>2017-10-31T21:23:49Z</time>
      </trkpt>
      <trkpt lat="46.06307" lon="4.51367">
        <ele>555</ele>
        <time>2017-10-31T21:25:49Z</time>
      </trkpt>
      <trkpt lat="46.06305" lon="4.51371">
        <ele>555</ele>
        <time>2017-10-31T21:27:49Z</time>
      </trkpt>
      <trkpt lat="46.06304" lon="4.51375">
        <ele>555</ele>
        <time>2017-10-31T21:29:49Z</time>
      </trkpt>
      <trkpt lat="46.06301" lon="4.51379">
        <ele>554</ele>
        <time>2017-10-31T21:31:49Z</time>
      </trkpt>
      <trkpt lat="46.06298" lon="4.51381">
        <ele>553</ele>
        <time>2017-10-31T21:33:49Z</time>
      </trkpt>
      <trkpt lat="46.06295" lon="4.51383">
        <ele>553</ele>
        <time>2017-10-31T21:35:49Z</time>
      </trkpt>
      <trkpt lat="46.06291" lon="4.51384">
        <ele>552</ele>
        <time>2017-10-31T21:37:49Z</time>
      </trkpt>
      <trkpt lat="46.06287" lon="4.51384">
        <ele>551</ele>
        <time>2017-10-31T21:39:49Z</time>
      </trkpt>
      <trkpt lat="46.06283" lon="4.51383">
        <ele>549</ele>
        <time>2017-10-31T21:41:49Z</time>
      </trkpt>
      <trkpt lat="46.06278" lon="4.51383">
        <ele>548</ele>
        <time>2017-10-31T21:43:49Z</time>
      </trkpt>
      <trkpt lat="46.06274" lon="4.51382">
        <ele>547</ele>
        <time>2017-10-31T21:45:49Z</time>
      </trkpt>
      <trkpt lat="46.06269" lon="4.51381">
        <ele>546</ele>
        <time>2017-10-31T21:47:49Z</time>
      </trkpt>
      <trkpt lat="46.06264" lon="4.5138">
        <ele>544</ele>
        <time>2017-10-31T21:49:49Z</time>
      </trkpt>
      <trkpt lat="46.06259" lon="4.51379">
        <ele>542</ele>
        <time>2017-10-31T21:51:49Z</time>
      </trkpt>
      <trkpt lat="46.06253" lon="4.51378">
        <ele>541</ele>
        <time>2017-10-31T21:53:49Z</time>
      </trkpt>
      <trkpt lat="46.06247" lon="4.51378">
        <ele>539</ele>
        <time>2017-10-31T21:55:49Z</time>
      </trkpt>
      <trkpt lat="46.06242" lon="4.51378">
        <ele>538</ele>
        <time>2017-10-31T21:57:49Z</time>
      </trkpt>
      <trkpt lat="46.06236" lon="4.51378">
        <ele>537</ele>
        <time>2017-10-31T21:59:49Z</time>
      </trkpt>
      <trkpt lat="46.06231" lon="4.51379">
        <ele>536</ele>
        <time>2017-10-31T22:01:49Z</time>
      </trkpt>
      <trkpt lat="46.06225" lon="4.5138">
        <ele>535</ele>
        <time>2017-10-31T22:03:49Z</time>
      </trkpt>
      <trkpt lat="46.0622" lon="4.51381">
        <ele>534</ele>
        <time>2017-10-31T22:05:49Z</time>
      </trkpt>
      <trkpt lat="46.06214" lon="4.51383">
        <ele>534</ele>
        <time>2017-10-31T22:07:49Z</time>
      </trkpt>
      <trkpt lat="46.06205" lon="4.51388">
        <ele>533</ele>
        <time>2017-10-31T22:09:49Z</time>
      </trkpt>
      <trkpt lat="46.062" lon="4.51392">
        <ele>533</ele>
        <time>2017-10-31T22:11:49Z</time>
      </trkpt>
      <trkpt lat="46.06195" lon="4.51395">
        <ele>533</ele>
        <time>2017-10-31T22:13:49Z</time>
      </trkpt>
      <trkpt lat="46.06191" lon="4.51401">
        <ele>533</ele>
        <time>2017-10-31T22:15:49Z</time>
      </trkpt>
      <trkpt lat="46.06186" lon="4.51406">
        <ele>534</ele>
        <time>2017-10-31T22:17:49Z</time>
      </trkpt>
      <trkpt lat="46.06182" lon="4.51412">
        <ele>534</ele>
        <time>2017-10-31T22:19:49Z</time>
      </trkpt>
      <trkpt lat="46.06178" lon="4.51418">
        <ele>535</ele>
        <time>2017-10-31T22:21:49Z</time>
      </trkpt>
      <trkpt lat="46.06152" lon="4.51468">
        <ele>540</ele>
        <time>2017-10-31T22:23:49Z</time>
      </trkpt>
      <trkpt lat="46.06129" lon="4.51516">
        <ele>543</ele>
        <time>2017-10-31T22:25:49Z</time>
      </trkpt>
      <trkpt lat="46.06114" lon="4.51548">
        <ele>546</ele>
        <time>2017-10-31T22:27:49Z</time>
      </trkpt>
      <trkpt lat="46.06104" lon="4.51573">
        <ele>549</ele>
        <time>2017-10-31T22:29:49Z</time>
      </trkpt>
      <trkpt lat="46.06098" lon="4.51591">
        <ele>551</ele>
        <time>2017-10-31T22:31:49Z</time>
      </trkpt>
      <trkpt lat="46.06093" lon="4.51609">
        <ele>551</ele>
        <time>2017-10-31T22:33:49Z</time>
      </trkpt>
      <trkpt lat="46.0609" lon="4.51625">
        <ele>551</ele>
        <time>2017-10-31T22:35:49Z</time>
      </trkpt>
      <trkpt lat="46.06087" lon="4.51637">
        <ele>551</ele>
        <time>2017-10-31T22:37:49Z</time>
      </trkpt>
      <trkpt lat="46.06085" lon="4.51646">
        <ele>552</ele>
        <time>2017-10-31T22:39:49Z</time>
      </trkpt>
      <trkpt lat="46.06084" lon="4.51661">
        <ele>553</ele>
        <time>2017-10-31T22:41:49Z</time>
      </trkpt>
      <trkpt lat="46.06083" lon="4.51673">
        <ele>553</ele>
        <time>2017-10-31T22:43:49Z</time>
      </trkpt>
      <trkpt lat="46.06083" lon="4.51688">
        <ele>553</ele>
        <time>2017-10-31T22:45:49Z</time>
      </trkpt>
      <trkpt lat="46.06084" lon="4.51702">
        <ele>554</ele>
        <time>2017-10-31T22:47:49Z</time>
      </trkpt>
      <trkpt lat="46.06087" lon="4.51721">
        <ele>556</ele>
        <time>2017-10-31T22:49:49Z</time>
      </trkpt>
      <trkpt lat="46.06091" lon="4.51739">
        <ele>558</ele>
        <time>2017-10-31T22:51:49Z</time>
      </trkpt>
      <trkpt lat="46.06099" lon="4.51777">
        <ele>561</ele>
        <time>2017-10-31T22:53:49Z</time>
      </trkpt>
      <trkpt lat="46.06104" lon="4.51796">
        <ele>562</ele>
        <time>2017-10-31T22:55:49Z</time>
      </trkpt>
      <trkpt lat="46.06112" lon="4.51826">
        <ele>564</ele>
        <time>2017-10-31T22:57:49Z</time>
      </trkpt>
      <trkpt lat="46.06121" lon="4.51849">
        <ele>568</ele>
        <time>2017-10-31T22:59:49Z</time>
      </trkpt>
      <trkpt lat="46.06131" lon="4.5187">
        <ele>572</ele>
        <time>2017-10-31T23:01:49Z</time>
      </trkpt>
      <trkpt lat="46.06137" lon="4.51881">
        <ele>574</ele>
        <time>2017-10-31T23:03:49Z</time>
      </trkpt>
      <trkpt lat="46.06143" lon="4.51895">
        <ele>576</ele>
        <time>2017-10-31T23:05:49Z</time>
      </trkpt>
      <trkpt lat="46.06146" lon="4.51902">
        <ele>576</ele>
        <time>2017-10-31T23:07:49Z</time>
      </trkpt>
      <trkpt lat="46.06149" lon="4.51911">
        <ele>577</ele>
        <time>2017-10-31T23:09:49Z</time>
      </trkpt>
      <trkpt lat="46.06153" lon="4.51937">
        <ele>576</ele>
        <time>2017-10-31T23:11:49Z</time>
      </trkpt>
      <trkpt lat="46.06156" lon="4.51957">
        <ele>576</ele>
        <time>2017-10-31T23:13:49Z</time>
      </trkpt>
      <trkpt lat="46.06161" lon="4.5198">
        <ele>576</ele>
        <time>2017-10-31T23:15:49Z</time>
      </trkpt>
      <trkpt lat="46.06168" lon="4.51995">
        <ele>577</ele>
        <time>2017-10-31T23:17:49Z</time>
      </trkpt>
      <trkpt lat="46.06175" lon="4.52006">
        <ele>580</ele>
        <time>2017-10-31T23:19:49Z</time>
      </trkpt>
      <trkpt lat="46.06183" lon="4.52016">
        <ele>583</ele>
        <time>2017-10-31T23:21:49Z</time>
      </trkpt>
      <trkpt lat="46.06189" lon="4.52025">
        <ele>585</ele>
        <time>2017-10-31T23:23:49Z</time>
      </trkpt>
      <trkpt lat="46.06191" lon="4.5203">
        <ele>586</ele>
        <time>2017-10-31T23:25:49Z</time>
      </trkpt>
      <trkpt lat="46.06193" lon="4.52036">
        <ele>587</ele>
        <time>2017-10-31T23:27:49Z</time>
      </trkpt>
      <trkpt lat="46.06193" lon="4.5204">
        <ele>586</ele>
        <time>2017-10-31T23:29:49Z</time>
      </trkpt>
      <trkpt lat="46.06193" lon="4.52045">
        <ele>586</ele>
        <time>2017-10-31T23:31:49Z</time>
      </trkpt>
      <trkpt lat="46.06192" lon="4.52052">
        <ele>585</ele>
        <time>2017-10-31T23:33:49Z</time>
      </trkpt>
      <trkpt lat="46.06191" lon="4.5206">
        <ele>584</ele>
        <time>2017-10-31T23:35:49Z</time>
      </trkpt>
      <trkpt lat="46.06188" lon="4.52071">
        <ele>582</ele>
        <time>2017-10-31T23:37:49Z</time>
      </trkpt>
      <trkpt lat="46.06181" lon="4.52092">
        <ele>578</ele>
        <time>2017-10-31T23:39:49Z</time>
      </trkpt>
      <trkpt lat="46.06174" lon="4.52113">
        <ele>575</ele>
        <time>2017-10-31T23:41:49Z</time>
      </trkpt>
      <trkpt lat="46.06169" lon="4.52128">
        <ele>574</ele>
        <time>2017-10-31T23:43:49Z</time>
      </trkpt>
      <trkpt lat="46.06168" lon="4.52143">
        <ele>574</ele>
        <time>2017-10-31T23:45:49Z</time>
      </trkpt>
      <trkpt lat="46.06168" lon="4.52157">
        <ele>574</ele>
        <time>2017-10-31T23:47:49Z</time>
      </trkpt>
      <trkpt lat="46.0617" lon="4.52167">
        <ele>575</ele>
        <time>2017-10-31T23:49:49Z</time>
      </trkpt>
      <trkpt lat="46.06174" lon="4.52177">
        <ele>576</ele>
        <time>2017-10-31T23:51:49Z</time>
      </trkpt>
      <trkpt lat="46.06181" lon="4.52187">
        <ele>579</ele>
        <time>2017-10-31T23:53:49Z</time>
      </trkpt>
      <trkpt lat="46.06185" lon="4.5219">
        <ele>580</ele>
        <time>2017-10-31T23:55:49Z</time>
      </trkpt>
      <trkpt lat="46.06195" lon="4.52194">
        <ele>584</ele>
        <time>2017-10-31T23:57:49Z</time>
      </trkpt>
      <trkpt lat="46.06205" lon="4.52197">
        <ele>588</ele>
        <time>2017-10-31T23:59:49Z</time>
      </trkpt>
      <trkpt lat="46.06221" lon="4.52201">
        <ele>595</ele>
        <time>2017-11-01T00:01:49Z</time>
      </trkpt>
      <trkpt lat="46.06226" lon="4.52202">
        <ele>597</ele>
        <time>2017-11-01T00:03:49Z</time>
      </trkpt>
      <trkpt lat="46.0623" lon="4.52204">
        <ele>599</ele>
        <time>2017-11-01T00:05:49Z</time>
      </trkpt>
      <trkpt lat="46.06234" lon="4.52206">
        <ele>601</ele>
        <time>2017-11-01T00:07:49Z</time>
      </trkpt>
      <trkpt lat="46.06237" lon="4.52208">
        <ele>602</ele>
        <time>2017-11-01T00:09:49Z</time>
      </trkpt>
      <trkpt lat="46.0624" lon="4.52212">
        <ele>603</ele>
        <time>2017-11-01T00:11:49Z</time>
      </trkpt>
      <trkpt lat="46.06242" lon="4.52217">
        <ele>604</ele>
        <time>2017-11-01T00:13:49Z</time>
      </trkpt>
      <trkpt lat="46.06243" lon="4.52221">
        <ele>604</ele>
        <time>2017-11-01T00:15:49Z</time>
      </trkpt>
      <trkpt lat="46.06244" lon="4.52226">
        <ele>604</ele>
        <time>2017-11-01T00:17:49Z</time>
      </trkpt>
      <trkpt lat="46.06244" lon="4.52231">
        <ele>604</ele>
        <time>2017-11-01T00:19:49Z</time>
      </trkpt>
      <trkpt lat="46.06244" lon="4.52236">
        <ele>604</ele>
        <time>2017-11-01T00:21:49Z</time>
      </trkpt>
      <trkpt lat="46.06242" lon="4.52243">
        <ele>603</ele>
        <time>2017-11-01T00:23:49Z</time>
      </trkpt>
      <trkpt lat="46.06241" lon="4.5225">
        <ele>602</ele>
        <time>2017-11-01T00:25:49Z</time>
      </trkpt>
      <trkpt lat="46.0624" lon="4.52256">
        <ele>602</ele>
        <time>2017-11-01T00:27:49Z</time>
      </trkpt>
      <trkpt lat="46.06238" lon="4.52263">
        <ele>602</ele>
        <time>2017-11-01T00:29:49Z</time>
      </trkpt>
      <trkpt lat="46.06234" lon="4.52276">
        <ele>602</ele>
        <time>2017-11-01T00:31:49Z</time>
      </trkpt>
      <trkpt lat="46.06228" lon="4.52298">
        <ele>602</ele>
        <time>2017-11-01T00:33:49Z</time>
      </trkpt>
      <trkpt lat="46.06217" lon="4.52333">
        <ele>600</ele>
        <time>2017-11-01T00:35:49Z</time>
      </trkpt>
      <trkpt lat="46.0621" lon="4.52359">
        <ele>598</ele>
        <time>2017-11-01T00:37:49Z</time>
      </trkpt>
      <trkpt lat="46.06208" lon="4.52373">
        <ele>599</ele>
        <time>2017-11-01T00:39:49Z</time>
      </trkpt>
      <trkpt lat="46.06206" lon="4.52385">
        <ele>599</ele>
        <time>2017-11-01T00:41:49Z</time>
      </trkpt>
      <trkpt lat="46.06206" lon="4.52413">
        <ele>601</ele>
        <time>2017-11-01T00:43:49Z</time>
      </trkpt>
      <trkpt lat="46.06205" lon="4.52429">
        <ele>603</ele>
        <time>2017-11-01T00:45:49Z</time>
      </trkpt>
      <trkpt lat="46.06204" lon="4.52443">
        <ele>604</ele>
        <time>2017-11-01T00:47:49Z</time>
      </trkpt>
      <trkpt lat="46.06202" lon="4.52453">
        <ele>605</ele>
        <time>2017-11-01T00:49:49Z</time>
      </trkpt>
      <trkpt lat="46.06199" lon="4.5246">
        <ele>604</ele>
        <time>2017-11-01T00:51:49Z</time>
      </trkpt>
      <trkpt lat="46.06197" lon="4.52467">
        <ele>604</ele>
        <time>2017-11-01T00:53:49Z</time>
      </trkpt>
      <trkpt lat="46.0618" lon="4.52501">
        <ele>601</ele>
        <time>2017-11-01T00:55:49Z</time>
      </trkpt>
      <trkpt lat="46.06172" lon="4.52521">
        <ele>602</ele>
        <time>2017-11-01T00:57:49Z</time>
      </trkpt>
      <trkpt lat="46.06169" lon="4.52533">
        <ele>603</ele>
        <time>2017-11-01T00:59:49Z</time>
      </trkpt>
      <trkpt lat="46.06168" lon="4.52542">
        <ele>604</ele>
        <time>2017-11-01T01:01:49Z</time>
      </trkpt>
      <trkpt lat="46.06166" lon="4.5256">
        <ele>607</ele>
        <time>2017-11-01T01:03:49Z</time>
      </trkpt>
      <trkpt lat="46.06165" lon="4.5258">
        <ele>611</ele>
        <time>2017-11-01T01:05:49Z</time>
      </trkpt>
      <trkpt lat="46.06164" lon="4.52668">
        <ele>618</ele>
        <time>2017-11-01T01:07:49Z</time>
      </trkpt>
      <trkpt lat="46.06165" lon="4.52694">
        <ele>617</ele>
        <time>2017-11-01T01:09:49Z</time>
      </trkpt>
      <trkpt lat="46.06165" lon="4.52711">
        <ele>616</ele>
        <time>2017-11-01T01:11:49Z</time>
      </trkpt>
      <trkpt lat="46.06166" lon="4.5272">
        <ele>616</ele>
        <time>2017-11-01T01:13:49Z</time>
      </trkpt>
      <trkpt lat="46.06168" lon="4.52729">
        <ele>616</ele>
        <time>2017-11-01T01:15:49Z</time>
      </trkpt>
      <trkpt lat="46.0617" lon="4.52736">
        <ele>616</ele>
        <time>2017-11-01T01:17:49Z</time>
      </trkpt>
      <trkpt lat="46.06172" lon="4.52743">
        <ele>617</ele>
        <time>2017-11-01T01:19:49Z</time>
      </trkpt>
      <trkpt lat="46.06175" lon="4.5275">
        <ele>617</ele>
        <time>2017-11-01T01:21:49Z</time>
      </trkpt>
      <trkpt lat="46.06178" lon="4.52755">
        <ele>619</ele>
        <time>2017-11-01T01:23:49Z</time>
      </trkpt>
      <trkpt lat="46.06181" lon="4.52761">
        <ele>620</ele>
        <time>2017-11-01T01:25:49Z</time>
      </trkpt>
      <trkpt lat="46.06186" lon="4.52769">
        <ele>622</ele>
        <time>2017-11-01T01:27:49Z</time>
      </trkpt>
      <trkpt lat="46.06188" lon="4.52774">
        <ele>623</ele>
        <time>2017-11-01T01:29:49Z</time>
      </trkpt>
      <trkpt lat="46.06189" lon="4.52779">
        <ele>623</ele>
        <time>2017-11-01T01:31:49Z</time>
      </trkpt>
      <trkpt lat="46.0619" lon="4.52783">
        <ele>624</ele>
        <time>2017-11-01T01:33:49Z</time>
      </trkpt>
      <trkpt lat="46.0619" lon="4.52788">
        <ele>624</ele>
        <time>2017-11-01T01:35:49Z</time>
      </trkpt>
      <trkpt lat="46.0619" lon="4.52793">
        <ele>624</ele>
        <time>2017-11-01T01:37:49Z</time>
      </trkpt>
      <trkpt lat="46.06189" lon="4.52797">
        <ele>624</ele>
        <time>2017-11-01T01:39:49Z</time>
      </trkpt>
      <trkpt lat="46.06185" lon="4.52811">
        <ele>622</ele>
        <time>2017-11-01T01:41:49Z</time>
      </trkpt>
      <trkpt lat="46.06182" lon="4.52824">
        <ele>621</ele>
        <time>2017-11-01T01:43:49Z</time>
      </trkpt>
      <trkpt lat="46.06178" lon="4.52836">
        <ele>619</ele>
        <time>2017-11-01T01:45:49Z</time>
      </trkpt>
      <trkpt lat="46.06175" lon="4.52851">
        <ele>618</ele>
        <time>2017-11-01T01:47:49Z</time>
      </trkpt>
      <trkpt lat="46.06174" lon="4.52866">
        <ele>619</ele>
        <time>2017-11-01T01:49:49Z</time>
      </trkpt>
      <trkpt lat="46.06175" lon="4.52871">
        <ele>620</ele>
        <time>2017-11-01T01:51:49Z</time>
      </trkpt>
      <trkpt lat="46.06177" lon="4.52879">
        <ele>621</ele>
        <time>2017-11-01T01:53:49Z</time>
      </trkpt>
      <trkpt lat="46.0618" lon="4.52891">
        <ele>623</ele>
        <time>2017-11-01T01:55:49Z</time>
      </trkpt>
      <trkpt lat="46.06193" lon="4.52922">
        <ele>630</ele>
        <time>2017-11-01T01:57:49Z</time>
      </trkpt>
      <trkpt lat="46.062" lon="4.52937">
        <ele>634</ele>
        <time>2017-11-01T01:59:49Z</time>
      </trkpt>
      <trkpt lat="46.06206" lon="4.52953">
        <ele>638</ele>
        <time>2017-11-01T02:01:49Z</time>
      </trkpt>
      <trkpt lat="46.06218" lon="4.52985">
        <ele>644</ele>
        <time>2017-11-01T02:03:49Z</time>
      </trkpt>
      <trkpt lat="46.06224" lon="4.53009">
        <ele>647</ele>
        <time>2017-11-01T02:05:49Z</time>
      </trkpt>
      <trkpt lat="46.06227" lon="4.53021">
        <ele>649</ele>
        <time>2017-11-01T02:07:49Z</time>
      </trkpt>
      <trkpt lat="46.06228" lon="4.53028">
        <ele>650</ele>
        <time>2017-11-01T02:09:49Z</time>
      </trkpt>
      <trkpt lat="46.06228" lon="4.53035">
        <ele>650</ele>
        <time>2017-11-01T02:11:49Z</time>
      </trkpt>
      <trkpt lat="46.06228" lon="4.5304">
        <ele>650</ele>
        <time>2017-11-01T02:13:49Z</time>
      </trkpt>
      <trkpt lat="46.06227" lon="4.53043">
        <ele>650</ele>
        <time>2017-11-01T02:15:49Z</time>
      </trkpt>
      <trkpt lat="46.06226" lon="4.53044">
        <ele>650</ele>
        <time>2017-11-01T02:17:49Z</time>
      </trkpt>
      <trkpt lat="46.06224" lon="4.53048">
        <ele>650</ele>
        <time>2017-11-01T02:19:49Z</time>
      </trkpt>
      <trkpt lat="46.06223" lon="4.5305">
        <ele>650</ele>
        <time>2017-11-01T02:21:49Z</time>
      </trkpt>
      <trkpt lat="46.06222" lon="4.53051">
        <ele>650</ele>
        <time>2017-11-01T02:23:49Z</time>
      </trkpt>
      <trkpt lat="46.06218" lon="4.53053">
        <ele>650</ele>
        <time>2017-11-01T02:25:49Z</time>
      </trkpt>
      <trkpt lat="46.06214" lon="4.53054">
        <ele>649</ele>
        <time>2017-11-01T02:27:49Z</time>
      </trkpt>
      <trkpt lat="46.0621" lon="4.53054">
        <ele>649</ele>
        <time>2017-11-01T02:29:49Z</time>
      </trkpt>
      <trkpt lat="46.06206" lon="4.53053">
        <ele>648</ele>
        <time>2017-11-01T02:31:49Z</time>
      </trkpt>
      <trkpt lat="46.06192" lon="4.53045">
        <ele>645</ele>
        <time>2017-11-01T02:33:49Z</time>
      </trkpt>
      <trkpt lat="46.06182" lon="4.53038">
        <ele>641</ele>
        <time>2017-11-01T02:35:49Z</time>
      </trkpt>
      <trkpt lat="46.06173" lon="4.53032">
        <ele>638</ele>
        <time>2017-11-01T02:37:49Z</time>
      </trkpt>
      <trkpt lat="46.06163" lon="4.53027">
        <ele>636</ele>
        <time>2017-11-01T02:39:49Z</time>
      </trkpt>
      <trkpt lat="46.06158" lon="4.53024">
        <ele>635</ele>
        <time>2017-11-01T02:41:49Z</time>
      </trkpt>
      <trkpt lat="46.06152" lon="4.53023">
        <ele>634</ele>
        <time>2017-11-01T02:43:49Z</time>
      </trkpt>
      <trkpt lat="46.06147" lon="4.53021">
        <ele>634</ele>
        <time>2017-11-01T02:45:49Z</time>
      </trkpt>
      <trkpt lat="46.06141" lon="4.53021">
        <ele>633</ele>
        <time>2017-11-01T02:47:49Z</time>
      </trkpt>
      <trkpt lat="46.06135" lon="4.53021">
        <ele>633</ele>
        <time>2017-11-01T02:49:49Z</time>
      </trkpt>
      <trkpt lat="46.06129" lon="4.53022">
        <ele>633</ele>
        <time>2017-11-01T02:51:49Z</time>
      </trkpt>
      <trkpt lat="46.06123" lon="4.53024">
        <ele>633</ele>
        <time>2017-11-01T02:53:49Z</time>
      </trkpt>
      <trkpt lat="46.06118" lon="4.53027">
        <ele>634</ele>
        <time>2017-11-01T02:55:49Z</time>
      </trkpt>
      <trkpt lat="46.06113" lon="4.5303">
        <ele>635</ele>
        <time>2017-11-01T02:57:49Z</time>
      </trkpt>
      <trkpt lat="46.06107" lon="4.53034">
        <ele>636</ele>
        <time>2017-11-01T02:59:49Z</time>
      </trkpt>
      <trkpt lat="46.06095" lon="4.53043">
        <ele>639</ele>
        <time>2017-11-01T03:01:49Z</time>
      </trkpt>
      <trkpt lat="46.06081" lon="4.53055">
        <ele>642</ele>
        <time>2017-11-01T03:03:49Z</time>
      </trkpt>
      <trkpt lat="46.06067" lon="4.53066">
        <ele>643</ele>
        <time>2017-11-01T03:05:49Z</time>
      </trkpt>
      <trkpt lat="46.06055" lon="4.53077">
        <ele>644</ele>
        <time>2017-11-01T03:07:49Z</time>
      </trkpt>
      <trkpt lat="46.06043" lon="4.53086">
        <ele>644</ele>
        <time>2017-11-01T03:09:49Z</time>
      </trkpt>
      <trkpt lat="46.06025" lon="4.53101">
        <ele>644</ele>
        <time>2017-11-01T03:11:49Z</time>
      </trkpt>
      <trkpt lat="46.06014" lon="4.53111">
        <ele>644</ele>
        <time>2017-11-01T03:13:49Z</time>
      </trkpt>
      <trkpt lat="46.06008" lon="4.53116">
        <ele>644</ele>
        <time>2017-11-01T03:15:49Z</time>
      </trkpt>
      <trkpt lat="46.05999" lon="4.53127">
        <ele>645</ele>
        <time>2017-11-01T03:17:49Z</time>
      </trkpt>
      <trkpt lat="46.05994" lon="4.53133">
        <ele>646</ele>
        <time>2017-11-01T03:19:49Z</time>
      </trkpt>
      <trkpt lat="46.0599" lon="4.5314">
        <ele>647</ele>
        <time>2017-11-01T03:21:49Z</time>
      </trkpt>
      <trkpt lat="46.05982" lon="4.53155">
        <ele>650</ele>
        <time>2017-11-01T03:23:49Z</time>
      </trkpt>
      <trkpt lat="46.05978" lon="4.53163">
        <ele>651</ele>
        <time>2017-11-01T03:25:49Z</time>
      </trkpt>
      <trkpt lat="46.05971" lon="4.53179">
        <ele>654</ele>
        <time>2017-11-01T03:27:49Z</time>
      </trkpt>
      <trkpt lat="46.05961" lon="4.53204">
        <ele>657</ele>
        <time>2017-11-01T03:29:49Z</time>
      </trkpt>
      <trkpt lat="46.05958" lon="4.53213">
        <ele>658</ele>
        <time>2017-11-01T03:31:49Z</time>
      </trkpt>
      <trkpt lat="46.05956" lon="4.53219">
        <ele>659</ele>
        <time>2017-11-01T03:33:49Z</time>
      </trkpt>
      <trkpt lat="46.05953" lon="4.53225">
        <ele>660</ele>
        <time>2017-11-01T03:35:49Z</time>
      </trkpt>
      <trkpt lat="46.0595" lon="4.53231">
        <ele>660</ele>
        <time>2017-11-01T03:37:49Z</time>
      </trkpt>
      <trkpt lat="46.05947" lon="4.53236">
        <ele>661</ele>
        <time>2017-11-01T03:39:49Z</time>
      </trkpt>
      <trkpt lat="46.05943" lon="4.53241">
        <ele>661</ele>
        <time>2017-11-01T03:41:49Z</time>
      </trkpt>
      <trkpt lat="46.05939" lon="4.53244">
        <ele>661</ele>
        <time>2017-11-01T03:43:49Z</time>
      </trkpt>
      <trkpt lat="46.05935" lon="4.53247">
        <ele>660</ele>
        <time>2017-11-01T03:45:49Z</time>
      </trkpt>
      <trkpt lat="46.0593" lon="4.53248">
        <ele>660</ele>
        <time>2017-11-01T03:47:49Z</time>
      </trkpt>
      <trkpt lat="46.05926" lon="4.5325">
        <ele>659</ele>
        <time>2017-11-01T03:49:49Z</time>
      </trkpt>
      <trkpt lat="46.05921" lon="4.53251">
        <ele>659</ele>
        <time>2017-11-01T03:51:49Z</time>
      </trkpt>
      <trkpt lat="46.05917" lon="4.53253">
        <ele>659</ele>
        <time>2017-11-01T03:53:49Z</time>
      </trkpt>
      <trkpt lat="46.05914" lon="4.53256">
        <ele>660</ele>
        <time>2017-11-01T03:55:49Z</time>
      </trkpt>
      <trkpt lat="46.05912" lon="4.53258">
        <ele>661</ele>
        <time>2017-11-01T03:57:49Z</time>
      </trkpt>
      <trkpt lat="46.05911" lon="4.5326">
        <ele>662</ele>
        <time>2017-11-01T03:59:49Z</time>
      </trkpt>
      <trkpt lat="46.05908" lon="4.53264">
        <ele>664</ele>
        <time>2017-11-01T04:01:49Z</time>
      </trkpt>
      <trkpt lat="46.05906" lon="4.53269">
        <ele>666</ele>
        <time>2017-11-01T04:03:49Z</time>
      </trkpt>
      <trkpt lat="46.05905" lon="4.53275">
        <ele>667</ele>
        <time>2017-11-01T04:05:49Z</time>
      </trkpt>
      <trkpt lat="46.05905" lon="4.5328">
        <ele>668</ele>
        <time>2017-11-01T04:07:49Z</time>
      </trkpt>
      <trkpt lat="46.05906" lon="4.53286">
        <ele>669</ele>
        <time>2017-11-01T04:09:49Z</time>
      </trkpt>
      <trkpt lat="46.05907" lon="4.53288">
        <ele>669</ele>
        <time>2017-11-01T04:11:49Z</time>
      </trkpt>
      <trkpt lat="46.05907" lon="4.53288">
        <ele>669</ele>
        <time>2017-11-01T04:13:49Z</time>
      </trkpt>
      <trkpt lat="46.05899" lon="4.53299">
        <ele>674</ele>
        <time>2017-11-01T04:15:49Z</time>
      </trkpt>
      <trkpt lat="46.05898" lon="4.53301">
        <ele>674</ele>
        <time>2017-11-01T04:17:49Z</time>
      </trkpt>
      <trkpt lat="46.05896" lon="4.53304">
        <ele>675</ele>
        <time>2017-11-01T04:19:49Z</time>
      </trkpt>
      <trkpt lat="46.05895" lon="4.53306">
        <ele>676</ele>
        <time>2017-11-01T04:21:49Z</time>
      </trkpt>
      <trkpt lat="46.05893" lon="4.53311">
        <ele>678</ele>
        <time>2017-11-01T04:23:49Z</time>
      </trkpt>
      <trkpt lat="46.05891" lon="4.53317">
        <ele>679</ele>
        <time>2017-11-01T04:25:49Z</time>
      </trkpt>
      <trkpt lat="46.05889" lon="4.53325">
        <ele>681</ele>
        <time>2017-11-01T04:27:49Z</time>
      </trkpt>
      <trkpt lat="46.05886" lon="4.53332">
        <ele>683</ele>
        <time>2017-11-01T04:29:49Z</time>
      </trkpt>
      <trkpt lat="46.05874" lon="4.53392">
        <ele>691</ele>
        <time>2017-11-01T04:31:49Z</time>
      </trkpt>
      <trkpt lat="46.05866" lon="4.53415">
        <ele>694</ele>
        <time>2017-11-01T04:33:49Z</time>
      </trkpt>
      <trkpt lat="46.05852" lon="4.53458">
        <ele>700</ele>
        <time>2017-11-01T04:35:49Z</time>
      </trkpt>
      <trkpt lat="46.05842" lon="4.53482">
        <ele>703</ele>
        <time>2017-11-01T04:37:49Z</time>
      </trkpt>
      <trkpt lat="46.05834" lon="4.53501">
        <ele>705</ele>
        <time>2017-11-01T04:39:49Z</time>
      </trkpt>
      <trkpt lat="46.05831" lon="4.53511">
        <ele>708</ele>
        <time>2017-11-01T04:41:49Z</time>
      </trkpt>
      <trkpt lat="46.05831" lon="4.53522">
        <ele>710</ele>
        <time>2017-11-01T04:43:49Z</time>
      </trkpt>
      <trkpt lat="46.05833" lon="4.5353">
        <ele>710</ele>
        <time>2017-11-01T04:45:49Z</time>
      </trkpt>
      <trkpt lat="46.05836" lon="4.53537">
        <ele>711</ele>
        <time>2017-11-01T04:47:49Z</time>
      </trkpt>
      <trkpt lat="46.05843" lon="4.53542">
        <ele>712</ele>
        <time>2017-11-01T04:49:49Z</time>
      </trkpt>
      <trkpt lat="46.05853" lon="4.53549">
        <ele>713</ele>
        <time>2017-11-01T04:51:49Z</time>
      </trkpt>
      <trkpt lat="46.05868" lon="4.53555">
        <ele>713</ele>
        <time>2017-11-01T04:53:49Z</time>
      </trkpt>
      <trkpt lat="46.05878" lon="4.53558">
        <ele>714</ele>
        <time>2017-11-01T04:55:49Z</time>
      </trkpt>
      <trkpt lat="46.05898" lon="4.53568">
        <ele>715</ele>
        <time>2017-11-01T04:57:49Z</time>
      </trkpt>
      <trkpt lat="46.05909" lon="4.53572">
        <ele>716</ele>
        <time>2017-11-01T04:59:49Z</time>
      </trkpt>
      <trkpt lat="46.05926" lon="4.53583">
        <ele>719</ele>
        <time>2017-11-01T05:01:49Z</time>
      </trkpt>
      <trkpt lat="46.05953" lon="4.53604">
        <ele>724</ele>
        <time>2017-11-01T05:03:49Z</time>
      </trkpt>
      <trkpt lat="46.0597" lon="4.53615">
        <ele>727</ele>
        <time>2017-11-01T05:05:49Z</time>
      </trkpt>
      <trkpt lat="46.05974" lon="4.53622">
        <ele>728</ele>
        <time>2017-11-01T05:07:49Z</time>
      </trkpt>
      <trkpt lat="46.05973" lon="4.5363">
        <ele>729</ele>
        <time>2017-11-01T05:09:49Z</time>
      </trkpt>
      <trkpt lat="46.05968" lon="4.53639">
        <ele>729</ele>
        <time>2017-11-01T05:11:49Z</time>
      </trkpt>
      <trkpt lat="46.0596" lon="4.53649">
        <ele>730</ele>
        <time>2017-11-01T05:13:49Z</time>
      </trkpt>
      <trkpt lat="46.05956" lon="4.53659">
        <ele>731</ele>
        <time>2017-11-01T05:15:49Z</time>
      </trkpt>
      <trkpt lat="46.05955" lon="4.53668">
        <ele>733</ele>
        <time>2017-11-01T05:17:49Z</time>
      </trkpt>
      <trkpt lat="46.05956" lon="4.53672">
        <ele>733</ele>
        <time>2017-11-01T05:19:49Z</time>
      </trkpt>
      <trkpt lat="46.05956" lon="4.53672">
        <ele>733</ele>
        <time>2017-11-01T05:21:49Z</time>
      </trkpt>
      <trkpt lat="46.05948" lon="4.5368">
        <ele>734</ele>
        <time>2017-11-01T05:23:49Z</time>
      </trkpt>
      <trkpt lat="46.05936" lon="4.53691">
        <ele>734</ele>
        <time>2017-11-01T05:25:49Z</time>
      </trkpt>
      <trkpt lat="46.05926" lon="4.53702">
        <ele>735</ele>
        <time>2017-11-01T05:27:49Z</time>
      </trkpt>
      <trkpt lat="46.05921" lon="4.53711">
        <ele>735</ele>
        <time>2017-11-01T05:29:49Z</time>
      </trkpt>
      <trkpt lat="46.05919" lon="4.53716">
        <ele>736</ele>
        <time>2017-11-01T05:31:49Z</time>
      </trkpt>
      <trkpt lat="46.05916" lon="4.53742">
        <ele>737</ele>
        <time>2017-11-01T05:33:49Z</time>
      </trkpt>
      <trkpt lat="46.05917" lon="4.53753">
        <ele>738</ele>
        <time>2017-11-01T05:35:49Z</time>
      </trkpt>
      <trkpt lat="46.05916" lon="4.53757">
        <ele>738</ele>
        <time>2017-11-01T05:37:49Z</time>
      </trkpt>
      <trkpt lat="46.05914" lon="4.53763">
        <ele>738</ele>
        <time>2017-11-01T05:39:49Z</time>
      </trkpt>
      <trkpt lat="46.05912" lon="4.5377">
        <ele>738</ele>
        <time>2017-11-01T05:41:49Z</time>
      </trkpt>
      <trkpt lat="46.05912" lon="4.53771">
        <ele>738</ele>
        <time>2017-11-01T05:43:49Z</time>
      </trkpt>
      <trkpt lat="46.05905" lon="4.53783">
        <ele>737</ele>
        <time>2017-11-01T05:45:49Z</time>
      </trkpt>
      <trkpt lat="46.05893" lon="4.53796">
        <ele>737</ele>
        <time>2017-11-01T05:47:49Z</time>
      </trkpt>
      <trkpt lat="46.0588" lon="4.53803">
        <ele>737</ele>
        <time>2017-11-01T05:49:49Z</time>
      </trkpt>
      <trkpt lat="46.0587" lon="4.5381">
        <ele>737</ele>
        <time>2017-11-01T05:51:49Z</time>
      </trkpt>
      <trkpt lat="46.05833" lon="4.53834">
        <ele>735</ele>
        <time>2017-11-01T05:53:49Z</time>
      </trkpt>
      <trkpt lat="46.05819" lon="4.53842">
        <ele>733</ele>
        <time>2017-11-01T05:55:49Z</time>
      </trkpt>
      <trkpt lat="46.05785" lon="4.53859">
        <ele>731</ele>
        <time>2017-11-01T05:57:49Z</time>
      </trkpt>
      <trkpt lat="46.05763" lon="4.53871">
        <ele>729</ele>
        <time>2017-11-01T05:59:49Z</time>
      </trkpt>
      <trkpt lat="46.05739" lon="4.53881">
        <ele>727</ele>
        <time>2017-11-01T06:01:49Z</time>
      </trkpt>
      <trkpt lat="46.05724" lon="4.53886">
        <ele>727</ele>
        <time>2017-11-01T06:03:49Z</time>
      </trkpt>
      <trkpt lat="46.0571" lon="4.53884">
        <ele>728</ele>
        <time>2017-11-01T06:05:49Z</time>
      </trkpt>
      <trkpt lat="46.05683" lon="4.53881">
        <ele>730</ele>
        <time>2017-11-01T06:07:49Z</time>
      </trkpt>
      <trkpt lat="46.05669" lon="4.53882">
        <ele>731</ele>
        <time>2017-11-01T06:09:49Z</time>
      </trkpt>
      <trkpt lat="46.05652" lon="4.53885">
        <ele>731</ele>
        <time>2017-11-01T06:11:49Z</time>
      </trkpt>
      <trkpt lat="46.05641" lon="4.53889">
        <ele>731</ele>
        <time>2017-11-01T06:13:49Z</time>
      </trkpt>
      <trkpt lat="46.05627" lon="4.53898">
        <ele>730</ele>
        <time>2017-11-01T06:15:49Z</time>
      </trkpt>
      <trkpt lat="46.05618" lon="4.53907">
        <ele>728</ele>
        <time>2017-11-01T06:17:49Z</time>
      </trkpt>
      <trkpt lat="46.05607" lon="4.5393">
        <ele>724</ele>
        <time>2017-11-01T06:19:49Z</time>
      </trkpt>
      <trkpt lat="46.05594" lon="4.53979">
        <ele>719</ele>
        <time>2017-11-01T06:21:49Z</time>
      </trkpt>
      <trkpt lat="46.05591" lon="4.54013">
        <ele>715</ele>
        <time>2017-11-01T06:23:49Z</time>
      </trkpt>
      <trkpt lat="46.05587" lon="4.54033">
        <ele>713</ele>
        <time>2017-11-01T06:25:49Z</time>
      </trkpt>
      <trkpt lat="46.05581" lon="4.54072">
        <ele>710</ele>
        <time>2017-11-01T06:27:49Z</time>
      </trkpt>
      <trkpt lat="46.05574" lon="4.54108">
        <ele>707</ele>
        <time>2017-11-01T06:29:49Z</time>
      </trkpt>
      <trkpt lat="46.05563" lon="4.54152">
        <ele>704</ele>
        <time>2017-11-01T06:31:49Z</time>
      </trkpt>
      <trkpt lat="46.05546" lon="4.54221">
        <ele>697</ele>
        <time>2017-11-01T06:33:49Z</time>
      </trkpt>
      <trkpt lat="46.05527" lon="4.54292">
        <ele>690</ele>
        <time>2017-11-01T06:35:49Z</time>
      </trkpt>
      <trkpt lat="46.05523" lon="4.54303">
        <ele>689</ele>
        <time>2017-11-01T06:37:49Z</time>
      </trkpt>
      <trkpt lat="46.0552" lon="4.5431">
        <ele>688</ele>
        <time>2017-11-01T06:39:49Z</time>
      </trkpt>
      <trkpt lat="46.05516" lon="4.54318">
        <ele>687</ele>
        <time>2017-11-01T06:41:49Z</time>
      </trkpt>
      <trkpt lat="46.05512" lon="4.54323">
        <ele>687</ele>
        <time>2017-11-01T06:43:49Z</time>
      </trkpt>
      <trkpt lat="46.05508" lon="4.54326">
        <ele>688</ele>
        <time>2017-11-01T06:45:49Z</time>
      </trkpt>
      <trkpt lat="46.05504" lon="4.54328">
        <ele>688</ele>
        <time>2017-11-01T06:47:49Z</time>
      </trkpt>
      <trkpt lat="46.05496" lon="4.54328">
        <ele>689</ele>
        <time>2017-11-01T06:49:49Z</time>
      </trkpt>
      <trkpt lat="46.05486" lon="4.54326">
        <ele>687</ele>
        <time>2017-11-01T06:51:49Z</time>
      </trkpt>
      <trkpt lat="46.05475" lon="4.54322">
        <ele>687</ele>
        <time>2017-11-01T06:53:49Z</time>
      </trkpt>
      <trkpt lat="46.05346" lon="4.54238">
        <ele>682</ele>
        <time>2017-11-01T06:55:49Z</time>
      </trkpt>
      <trkpt lat="46.05325" lon="4.54216">
        <ele>680</ele>
        <time>2017-11-01T06:57:49Z</time>
      </trkpt>
      <trkpt lat="46.05311" lon="4.54189">
        <ele>680</ele>
        <time>2017-11-01T06:59:49Z</time>
      </trkpt>
      <trkpt lat="46.05295" lon="4.54157">
        <ele>680</ele>
        <time>2017-11-01T07:01:49Z</time>
      </trkpt>
      <trkpt lat="46.05262" lon="4.54079">
        <ele>684</ele>
        <time>2017-11-01T07:03:49Z</time>
      </trkpt>
      <trkpt lat="46.05256" lon="4.5407">
        <ele>685</ele>
        <time>2017-11-01T07:05:49Z</time>
      </trkpt>
      <trkpt lat="46.05249" lon="4.54061">
        <ele>686</ele>
        <time>2017-11-01T07:07:49Z</time>
      </trkpt>
      <trkpt lat="46.05245" lon="4.54058">
        <ele>687</ele>
        <time>2017-11-01T07:09:49Z</time>
      </trkpt>
      <trkpt lat="46.05241" lon="4.54057">
        <ele>688</ele>
        <time>2017-11-01T07:11:49Z</time>
      </trkpt>
      <trkpt lat="46.05234" lon="4.54056">
        <ele>688</ele>
        <time>2017-11-01T07:13:49Z</time>
      </trkpt>
      <trkpt lat="46.05226" lon="4.54057">
        <ele>689</ele>
        <time>2017-11-01T07:15:49Z</time>
      </trkpt>
      <trkpt lat="46.0521" lon="4.54066">
        <ele>687</ele>
        <time>2017-11-01T07:17:49Z</time>
      </trkpt>
      <trkpt lat="46.05188" lon="4.54081">
        <ele>683</ele>
        <time>2017-11-01T07:19:49Z</time>
      </trkpt>
      <trkpt lat="46.05142" lon="4.54115">
        <ele>670</ele>
        <time>2017-11-01T07:21:49Z</time>
      </trkpt>
      <trkpt lat="46.05129" lon="4.54123">
        <ele>667</ele>
        <time>2017-11-01T07:23:49Z</time>
      </trkpt>
      <trkpt lat="46.05118" lon="4.54131">
        <ele>664</ele>
        <time>2017-11-01T07:25:49Z</time>
      </trkpt>
      <trkpt lat="46.05108" lon="4.54135">
        <ele>663</ele>
        <time>2017-11-01T07:27:49Z</time>
      </trkpt>
      <trkpt lat="46.05098" lon="4.54135">
        <ele>663</ele>
        <time>2017-11-01T07:29:49Z</time>
      </trkpt>
      <trkpt lat="46.05092" lon="4.54134">
        <ele>663</ele>
        <time>2017-11-01T07:31:49Z</time>
      </trkpt>
      <trkpt lat="46.05087" lon="4.54133">
        <ele>664</ele>
        <time>2017-11-01T07:33:49Z</time>
      </trkpt>
      <trkpt lat="46.05077" lon="4.54125">
        <ele>664</ele>
        <time>2017-11-01T07:35:49Z</time>
      </trkpt>
      <trkpt lat="46.05068" lon="4.54117">
        <ele>663</ele>
        <time>2017-11-01T07:37:49Z</time>
      </trkpt>
      <trkpt lat="46.05056" lon="4.54098">
        <ele>664</ele>
        <time>2017-11-01T07:39:49Z</time>
      </trkpt>
      <trkpt lat="46.05047" lon="4.54077">
        <ele>666</ele>
        <time>2017-11-01T07:41:49Z</time>
      </trkpt>
      <trkpt lat="46.05038" lon="4.54045">
        <ele>674</ele>
        <time>2017-11-01T07:43:49Z</time>
      </trkpt>
      <trkpt lat="46.05032" lon="4.54027">
        <ele>678</ele>
        <time>2017-11-01T07:45:49Z</time>
      </trkpt>
      <trkpt lat="46.05028" lon="4.54012">
        <ele>682</ele>
        <time>2017-11-01T07:47:49Z</time>
      </trkpt>
      <trkpt lat="46.05025" lon="4.54004">
        <ele>683</ele>
        <time>2017-11-01T07:49:49Z</time>
      </trkpt>
      <trkpt lat="46.05024" lon="4.54002">
        <ele>684</ele>
        <time>2017-11-01T07:51:49Z</time>
      </trkpt>
      <trkpt lat="46.05022" lon="4.54">
        <ele>684</ele>
        <time>2017-11-01T07:53:49Z</time>
      </trkpt>
      <trkpt lat="46.05016" lon="4.53996">
        <ele>683</ele>
        <time>2017-11-01T07:55:49Z</time>
      </trkpt>
      <trkpt lat="46.05011" lon="4.53994">
        <ele>683</ele>
        <time>2017-11-01T07:57:49Z</time>
      </trkpt>
      <trkpt lat="46.05007" lon="4.53993">
        <ele>682</ele>
        <time>2017-11-01T07:59:49Z</time>
      </trkpt>
      <trkpt lat="46.05003" lon="4.53994">
        <ele>680</ele>
        <time>2017-11-01T08:01:49Z</time>
      </trkpt>
      <trkpt lat="46.04996" lon="4.53998">
        <ele>679</ele>
        <time>2017-11-01T08:03:49Z</time>
      </trkpt>
      <trkpt lat="46.04984" lon="4.54007">
        <ele>679</ele>
        <time>2017-11-01T08:05:49Z</time>
      </trkpt>
      <trkpt lat="46.04968" lon="4.54028">
        <ele>674</ele>
        <time>2017-11-01T08:07:49Z</time>
      </trkpt>
      <trkpt lat="46.0496" lon="4.54041">
        <ele>672</ele>
        <time>2017-11-01T08:09:49Z</time>
      </trkpt>
      <trkpt lat="46.04952" lon="4.54052">
        <ele>670</ele>
        <time>2017-11-01T08:11:49Z</time>
      </trkpt>
      <trkpt lat="46.04947" lon="4.54061">
        <ele>668</ele>
        <time>2017-11-01T08:13:49Z</time>
      </trkpt>
      <trkpt lat="46.0494" lon="4.54073">
        <ele>665</ele>
        <time>2017-11-01T08:15:49Z</time>
      </trkpt>
      <trkpt lat="46.04934" lon="4.54086">
        <ele>662</ele>
        <time>2017-11-01T08:17:49Z</time>
      </trkpt>
      <trkpt lat="46.04926" lon="4.54097">
        <ele>661</ele>
        <time>2017-11-01T08:19:49Z</time>
      </trkpt>
      <trkpt lat="46.0491" lon="4.54124">
        <ele>658</ele>
        <time>2017-11-01T08:21:49Z</time>
      </trkpt>
      <trkpt lat="46.04894" lon="4.54151">
        <ele>660</ele>
        <time>2017-11-01T08:23:49Z</time>
      </trkpt>
      <trkpt lat="46.04891" lon="4.54159">
        <ele>659</ele>
        <time>2017-11-01T08:25:49Z</time>
      </trkpt>
      <trkpt lat="46.04889" lon="4.54172">
        <ele>657</ele>
        <time>2017-11-01T08:27:49Z</time>
      </trkpt>
      <trkpt lat="46.04887" lon="4.5419">
        <ele>656</ele>
        <time>2017-11-01T08:29:49Z</time>
      </trkpt>
      <trkpt lat="46.04888" lon="4.54268">
        <ele>649</ele>
        <time>2017-11-01T08:31:49Z</time>
      </trkpt>
      <trkpt lat="46.04891" lon="4.54297">
        <ele>649</ele>
        <time>2017-11-01T08:33:49Z</time>
      </trkpt>
      <trkpt lat="46.04895" lon="4.54323">
        <ele>647</ele>
        <time>2017-11-01T08:35:49Z</time>
      </trkpt>
      <trkpt lat="46.049" lon="4.54343">
        <ele>646</ele>
        <time>2017-11-01T08:37:49Z</time>
      </trkpt>
      <trkpt lat="46.04906" lon="4.54363">
        <ele>645</ele>
        <time>2017-11-01T08:39:49Z</time>
      </trkpt>
      <trkpt lat="46.04909" lon="4.54381">
        <ele>645</ele>
        <time>2017-11-01T08:41:49Z</time>
      </trkpt>
      <trkpt lat="46.04915" lon="4.54397">
        <ele>643</ele>
        <time>2017-11-01T08:43:49Z</time>
      </trkpt>
      <trkpt lat="46.04922" lon="4.54417">
        <ele>641</ele>
        <time>2017-11-01T08:45:49Z</time>
      </trkpt>
      <trkpt lat="46.04931" lon="4.54439">
        <ele>640</ele>
        <time>2017-11-01T08:47:49Z</time>
      </trkpt>
      <trkpt lat="46.04943" lon="4.54465">
        <ele>639</ele>
        <time>2017-11-01T08:49:49Z</time>
      </trkpt>
      <trkpt lat="46.04953" lon="4.54483">
        <ele>636</ele>
        <time>2017-11-01T08:51:49Z</time>
      </trkpt>
      <trkpt lat="46.04967" lon="4.54515">
        <ele>633</ele>
        <time>2017-11-01T08:53:49Z</time>
      </trkpt>
      <trkpt lat="46.04971" lon="4.54529">
        <ele>632</ele>
        <time>2017-11-01T08:55:49Z</time>
      </trkpt>
      <trkpt lat="46.04979" lon="4.54557">
        <ele>630</ele>
        <time>2017-11-01T08:57:49Z</time>
      </trkpt>
      <trkpt lat="46.04984" lon="4.5459">
        <ele>630</ele>
        <time>2017-11-01T08:59:49Z</time>
      </trkpt>
      <trkpt lat="46.04991" lon="4.54623">
        <ele>627</ele>
        <time>2017-11-01T09:01:49Z</time>
      </trkpt>
      <trkpt lat="46.04994" lon="4.54645">
        <ele>625</ele>
        <time>2017-11-01T09:03:49Z</time>
      </trkpt>
      <trkpt lat="46.04997" lon="4.5469">
        <ele>621</ele>
        <time>2017-11-01T09:05:49Z</time>
      </trkpt>
      <trkpt lat="46.04997" lon="4.54708">
        <ele>619</ele>
        <time>2017-11-01T09:07:49Z</time>
      </trkpt>
      <trkpt lat="46.04996" lon="4.54729">
        <ele>618</ele>
        <time>2017-11-01T09:09:49Z</time>
      </trkpt>
      <trkpt lat="46.04992" lon="4.54748">
        <ele>618</ele>
        <time>2017-11-01T09:11:49Z</time>
      </trkpt>
      <trkpt lat="46.04988" lon="4.54767">
        <ele>617</ele>
        <time>2017-11-01T09:13:49Z</time>
      </trkpt>
      <trkpt lat="46.04972" lon="4.54805">
        <ele>619</ele>
        <time>2017-11-01T09:15:49Z</time>
      </trkpt>
      <trkpt lat="46.04968" lon="4.54811">
        <ele>619</ele>
        <time>2017-11-01T09:17:49Z</time>
      </trkpt>
      <trkpt lat="46.04963" lon="4.54823">
        <ele>619</ele>
        <time>2017-11-01T09:19:49Z</time>
      </trkpt>
      <trkpt lat="46.04948" lon="4.54855">
        <ele>619</ele>
        <time>2017-11-01T09:21:49Z</time>
      </trkpt>
      <trkpt lat="46.04934" lon="4.54894">
        <ele>617</ele>
        <time>2017-11-01T09:23:49Z</time>
      </trkpt>
      <trkpt lat="46.04925" lon="4.54928">
        <ele>614</ele>
        <time>2017-11-01T09:25:49Z</time>
      </trkpt>
      <trkpt lat="46.04918" lon="4.54962">
        <ele>611</ele>
        <time>2017-11-01T09:27:49Z</time>
      </trkpt>
      <trkpt lat="46.04906" lon="4.55037">
        <ele>603</ele>
        <time>2017-11-01T09:29:49Z</time>
      </trkpt>
      <trkpt lat="46.04903" lon="4.55051">
        <ele>602</ele>
        <time>2017-11-01T09:31:49Z</time>
      </trkpt>
      <trkpt lat="46.04897" lon="4.55063">
        <ele>600</ele>
        <time>2017-11-01T09:33:49Z</time>
      </trkpt>
      <trkpt lat="46.04885" lon="4.55073">
        <ele>598</ele>
        <time>2017-11-01T09:35:49Z</time>
      </trkpt>
      <trkpt lat="46.0488" lon="4.55076">
        <ele>597</ele>
        <time>2017-11-01T09:37:49Z</time>
      </trkpt>
      <trkpt lat="46.04874" lon="4.55075">
        <ele>596</ele>
        <time>2017-11-01T09:39:49Z</time>
      </trkpt>
      <trkpt lat="46.04869" lon="4.55072">
        <ele>596</ele>
        <time>2017-11-01T09:41:49Z</time>
      </trkpt>
      <trkpt lat="46.04864" lon="4.55068">
        <ele>596</ele>
        <time>2017-11-01T09:43:49Z</time>
      </trkpt>
      <trkpt lat="46.0486" lon="4.55061">
        <ele>596</ele>
        <time>2017-11-01T09:45:49Z</time>
      </trkpt>
      <trkpt lat="46.0485" lon="4.55044">
        <ele>597</ele>
        <time>2017-11-01T09:47:49Z</time>
      </trkpt>
      <trkpt lat="46.04845" lon="4.55034">
        <ele>598</ele>
        <time>2017-11-01T09:49:49Z</time>
      </trkpt>
      <trkpt lat="46.04838" lon="4.55015">
        <ele>601</ele>
        <time>2017-11-01T09:51:49Z</time>
      </trkpt>
      <trkpt lat="46.04834" lon="4.55005">
        <ele>602</ele>
        <time>2017-11-01T09:53:49Z</time>
      </trkpt>
      <trkpt lat="46.04828" lon="4.54997">
        <ele>602</ele>
        <time>2017-11-01T09:55:49Z</time>
      </trkpt>
      <trkpt lat="46.04822" lon="4.54989">
        <ele>602</ele>
        <time>2017-11-01T09:57:49Z</time>
      </trkpt>
      <trkpt lat="46.04814" lon="4.54982">
        <ele>602</ele>
        <time>2017-11-01T09:59:49Z</time>
      </trkpt>
      <trkpt lat="46.04778" lon="4.54955">
        <ele>599</ele>
        <time>2017-11-01T10:01:49Z</time>
      </trkpt>
      <trkpt lat="46.04763" lon="4.54942">
        <ele>599</ele>
        <time>2017-11-01T10:03:49Z</time>
      </trkpt>
      <trkpt lat="46.04747" lon="4.54927">
        <ele>599</ele>
        <time>2017-11-01T10:05:49Z</time>
      </trkpt>
      <trkpt lat="46.04735" lon="4.54915">
        <ele>597</ele>
        <time>2017-11-01T10:07:49Z</time>
      </trkpt>
      <trkpt lat="46.04723" lon="4.54896">
        <ele>595</ele>
        <time>2017-11-01T10:09:49Z</time>
      </trkpt>
      <trkpt lat="46.04713" lon="4.54877">
        <ele>595</ele>
        <time>2017-11-01T10:11:49Z</time>
      </trkpt>
      <trkpt lat="46.04699" lon="4.54846">
        <ele>596</ele>
        <time>2017-11-01T10:13:49Z</time>
      </trkpt>
      <trkpt lat="46.04696" lon="4.54836">
        <ele>598</ele>
        <time>2017-11-01T10:15:49Z</time>
      </trkpt>
      <trkpt lat="46.04692" lon="4.54829">
        <ele>598</ele>
        <time>2017-11-01T10:17:49Z</time>
      </trkpt>
      <trkpt lat="46.04687" lon="4.54824">
        <ele>598</ele>
        <time>2017-11-01T10:19:49Z</time>
      </trkpt>
      <trkpt lat="46.0468" lon="4.5482">
        <ele>597</ele>
        <time>2017-11-01T10:21:49Z</time>
      </trkpt>
      <trkpt lat="46.04673" lon="4.54817">
        <ele>595</ele>
        <time>2017-11-01T10:23:49Z</time>
      </trkpt>
      <trkpt lat="46.04666" lon="4.54814">
        <ele>594</ele>
        <time>2017-11-01T10:25:49Z</time>
      </trkpt>
      <trkpt lat="46.04652" lon="4.54812">
        <ele>590</ele>
        <time>2017-11-01T10:27:49Z</time>
      </trkpt>
      <trkpt lat="46.04645" lon="4.54811">
        <ele>588</ele>
        <time>2017-11-01T10:29:49Z</time>
      </trkpt>
      <trkpt lat="46.04639" lon="4.54808">
        <ele>587</ele>
        <time>2017-11-01T10:31:49Z</time>
      </trkpt>
      <trkpt lat="46.04634" lon="4.54802">
        <ele>587</ele>
        <time>2017-11-01T10:33:49Z</time>
      </trkpt>
      <trkpt lat="46.04621" lon="4.54783">
        <ele>588</ele>
        <time>2017-11-01T10:35:49Z</time>
      </trkpt>
      <trkpt lat="46.04591" lon="4.54732">
        <ele>590</ele>
        <time>2017-11-01T10:37:49Z</time>
      </trkpt>
      <trkpt lat="46.04561" lon="4.5468">
        <ele>601</ele>
        <time>2017-11-01T10:39:49Z</time>
      </trkpt>
      <trkpt lat="46.04556" lon="4.54675">
        <ele>602</ele>
        <time>2017-11-01T10:41:49Z</time>
      </trkpt>
      <trkpt lat="46.04553" lon="4.54673">
        <ele>603</ele>
        <time>2017-11-01T10:43:49Z</time>
      </trkpt>
      <trkpt lat="46.04551" lon="4.54673">
        <ele>603</ele>
        <time>2017-11-01T10:45:49Z</time>
      </trkpt>
      <trkpt lat="46.04547" lon="4.54673">
        <ele>604</ele>
        <time>2017-11-01T10:47:49Z</time>
      </trkpt>
      <trkpt lat="46.04543" lon="4.54674">
        <ele>604</ele>
        <time>2017-11-01T10:49:49Z</time>
      </trkpt>
      <trkpt lat="46.04539" lon="4.54677">
        <ele>604</ele>
        <time>2017-11-01T10:51:49Z</time>
      </trkpt>
      <trkpt lat="46.04535" lon="4.54682">
        <ele>603</ele>
        <time>2017-11-01T10:53:49Z</time>
      </trkpt>
      <trkpt lat="46.04532" lon="4.54687">
        <ele>602</ele>
        <time>2017-11-01T10:55:49Z</time>
      </trkpt>
      <trkpt lat="46.04528" lon="4.54695">
        <ele>601</ele>
        <time>2017-11-01T10:57:49Z</time>
      </trkpt>
      <trkpt lat="46.04523" lon="4.54708">
        <ele>599</ele>
        <time>2017-11-01T10:59:49Z</time>
      </trkpt>
      <trkpt lat="46.04508" lon="4.5476">
        <ele>591</ele>
        <time>2017-11-01T11:01:49Z</time>
      </trkpt>
      <trkpt lat="46.04502" lon="4.54775">
        <ele>588</ele>
        <time>2017-11-01T11:03:49Z</time>
      </trkpt>
      <trkpt lat="46.04496" lon="4.54789">
        <ele>587</ele>
        <time>2017-11-01T11:05:49Z</time>
      </trkpt>
      <trkpt lat="46.04488" lon="4.54803">
        <ele>587</ele>
        <time>2017-11-01T11:07:49Z</time>
      </trkpt>
      <trkpt lat="46.04481" lon="4.54814">
        <ele>587</ele>
        <time>2017-11-01T11:09:49Z</time>
      </trkpt>
      <trkpt lat="46.04474" lon="4.54822">
        <ele>587</ele>
        <time>2017-11-01T11:11:49Z</time>
      </trkpt>
      <trkpt lat="46.04465" lon="4.54829">
        <ele>589</ele>
        <time>2017-11-01T11:13:49Z</time>
      </trkpt>
      <trkpt lat="46.04452" lon="4.54841">
        <ele>592</ele>
        <time>2017-11-01T11:15:49Z</time>
      </trkpt>
      <trkpt lat="46.04448" lon="4.54847">
        <ele>593</ele>
        <time>2017-11-01T11:17:49Z</time>
      </trkpt>
      <trkpt lat="46.04444" lon="4.54857">
        <ele>594</ele>
        <time>2017-11-01T11:19:49Z</time>
      </trkpt>
      <trkpt lat="46.04443" lon="4.54866">
        <ele>594</ele>
        <time>2017-11-01T11:21:49Z</time>
      </trkpt>
      <trkpt lat="46.04443" lon="4.54874">
        <ele>593</ele>
        <time>2017-11-01T11:23:49Z</time>
      </trkpt>
      <trkpt lat="46.04447" lon="4.54909">
        <ele>590</ele>
        <time>2017-11-01T11:25:49Z</time>
      </trkpt>
      <trkpt lat="46.04449" lon="4.54932">
        <ele>589</ele>
        <time>2017-11-01T11:27:49Z</time>
      </trkpt>
      <trkpt lat="46.04449" lon="4.54957">
        <ele>589</ele>
        <time>2017-11-01T11:29:49Z</time>
      </trkpt>
      <trkpt lat="46.04447" lon="4.54967">
        <ele>590</ele>
        <time>2017-11-01T11:31:49Z</time>
      </trkpt>
      <trkpt lat="46.04442" lon="4.54988">
        <ele>592</ele>
        <time>2017-11-01T11:33:49Z</time>
      </trkpt>
      <trkpt lat="46.0443" lon="4.55014">
        <ele>596</ele>
        <time>2017-11-01T11:35:49Z</time>
      </trkpt>
      <trkpt lat="46.04415" lon="4.55041">
        <ele>598</ele>
        <time>2017-11-01T11:37:49Z</time>
      </trkpt>
      <trkpt lat="46.04406" lon="4.55058">
        <ele>600</ele>
        <time>2017-11-01T11:39:49Z</time>
      </trkpt>
      <trkpt lat="46.04402" lon="4.55069">
        <ele>601</ele>
        <time>2017-11-01T11:41:49Z</time>
      </trkpt>
      <trkpt lat="46.04394" lon="4.55094">
        <ele>601</ele>
        <time>2017-11-01T11:43:49Z</time>
      </trkpt>
      <trkpt lat="46.04391" lon="4.551">
        <ele>602</ele>
        <time>2017-11-01T11:45:49Z</time>
      </trkpt>
      <trkpt lat="46.04364" lon="4.55229">
        <ele>599</ele>
        <time>2017-11-01T11:47:49Z</time>
      </trkpt>
      <trkpt lat="46.04357" lon="4.55271">
        <ele>597</ele>
        <time>2017-11-01T11:49:49Z</time>
      </trkpt>
      <trkpt lat="46.04352" lon="4.55294">
        <ele>596</ele>
        <time>2017-11-01T11:51:49Z</time>
      </trkpt>
      <trkpt lat="46.0435" lon="4.55314">
        <ele>594</ele>
        <time>2017-11-01T11:53:49Z</time>
      </trkpt>
      <trkpt lat="46.04347" lon="4.55322">
        <ele>594</ele>
        <time>2017-11-01T11:55:49Z</time>
      </trkpt>
      <trkpt lat="46.04338" lon="4.55331">
        <ele>595</ele>
        <time>2017-11-01T11:57:49Z</time>
      </trkpt>
      <trkpt lat="46.04333" lon="4.55338">
        <ele>595</ele>
        <time>2017-11-01T11:59:49Z</time>
      </trkpt>
      <trkpt lat="46.04328" lon="4.55342">
        <ele>595</ele>
        <time>2017-11-01T12:01:49Z</time>
      </trkpt>
      <trkpt lat="46.04323" lon="4.55345">
        <ele>594</ele>
        <time>2017-11-01T12:03:49Z</time>
      </trkpt>
      <trkpt lat="46.04318" lon="4.55345">
        <ele>594</ele>
        <time>2017-11-01T12:05:49Z</time>
      </trkpt>
      <trkpt lat="46.04306" lon="4.55342">
        <ele>594</ele>
        <time>2017-11-01T12:07:49Z</time>
      </trkpt>
      <trkpt lat="46.0427" lon="4.55322">
        <ele>599</ele>
        <time>2017-11-01T12:09:49Z</time>
      </trkpt>
      <trkpt lat="46.04253" lon="4.55311">
        <ele>602</ele>
        <time>2017-11-01T12:11:49Z</time>
      </trkpt>
      <trkpt lat="46.04239" lon="4.55303">
        <ele>604</ele>
        <time>2017-11-01T12:13:49Z</time>
      </trkpt>
      <trkpt lat="46.04214" lon="4.55285">
        <ele>607</ele>
        <time>2017-11-01T12:15:49Z</time>
      </trkpt>
      <trkpt lat="46.04173" lon="4.55253">
        <ele>614</ele>
        <time>2017-11-01T12:17:49Z</time>
      </trkpt>
      <trkpt lat="46.04159" lon="4.55239">
        <ele>617</ele>
        <time>2017-11-01T12:19:49Z</time>
      </trkpt>
      <trkpt lat="46.04152" lon="4.55232">
        <ele>619</ele>
        <time>2017-11-01T12:21:49Z</time>
      </trkpt>
      <trkpt lat="46.04143" lon="4.55225">
        <ele>621</ele>
        <time>2017-11-01T12:23:49Z</time>
      </trkpt>
      <trkpt lat="46.04127" lon="4.55216">
        <ele>624</ele>
        <time>2017-11-01T12:25:49Z</time>
      </trkpt>
      <trkpt lat="46.04114" lon="4.55212">
        <ele>624</ele>
        <time>2017-11-01T12:27:49Z</time>
      </trkpt>
      <trkpt lat="46.04101" lon="4.55211">
        <ele>624</ele>
        <time>2017-11-01T12:29:49Z</time>
      </trkpt>
      <trkpt lat="46.04092" lon="4.55211">
        <ele>624</ele>
        <time>2017-11-01T12:31:49Z</time>
      </trkpt>
      <trkpt lat="46.04074" lon="4.55212">
        <ele>624</ele>
        <time>2017-11-01T12:33:49Z</time>
      </trkpt>
      <trkpt lat="46.04065" lon="4.55212">
        <ele>626</ele>
        <time>2017-11-01T12:35:49Z</time>
      </trkpt>
      <trkpt lat="46.04049" lon="4.55214">
        <ele>628</ele>
        <time>2017-11-01T12:37:49Z</time>
      </trkpt>
      <trkpt lat="46.04031" lon="4.55218">
        <ele>630</ele>
        <time>2017-11-01T12:39:49Z</time>
      </trkpt>
      <trkpt lat="46.04017" lon="4.55222">
        <ele>631</ele>
        <time>2017-11-01T12:41:49Z</time>
      </trkpt>
      <trkpt lat="46.04005" lon="4.55227">
        <ele>631</ele>
        <time>2017-11-01T12:43:49Z</time>
      </trkpt>
      <trkpt lat="46.03999" lon="4.55232">
        <ele>630</ele>
        <time>2017-11-01T12:45:49Z</time>
      </trkpt>
      <trkpt lat="46.03995" lon="4.55236">
        <ele>630</ele>
        <time>2017-11-01T12:47:49Z</time>
      </trkpt>
      <trkpt lat="46.03962" lon="4.55277">
        <ele>627</ele>
        <time>2017-11-01T12:49:49Z</time>
      </trkpt>
      <trkpt lat="46.03952" lon="4.55288">
        <ele>627</ele>
        <time>2017-11-01T12:51:49Z</time>
      </trkpt>
      <trkpt lat="46.03937" lon="4.55312">
        <ele>626</ele>
        <time>2017-11-01T12:53:49Z</time>
      </trkpt>
      <trkpt lat="46.03926" lon="4.55331">
        <ele>624</ele>
        <time>2017-11-01T12:55:49Z</time>
      </trkpt>
      <trkpt lat="46.03916" lon="4.55344">
        <ele>624</ele>
        <time>2017-11-01T12:57:49Z</time>
      </trkpt>
      <trkpt lat="46.03906" lon="4.55355">
        <ele>623</ele>
        <time>2017-11-01T12:59:49Z</time>
      </trkpt>
      <trkpt lat="46.03894" lon="4.55364">
        <ele>622</ele>
        <time>2017-11-01T13:01:49Z</time>
      </trkpt>
      <trkpt lat="46.03879" lon="4.5537">
        <ele>623</ele>
        <time>2017-11-01T13:03:49Z</time>
      </trkpt>
      <trkpt lat="46.0387" lon="4.55373">
        <ele>623</ele>
        <time>2017-11-01T13:05:49Z</time>
      </trkpt>
      <trkpt lat="46.03857" lon="4.55373">
        <ele>624</ele>
        <time>2017-11-01T13:07:49Z</time>
      </trkpt>
      <trkpt lat="46.03852" lon="4.55373">
        <ele>625</ele>
        <time>2017-11-01T13:09:49Z</time>
      </trkpt>
      <trkpt lat="46.03844" lon="4.55372">
        <ele>626</ele>
        <time>2017-11-01T13:11:49Z</time>
      </trkpt>
      <trkpt lat="46.03821" lon="4.55364">
        <ele>632</ele>
        <time>2017-11-01T13:13:49Z</time>
      </trkpt>
      <trkpt lat="46.03813" lon="4.55363">
        <ele>633</ele>
        <time>2017-11-01T13:15:49Z</time>
      </trkpt>
      <trkpt lat="46.03807" lon="4.55362">
        <ele>634</ele>
        <time>2017-11-01T13:17:49Z</time>
      </trkpt>
      <trkpt lat="46.03793" lon="4.55365">
        <ele>635</ele>
        <time>2017-11-01T13:19:49Z</time>
      </trkpt>
      <trkpt lat="46.03787" lon="4.55367">
        <ele>635</ele>
        <time>2017-11-01T13:21:49Z</time>
      </trkpt>
      <trkpt lat="46.03781" lon="4.55371">
        <ele>634</ele>
        <time>2017-11-01T13:23:49Z</time>
      </trkpt>
      <trkpt lat="46.03754" lon="4.5539">
        <ele>630</ele>
        <time>2017-11-01T13:25:49Z</time>
      </trkpt>
      <trkpt lat="46.03741" lon="4.55401">
        <ele>628</ele>
        <time>2017-11-01T13:27:49Z</time>
      </trkpt>
      <trkpt lat="46.03732" lon="4.55409">
        <ele>627</ele>
        <time>2017-11-01T13:29:49Z</time>
      </trkpt>
      <trkpt lat="46.03728" lon="4.55409">
        <ele>627</ele>
        <time>2017-11-01T13:31:49Z</time>
      </trkpt>
      <trkpt lat="46.03714" lon="4.55414">
        <ele>628</ele>
        <time>2017-11-01T13:33:49Z</time>
      </trkpt>
      <trkpt lat="46.03708" lon="4.55415">
        <ele>629</ele>
        <time>2017-11-01T13:35:49Z</time>
      </trkpt>
      <trkpt lat="46.03687" lon="4.55421">
        <ele>632</ele>
        <time>2017-11-01T13:37:49Z</time>
      </trkpt>
      <trkpt lat="46.03681" lon="4.55425">
        <ele>632</ele>
        <time>2017-11-01T13:39:49Z</time>
      </trkpt>
      <trkpt lat="46.03664" lon="4.5544">
        <ele>632</ele>
        <time>2017-11-01T13:41:49Z</time>
      </trkpt>
      <trkpt lat="46.03648" lon="4.5546">
        <ele>628</ele>
        <time>2017-11-01T13:43:49Z</time>
      </trkpt>
      <trkpt lat="46.03632" lon="4.55474">
        <ele>625</ele>
        <time>2017-11-01T13:45:49Z</time>
      </trkpt>
      <trkpt lat="46.03622" lon="4.55484">
        <ele>623</ele>
        <time>2017-11-01T13:47:49Z</time>
      </trkpt>
      <trkpt lat="46.03617" lon="4.55487">
        <ele>622</ele>
        <time>2017-11-01T13:49:49Z</time>
      </trkpt>
      <trkpt lat="46.03611" lon="4.55487">
        <ele>622</ele>
        <time>2017-11-01T13:51:49Z</time>
      </trkpt>
      <trkpt lat="46.03606" lon="4.55485">
        <ele>623</ele>
        <time>2017-11-01T13:53:49Z</time>
      </trkpt>
      <trkpt lat="46.03601" lon="4.55481">
        <ele>624</ele>
        <time>2017-11-01T13:55:49Z</time>
      </trkpt>
      <trkpt lat="46.03596" lon="4.55475">
        <ele>625</ele>
        <time>2017-11-01T13:57:49Z</time>
      </trkpt>
      <trkpt lat="46.03592" lon="4.55469">
        <ele>627</ele>
        <time>2017-11-01T13:59:49Z</time>
      </trkpt>
      <trkpt lat="46.03581" lon="4.55454">
        <ele>630</ele>
        <time>2017-11-01T14:01:49Z</time>
      </trkpt>
      <trkpt lat="46.03567" lon="4.55431">
        <ele>633</ele>
        <time>2017-11-01T14:03:49Z</time>
      </trkpt>
      <trkpt lat="46.03551" lon="4.55411">
        <ele>636</ele>
        <time>2017-11-01T14:05:49Z</time>
      </trkpt>
      <trkpt lat="46.03545" lon="4.55405">
        <ele>638</ele>
        <time>2017-11-01T14:07:49Z</time>
      </trkpt>
      <trkpt lat="46.03533" lon="4.55396">
        <ele>639</ele>
        <time>2017-11-01T14:09:49Z</time>
      </trkpt>
      <trkpt lat="46.03522" lon="4.55391">
        <ele>640</ele>
        <time>2017-11-01T14:11:49Z</time>
      </trkpt>
      <trkpt lat="46.03496" lon="4.55385">
        <ele>639</ele>
        <time>2017-11-01T14:13:49Z</time>
      </trkpt>
      <trkpt lat="46.03475" lon="4.55378">
        <ele>640</ele>
        <time>2017-11-01T14:15:49Z</time>
      </trkpt>
      <trkpt lat="46.03456" lon="4.55368">
        <ele>643</ele>
        <time>2017-11-01T14:17:49Z</time>
      </trkpt>
      <trkpt lat="46.03431" lon="4.55353">
        <ele>646</ele>
        <time>2017-11-01T14:19:49Z</time>
      </trkpt>
      <trkpt lat="46.03412" lon="4.55346">
        <ele>648</ele>
        <time>2017-11-01T14:21:49Z</time>
      </trkpt>
      <trkpt lat="46.03394" lon="4.55341">
        <ele>650</ele>
        <time>2017-11-01T14:23:49Z</time>
      </trkpt>
      <trkpt lat="46.03376" lon="4.55338">
        <ele>652</ele>
        <time>2017-11-01T14:25:49Z</time>
      </trkpt>
      <trkpt lat="46.03351" lon="4.5533">
        <ele>655</ele>
        <time>2017-11-01T14:27:49Z</time>
      </trkpt>
      <trkpt lat="46.03345" lon="4.5533">
        <ele>655</ele>
        <time>2017-11-01T14:29:49Z</time>
      </trkpt>
      <trkpt lat="46.0334" lon="4.55331">
        <ele>655</ele>
        <time>2017-11-01T14:31:49Z</time>
      </trkpt>
      <trkpt lat="46.03329" lon="4.55337">
        <ele>654</ele>
        <time>2017-11-01T14:33:49Z</time>
      </trkpt>
      <trkpt lat="46.03325" lon="4.55341">
        <ele>653</ele>
        <time>2017-11-01T14:35:49Z</time>
      </trkpt>
      <trkpt lat="46.0331" lon="4.55362">
        <ele>649</ele>
        <time>2017-11-01T14:37:49Z</time>
      </trkpt>
      <trkpt lat="46.03301" lon="4.55372">
        <ele>648</ele>
        <time>2017-11-01T14:39:49Z</time>
      </trkpt>
      <trkpt lat="46.03297" lon="4.55376">
        <ele>647</ele>
        <time>2017-11-01T14:41:49Z</time>
      </trkpt>
      <trkpt lat="46.03294" lon="4.55378">
        <ele>647</ele>
        <time>2017-11-01T14:43:49Z</time>
      </trkpt>
      <trkpt lat="46.0329" lon="4.55379">
        <ele>647</ele>
        <time>2017-11-01T14:45:49Z</time>
      </trkpt>
      <trkpt lat="46.03281" lon="4.55381">
        <ele>648</ele>
        <time>2017-11-01T14:47:49Z</time>
      </trkpt>
      <trkpt lat="46.03266" lon="4.55382">
        <ele>650</ele>
        <time>2017-11-01T14:49:49Z</time>
      </trkpt>
      <trkpt lat="46.03249" lon="4.55381">
        <ele>652</ele>
        <time>2017-11-01T14:51:49Z</time>
      </trkpt>
      <trkpt lat="46.03243" lon="4.55381">
        <ele>652</ele>
        <time>2017-11-01T14:53:49Z</time>
      </trkpt>
      <trkpt lat="46.03224" lon="4.55378">
        <ele>654</ele>
        <time>2017-11-01T14:55:49Z</time>
      </trkpt>
      <trkpt lat="46.03188" lon="4.55375">
        <ele>658</ele>
        <time>2017-11-01T14:57:49Z</time>
      </trkpt>
      <trkpt lat="46.0318" lon="4.55375">
        <ele>658</ele>
        <time>2017-11-01T14:59:49Z</time>
      </trkpt>
      <trkpt lat="46.03172" lon="4.55377">
        <ele>659</ele>
        <time>2017-11-01T15:01:49Z</time>
      </trkpt>
      <trkpt lat="46.03172" lon="4.55377">
        <ele>659</ele>
        <time>2017-11-01T15:03:49Z</time>
      </trkpt>
      <trkpt lat="46.03176" lon="4.55405">
        <ele>660</ele>
        <time>2017-11-01T15:05:49Z</time>
      </trkpt>
      <trkpt lat="46.03178" lon="4.55429">
        <ele>659</ele>
        <time>2017-11-01T15:07:49Z</time>
      </trkpt>
      <trkpt lat="46.03178" lon="4.55452">
        <ele>657</ele>
        <time>2017-11-01T15:09:49Z</time>
      </trkpt>
      <trkpt lat="46.03178" lon="4.55461">
        <ele>656</ele>
        <time>2017-11-01T15:11:49Z</time>
      </trkpt>
      <trkpt lat="46.03178" lon="4.55467">
        <ele>656</ele>
        <time>2017-11-01T15:13:49Z</time>
      </trkpt>
      <trkpt lat="46.03177" lon="4.55503">
        <ele>653</ele>
        <time>2017-11-01T15:15:49Z</time>
      </trkpt>
      <trkpt lat="46.03174" lon="4.55522">
        <ele>651</ele>
        <time>2017-11-01T15:17:49Z</time>
      </trkpt>
      <trkpt lat="46.03172" lon="4.55532">
        <ele>651</ele>
        <time>2017-11-01T15:19:49Z</time>
      </trkpt>
      <trkpt lat="46.03168" lon="4.55543">
        <ele>650</ele>
        <time>2017-11-01T15:21:49Z</time>
      </trkpt>
      <trkpt lat="46.03163" lon="4.55553">
        <ele>650</ele>
        <time>2017-11-01T15:23:49Z</time>
      </trkpt>
      <trkpt lat="46.0316" lon="4.55558">
        <ele>650</ele>
        <time>2017-11-01T15:25:49Z</time>
      </trkpt>
      <trkpt lat="46.03149" lon="4.55571">
        <ele>649</ele>
        <time>2017-11-01T15:27:49Z</time>
      </trkpt>
      <trkpt lat="46.03138" lon="4.5558">
        <ele>649</ele>
        <time>2017-11-01T15:29:49Z</time>
      </trkpt>
      <trkpt lat="46.03122" lon="4.5559">
        <ele>650</ele>
        <time>2017-11-01T15:31:49Z</time>
      </trkpt>
      <trkpt lat="46.03104" lon="4.55597">
        <ele>651</ele>
        <time>2017-11-01T15:33:49Z</time>
      </trkpt>
      <trkpt lat="46.03098" lon="4.55598">
        <ele>651</ele>
        <time>2017-11-01T15:35:49Z</time>
      </trkpt>
      <trkpt lat="46.03065" lon="4.55599">
        <ele>656</ele>
        <time>2017-11-01T15:37:49Z</time>
      </trkpt>
      <trkpt lat="46.03063" lon="4.55599">
        <ele>656</ele>
        <time>2017-11-01T15:39:49Z</time>
      </trkpt>
      <trkpt lat="46.03054" lon="4.556">
        <ele>657</ele>
        <time>2017-11-01T15:41:49Z</time>
      </trkpt>
      <trkpt lat="46.03049" lon="4.556">
        <ele>658</ele>
        <time>2017-11-01T15:43:49Z</time>
      </trkpt>
      <trkpt lat="46.03037" lon="4.55605">
        <ele>659</ele>
        <time>2017-11-01T15:45:49Z</time>
      </trkpt>
      <trkpt lat="46.0303" lon="4.55609">
        <ele>659</ele>
        <time>2017-11-01T15:47:49Z</time>
      </trkpt>
      <trkpt lat="46.0302" lon="4.55616">
        <ele>660</ele>
        <time>2017-11-01T15:49:49Z</time>
      </trkpt>
      <trkpt lat="46.03017" lon="4.55618">
        <ele>660</ele>
        <time>2017-11-01T15:51:49Z</time>
      </trkpt>
      <trkpt lat="46.0301" lon="4.55625">
        <ele>661</ele>
        <time>2017-11-01T15:53:49Z</time>
      </trkpt>
      <trkpt lat="46.03002" lon="4.55637">
        <ele>661</ele>
        <time>2017-11-01T15:55:49Z</time>
      </trkpt>
      <trkpt lat="46.02994" lon="4.55654">
        <ele>661</ele>
        <time>2017-11-01T15:57:49Z</time>
      </trkpt>
      <trkpt lat="46.02992" lon="4.55659">
        <ele>661</ele>
        <time>2017-11-01T15:59:49Z</time>
      </trkpt>
      <trkpt lat="46.02988" lon="4.55676">
        <ele>660</ele>
        <time>2017-11-01T16:01:49Z</time>
      </trkpt>
      <trkpt lat="46.02984" lon="4.55687">
        <ele>660</ele>
        <time>2017-11-01T16:03:49Z</time>
      </trkpt>
      <trkpt lat="46.02978" lon="4.55713">
        <ele>659</ele>
        <time>2017-11-01T16:05:49Z</time>
      </trkpt>
      <trkpt lat="46.02972" lon="4.55731">
        <ele>658</ele>
        <time>2017-11-01T16:07:49Z</time>
      </trkpt>
      <trkpt lat="46.02969" lon="4.55745">
        <ele>657</ele>
        <time>2017-11-01T16:09:49Z</time>
      </trkpt>
      <trkpt lat="46.02968" lon="4.55748">
        <ele>657</ele>
        <time>2017-11-01T16:11:49Z</time>
      </trkpt>
      <trkpt lat="46.02963" lon="4.55759">
        <ele>655</ele>
        <time>2017-11-01T16:13:49Z</time>
      </trkpt>
      <trkpt lat="46.0296" lon="4.55768">
        <ele>654</ele>
        <time>2017-11-01T16:15:49Z</time>
      </trkpt>
      <trkpt lat="46.02953" lon="4.55783">
        <ele>652</ele>
        <time>2017-11-01T16:17:49Z</time>
      </trkpt>
      <trkpt lat="46.02931" lon="4.55816">
        <ele>649</ele>
        <time>2017-11-01T16:19:49Z</time>
      </trkpt>
      <trkpt lat="46.02925" lon="4.55824">
        <ele>649</ele>
        <time>2017-11-01T16:21:49Z</time>
      </trkpt>
      <trkpt lat="46.02915" lon="4.55832">
        <ele>650</ele>
        <time>2017-11-01T16:23:49Z</time>
      </trkpt>
      <trkpt lat="46.0291" lon="4.55838">
        <ele>649</ele>
        <time>2017-11-01T16:25:49Z</time>
      </trkpt>
      <trkpt lat="46.02892" lon="4.55858">
        <ele>646</ele>
        <time>2017-11-01T16:27:49Z</time>
      </trkpt>
      <trkpt lat="46.0287" lon="4.55877">
        <ele>645</ele>
        <time>2017-11-01T16:29:49Z</time>
      </trkpt>
      <trkpt lat="46.02853" lon="4.5589">
        <ele>644</ele>
        <time>2017-11-01T16:31:49Z</time>
      </trkpt>
      <trkpt lat="46.02842" lon="4.55894">
        <ele>644</ele>
        <time>2017-11-01T16:33:49Z</time>
      </trkpt>
      <trkpt lat="46.02825" lon="4.55897">
        <ele>644</ele>
        <time>2017-11-01T16:35:49Z</time>
      </trkpt>
      <trkpt lat="46.02803" lon="4.55895">
        <ele>643</ele>
        <time>2017-11-01T16:37:49Z</time>
      </trkpt>
      <trkpt lat="46.02782" lon="4.55889">
        <ele>642</ele>
        <time>2017-11-01T16:39:49Z</time>
      </trkpt>
      <trkpt lat="46.02765" lon="4.55883">
        <ele>643</ele>
        <time>2017-11-01T16:41:49Z</time>
      </trkpt>
      <trkpt lat="46.02745" lon="4.55875">
        <ele>643</ele>
        <time>2017-11-01T16:43:49Z</time>
      </trkpt>
      <trkpt lat="46.0271" lon="4.55863">
        <ele>642</ele>
        <time>2017-11-01T16:45:49Z</time>
      </trkpt>
      <trkpt lat="46.02669" lon="4.55847">
        <ele>641</ele>
        <time>2017-11-01T16:47:49Z</time>
      </trkpt>
      <trkpt lat="46.02641" lon="4.55842">
        <ele>645</ele>
        <time>2017-11-01T16:49:49Z</time>
      </trkpt>
      <trkpt lat="46.02626" lon="4.55844">
        <ele>646</ele>
        <time>2017-11-01T16:51:49Z</time>
      </trkpt>
      <trkpt lat="46.02614" lon="4.5585">
        <ele>645</ele>
        <time>2017-11-01T16:53:49Z</time>
      </trkpt>
      <trkpt lat="46.0261" lon="4.55853">
        <ele>645</ele>
        <time>2017-11-01T16:55:49Z</time>
      </trkpt>
      <trkpt lat="46.02601" lon="4.55859">
        <ele>644</ele>
        <time>2017-11-01T16:57:49Z</time>
      </trkpt>
      <trkpt lat="46.02597" lon="4.55863">
        <ele>643</ele>
        <time>2017-11-01T16:59:49Z</time>
      </trkpt>
      <trkpt lat="46.02585" lon="4.55879">
        <ele>641</ele>
        <time>2017-11-01T17:01:49Z</time>
      </trkpt>
      <trkpt lat="46.02577" lon="4.55894">
        <ele>639</ele>
        <time>2017-11-01T17:03:49Z</time>
      </trkpt>
      <trkpt lat="46.0257" lon="4.5591">
        <ele>638</ele>
        <time>2017-11-01T17:05:49Z</time>
      </trkpt>
      <trkpt lat="46.02562" lon="4.55932">
        <ele>636</ele>
        <time>2017-11-01T17:07:49Z</time>
      </trkpt>
      <trkpt lat="46.02552" lon="4.55965">
        <ele>635</ele>
        <time>2017-11-01T17:09:49Z</time>
      </trkpt>
      <trkpt lat="46.02548" lon="4.55984">
        <ele>634</ele>
        <time>2017-11-01T17:11:49Z</time>
      </trkpt>
      <trkpt lat="46.02547" lon="4.55997">
        <ele>632</ele>
        <time>2017-11-01T17:13:49Z</time>
      </trkpt>
      <trkpt lat="46.02545" lon="4.56025">
        <ele>630</ele>
        <time>2017-11-01T17:15:49Z</time>
      </trkpt>
      <trkpt lat="46.02545" lon="4.56052">
        <ele>628</ele>
        <time>2017-11-01T17:17:49Z</time>
      </trkpt>
      <trkpt lat="46.02544" lon="4.56071">
        <ele>627</ele>
        <time>2017-11-01T17:19:49Z</time>
      </trkpt>
      <trkpt lat="46.02545" lon="4.56091">
        <ele>625</ele>
        <time>2017-11-01T17:21:49Z</time>
      </trkpt>
      <trkpt lat="46.02545" lon="4.56114">
        <ele>623</ele>
        <time>2017-11-01T17:23:49Z</time>
      </trkpt>
      <trkpt lat="46.02543" lon="4.56124">
        <ele>623</ele>
        <time>2017-11-01T17:25:49Z</time>
      </trkpt>
      <trkpt lat="46.02541" lon="4.56134">
        <ele>622</ele>
        <time>2017-11-01T17:27:49Z</time>
      </trkpt>
      <trkpt lat="46.02537" lon="4.56143">
        <ele>622</ele>
        <time>2017-11-01T17:29:49Z</time>
      </trkpt>
      <trkpt lat="46.02534" lon="4.5615">
        <ele>623</ele>
        <time>2017-11-01T17:31:49Z</time>
      </trkpt>
      <trkpt lat="46.02526" lon="4.56162">
        <ele>623</ele>
        <time>2017-11-01T17:33:49Z</time>
      </trkpt>
      <trkpt lat="46.02509" lon="4.5618">
        <ele>626</ele>
        <time>2017-11-01T17:35:49Z</time>
      </trkpt>
      <trkpt lat="46.02505" lon="4.56182">
        <ele>627</ele>
        <time>2017-11-01T17:37:49Z</time>
      </trkpt>
      <trkpt lat="46.02499" lon="4.56192">
        <ele>627</ele>
        <time>2017-11-01T17:39:49Z</time>
      </trkpt>
      <trkpt lat="46.02492" lon="4.56204">
        <ele>625</ele>
        <time>2017-11-01T17:41:49Z</time>
      </trkpt>
      <trkpt lat="46.02485" lon="4.5622">
        <ele>622</ele>
        <time>2017-11-01T17:43:49Z</time>
      </trkpt>
      <trkpt lat="46.02482" lon="4.56226">
        <ele>621</ele>
        <time>2017-11-01T17:45:49Z</time>
      </trkpt>
      <trkpt lat="46.02478" lon="4.56234">
        <ele>620</ele>
        <time>2017-11-01T17:47:49Z</time>
      </trkpt>
      <trkpt lat="46.02476" lon="4.56242">
        <ele>619</ele>
        <time>2017-11-01T17:49:49Z</time>
      </trkpt>
      <trkpt lat="46.02454" lon="4.56284">
        <ele>617</ele>
        <time>2017-11-01T17:51:49Z</time>
      </trkpt>
      <trkpt lat="46.02423" lon="4.56348">
        <ele>619</ele>
        <time>2017-11-01T17:53:49Z</time>
      </trkpt>
      <trkpt lat="46.0241" lon="4.56373">
        <ele>619</ele>
        <time>2017-11-01T17:55:49Z</time>
      </trkpt>
      <trkpt lat="46.02401" lon="4.56386">
        <ele>618</ele>
        <time>2017-11-01T17:57:49Z</time>
      </trkpt>
      <trkpt lat="46.02385" lon="4.56407">
        <ele>617</ele>
        <time>2017-11-01T17:59:49Z</time>
      </trkpt>
      <trkpt lat="46.0237" lon="4.56424">
        <ele>616</ele>
        <time>2017-11-01T18:01:49Z</time>
      </trkpt>
      <trkpt lat="46.02328" lon="4.56474">
        <ele>614</ele>
        <time>2017-11-01T18:03:49Z</time>
      </trkpt>
      <trkpt lat="46.02308" lon="4.56496">
        <ele>613</ele>
        <time>2017-11-01T18:05:49Z</time>
      </trkpt>
      <trkpt lat="46.0229" lon="4.56518">
        <ele>610</ele>
        <time>2017-11-01T18:07:49Z</time>
      </trkpt>
      <trkpt lat="46.02281" lon="4.56534">
        <ele>608</ele>
        <time>2017-11-01T18:09:49Z</time>
      </trkpt>
      <trkpt lat="46.02276" lon="4.5655">
        <ele>608</ele>
        <time>2017-11-01T18:11:49Z</time>
      </trkpt>
      <trkpt lat="46.02274" lon="4.56562">
        <ele>608</ele>
        <time>2017-11-01T18:13:49Z</time>
      </trkpt>
      <trkpt lat="46.02274" lon="4.56572">
        <ele>608</ele>
        <time>2017-11-01T18:15:49Z</time>
      </trkpt>
      <trkpt lat="46.02276" lon="4.56582">
        <ele>609</ele>
        <time>2017-11-01T18:17:49Z</time>
      </trkpt>
      <trkpt lat="46.02282" lon="4.56599">
        <ele>608</ele>
        <time>2017-11-01T18:19:49Z</time>
      </trkpt>
      <trkpt lat="46.02288" lon="4.5661">
        <ele>607</ele>
        <time>2017-11-01T18:21:49Z</time>
      </trkpt>
      <trkpt lat="46.02296" lon="4.5662">
        <ele>606</ele>
        <time>2017-11-01T18:23:49Z</time>
      </trkpt>
      <trkpt lat="46.023" lon="4.56626">
        <ele>606</ele>
        <time>2017-11-01T18:25:49Z</time>
      </trkpt>
      <trkpt lat="46.02352" lon="4.56685">
        <ele>606</ele>
        <time>2017-11-01T18:27:49Z</time>
      </trkpt>
      <trkpt lat="46.02358" lon="4.56694">
        <ele>606</ele>
        <time>2017-11-01T18:29:49Z</time>
      </trkpt>
      <trkpt lat="46.02367" lon="4.56708">
        <ele>605</ele>
        <time>2017-11-01T18:31:49Z</time>
      </trkpt>
      <trkpt lat="46.02377" lon="4.56736">
        <ele>602</ele>
        <time>2017-11-01T18:33:49Z</time>
      </trkpt>
      <trkpt lat="46.02396" lon="4.56794">
        <ele>596</ele>
        <time>2017-11-01T18:35:49Z</time>
      </trkpt>
      <trkpt lat="46.024" lon="4.56804">
        <ele>595</ele>
        <time>2017-11-01T18:37:49Z</time>
      </trkpt>
      <trkpt lat="46.02405" lon="4.56813">
        <ele>595</ele>
        <time>2017-11-01T18:39:49Z</time>
      </trkpt>
      <trkpt lat="46.02412" lon="4.56822">
        <ele>595</ele>
        <time>2017-11-01T18:41:49Z</time>
      </trkpt>
      <trkpt lat="46.02428" lon="4.56836">
        <ele>595</ele>
        <time>2017-11-01T18:43:49Z</time>
      </trkpt>
      <trkpt lat="46.02454" lon="4.56857">
        <ele>597</ele>
        <time>2017-11-01T18:45:49Z</time>
      </trkpt>
      <trkpt lat="46.02458" lon="4.5686">
        <ele>597</ele>
        <time>2017-11-01T18:47:49Z</time>
      </trkpt>
      <trkpt lat="46.02467" lon="4.56871">
        <ele>597</ele>
        <time>2017-11-01T18:49:49Z</time>
      </trkpt>
      <trkpt lat="46.02473" lon="4.56882">
        <ele>597</ele>
        <time>2017-11-01T18:51:49Z</time>
      </trkpt>
      <trkpt lat="46.02477" lon="4.56896">
        <ele>596</ele>
        <time>2017-11-01T18:53:49Z</time>
      </trkpt>
      <trkpt lat="46.0248" lon="4.56905">
        <ele>595</ele>
        <time>2017-11-01T18:55:49Z</time>
      </trkpt>
      <trkpt lat="46.0248" lon="4.56919">
        <ele>594</ele>
        <time>2017-11-01T18:57:49Z</time>
      </trkpt>
      <trkpt lat="46.0248" lon="4.56928">
        <ele>594</ele>
        <time>2017-11-01T18:59:49Z</time>
      </trkpt>
      <trkpt lat="46.02476" lon="4.56945">
        <ele>595</ele>
        <time>2017-11-01T19:01:49Z</time>
      </trkpt>
      <trkpt lat="46.02472" lon="4.56955">
        <ele>594</ele>
        <time>2017-11-01T19:03:49Z</time>
      </trkpt>
      <trkpt lat="46.02465" lon="4.56967">
        <ele>594</ele>
        <time>2017-11-01T19:05:49Z</time>
      </trkpt>
      <trkpt lat="46.02449" lon="4.56987">
        <ele>591</ele>
        <time>2017-11-01T19:07:49Z</time>
      </trkpt>
      <trkpt lat="46.02433" lon="4.57005">
        <ele>589</ele>
        <time>2017-11-01T19:09:49Z</time>
      </trkpt>
      <trkpt lat="46.02398" lon="4.57037">
        <ele>586</ele>
        <time>2017-11-01T19:11:49Z</time>
      </trkpt>
      <trkpt lat="46.02379" lon="4.57054">
        <ele>585</ele>
        <time>2017-11-01T19:13:49Z</time>
      </trkpt>
      <trkpt lat="46.02355" lon="4.57071">
        <ele>584</ele>
        <time>2017-11-01T19:15:49Z</time>
      </trkpt>
      <trkpt lat="46.02348" lon="4.57074">
        <ele>583</ele>
        <time>2017-11-01T19:17:49Z</time>
      </trkpt>
      <trkpt lat="46.02329" lon="4.57081">
        <ele>581</ele>
        <time>2017-11-01T19:19:49Z</time>
      </trkpt>
      <trkpt lat="46.02305" lon="4.57089">
        <ele>579</ele>
        <time>2017-11-01T19:21:49Z</time>
      </trkpt>
      <trkpt lat="46.02281" lon="4.57095">
        <ele>578</ele>
        <time>2017-11-01T19:23:49Z</time>
      </trkpt>
      <trkpt lat="46.02272" lon="4.57098">
        <ele>577</ele>
        <time>2017-11-01T19:25:49Z</time>
      </trkpt>
      <trkpt lat="46.02257" lon="4.57103">
        <ele>576</ele>
        <time>2017-11-01T19:27:49Z</time>
      </trkpt>
      <trkpt lat="46.02207" lon="4.57127">
        <ele>574</ele>
        <time>2017-11-01T19:29:49Z</time>
      </trkpt>
      <trkpt lat="46.02181" lon="4.5714">
        <ele>573</ele>
        <time>2017-11-01T19:31:49Z</time>
      </trkpt>
      <trkpt lat="46.02137" lon="4.57163">
        <ele>571</ele>
        <time>2017-11-01T19:33:49Z</time>
      </trkpt>
      <trkpt lat="46.02118" lon="4.5717">
        <ele>569</ele>
        <time>2017-11-01T19:35:49Z</time>
      </trkpt>
      <trkpt lat="46.0211" lon="4.57172">
        <ele>568</ele>
        <time>2017-11-01T19:37:49Z</time>
      </trkpt>
      <trkpt lat="46.02104" lon="4.57174">
        <ele>568</ele>
        <time>2017-11-01T19:39:49Z</time>
      </trkpt>
      <trkpt lat="46.02064" lon="4.57183">
        <ele>564</ele>
        <time>2017-11-01T19:41:49Z</time>
      </trkpt>
      <trkpt lat="46.02024" lon="4.5719">
        <ele>561</ele>
        <time>2017-11-01T19:43:49Z</time>
      </trkpt>
      <trkpt lat="46.01997" lon="4.57195">
        <ele>559</ele>
        <time>2017-11-01T19:45:49Z</time>
      </trkpt>
      <trkpt lat="46.01979" lon="4.57202">
        <ele>557</ele>
        <time>2017-11-01T19:47:49Z</time>
      </trkpt>
      <trkpt lat="46.01975" lon="4.57206">
        <ele>557</ele>
        <time>2017-11-01T19:49:49Z</time>
      </trkpt>
      <trkpt lat="46.01966" lon="4.5721">
        <ele>555</ele>
        <time>2017-11-01T19:51:49Z</time>
      </trkpt>
      <trkpt lat="46.01958" lon="4.57216">
        <ele>555</ele>
        <time>2017-11-01T19:53:49Z</time>
      </trkpt>
      <trkpt lat="46.01949" lon="4.57224">
        <ele>554</ele>
        <time>2017-11-01T19:55:49Z</time>
      </trkpt>
      <trkpt lat="46.01939" lon="4.57234">
        <ele>553</ele>
        <time>2017-11-01T19:57:49Z</time>
      </trkpt>
      <trkpt lat="46.01928" lon="4.57249">
        <ele>552</ele>
        <time>2017-11-01T19:59:49Z</time>
      </trkpt>
      <trkpt lat="46.01922" lon="4.57261">
        <ele>551</ele>
        <time>2017-11-01T20:01:49Z</time>
      </trkpt>
      <trkpt lat="46.01918" lon="4.5727">
        <ele>551</ele>
        <time>2017-11-01T20:03:49Z</time>
      </trkpt>
      <trkpt lat="46.01914" lon="4.5729">
        <ele>551</ele>
        <time>2017-11-01T20:05:49Z</time>
      </trkpt>
      <trkpt lat="46.01913" lon="4.57302">
        <ele>552</ele>
        <time>2017-11-01T20:07:49Z</time>
      </trkpt>
      <trkpt lat="46.01913" lon="4.57308">
        <ele>552</ele>
        <time>2017-11-01T20:09:49Z</time>
      </trkpt>
      <trkpt lat="46.01916" lon="4.57325">
        <ele>554</ele>
        <time>2017-11-01T20:11:49Z</time>
      </trkpt>
      <trkpt lat="46.01922" lon="4.57351">
        <ele>557</ele>
        <time>2017-11-01T20:13:49Z</time>
      </trkpt>
      <trkpt lat="46.01923" lon="4.57369">
        <ele>558</ele>
        <time>2017-11-01T20:15:49Z</time>
      </trkpt>
      <trkpt lat="46.01923" lon="4.57383">
        <ele>559</ele>
        <time>2017-11-01T20:17:49Z</time>
      </trkpt>
      <trkpt lat="46.01919" lon="4.574">
        <ele>558</ele>
        <time>2017-11-01T20:19:49Z</time>
      </trkpt>
      <trkpt lat="46.01907" lon="4.57429">
        <ele>557</ele>
        <time>2017-11-01T20:21:49Z</time>
      </trkpt>
      <trkpt lat="46.01902" lon="4.57438">
        <ele>557</ele>
        <time>2017-11-01T20:23:49Z</time>
      </trkpt>
      <trkpt lat="46.01886" lon="4.57458">
        <ele>556</ele>
        <time>2017-11-01T20:25:49Z</time>
      </trkpt>
      <trkpt lat="46.0188" lon="4.57464">
        <ele>555</ele>
        <time>2017-11-01T20:27:49Z</time>
      </trkpt>
      <trkpt lat="46.01875" lon="4.5747">
        <ele>555</ele>
        <time>2017-11-01T20:29:49Z</time>
      </trkpt>
      <trkpt lat="46.01859" lon="4.57481">
        <ele>553</ele>
        <time>2017-11-01T20:31:49Z</time>
      </trkpt>
      <trkpt lat="46.01839" lon="4.57491">
        <ele>551</ele>
        <time>2017-11-01T20:33:49Z</time>
      </trkpt>
      <trkpt lat="46.01809" lon="4.57506">
        <ele>548</ele>
        <time>2017-11-01T20:35:49Z</time>
      </trkpt>
      <trkpt lat="46.01764" lon="4.57524">
        <ele>545</ele>
        <time>2017-11-01T20:37:49Z</time>
      </trkpt>
      <trkpt lat="46.01746" lon="4.57533">
        <ele>543</ele>
        <time>2017-11-01T20:39:49Z</time>
      </trkpt>
      <trkpt lat="46.01728" lon="4.57545">
        <ele>540</ele>
        <time>2017-11-01T20:41:49Z</time>
      </trkpt>
      <trkpt lat="46.01724" lon="4.57547">
        <ele>540</ele>
        <time>2017-11-01T20:43:49Z</time>
      </trkpt>
      <trkpt lat="46.01714" lon="4.57555">
        <ele>538</ele>
        <time>2017-11-01T20:45:49Z</time>
      </trkpt>
      <trkpt lat="46.01701" lon="4.57567">
        <ele>537</ele>
        <time>2017-11-01T20:47:49Z</time>
      </trkpt>
      <trkpt lat="46.01679" lon="4.57591">
        <ele>536</ele>
        <time>2017-11-01T20:49:49Z</time>
      </trkpt>
      <trkpt lat="46.01626" lon="4.57654">
        <ele>530</ele>
        <time>2017-11-01T20:51:49Z</time>
      </trkpt>
      <trkpt lat="46.0161" lon="4.57676">
        <ele>529</ele>
        <time>2017-11-01T20:53:49Z</time>
      </trkpt>
      <trkpt lat="46.01603" lon="4.57689">
        <ele>528</ele>
        <time>2017-11-01T20:55:49Z</time>
      </trkpt>
      <trkpt lat="46.01589" lon="4.57732">
        <ele>529</ele>
        <time>2017-11-01T20:57:49Z</time>
      </trkpt>
      <trkpt lat="46.01584" lon="4.57744">
        <ele>529</ele>
        <time>2017-11-01T20:59:49Z</time>
      </trkpt>
      <trkpt lat="46.01575" lon="4.57762">
        <ele>528</ele>
        <time>2017-11-01T21:01:49Z</time>
      </trkpt>
      <trkpt lat="46.0156" lon="4.5778">
        <ele>526</ele>
        <time>2017-11-01T21:03:49Z</time>
      </trkpt>
      <trkpt lat="46.01545" lon="4.57797">
        <ele>524</ele>
        <time>2017-11-01T21:05:49Z</time>
      </trkpt>
      <trkpt lat="46.01519" lon="4.57823">
        <ele>520</ele>
        <time>2017-11-01T21:07:49Z</time>
      </trkpt>
      <trkpt lat="46.01503" lon="4.57839">
        <ele>518</ele>
        <time>2017-11-01T21:09:49Z</time>
      </trkpt>
      <trkpt lat="46.01423" lon="4.57919">
        <ele>516</ele>
        <time>2017-11-01T21:11:49Z</time>
      </trkpt>
      <trkpt lat="46.01391" lon="4.57952">
        <ele>513</ele>
        <time>2017-11-01T21:13:49Z</time>
      </trkpt>
      <trkpt lat="46.01366" lon="4.57978">
        <ele>511</ele>
        <time>2017-11-01T21:15:49Z</time>
      </trkpt>
      <trkpt lat="46.01358" lon="4.57989">
        <ele>510</ele>
        <time>2017-11-01T21:17:49Z</time>
      </trkpt>
      <trkpt lat="46.01347" lon="4.58002">
        <ele>508</ele>
        <time>2017-11-01T21:19:49Z</time>
      </trkpt>
      <trkpt lat="46.01337" lon="4.58017">
        <ele>506</ele>
        <time>2017-11-01T21:21:49Z</time>
      </trkpt>
      <trkpt lat="46.01334" lon="4.58021">
        <ele>505</ele>
        <time>2017-11-01T21:23:49Z</time>
      </trkpt>
      <trkpt lat="46.01322" lon="4.58039">
        <ele>502</ele>
        <time>2017-11-01T21:25:49Z</time>
      </trkpt>
      <trkpt lat="46.01319" lon="4.58045">
        <ele>501</ele>
        <time>2017-11-01T21:27:49Z</time>
      </trkpt>
      <trkpt lat="46.01315" lon="4.58056">
        <ele>500</ele>
        <time>2017-11-01T21:29:49Z</time>
      </trkpt>
      <trkpt lat="46.01313" lon="4.58059">
        <ele>500</ele>
        <time>2017-11-01T21:31:49Z</time>
      </trkpt>
      <trkpt lat="46.01311" lon="4.58064">
        <ele>499</ele>
        <time>2017-11-01T21:33:49Z</time>
      </trkpt>
      <trkpt lat="46.01309" lon="4.58072">
        <ele>499</ele>
        <time>2017-11-01T21:35:49Z</time>
      </trkpt>
      <trkpt lat="46.01306" lon="4.58088">
        <ele>499</ele>
        <time>2017-11-01T21:37:49Z</time>
      </trkpt>
      <trkpt lat="46.01305" lon="4.58102">
        <ele>500</ele>
        <time>2017-11-01T21:39:49Z</time>
      </trkpt>
      <trkpt lat="46.01304" lon="4.58112">
        <ele>500</ele>
        <time>2017-11-01T21:41:49Z</time>
      </trkpt>
      <trkpt lat="46.01304" lon="4.58123">
        <ele>500</ele>
        <time>2017-11-01T21:43:49Z</time>
      </trkpt>
      <trkpt lat="46.01305" lon="4.5813">
        <ele>501</ele>
        <time>2017-11-01T21:45:49Z</time>
      </trkpt>
      <trkpt lat="46.01305" lon="4.58131">
        <ele>501</ele>
        <time>2017-11-01T21:47:49Z</time>
      </trkpt>
      <trkpt lat="46.01306" lon="4.58139">
        <ele>502</ele>
        <time>2017-11-01T21:49:49Z</time>
      </trkpt>
      <trkpt lat="46.01309" lon="4.58155">
        <ele>503</ele>
        <time>2017-11-01T21:51:49Z</time>
      </trkpt>
      <trkpt lat="46.01312" lon="4.58171">
        <ele>504</ele>
        <time>2017-11-01T21:53:49Z</time>
      </trkpt>
      <trkpt lat="46.01317" lon="4.58184">
        <ele>503</ele>
        <time>2017-11-01T21:55:49Z</time>
      </trkpt>
      <trkpt lat="46.0132" lon="4.5819">
        <ele>503</ele>
        <time>2017-11-01T21:57:49Z</time>
      </trkpt>
      <trkpt lat="46.01326" lon="4.58199">
        <ele>503</ele>
        <time>2017-11-01T21:59:49Z</time>
      </trkpt>
      <trkpt lat="46.01332" lon="4.58206">
        <ele>504</ele>
        <time>2017-11-01T22:01:49Z</time>
      </trkpt>
      <trkpt lat="46.01338" lon="4.58212">
        <ele>503</ele>
        <time>2017-11-01T22:03:49Z</time>
      </trkpt>
      <trkpt lat="46.01351" lon="4.58217">
        <ele>504</ele>
        <time>2017-11-01T22:05:49Z</time>
      </trkpt>
      <trkpt lat="46.01364" lon="4.58225">
        <ele>504</ele>
        <time>2017-11-01T22:07:49Z</time>
      </trkpt>
      <trkpt lat="46.01398" lon="4.58238">
        <ele>504</ele>
        <time>2017-11-01T22:09:49Z</time>
      </trkpt>
      <trkpt lat="46.01412" lon="4.58241">
        <ele>504</ele>
        <time>2017-11-01T22:11:49Z</time>
      </trkpt>
      <trkpt lat="46.01436" lon="4.58242">
        <ele>505</ele>
        <time>2017-11-01T22:13:49Z</time>
      </trkpt>
      <trkpt lat="46.01452" lon="4.58243">
        <ele>505</ele>
        <time>2017-11-01T22:15:49Z</time>
      </trkpt>
      <trkpt lat="46.01466" lon="4.58246">
        <ele>505</ele>
        <time>2017-11-01T22:17:49Z</time>
      </trkpt>
      <trkpt lat="46.01473" lon="4.58248">
        <ele>505</ele>
        <time>2017-11-01T22:19:49Z</time>
      </trkpt>
      <trkpt lat="46.0149" lon="4.58253">
        <ele>504</ele>
        <time>2017-11-01T22:21:49Z</time>
      </trkpt>
      <trkpt lat="46.01505" lon="4.58256">
        <ele>504</ele>
        <time>2017-11-01T22:23:49Z</time>
      </trkpt>
      <trkpt lat="46.01523" lon="4.58256">
        <ele>505</ele>
        <time>2017-11-01T22:25:49Z</time>
      </trkpt>
      <trkpt lat="46.01539" lon="4.58254">
        <ele>506</ele>
        <time>2017-11-01T22:27:49Z</time>
      </trkpt>
      <trkpt lat="46.01549" lon="4.58254">
        <ele>507</ele>
        <time>2017-11-01T22:29:49Z</time>
      </trkpt>
      <trkpt lat="46.01558" lon="4.58254">
        <ele>508</ele>
        <time>2017-11-01T22:31:49Z</time>
      </trkpt>
      <trkpt lat="46.01565" lon="4.58256">
        <ele>507</ele>
        <time>2017-11-01T22:33:49Z</time>
      </trkpt>
      <trkpt lat="46.01575" lon="4.5826">
        <ele>507</ele>
        <time>2017-11-01T22:35:49Z</time>
      </trkpt>
      <trkpt lat="46.01581" lon="4.58265">
        <ele>505</ele>
        <time>2017-11-01T22:37:49Z</time>
      </trkpt>
      <trkpt lat="46.0159" lon="4.58276">
        <ele>501</ele>
        <time>2017-11-01T22:39:49Z</time>
      </trkpt>
      <trkpt lat="46.01592" lon="4.58278">
        <ele>500</ele>
        <time>2017-11-01T22:41:49Z</time>
      </trkpt>
      <trkpt lat="46.01593" lon="4.58279">
        <ele>500</ele>
        <time>2017-11-01T22:43:49Z</time>
      </trkpt>
      <trkpt lat="46.0161" lon="4.58287">
        <ele>497</ele>
        <time>2017-11-01T22:45:49Z</time>
      </trkpt>
      <trkpt lat="46.0163" lon="4.58292">
        <ele>495</ele>
        <time>2017-11-01T22:47:49Z</time>
      </trkpt>
      <trkpt lat="46.01694" lon="4.58293">
        <ele>493</ele>
        <time>2017-11-01T22:49:49Z</time>
      </trkpt>
      <trkpt lat="46.01712" lon="4.58292">
        <ele>492</ele>
        <time>2017-11-01T22:51:49Z</time>
      </trkpt>
      <trkpt lat="46.01761" lon="4.58281">
        <ele>492</ele>
        <time>2017-11-01T22:53:49Z</time>
      </trkpt>
      <trkpt lat="46.01775" lon="4.5828">
        <ele>491</ele>
        <time>2017-11-01T22:55:49Z</time>
      </trkpt>
      <trkpt lat="46.01796" lon="4.58281">
        <ele>489</ele>
        <time>2017-11-01T22:57:49Z</time>
      </trkpt>
      <trkpt lat="46.01849" lon="4.58294">
        <ele>483</ele>
        <time>2017-11-01T22:59:49Z</time>
      </trkpt>
      <trkpt lat="46.01854" lon="4.58295">
        <ele>483</ele>
        <time>2017-11-01T23:01:49Z</time>
      </trkpt>
      <trkpt lat="46.0188" lon="4.58292">
        <ele>483</ele>
        <time>2017-11-01T23:03:49Z</time>
      </trkpt>
      <trkpt lat="46.01915" lon="4.58286">
        <ele>484</ele>
        <time>2017-11-01T23:05:49Z</time>
      </trkpt>
      <trkpt lat="46.01929" lon="4.58282">
        <ele>485</ele>
        <time>2017-11-01T23:07:49Z</time>
      </trkpt>
      <trkpt lat="46.01976" lon="4.5827">
        <ele>484</ele>
        <time>2017-11-01T23:09:49Z</time>
      </trkpt>
      <trkpt lat="46.01984" lon="4.5827">
        <ele>484</ele>
        <time>2017-11-01T23:11:49Z</time>
      </trkpt>
      <trkpt lat="46.01988" lon="4.5827">
        <ele>484</ele>
        <time>2017-11-01T23:13:49Z</time>
      </trkpt>
      <trkpt lat="46.01991" lon="4.58271">
        <ele>483</ele>
        <time>2017-11-01T23:15:49Z</time>
      </trkpt>
      <trkpt lat="46.01995" lon="4.58273">
        <ele>483</ele>
        <time>2017-11-01T23:17:49Z</time>
      </trkpt>
      <trkpt lat="46.01997" lon="4.58275">
        <ele>483</ele>
        <time>2017-11-01T23:19:49Z</time>
      </trkpt>
      <trkpt lat="46.01999" lon="4.58277">
        <ele>483</ele>
        <time>2017-11-01T23:21:49Z</time>
      </trkpt>
      <trkpt lat="46.02" lon="4.58279">
        <ele>483</ele>
        <time>2017-11-01T23:23:49Z</time>
      </trkpt>
      <trkpt lat="46.02002" lon="4.58283">
        <ele>483</ele>
        <time>2017-11-01T23:25:49Z</time>
      </trkpt>
      <trkpt lat="46.02002" lon="4.58298">
        <ele>483</ele>
        <time>2017-11-01T23:27:49Z</time>
      </trkpt>
      <trkpt lat="46.02002" lon="4.583">
        <ele>483</ele>
        <time>2017-11-01T23:29:49Z</time>
      </trkpt>
      <trkpt lat="46.02002" lon="4.58302">
        <ele>483</ele>
        <time>2017-11-01T23:31:49Z</time>
      </trkpt>
      <trkpt lat="46.02" lon="4.5831">
        <ele>483</ele>
        <time>2017-11-01T23:33:49Z</time>
      </trkpt>
      <trkpt lat="46.01999" lon="4.58311">
        <ele>483</ele>
        <time>2017-11-01T23:35:49Z</time>
      </trkpt>
      <trkpt lat="46.01999" lon="4.58312">
        <ele>483</ele>
        <time>2017-11-01T23:37:49Z</time>
      </trkpt>
      <trkpt lat="46.01986" lon="4.58328">
        <ele>482</ele>
        <time>2017-11-01T23:39:49Z</time>
      </trkpt>
      <trkpt lat="46.01957" lon="4.58355">
        <ele>480</ele>
        <time>2017-11-01T23:41:49Z</time>
      </trkpt>
      <trkpt lat="46.0193" lon="4.58376">
        <ele>477</ele>
        <time>2017-11-01T23:43:49Z</time>
      </trkpt>
      <trkpt lat="46.01902" lon="4.58399">
        <ele>474</ele>
        <time>2017-11-01T23:45:49Z</time>
      </trkpt>
      <trkpt lat="46.0183" lon="4.58457">
        <ele>469</ele>
        <time>2017-11-01T23:47:49Z</time>
      </trkpt>
      <trkpt lat="46.01817" lon="4.58474">
        <ele>470</ele>
        <time>2017-11-01T23:49:49Z</time>
      </trkpt>
      <trkpt lat="46.01801" lon="4.58498">
        <ele>469</ele>
        <time>2017-11-01T23:51:49Z</time>
      </trkpt>
      <trkpt lat="46.01779" lon="4.58522">
        <ele>469</ele>
        <time>2017-11-01T23:53:49Z</time>
      </trkpt>
      <trkpt lat="46.01761" lon="4.58538">
        <ele>468</ele>
        <time>2017-11-01T23:55:49Z</time>
      </trkpt>
      <trkpt lat="46.01729" lon="4.58552">
        <ele>464</ele>
        <time>2017-11-01T23:57:49Z</time>
      </trkpt>
      <trkpt lat="46.01672" lon="4.58567">
        <ele>456</ele>
        <time>2017-11-01T23:59:49Z</time>
      </trkpt>
      <trkpt lat="46.01655" lon="4.58571">
        <ele>455</ele>
        <time>2017-11-02T00:01:49Z</time>
      </trkpt>
      <trkpt lat="46.01544" lon="4.58602">
        <ele>446</ele>
        <time>2017-11-02T00:03:49Z</time>
      </trkpt>
      <trkpt lat="46.01524" lon="4.58612">
        <ele>445</ele>
        <time>2017-11-02T00:05:49Z</time>
      </trkpt>
      <trkpt lat="46.01484" lon="4.58642">
        <ele>446</ele>
        <time>2017-11-02T00:07:49Z</time>
      </trkpt>
      <trkpt lat="46.0146" lon="4.5865">
        <ele>445</ele>
        <time>2017-11-02T00:09:49Z</time>
      </trkpt>
      <trkpt lat="46.01448" lon="4.58652">
        <ele>444</ele>
        <time>2017-11-02T00:11:49Z</time>
      </trkpt>
      <trkpt lat="46.01434" lon="4.58654">
        <ele>443</ele>
        <time>2017-11-02T00:13:49Z</time>
      </trkpt>
      <trkpt lat="46.01402" lon="4.58648">
        <ele>441</ele>
        <time>2017-11-02T00:15:49Z</time>
      </trkpt>
      <trkpt lat="46.01397" lon="4.58646">
        <ele>442</ele>
        <time>2017-11-02T00:17:49Z</time>
      </trkpt>
      <trkpt lat="46.01387" lon="4.58641">
        <ele>442</ele>
        <time>2017-11-02T00:19:49Z</time>
      </trkpt>
      <trkpt lat="46.01386" lon="4.5864">
        <ele>442</ele>
        <time>2017-11-02T00:21:49Z</time>
      </trkpt>
      <trkpt lat="46.01373" lon="4.58622">
        <ele>440</ele>
        <time>2017-11-02T00:23:49Z</time>
      </trkpt>
      <trkpt lat="46.01361" lon="4.58599">
        <ele>437</ele>
        <time>2017-11-02T00:25:49Z</time>
      </trkpt>
      <trkpt lat="46.01344" lon="4.58578">
        <ele>435</ele>
        <time>2017-11-02T00:27:49Z</time>
      </trkpt>
      <trkpt lat="46.01322" lon="4.58565">
        <ele>435</ele>
        <time>2017-11-02T00:29:49Z</time>
      </trkpt>
      <trkpt lat="46.01305" lon="4.58561">
        <ele>435</ele>
        <time>2017-11-02T00:31:49Z</time>
      </trkpt>
      <trkpt lat="46.0128" lon="4.58561">
        <ele>436</ele>
        <time>2017-11-02T00:33:49Z</time>
      </trkpt>
      <trkpt lat="46.01257" lon="4.58565">
        <ele>437</ele>
        <time>2017-11-02T00:35:49Z</time>
      </trkpt>
      <trkpt lat="46.0123" lon="4.58567">
        <ele>437</ele>
        <time>2017-11-02T00:37:49Z</time>
      </trkpt>
      <trkpt lat="46.0121" lon="4.58564">
        <ele>436</ele>
        <time>2017-11-02T00:39:49Z</time>
      </trkpt>
      <trkpt lat="46.01147" lon="4.58543">
        <ele>428</ele>
        <time>2017-11-02T00:41:49Z</time>
      </trkpt>
      <trkpt lat="46.01122" lon="4.58539">
        <ele>424</ele>
        <time>2017-11-02T00:43:49Z</time>
      </trkpt>
      <trkpt lat="46.0112" lon="4.58539">
        <ele>424</ele>
        <time>2017-11-02T00:45:49Z</time>
      </trkpt>
      <trkpt lat="46.011" lon="4.58546">
        <ele>423</ele>
        <time>2017-11-02T00:47:49Z</time>
      </trkpt>
      <trkpt lat="46.0107" lon="4.58559">
        <ele>421</ele>
        <time>2017-11-02T00:49:49Z</time>
      </trkpt>
      <trkpt lat="46.01032" lon="4.58588">
        <ele>418</ele>
        <time>2017-11-02T00:51:49Z</time>
      </trkpt>
      <trkpt lat="46.00971" lon="4.58639">
        <ele>414</ele>
        <time>2017-11-02T00:53:49Z</time>
      </trkpt>
      <trkpt lat="46.00949" lon="4.58662">
        <ele>412</ele>
        <time>2017-11-02T00:55:49Z</time>
      </trkpt>
      <trkpt lat="46.0093" lon="4.58696">
        <ele>412</ele>
        <time>2017-11-02T00:57:49Z</time>
      </trkpt>
      <trkpt lat="46.00901" lon="4.58736">
        <ele>409</ele>
        <time>2017-11-02T00:59:49Z</time>
      </trkpt>
      <trkpt lat="46.00883" lon="4.58756">
        <ele>406</ele>
        <time>2017-11-02T01:01:49Z</time>
      </trkpt>
      <trkpt lat="46.00865" lon="4.5878">
        <ele>405</ele>
        <time>2017-11-02T01:03:49Z</time>
      </trkpt>
      <trkpt lat="46.00844" lon="4.58815">
        <ele>404</ele>
        <time>2017-11-02T01:05:49Z</time>
      </trkpt>
      <trkpt lat="46.0083" lon="4.5884">
        <ele>404</ele>
        <time>2017-11-02T01:07:49Z</time>
      </trkpt>
      <trkpt lat="46.00816" lon="4.58857">
        <ele>404</ele>
        <time>2017-11-02T01:09:49Z</time>
      </trkpt>
      <trkpt lat="46.00807" lon="4.58868">
        <ele>404</ele>
        <time>2017-11-02T01:11:49Z</time>
      </trkpt>
      <trkpt lat="46.00761" lon="4.58918">
        <ele>397</ele>
        <time>2017-11-02T01:13:49Z</time>
      </trkpt>
      <trkpt lat="46.00735" lon="4.58946">
        <ele>397</ele>
        <time>2017-11-02T01:15:49Z</time>
      </trkpt>
      <trkpt lat="46.0068" lon="4.58996">
        <ele>389</ele>
        <time>2017-11-02T01:17:49Z</time>
      </trkpt>
      <trkpt lat="46.00646" lon="4.59019">
        <ele>385</ele>
        <time>2017-11-02T01:19:49Z</time>
      </trkpt>
      <trkpt lat="46.00625" lon="4.59031">
        <ele>383</ele>
        <time>2017-11-02T01:21:49Z</time>
      </trkpt>
      <trkpt lat="46.00619" lon="4.59037">
        <ele>382</ele>
        <time>2017-11-02T01:23:49Z</time>
      </trkpt>
      <trkpt lat="46.00614" lon="4.59043">
        <ele>381</ele>
        <time>2017-11-02T01:25:49Z</time>
      </trkpt>
      <trkpt lat="46.00609" lon="4.5905">
        <ele>381</ele>
        <time>2017-11-02T01:27:49Z</time>
      </trkpt>
      <trkpt lat="46.00605" lon="4.59063">
        <ele>380</ele>
        <time>2017-11-02T01:29:49Z</time>
      </trkpt>
      <trkpt lat="46.00604" lon="4.5907">
        <ele>380</ele>
        <time>2017-11-02T01:31:49Z</time>
      </trkpt>
      <trkpt lat="46.00602" lon="4.59077">
        <ele>380</ele>
        <time>2017-11-02T01:33:49Z</time>
      </trkpt>
      <trkpt lat="46.00602" lon="4.59091">
        <ele>380</ele>
        <time>2017-11-02T01:35:49Z</time>
      </trkpt>
      <trkpt lat="46.00603" lon="4.59106">
        <ele>380</ele>
        <time>2017-11-02T01:37:49Z</time>
      </trkpt>
      <trkpt lat="46.00604" lon="4.59121">
        <ele>380</ele>
        <time>2017-11-02T01:39:49Z</time>
      </trkpt>
      <trkpt lat="46.00606" lon="4.59138">
        <ele>381</ele>
        <time>2017-11-02T01:41:49Z</time>
      </trkpt>
      <trkpt lat="46.00606" lon="4.59152">
        <ele>381</ele>
        <time>2017-11-02T01:43:49Z</time>
      </trkpt>
      <trkpt lat="46.00603" lon="4.59172">
        <ele>379</ele>
        <time>2017-11-02T01:45:49Z</time>
      </trkpt>
      <trkpt lat="46.00596" lon="4.59199">
        <ele>376</ele>
        <time>2017-11-02T01:47:49Z</time>
      </trkpt>
      <trkpt lat="46.00588" lon="4.59229">
        <ele>373</ele>
        <time>2017-11-02T01:49:49Z</time>
      </trkpt>
      <trkpt lat="46.00583" lon="4.59255">
        <ele>371</ele>
        <time>2017-11-02T01:51:49Z</time>
      </trkpt>
      <trkpt lat="46.00582" lon="4.5927">
        <ele>370</ele>
        <time>2017-11-02T01:53:49Z</time>
      </trkpt>
      <trkpt lat="46.00582" lon="4.59283">
        <ele>369</ele>
        <time>2017-11-02T01:55:49Z</time>
      </trkpt>
      <trkpt lat="46.00585" lon="4.59298">
        <ele>369</ele>
        <time>2017-11-02T01:57:49Z</time>
      </trkpt>
      <trkpt lat="46.00591" lon="4.59314">
        <ele>370</ele>
        <time>2017-11-02T01:59:49Z</time>
      </trkpt>
      <trkpt lat="46.00597" lon="4.59327">
        <ele>371</ele>
        <time>2017-11-02T02:01:49Z</time>
      </trkpt>
      <trkpt lat="46.006" lon="4.59338">
        <ele>371</ele>
        <time>2017-11-02T02:03:49Z</time>
      </trkpt>
      <trkpt lat="46.00608" lon="4.59364">
        <ele>372</ele>
        <time>2017-11-02T02:05:49Z</time>
      </trkpt>
      <trkpt lat="46.00613" lon="4.5939">
        <ele>372</ele>
        <time>2017-11-02T02:07:49Z</time>
      </trkpt>
      <trkpt lat="46.00614" lon="4.59412">
        <ele>371</ele>
        <time>2017-11-02T02:09:49Z</time>
      </trkpt>
      <trkpt lat="46.00617" lon="4.59451">
        <ele>372</ele>
        <time>2017-11-02T02:11:49Z</time>
      </trkpt>
      <trkpt lat="46.0062" lon="4.59487">
        <ele>372</ele>
        <time>2017-11-02T02:13:49Z</time>
      </trkpt>
      <trkpt lat="46.00621" lon="4.59519">
        <ele>372</ele>
        <time>2017-11-02T02:15:49Z</time>
      </trkpt>
      <trkpt lat="46.00622" lon="4.59557">
        <ele>370</ele>
        <time>2017-11-02T02:17:49Z</time>
      </trkpt>
      <trkpt lat="46.00619" lon="4.59647">
        <ele>364</ele>
        <time>2017-11-02T02:19:49Z</time>
      </trkpt>
      <trkpt lat="46.00615" lon="4.59757">
        <ele>352</ele>
        <time>2017-11-02T02:21:49Z</time>
      </trkpt>
      <trkpt lat="46.00614" lon="4.5979">
        <ele>350</ele>
        <time>2017-11-02T02:23:49Z</time>
      </trkpt>
      <trkpt lat="46.00614" lon="4.59794">
        <ele>350</ele>
        <time>2017-11-02T02:25:49Z</time>
      </trkpt>
      <trkpt lat="46.00613" lon="4.59813">
        <ele>348</ele>
        <time>2017-11-02T02:27:49Z</time>
      </trkpt>
      <trkpt lat="46.00612" lon="4.59853">
        <ele>347</ele>
        <time>2017-11-02T02:29:49Z</time>
      </trkpt>
      <trkpt lat="46.00612" lon="4.59857">
        <ele>347</ele>
        <time>2017-11-02T02:31:49Z</time>
      </trkpt>
      <trkpt lat="46.00612" lon="4.59861">
        <ele>347</ele>
        <time>2017-11-02T02:33:49Z</time>
      </trkpt>
      <trkpt lat="46.00611" lon="4.59873">
        <ele>347</ele>
        <time>2017-11-02T02:35:49Z</time>
      </trkpt>
      <trkpt lat="46.00611" lon="4.59899">
        <ele>347</ele>
        <time>2017-11-02T02:37:49Z</time>
      </trkpt>
      <trkpt lat="46.00608" lon="4.59922">
        <ele>346</ele>
        <time>2017-11-02T02:39:49Z</time>
      </trkpt>
      <trkpt lat="46.00605" lon="4.59948">
        <ele>344</ele>
        <time>2017-11-02T02:41:49Z</time>
      </trkpt>
      <trkpt lat="46.00603" lon="4.59969">
        <ele>343</ele>
        <time>2017-11-02T02:43:49Z</time>
      </trkpt>
      <trkpt lat="46.00602" lon="4.59975">
        <ele>342</ele>
        <time>2017-11-02T02:45:49Z</time>
      </trkpt>
      <trkpt lat="46.00601" lon="4.59981">
        <ele>342</ele>
        <time>2017-11-02T02:47:49Z</time>
      </trkpt>
      <trkpt lat="46.00602" lon="4.59987">
        <ele>342</ele>
        <time>2017-11-02T02:49:49Z</time>
      </trkpt>
      <trkpt lat="46.00603" lon="4.59991">
        <ele>342</ele>
        <time>2017-11-02T02:51:49Z</time>
      </trkpt>
      <trkpt lat="46.00606" lon="4.60008">
        <ele>342</ele>
        <time>2017-11-02T02:53:49Z</time>
      </trkpt>
      <trkpt lat="46.00608" lon="4.60018">
        <ele>342</ele>
        <time>2017-11-02T02:55:49Z</time>
      </trkpt>
      <trkpt lat="46.00608" lon="4.60044">
        <ele>341</ele>
        <time>2017-11-02T02:57:49Z</time>
      </trkpt>
      <trkpt lat="46.00606" lon="4.60075">
        <ele>340</ele>
        <time>2017-11-02T02:59:49Z</time>
      </trkpt>
      <trkpt lat="46.00604" lon="4.60135">
        <ele>341</ele>
        <time>2017-11-02T03:01:49Z</time>
      </trkpt>
      <trkpt lat="46.00602" lon="4.60147">
        <ele>341</ele>
        <time>2017-11-02T03:03:49Z</time>
      </trkpt>
      <trkpt lat="46.00601" lon="4.60155">
        <ele>341</ele>
        <time>2017-11-02T03:05:49Z</time>
      </trkpt>
      <trkpt lat="46.00599" lon="4.60168">
        <ele>340</ele>
        <time>2017-11-02T03:07:49Z</time>
      </trkpt>
      <trkpt lat="46.00592" lon="4.60193">
        <ele>339</ele>
        <time>2017-11-02T03:09:49Z</time>
      </trkpt>
      <trkpt lat="46.00588" lon="4.60209">
        <ele>338</ele>
        <time>2017-11-02T03:11:49Z</time>
      </trkpt>
      <trkpt lat="46.00576" lon="4.60249">
        <ele>337</ele>
        <time>2017-11-02T03:13:49Z</time>
      </trkpt>
      <trkpt lat="46.0056" lon="4.60293">
        <ele>336</ele>
        <time>2017-11-02T03:15:49Z</time>
      </trkpt>
      <trkpt lat="46.00556" lon="4.60305">
        <ele>336</ele>
        <time>2017-11-02T03:17:49Z</time>
      </trkpt>
      <trkpt lat="46.00514" lon="4.6043">
        <ele>336</ele>
        <time>2017-11-02T03:19:49Z</time>
      </trkpt>
      <trkpt lat="46.0049" lon="4.60498">
        <ele>337</ele>
        <time>2017-11-02T03:21:49Z</time>
      </trkpt>
      <trkpt lat="46.00473" lon="4.60547">
        <ele>339</ele>
        <time>2017-11-02T03:23:49Z</time>
      </trkpt>
      <trkpt lat="46.00431" lon="4.60656">
        <ele>332</ele>
        <time>2017-11-02T03:25:49Z</time>
      </trkpt>
      <trkpt lat="46.00428" lon="4.6066">
        <ele>331</ele>
        <time>2017-11-02T03:27:49Z</time>
      </trkpt>
      <trkpt lat="46.0042" lon="4.60672">
        <ele>329</ele>
        <time>2017-11-02T03:29:49Z</time>
      </trkpt>
      <trkpt lat="46.00414" lon="4.60678">
        <ele>328</ele>
        <time>2017-11-02T03:31:49Z</time>
      </trkpt>
      <trkpt lat="46.00408" lon="4.60685">
        <ele>328</ele>
        <time>2017-11-02T03:33:49Z</time>
      </trkpt>
      <trkpt lat="46.00404" lon="4.60692">
        <ele>327</ele>
        <time>2017-11-02T03:35:49Z</time>
      </trkpt>
      <trkpt lat="46.0039" lon="4.60713">
        <ele>327</ele>
        <time>2017-11-02T03:37:49Z</time>
      </trkpt>
      <trkpt lat="46.00381" lon="4.60738">
        <ele>327</ele>
        <time>2017-11-02T03:39:49Z</time>
      </trkpt>
      <trkpt lat="46.00344" lon="4.60856">
        <ele>327</ele>
        <time>2017-11-02T03:41:49Z</time>
      </trkpt>
      <trkpt lat="46.00333" lon="4.60894">
        <ele>326</ele>
        <time>2017-11-02T03:43:49Z</time>
      </trkpt>
      <trkpt lat="46.00309" lon="4.6097">
        <ele>327</ele>
        <time>2017-11-02T03:45:49Z</time>
      </trkpt>
      <trkpt lat="46.00291" lon="4.61027">
        <ele>328</ele>
        <time>2017-11-02T03:47:49Z</time>
      </trkpt>
      <trkpt lat="46.00274" lon="4.61088">
        <ele>328</ele>
        <time>2017-11-02T03:49:49Z</time>
      </trkpt>
      <trkpt lat="46.00273" lon="4.61091">
        <ele>328</ele>
        <time>2017-11-02T03:51:49Z</time>
      </trkpt>
      <trkpt lat="46.00242" lon="4.61188">
        <ele>326</ele>
        <time>2017-11-02T03:53:49Z</time>
      </trkpt>
      <trkpt lat="46.00236" lon="4.6121">
        <ele>326</ele>
        <time>2017-11-02T03:55:49Z</time>
      </trkpt>
      <trkpt lat="46.00218" lon="4.61269">
        <ele>326</ele>
        <time>2017-11-02T03:57:49Z</time>
      </trkpt>
      <trkpt lat="46.00195" lon="4.61342">
        <ele>327</ele>
        <time>2017-11-02T03:59:49Z</time>
      </trkpt>
      <trkpt lat="46.00191" lon="4.61357">
        <ele>327</ele>
        <time>2017-11-02T04:01:49Z</time>
      </trkpt>
      <trkpt lat="46.00155" lon="4.61474">
        <ele>327</ele>
        <time>2017-11-02T04:03:49Z</time>
      </trkpt>
      <trkpt lat="46.00147" lon="4.61498">
        <ele>327</ele>
        <time>2017-11-02T04:05:49Z</time>
      </trkpt>
      <trkpt lat="46.00133" lon="4.61534">
        <ele>327</ele>
        <time>2017-11-02T04:07:49Z</time>
      </trkpt>
      <trkpt lat="46.00119" lon="4.61562">
        <ele>328</ele>
        <time>2017-11-02T04:09:49Z</time>
      </trkpt>
      <trkpt lat="46.00115" lon="4.61572">
        <ele>328</ele>
        <time>2017-11-02T04:11:49Z</time>
      </trkpt>
      <trkpt lat="46.00111" lon="4.61583">
        <ele>328</ele>
        <time>2017-11-02T04:13:49Z</time>
      </trkpt>
      <trkpt lat="46.00105" lon="4.616">
        <ele>328</ele>
        <time>2017-11-02T04:15:49Z</time>
      </trkpt>
      <trkpt lat="46.001" lon="4.61621">
        <ele>328</ele>
        <time>2017-11-02T04:17:49Z</time>
      </trkpt>
      <trkpt lat="46.00092" lon="4.61658">
        <ele>328</ele>
        <time>2017-11-02T04:19:49Z</time>
      </trkpt>
      <trkpt lat="46.00084" lon="4.61706">
        <ele>328</ele>
        <time>2017-11-02T04:21:49Z</time>
      </trkpt>
      <trkpt lat="46.00076" lon="4.61824">
        <ele>328</ele>
        <time>2017-11-02T04:23:49Z</time>
      </trkpt>
      <trkpt lat="46.00062" lon="4.61978">
        <ele>329</ele>
        <time>2017-11-02T04:25:49Z</time>
      </trkpt>
      <trkpt lat="46.00056" lon="4.62041">
        <ele>330</ele>
        <time>2017-11-02T04:27:49Z</time>
      </trkpt>
      <trkpt lat="46.00054" lon="4.62059">
        <ele>330</ele>
        <time>2017-11-02T04:29:49Z</time>
      </trkpt>
      <trkpt lat="46.00051" lon="4.62074">
        <ele>330</ele>
        <time>2017-11-02T04:31:49Z</time>
      </trkpt>
      <trkpt lat="46.00045" lon="4.62096">
        <ele>330</ele>
        <time>2017-11-02T04:33:49Z</time>
      </trkpt>
      <trkpt lat="46.0004" lon="4.62114">
        <ele>329</ele>
        <time>2017-11-02T04:35:49Z</time>
      </trkpt>
      <trkpt lat="46.00034" lon="4.6213">
        <ele>328</ele>
        <time>2017-11-02T04:37:49Z</time>
      </trkpt>
      <trkpt lat="46.00013" lon="4.62174">
        <ele>326</ele>
        <time>2017-11-02T04:39:49Z</time>
      </trkpt>
      <trkpt lat="46.00009" lon="4.62181">
        <ele>326</ele>
        <time>2017-11-02T04:41:49Z</time>
      </trkpt>
      <trkpt lat="46.00002" lon="4.62192">
        <ele>325</ele>
        <time>2017-11-02T04:43:49Z</time>
      </trkpt>
      <trkpt lat="45.99992" lon="4.62203">
        <ele>325</ele>
        <time>2017-11-02T04:45:49Z</time>
      </trkpt>
      <trkpt lat="45.99969" lon="4.62228">
        <ele>324</ele>
        <time>2017-11-02T04:47:49Z</time>
      </trkpt>
      <trkpt lat="45.99955" lon="4.62244">
        <ele>323</ele>
        <time>2017-11-02T04:49:49Z</time>
      </trkpt>
      <trkpt lat="45.9995" lon="4.62252">
        <ele>323</ele>
        <time>2017-11-02T04:51:49Z</time>
      </trkpt>
      <trkpt lat="45.99946" lon="4.62259">
        <ele>323</ele>
        <time>2017-11-02T04:53:49Z</time>
      </trkpt>
      <trkpt lat="45.99942" lon="4.62269">
        <ele>324</ele>
        <time>2017-11-02T04:55:49Z</time>
      </trkpt>
      <trkpt lat="45.99938" lon="4.62281">
        <ele>324</ele>
        <time>2017-11-02T04:57:49Z</time>
      </trkpt>
      <trkpt lat="45.99936" lon="4.62289">
        <ele>324</ele>
        <time>2017-11-02T04:59:49Z</time>
      </trkpt>
      <trkpt lat="45.99934" lon="4.62299">
        <ele>324</ele>
        <time>2017-11-02T05:01:49Z</time>
      </trkpt>
      <trkpt lat="45.99933" lon="4.62308">
        <ele>324</ele>
        <time>2017-11-02T05:03:49Z</time>
      </trkpt>
      <trkpt lat="45.99932" lon="4.62318">
        <ele>324</ele>
        <time>2017-11-02T05:05:49Z</time>
      </trkpt>
      <trkpt lat="45.99931" lon="4.62352">
        <ele>324</ele>
        <time>2017-11-02T05:07:49Z</time>
      </trkpt>
      <trkpt lat="45.99931" lon="4.62377">
        <ele>325</ele>
        <time>2017-11-02T05:09:49Z</time>
      </trkpt>
      <trkpt lat="45.9993" lon="4.62424">
        <ele>326</ele>
        <time>2017-11-02T05:11:49Z</time>
      </trkpt>
      <trkpt lat="45.99929" lon="4.62453">
        <ele>326</ele>
        <time>2017-11-02T05:13:49Z</time>
      </trkpt>
      <trkpt lat="45.99928" lon="4.6247">
        <ele>326</ele>
        <time>2017-11-02T05:15:49Z</time>
      </trkpt>
      <trkpt lat="45.99928" lon="4.62505">
        <ele>327</ele>
        <time>2017-11-02T05:17:49Z</time>
      </trkpt>
      <trkpt lat="45.99926" lon="4.62527">
        <ele>327</ele>
        <time>2017-11-02T05:19:49Z</time>
      </trkpt>
      <trkpt lat="45.99924" lon="4.62567">
        <ele>328</ele>
        <time>2017-11-02T05:21:49Z</time>
      </trkpt>
      <trkpt lat="45.99923" lon="4.62573">
        <ele>328</ele>
        <time>2017-11-02T05:23:49Z</time>
      </trkpt>
      <trkpt lat="45.99922" lon="4.62579">
        <ele>328</ele>
        <time>2017-11-02T05:25:49Z</time>
      </trkpt>
      <trkpt lat="45.9992" lon="4.62585">
        <ele>328</ele>
        <time>2017-11-02T05:27:49Z</time>
      </trkpt>
      <trkpt lat="45.99918" lon="4.62591">
        <ele>328</ele>
        <time>2017-11-02T05:29:49Z</time>
      </trkpt>
      <trkpt lat="45.99915" lon="4.62598">
        <ele>328</ele>
        <time>2017-11-02T05:31:49Z</time>
      </trkpt>
      <trkpt lat="45.99897" lon="4.62633">
        <ele>330</ele>
        <time>2017-11-02T05:33:49Z</time>
      </trkpt>
      <trkpt lat="45.99896" lon="4.62633">
        <ele>330</ele>
        <time>2017-11-02T05:35:49Z</time>
      </trkpt>
      <trkpt lat="45.99896" lon="4.62634">
        <ele>330</ele>
        <time>2017-11-02T05:37:49Z</time>
      </trkpt>
      <trkpt lat="45.99895" lon="4.62634">
        <ele>330</ele>
        <time>2017-11-02T05:39:49Z</time>
      </trkpt>
      <trkpt lat="45.99894" lon="4.62634">
        <ele>330</ele>
        <time>2017-11-02T05:41:49Z</time>
      </trkpt>
      <trkpt lat="45.99894" lon="4.62635">
        <ele>330</ele>
        <time>2017-11-02T05:43:49Z</time>
      </trkpt>
      <trkpt lat="45.99893" lon="4.62635">
        <ele>330</ele>
        <time>2017-11-02T05:45:49Z</time>
      </trkpt>
      <trkpt lat="45.99892" lon="4.62636">
        <ele>330</ele>
        <time>2017-11-02T05:47:49Z</time>
      </trkpt>
      <trkpt lat="45.99891" lon="4.62637">
        <ele>330</ele>
        <time>2017-11-02T05:49:49Z</time>
      </trkpt>
      <trkpt lat="45.99891" lon="4.62638">
        <ele>330</ele>
        <time>2017-11-02T05:51:49Z</time>
      </trkpt>
      <trkpt lat="45.99891" lon="4.62639">
        <ele>330</ele>
        <time>2017-11-02T05:53:49Z</time>
      </trkpt>
      <trkpt lat="45.9989" lon="4.62639">
        <ele>330</ele>
        <time>2017-11-02T05:55:49Z</time>
      </trkpt>
      <trkpt lat="45.9989" lon="4.6264">
        <ele>330</ele>
        <time>2017-11-02T05:57:49Z</time>
      </trkpt>
      <trkpt lat="45.9989" lon="4.62641">
        <ele>330</ele>
        <time>2017-11-02T05:59:49Z</time>
      </trkpt>
      <trkpt lat="45.9989" lon="4.62642">
        <ele>330</ele>
        <time>2017-11-02T06:01:49Z</time>
      </trkpt>
      <trkpt lat="45.99889" lon="4.62642">
        <ele>330</ele>
        <time>2017-11-02T06:03:49Z</time>
      </trkpt>
      <trkpt lat="45.99889" lon="4.62643">
        <ele>330</ele>
        <time>2017-11-02T06:05:49Z</time>
      </trkpt>
      <trkpt lat="45.99889" lon="4.62644">
        <ele>330</ele>
        <time>2017-11-02T06:07:49Z</time>
      </trkpt>
      <trkpt lat="45.99889" lon="4.62645">
        <ele>330</ele>
        <time>2017-11-02T06:09:49Z</time>
      </trkpt>
      <trkpt lat="45.99889" lon="4.62646">
        <ele>330</ele>
        <time>2017-11-02T06:11:49Z</time>
      </trkpt>
      <trkpt lat="45.99889" lon="4.62647">
        <ele>330</ele>
        <time>2017-11-02T06:13:49Z</time>
      </trkpt>
      <trkpt lat="45.9989" lon="4.62647">
        <ele>330</ele>
        <time>2017-11-02T06:15:49Z</time>
      </trkpt>
      <trkpt lat="45.9989" lon="4.62648">
        <ele>330</ele>
        <time>2017-11-02T06:17:49Z</time>
      </trkpt>
      <trkpt lat="45.9989" lon="4.62649">
        <ele>330</ele>
        <time>2017-11-02T06:19:49Z</time>
      </trkpt>
      <trkpt lat="45.99878" lon="4.62707">
        <ele>328</ele>
        <time>2017-11-02T06:21:49Z</time>
      </trkpt>
      <trkpt lat="45.99875" lon="4.62725">
        <ele>327</ele>
        <time>2017-11-02T06:23:49Z</time>
      </trkpt>
      <trkpt lat="45.99874" lon="4.62734">
        <ele>327</ele>
        <time>2017-11-02T06:25:49Z</time>
      </trkpt>
      <trkpt lat="45.99874" lon="4.6274">
        <ele>326</ele>
        <time>2017-11-02T06:27:49Z</time>
      </trkpt>
      <trkpt lat="45.99875" lon="4.62768">
        <ele>325</ele>
        <time>2017-11-02T06:29:49Z</time>
      </trkpt>
      <trkpt lat="45.99876" lon="4.62776">
        <ele>325</ele>
        <time>2017-11-02T06:31:49Z</time>
      </trkpt>
      <trkpt lat="45.99877" lon="4.6279">
        <ele>325</ele>
        <time>2017-11-02T06:33:49Z</time>
      </trkpt>
      <trkpt lat="45.99877" lon="4.62799">
        <ele>324</ele>
        <time>2017-11-02T06:35:49Z</time>
      </trkpt>
      <trkpt lat="45.99878" lon="4.6281">
        <ele>324</ele>
        <time>2017-11-02T06:37:49Z</time>
      </trkpt>
      <trkpt lat="45.99879" lon="4.6283">
        <ele>323</ele>
        <time>2017-11-02T06:39:49Z</time>
      </trkpt>
      <trkpt lat="45.9988" lon="4.62846">
        <ele>323</ele>
        <time>2017-11-02T06:41:49Z</time>
      </trkpt>
      <trkpt lat="45.9988" lon="4.62864">
        <ele>322</ele>
        <time>2017-11-02T06:43:49Z</time>
      </trkpt>
      <trkpt lat="45.9988" lon="4.62879">
        <ele>322</ele>
        <time>2017-11-02T06:45:49Z</time>
      </trkpt>
      <trkpt lat="45.9988" lon="4.62887">
        <ele>322</ele>
        <time>2017-11-02T06:47:49Z</time>
      </trkpt>
      <trkpt lat="45.99879" lon="4.62895">
        <ele>322</ele>
        <time>2017-11-02T06:49:49Z</time>
      </trkpt>
      <trkpt lat="45.99879" lon="4.62904">
        <ele>321</ele>
        <time>2017-11-02T06:51:49Z</time>
      </trkpt>
      <trkpt lat="45.99878" lon="4.62917">
        <ele>321</ele>
        <time>2017-11-02T06:53:49Z</time>
      </trkpt>
      <trkpt lat="45.99877" lon="4.62926">
        <ele>321</ele>
        <time>2017-11-02T06:55:49Z</time>
      </trkpt>
      <trkpt lat="45.99875" lon="4.62936">
        <ele>321</ele>
        <time>2017-11-02T06:57:49Z</time>
      </trkpt>
      <trkpt lat="45.99874" lon="4.62947">
        <ele>320</ele>
        <time>2017-11-02T06:59:49Z</time>
      </trkpt>
      <trkpt lat="45.99872" lon="4.62956">
        <ele>320</ele>
        <time>2017-11-02T07:01:49Z</time>
      </trkpt>
      <trkpt lat="45.99869" lon="4.62966">
        <ele>320</ele>
        <time>2017-11-02T07:03:49Z</time>
      </trkpt>
      <trkpt lat="45.99866" lon="4.62977">
        <ele>319</ele>
        <time>2017-11-02T07:05:49Z</time>
      </trkpt>
      <trkpt lat="45.99862" lon="4.6299">
        <ele>319</ele>
        <time>2017-11-02T07:07:49Z</time>
      </trkpt>
      <trkpt lat="45.99859" lon="4.63">
        <ele>319</ele>
        <time>2017-11-02T07:09:49Z</time>
      </trkpt>
      <trkpt lat="45.99856" lon="4.63013">
        <ele>319</ele>
        <time>2017-11-02T07:11:49Z</time>
      </trkpt>
      <trkpt lat="45.99855" lon="4.63019">
        <ele>319</ele>
        <time>2017-11-02T07:13:49Z</time>
      </trkpt>
      <trkpt lat="45.99854" lon="4.63027">
        <ele>319</ele>
        <time>2017-11-02T07:15:49Z</time>
      </trkpt>
      <trkpt lat="45.99853" lon="4.63034">
        <ele>318</ele>
        <time>2017-11-02T07:17:49Z</time>
      </trkpt>
      <trkpt lat="45.99852" lon="4.63041">
        <ele>318</ele>
        <time>2017-11-02T07:19:49Z</time>
      </trkpt>
      <trkpt lat="45.99851" lon="4.63048">
        <ele>318</ele>
        <time>2017-11-02T07:21:49Z</time>
      </trkpt>
      <trkpt lat="45.99851" lon="4.63056">
        <ele>318</ele>
        <time>2017-11-02T07:23:49Z</time>
      </trkpt>
      <trkpt lat="45.99851" lon="4.63063">
        <ele>318</ele>
        <time>2017-11-02T07:25:49Z</time>
      </trkpt>
      <trkpt lat="45.99851" lon="4.63071">
        <ele>318</ele>
        <time>2017-11-02T07:27:49Z</time>
      </trkpt>
      <trkpt lat="45.99851" lon="4.63078">
        <ele>317</ele>
        <time>2017-11-02T07:29:49Z</time>
      </trkpt>
      <trkpt lat="45.99852" lon="4.63085">
        <ele>317</ele>
        <time>2017-11-02T07:31:49Z</time>
      </trkpt>
      <trkpt lat="45.99853" lon="4.63091">
        <ele>317</ele>
        <time>2017-11-02T07:33:49Z</time>
      </trkpt>
      <trkpt lat="45.99855" lon="4.63098">
        <ele>317</ele>
        <time>2017-11-02T07:35:49Z</time>
      </trkpt>
      <trkpt lat="45.99856" lon="4.63104">
        <ele>317</ele>
        <time>2017-11-02T07:37:49Z</time>
      </trkpt>
      <trkpt lat="45.99858" lon="4.63109">
        <ele>317</ele>
        <time>2017-11-02T07:39:49Z</time>
      </trkpt>
      <trkpt lat="45.9986" lon="4.63115">
        <ele>317</ele>
        <time>2017-11-02T07:41:49Z</time>
      </trkpt>
      <trkpt lat="45.99862" lon="4.6312">
        <ele>317</ele>
        <time>2017-11-02T07:43:49Z</time>
      </trkpt>
      <trkpt lat="45.99864" lon="4.63125">
        <ele>317</ele>
        <time>2017-11-02T07:45:49Z</time>
      </trkpt>
      <trkpt lat="45.99867" lon="4.63131">
        <ele>317</ele>
        <time>2017-11-02T07:47:49Z</time>
      </trkpt>
      <trkpt lat="45.99872" lon="4.6314">
        <ele>317</ele>
        <time>2017-11-02T07:49:49Z</time>
      </trkpt>
      <trkpt lat="45.99879" lon="4.63152">
        <ele>316</ele>
        <time>2017-11-02T07:51:49Z</time>
      </trkpt>
      <trkpt lat="45.99887" lon="4.63163">
        <ele>316</ele>
        <time>2017-11-02T07:53:49Z</time>
      </trkpt>
      <trkpt lat="45.9989" lon="4.63169">
        <ele>316</ele>
        <time>2017-11-02T07:55:49Z</time>
      </trkpt>
      <trkpt lat="45.99896" lon="4.63179">
        <ele>316</ele>
        <time>2017-11-02T07:57:49Z</time>
      </trkpt>
      <trkpt lat="45.99899" lon="4.63185">
        <ele>316</ele>
        <time>2017-11-02T07:59:49Z</time>
      </trkpt>
      <trkpt lat="45.99903" lon="4.63191">
        <ele>316</ele>
        <time>2017-11-02T08:01:49Z</time>
      </trkpt>
      <trkpt lat="45.99906" lon="4.63198">
        <ele>315</ele>
        <time>2017-11-02T08:03:49Z</time>
      </trkpt>
      <trkpt lat="45.9991" lon="4.63206">
        <ele>315</ele>
        <time>2017-11-02T08:05:49Z</time>
      </trkpt>
      <trkpt lat="45.99913" lon="4.63214">
        <ele>315</ele>
        <time>2017-11-02T08:07:49Z</time>
      </trkpt>
      <trkpt lat="45.99916" lon="4.63222">
        <ele>315</ele>
        <time>2017-11-02T08:09:49Z</time>
      </trkpt>
      <trkpt lat="45.99919" lon="4.63231">
        <ele>315</ele>
        <time>2017-11-02T08:11:49Z</time>
      </trkpt>
      <trkpt lat="45.99921" lon="4.6324">
        <ele>315</ele>
        <time>2017-11-02T08:13:49Z</time>
      </trkpt>
      <trkpt lat="45.99923" lon="4.63249">
        <ele>315</ele>
        <time>2017-11-02T08:15:49Z</time>
      </trkpt>
      <trkpt lat="45.99926" lon="4.63259">
        <ele>315</ele>
        <time>2017-11-02T08:17:49Z</time>
      </trkpt>
      <trkpt lat="45.99928" lon="4.63271">
        <ele>314</ele>
        <time>2017-11-02T08:19:49Z</time>
      </trkpt>
      <trkpt lat="45.9993" lon="4.63288">
        <ele>314</ele>
        <time>2017-11-02T08:21:49Z</time>
      </trkpt>
      <trkpt lat="45.99931" lon="4.63304">
        <ele>313</ele>
        <time>2017-11-02T08:23:49Z</time>
      </trkpt>
      <trkpt lat="45.99931" lon="4.63319">
        <ele>313</ele>
        <time>2017-11-02T08:25:49Z</time>
      </trkpt>
      <trkpt lat="45.99931" lon="4.6333">
        <ele>313</ele>
        <time>2017-11-02T08:27:49Z</time>
      </trkpt>
      <trkpt lat="45.99931" lon="4.63344">
        <ele>312</ele>
        <time>2017-11-02T08:29:49Z</time>
      </trkpt>
      <trkpt lat="45.9993" lon="4.63353">
        <ele>312</ele>
        <time>2017-11-02T08:31:49Z</time>
      </trkpt>
      <trkpt lat="45.99929" lon="4.63361">
        <ele>312</ele>
        <time>2017-11-02T08:33:49Z</time>
      </trkpt>
      <trkpt lat="45.99928" lon="4.63369">
        <ele>312</ele>
        <time>2017-11-02T08:35:49Z</time>
      </trkpt>
      <trkpt lat="45.99927" lon="4.63377">
        <ele>312</ele>
        <time>2017-11-02T08:37:49Z</time>
      </trkpt>
      <trkpt lat="45.99925" lon="4.63384">
        <ele>312</ele>
        <time>2017-11-02T08:39:49Z</time>
      </trkpt>
      <trkpt lat="45.99923" lon="4.63392">
        <ele>312</ele>
        <time>2017-11-02T08:41:49Z</time>
      </trkpt>
      <trkpt lat="45.99922" lon="4.63399">
        <ele>311</ele>
        <time>2017-11-02T08:43:49Z</time>
      </trkpt>
      <trkpt lat="45.9992" lon="4.63406">
        <ele>311</ele>
        <time>2017-11-02T08:45:49Z</time>
      </trkpt>
      <trkpt lat="45.99918" lon="4.63413">
        <ele>311</ele>
        <time>2017-11-02T08:47:49Z</time>
      </trkpt>
      <trkpt lat="45.99915" lon="4.63422">
        <ele>311</ele>
        <time>2017-11-02T08:49:49Z</time>
      </trkpt>
      <trkpt lat="45.99911" lon="4.63433">
        <ele>311</ele>
        <time>2017-11-02T08:51:49Z</time>
      </trkpt>
      <trkpt lat="45.99906" lon="4.63446">
        <ele>311</ele>
        <time>2017-11-02T08:53:49Z</time>
      </trkpt>
      <trkpt lat="45.99901" lon="4.63457">
        <ele>310</ele>
        <time>2017-11-02T08:55:49Z</time>
      </trkpt>
      <trkpt lat="45.99897" lon="4.63468">
        <ele>310</ele>
        <time>2017-11-02T08:57:49Z</time>
      </trkpt>
      <trkpt lat="45.99893" lon="4.63479">
        <ele>310</ele>
        <time>2017-11-02T08:59:49Z</time>
      </trkpt>
      <trkpt lat="45.99889" lon="4.63495">
        <ele>310</ele>
        <time>2017-11-02T09:01:49Z</time>
      </trkpt>
      <trkpt lat="45.99883" lon="4.63516">
        <ele>309</ele>
        <time>2017-11-02T09:03:49Z</time>
      </trkpt>
      <trkpt lat="45.99879" lon="4.63525">
        <ele>309</ele>
        <time>2017-11-02T09:05:49Z</time>
      </trkpt>
      <trkpt lat="45.99878" lon="4.63528">
        <ele>309</ele>
        <time>2017-11-02T09:07:49Z</time>
      </trkpt>
      <trkpt lat="45.99874" lon="4.63539">
        <ele>309</ele>
        <time>2017-11-02T09:09:49Z</time>
      </trkpt>
      <trkpt lat="45.9987" lon="4.63556">
        <ele>308</ele>
        <time>2017-11-02T09:11:49Z</time>
      </trkpt>
      <trkpt lat="45.99865" lon="4.63588">
        <ele>307</ele>
        <time>2017-11-02T09:13:49Z</time>
      </trkpt>
      <trkpt lat="45.99862" lon="4.63612">
        <ele>306</ele>
        <time>2017-11-02T09:15:49Z</time>
      </trkpt>
      <trkpt lat="45.99861" lon="4.63637">
        <ele>305</ele>
        <time>2017-11-02T09:17:49Z</time>
      </trkpt>
      <trkpt lat="45.99861" lon="4.63657">
        <ele>304</ele>
        <time>2017-11-02T09:19:49Z</time>
      </trkpt>
      <trkpt lat="45.99862" lon="4.63687">
        <ele>303</ele>
        <time>2017-11-02T09:21:49Z</time>
      </trkpt>
      <trkpt lat="45.99863" lon="4.63717">
        <ele>303</ele>
        <time>2017-11-02T09:23:49Z</time>
      </trkpt>
      <trkpt lat="45.99866" lon="4.63747">
        <ele>303</ele>
        <time>2017-11-02T09:25:49Z</time>
      </trkpt>
      <trkpt lat="45.9987" lon="4.63776">
        <ele>303</ele>
        <time>2017-11-02T09:27:49Z</time>
      </trkpt>
      <trkpt lat="45.99874" lon="4.63797">
        <ele>303</ele>
        <time>2017-11-02T09:29:49Z</time>
      </trkpt>
      <trkpt lat="45.99879" lon="4.63817">
        <ele>303</ele>
        <time>2017-11-02T09:31:49Z</time>
      </trkpt>
      <trkpt lat="45.99885" lon="4.63837">
        <ele>303</ele>
        <time>2017-11-02T09:33:49Z</time>
      </trkpt>
      <trkpt lat="45.99891" lon="4.63854">
        <ele>303</ele>
        <time>2017-11-02T09:35:49Z</time>
      </trkpt>
      <trkpt lat="45.99903" lon="4.63885">
        <ele>302</ele>
        <time>2017-11-02T09:37:49Z</time>
      </trkpt>
      <trkpt lat="45.9991" lon="4.63899">
        <ele>302</ele>
        <time>2017-11-02T09:39:49Z</time>
      </trkpt>
      <trkpt lat="45.99915" lon="4.63911">
        <ele>302</ele>
        <time>2017-11-02T09:41:49Z</time>
      </trkpt>
      <trkpt lat="45.99921" lon="4.63921">
        <ele>302</ele>
        <time>2017-11-02T09:43:49Z</time>
      </trkpt>
      <trkpt lat="45.9993" lon="4.63941">
        <ele>301</ele>
        <time>2017-11-02T09:45:49Z</time>
      </trkpt>
      <trkpt lat="45.99934" lon="4.63953">
        <ele>301</ele>
        <time>2017-11-02T09:47:49Z</time>
      </trkpt>
      <trkpt lat="45.99938" lon="4.6397">
        <ele>301</ele>
        <time>2017-11-02T09:49:49Z</time>
      </trkpt>
      <trkpt lat="45.99941" lon="4.63985">
        <ele>301</ele>
        <time>2017-11-02T09:51:49Z</time>
      </trkpt>
      <trkpt lat="45.99941" lon="4.63997">
        <ele>301</ele>
        <time>2017-11-02T09:53:49Z</time>
      </trkpt>
      <trkpt lat="45.99942" lon="4.64014">
        <ele>300</ele>
        <time>2017-11-02T09:55:49Z</time>
      </trkpt>
      <trkpt lat="45.99941" lon="4.64035">
        <ele>300</ele>
        <time>2017-11-02T09:57:49Z</time>
      </trkpt>
      <trkpt lat="45.99937" lon="4.64056">
        <ele>299</ele>
        <time>2017-11-02T09:59:49Z</time>
      </trkpt>
      <trkpt lat="45.99928" lon="4.64113">
        <ele>297</ele>
        <time>2017-11-02T10:01:49Z</time>
      </trkpt>
      <trkpt lat="45.99924" lon="4.64145">
        <ele>296</ele>
        <time>2017-11-02T10:03:49Z</time>
      </trkpt>
      <trkpt lat="45.99914" lon="4.64208">
        <ele>296</ele>
        <time>2017-11-02T10:05:49Z</time>
      </trkpt>
      <trkpt lat="45.99912" lon="4.64222">
        <ele>296</ele>
        <time>2017-11-02T10:07:49Z</time>
      </trkpt>
      <trkpt lat="45.99908" lon="4.64257">
        <ele>296</ele>
        <time>2017-11-02T10:09:49Z</time>
      </trkpt>
      <trkpt lat="45.99902" lon="4.64299">
        <ele>296</ele>
        <time>2017-11-02T10:11:49Z</time>
      </trkpt>
      <trkpt lat="45.99888" lon="4.64392">
        <ele>293</ele>
        <time>2017-11-02T10:13:49Z</time>
      </trkpt>
      <trkpt lat="45.99885" lon="4.64411">
        <ele>293</ele>
        <time>2017-11-02T10:15:49Z</time>
      </trkpt>
      <trkpt lat="45.9988" lon="4.64441">
        <ele>292</ele>
        <time>2017-11-02T10:17:49Z</time>
      </trkpt>
      <trkpt lat="45.99867" lon="4.64532">
        <ele>291</ele>
        <time>2017-11-02T10:19:49Z</time>
      </trkpt>
      <trkpt lat="45.99865" lon="4.64546">
        <ele>290</ele>
        <time>2017-11-02T10:21:49Z</time>
      </trkpt>
      <trkpt lat="45.99865" lon="4.64546">
        <ele>290</ele>
        <time>2017-11-02T10:23:49Z</time>
      </trkpt>
      <trkpt lat="45.99882" lon="4.64543">
        <ele>289</ele>
        <time>2017-11-02T10:25:49Z</time>
      </trkpt>
      <trkpt lat="45.99883" lon="4.64542">
        <ele>289</ele>
        <time>2017-11-02T10:27:49Z</time>
      </trkpt>
      <trkpt lat="45.99956" lon="4.64524">
        <ele>285</ele>
        <time>2017-11-02T10:29:49Z</time>
      </trkpt>
      <trkpt lat="45.99973" lon="4.6452">
        <ele>284</ele>
        <time>2017-11-02T10:31:49Z</time>
      </trkpt>
      <trkpt lat="45.99988" lon="4.64519">
        <ele>283</ele>
        <time>2017-11-02T10:33:49Z</time>
      </trkpt>
      <trkpt lat="46.00002" lon="4.64518">
        <ele>282</ele>
        <time>2017-11-02T10:35:49Z</time>
      </trkpt>
      <trkpt lat="46.00019" lon="4.64519">
        <ele>282</ele>
        <time>2017-11-02T10:37:49Z</time>
      </trkpt>
      <trkpt lat="46.00031" lon="4.6452">
        <ele>282</ele>
        <time>2017-11-02T10:39:49Z</time>
      </trkpt>
      <trkpt lat="46.00044" lon="4.64523">
        <ele>281</ele>
        <time>2017-11-02T10:41:49Z</time>
      </trkpt>
      <trkpt lat="46.00083" lon="4.6454">
        <ele>280</ele>
        <time>2017-11-02T10:43:49Z</time>
      </trkpt>
      <trkpt lat="46.00102" lon="4.64553">
        <ele>279</ele>
        <time>2017-11-02T10:45:49Z</time>
      </trkpt>
      <trkpt lat="46.00111" lon="4.64557">
        <ele>279</ele>
        <time>2017-11-02T10:47:49Z</time>
      </trkpt>
      <trkpt lat="46.00121" lon="4.64564">
        <ele>278</ele>
        <time>2017-11-02T10:49:49Z</time>
      </trkpt>
      <trkpt lat="46.00128" lon="4.64571">
        <ele>278</ele>
        <time>2017-11-02T10:51:49Z</time>
      </trkpt>
      <trkpt lat="46.0014" lon="4.64582">
        <ele>278</ele>
        <time>2017-11-02T10:53:49Z</time>
      </trkpt>
      <trkpt lat="46.00146" lon="4.64586">
        <ele>278</ele>
        <time>2017-11-02T10:55:49Z</time>
      </trkpt>
      <trkpt lat="46.00153" lon="4.64587">
        <ele>278</ele>
        <time>2017-11-02T10:57:49Z</time>
      </trkpt>
      <trkpt lat="46.00153" lon="4.64588">
        <ele>278</ele>
        <time>2017-11-02T10:59:49Z</time>
      </trkpt>
      <trkpt lat="46.00166" lon="4.64587">
        <ele>278</ele>
        <time>2017-11-02T11:01:49Z</time>
      </trkpt>
      <trkpt lat="46.00175" lon="4.64586">
        <ele>277</ele>
        <time>2017-11-02T11:03:49Z</time>
      </trkpt>
      <trkpt lat="46.00181" lon="4.64585">
        <ele>276</ele>
        <time>2017-11-02T11:05:49Z</time>
      </trkpt>
      <trkpt lat="46.00196" lon="4.64583">
        <ele>275</ele>
        <time>2017-11-02T11:07:49Z</time>
      </trkpt>
      <trkpt lat="46.00203" lon="4.64583">
        <ele>274</ele>
        <time>2017-11-02T11:09:49Z</time>
      </trkpt>
      <trkpt lat="46.00212" lon="4.64584">
        <ele>273</ele>
        <time>2017-11-02T11:11:49Z</time>
      </trkpt>
      <trkpt lat="46.00236" lon="4.6459">
        <ele>270</ele>
        <time>2017-11-02T11:13:49Z</time>
      </trkpt>
      <trkpt lat="46.00246" lon="4.6459">
        <ele>269</ele>
        <time>2017-11-02T11:15:49Z</time>
      </trkpt>
      <trkpt lat="46.0026" lon="4.6459">
        <ele>268</ele>
        <time>2017-11-02T11:17:49Z</time>
      </trkpt>
      <trkpt lat="46.00267" lon="4.64588">
        <ele>267</ele>
        <time>2017-11-02T11:19:49Z</time>
      </trkpt>
      <trkpt lat="46.00276" lon="4.64584">
        <ele>266</ele>
        <time>2017-11-02T11:21:49Z</time>
      </trkpt>
      <trkpt lat="46.00289" lon="4.6457">
        <ele>264</ele>
        <time>2017-11-02T11:23:49Z</time>
      </trkpt>
      <trkpt lat="46.00299" lon="4.64556">
        <ele>263</ele>
        <time>2017-11-02T11:25:49Z</time>
      </trkpt>
      <trkpt lat="46.00333" lon="4.64515">
        <ele>260</ele>
        <time>2017-11-02T11:27:49Z</time>
      </trkpt>
      <trkpt lat="46.00337" lon="4.6451">
        <ele>261</ele>
        <time>2017-11-02T11:29:49Z</time>
      </trkpt>
      <trkpt lat="46.0035" lon="4.64494">
        <ele>261</ele>
        <time>2017-11-02T11:31:49Z</time>
      </trkpt>
      <trkpt lat="46.00364" lon="4.64474">
        <ele>261</ele>
        <time>2017-11-02T11:33:49Z</time>
      </trkpt>
      <trkpt lat="46.00369" lon="4.64468">
        <ele>261</ele>
        <time>2017-11-02T11:35:49Z</time>
      </trkpt>
      <trkpt lat="46.00404" lon="4.64424">
        <ele>262</ele>
        <time>2017-11-02T11:37:49Z</time>
      </trkpt>
      <trkpt lat="46.00413" lon="4.64413">
        <ele>262</ele>
        <time>2017-11-02T11:39:49Z</time>
      </trkpt>
      <trkpt lat="46.00416" lon="4.64409">
        <ele>262</ele>
        <time>2017-11-02T11:41:49Z</time>
      </trkpt>
      <trkpt lat="46.0042" lon="4.64405">
        <ele>263</ele>
        <time>2017-11-02T11:43:49Z</time>
      </trkpt>
      <trkpt lat="46.00423" lon="4.64402">
        <ele>263</ele>
        <time>2017-11-02T11:45:49Z</time>
      </trkpt>
      <trkpt lat="46.00428" lon="4.64396">
        <ele>264</ele>
        <time>2017-11-02T11:47:49Z</time>
      </trkpt>
      <trkpt lat="46.00448" lon="4.64372">
        <ele>268</ele>
        <time>2017-11-02T11:49:49Z</time>
      </trkpt>
      <trkpt lat="46.0046" lon="4.6436">
        <ele>270</ele>
        <time>2017-11-02T11:51:49Z</time>
      </trkpt>
      <trkpt lat="46.00465" lon="4.64356">
        <ele>271</ele>
        <time>2017-11-02T11:53:49Z</time>
      </trkpt>
      <trkpt lat="46.0047" lon="4.64354">
        <ele>272</ele>
        <time>2017-11-02T11:55:49Z</time>
      </trkpt>
      <trkpt lat="46.00477" lon="4.64354">
        <ele>273</ele>
        <time>2017-11-02T11:57:49Z</time>
      </trkpt>
      <trkpt lat="46.00481" lon="4.64356">
        <ele>274</ele>
        <time>2017-11-02T11:59:49Z</time>
      </trkpt>
      <trkpt lat="46.00487" lon="4.64362">
        <ele>275</ele>
        <time>2017-11-02T12:01:49Z</time>
      </trkpt>
      <trkpt lat="46.00489" lon="4.64368">
        <ele>275</ele>
        <time>2017-11-02T12:03:49Z</time>
      </trkpt>
      <trkpt lat="46.00492" lon="4.64378">
        <ele>275</ele>
        <time>2017-11-02T12:05:49Z</time>
      </trkpt>
      <trkpt lat="46.00493" lon="4.64387">
        <ele>275</ele>
        <time>2017-11-02T12:07:49Z</time>
      </trkpt>
      <trkpt lat="46.00494" lon="4.64407">
        <ele>274</ele>
        <time>2017-11-02T12:09:49Z</time>
      </trkpt>
      <trkpt lat="46.00498" lon="4.64457">
        <ele>275</ele>
        <time>2017-11-02T12:11:49Z</time>
      </trkpt>
      <trkpt lat="46.005" lon="4.64469">
        <ele>275</ele>
        <time>2017-11-02T12:13:49Z</time>
      </trkpt>
      <trkpt lat="46.00503" lon="4.64488">
        <ele>276</ele>
        <time>2017-11-02T12:15:49Z</time>
      </trkpt>
      <trkpt lat="46.00502" lon="4.64504">
        <ele>276</ele>
        <time>2017-11-02T12:17:49Z</time>
      </trkpt>
      <trkpt lat="46.005" lon="4.64514">
        <ele>276</ele>
        <time>2017-11-02T12:19:49Z</time>
      </trkpt>
      <trkpt lat="46.00498" lon="4.64519">
        <ele>276</ele>
        <time>2017-11-02T12:21:49Z</time>
      </trkpt>
      <trkpt lat="46.0049" lon="4.64544">
        <ele>275</ele>
        <time>2017-11-02T12:23:49Z</time>
      </trkpt>
      <trkpt lat="46.00487" lon="4.64564">
        <ele>276</ele>
        <time>2017-11-02T12:25:49Z</time>
      </trkpt>
      <trkpt lat="46.00485" lon="4.64604">
        <ele>277</ele>
        <time>2017-11-02T12:27:49Z</time>
      </trkpt>
      <trkpt lat="46.00484" lon="4.64636">
        <ele>278</ele>
        <time>2017-11-02T12:29:49Z</time>
      </trkpt>
      <trkpt lat="46.00482" lon="4.64675">
        <ele>279</ele>
        <time>2017-11-02T12:31:49Z</time>
      </trkpt>
      <trkpt lat="46.00482" lon="4.64712">
        <ele>280</ele>
        <time>2017-11-02T12:33:49Z</time>
      </trkpt>
      <trkpt lat="46.00484" lon="4.64768">
        <ele>281</ele>
        <time>2017-11-02T12:35:49Z</time>
      </trkpt>
      <trkpt lat="46.00488" lon="4.64816">
        <ele>282</ele>
        <time>2017-11-02T12:37:49Z</time>
      </trkpt>
      <trkpt lat="46.00489" lon="4.64832">
        <ele>282</ele>
        <time>2017-11-02T12:39:49Z</time>
      </trkpt>
      <trkpt lat="46.00493" lon="4.64856">
        <ele>282</ele>
        <time>2017-11-02T12:41:49Z</time>
      </trkpt>
      <trkpt lat="46.00495" lon="4.64862">
        <ele>283</ele>
        <time>2017-11-02T12:43:49Z</time>
      </trkpt>
      <trkpt lat="46.00499" lon="4.6487">
        <ele>284</ele>
        <time>2017-11-02T12:45:49Z</time>
      </trkpt>
      <trkpt lat="46.00508" lon="4.64881">
        <ele>285</ele>
        <time>2017-11-02T12:47:49Z</time>
      </trkpt>
      <trkpt lat="46.0051" lon="4.64884">
        <ele>285</ele>
        <time>2017-11-02T12:49:49Z</time>
      </trkpt>
      <trkpt lat="46.00526" lon="4.64894">
        <ele>286</ele>
        <time>2017-11-02T12:51:49Z</time>
      </trkpt>
      <trkpt lat="46.00542" lon="4.64899">
        <ele>288</ele>
        <time>2017-11-02T12:53:49Z</time>
      </trkpt>
      <trkpt lat="46.00562" lon="4.64903">
        <ele>289</ele>
        <time>2017-11-02T12:55:49Z</time>
      </trkpt>
      <trkpt lat="46.00576" lon="4.64905">
        <ele>291</ele>
        <time>2017-11-02T12:57:49Z</time>
      </trkpt>
      <trkpt lat="46.00596" lon="4.64905">
        <ele>291</ele>
        <time>2017-11-02T12:59:49Z</time>
      </trkpt>
      <trkpt lat="46.00608" lon="4.64906">
        <ele>291</ele>
        <time>2017-11-02T13:01:49Z</time>
      </trkpt>
      <trkpt lat="46.00628" lon="4.64906">
        <ele>291</ele>
        <time>2017-11-02T13:03:49Z</time>
      </trkpt>
      <trkpt lat="46.00659" lon="4.64907">
        <ele>291</ele>
        <time>2017-11-02T13:05:49Z</time>
      </trkpt>
      <trkpt lat="46.00708" lon="4.64912">
        <ele>290</ele>
        <time>2017-11-02T13:07:49Z</time>
      </trkpt>
      <trkpt lat="46.00749" lon="4.64916">
        <ele>289</ele>
        <time>2017-11-02T13:09:49Z</time>
      </trkpt>
      <trkpt lat="46.00786" lon="4.64922">
        <ele>289</ele>
        <time>2017-11-02T13:11:49Z</time>
      </trkpt>
      <trkpt lat="46.008" lon="4.64925">
        <ele>289</ele>
        <time>2017-11-02T13:13:49Z</time>
      </trkpt>
      <trkpt lat="46.00887" lon="4.6495">
        <ele>285</ele>
        <time>2017-11-02T13:15:49Z</time>
      </trkpt>
      <trkpt lat="46.00907" lon="4.64962">
        <ele>284</ele>
        <time>2017-11-02T13:17:49Z</time>
      </trkpt>
      <trkpt lat="46.0092" lon="4.64971">
        <ele>283</ele>
        <time>2017-11-02T13:19:49Z</time>
      </trkpt>
      <trkpt lat="46.00936" lon="4.64983">
        <ele>285</ele>
        <time>2017-11-02T13:21:49Z</time>
      </trkpt>
      <trkpt lat="46.00954" lon="4.64998">
        <ele>287</ele>
        <time>2017-11-02T13:23:49Z</time>
      </trkpt>
      <trkpt lat="46.00971" lon="4.65016">
        <ele>288</ele>
        <time>2017-11-02T13:25:49Z</time>
      </trkpt>
      <trkpt lat="46.00983" lon="4.65033">
        <ele>289</ele>
        <time>2017-11-02T13:27:49Z</time>
      </trkpt>
      <trkpt lat="46.00987" lon="4.6504">
        <ele>289</ele>
        <time>2017-11-02T13:29:49Z</time>
      </trkpt>
      <trkpt lat="46.00996" lon="4.65045">
        <ele>289</ele>
        <time>2017-11-02T13:31:49Z</time>
      </trkpt>
      <trkpt lat="46.01003" lon="4.65048">
        <ele>290</ele>
        <time>2017-11-02T13:33:49Z</time>
      </trkpt>
      <trkpt lat="46.01024" lon="4.6505">
        <ele>291</ele>
        <time>2017-11-02T13:35:49Z</time>
      </trkpt>
      <trkpt lat="46.01037" lon="4.65054">
        <ele>292</ele>
        <time>2017-11-02T13:37:49Z</time>
      </trkpt>
      <trkpt lat="46.01098" lon="4.65088">
        <ele>292</ele>
        <time>2017-11-02T13:39:49Z</time>
      </trkpt>
      <trkpt lat="46.01114" lon="4.65098">
        <ele>291</ele>
        <time>2017-11-02T13:41:49Z</time>
      </trkpt>
      <trkpt lat="46.01146" lon="4.65144">
        <ele>289</ele>
        <time>2017-11-02T13:43:49Z</time>
      </trkpt>
      <trkpt lat="46.01181" lon="4.65188">
        <ele>286</ele>
        <time>2017-11-02T13:45:49Z</time>
      </trkpt>
      <trkpt lat="46.01215" lon="4.65233">
        <ele>284</ele>
        <time>2017-11-02T13:47:49Z</time>
      </trkpt>
      <trkpt lat="46.01215" lon="4.65234">
        <ele>284</ele>
        <time>2017-11-02T13:49:49Z</time>
      </trkpt>
      <trkpt lat="46.01224" lon="4.65252">
        <ele>283</ele>
        <time>2017-11-02T13:51:49Z</time>
      </trkpt>
      <trkpt lat="46.01239" lon="4.65286">
        <ele>282</ele>
        <time>2017-11-02T13:53:49Z</time>
      </trkpt>
      <trkpt lat="46.01258" lon="4.65328">
        <ele>281</ele>
        <time>2017-11-02T13:55:49Z</time>
      </trkpt>
      <trkpt lat="46.01268" lon="4.6535">
        <ele>280</ele>
        <time>2017-11-02T13:57:49Z</time>
      </trkpt>
      <trkpt lat="46.01275" lon="4.6536">
        <ele>279</ele>
        <time>2017-11-02T13:59:49Z</time>
      </trkpt>
      <trkpt lat="46.01279" lon="4.65364">
        <ele>278</ele>
        <time>2017-11-02T14:01:49Z</time>
      </trkpt>
      <trkpt lat="46.01283" lon="4.65369">
        <ele>278</ele>
        <time>2017-11-02T14:03:49Z</time>
      </trkpt>
      <trkpt lat="46.01291" lon="4.65376">
        <ele>277</ele>
        <time>2017-11-02T14:05:49Z</time>
      </trkpt>
      <trkpt lat="46.01301" lon="4.65383">
        <ele>276</ele>
        <time>2017-11-02T14:07:49Z</time>
      </trkpt>
      <trkpt lat="46.01317" lon="4.6539">
        <ele>275</ele>
        <time>2017-11-02T14:09:49Z</time>
      </trkpt>
      <trkpt lat="46.01335" lon="4.65396">
        <ele>275</ele>
        <time>2017-11-02T14:11:49Z</time>
      </trkpt>
      <trkpt lat="46.01349" lon="4.65404">
        <ele>275</ele>
        <time>2017-11-02T14:13:49Z</time>
      </trkpt>
      <trkpt lat="46.01353" lon="4.65408">
        <ele>275</ele>
        <time>2017-11-02T14:15:49Z</time>
      </trkpt>
      <trkpt lat="46.01366" lon="4.65421">
        <ele>275</ele>
        <time>2017-11-02T14:17:49Z</time>
      </trkpt>
      <trkpt lat="46.01373" lon="4.65431">
        <ele>275</ele>
        <time>2017-11-02T14:19:49Z</time>
      </trkpt>
      <trkpt lat="46.0138" lon="4.65442">
        <ele>275</ele>
        <time>2017-11-02T14:21:49Z</time>
      </trkpt>
      <trkpt lat="46.01385" lon="4.6545">
        <ele>275</ele>
        <time>2017-11-02T14:23:49Z</time>
      </trkpt>
      <trkpt lat="46.01387" lon="4.65455">
        <ele>274</ele>
        <time>2017-11-02T14:25:49Z</time>
      </trkpt>
      <trkpt lat="46.01387" lon="4.65455">
        <ele>274</ele>
        <time>2017-11-02T14:27:49Z</time>
      </trkpt>
      <trkpt lat="46.01393" lon="4.65467">
        <ele>274</ele>
        <time>2017-11-02T14:29:49Z</time>
      </trkpt>
      <trkpt lat="46.01398" lon="4.65483">
        <ele>274</ele>
        <time>2017-11-02T14:31:49Z</time>
      </trkpt>
      <trkpt lat="46.01403" lon="4.65503">
        <ele>273</ele>
        <time>2017-11-02T14:33:49Z</time>
      </trkpt>
      <trkpt lat="46.0141" lon="4.65529">
        <ele>273</ele>
        <time>2017-11-02T14:35:49Z</time>
      </trkpt>
      <trkpt lat="46.01414" lon="4.65543">
        <ele>273</ele>
        <time>2017-11-02T14:37:49Z</time>
      </trkpt>
      <trkpt lat="46.01419" lon="4.65553">
        <ele>273</ele>
        <time>2017-11-02T14:39:49Z</time>
      </trkpt>
      <trkpt lat="46.01422" lon="4.6556">
        <ele>273</ele>
        <time>2017-11-02T14:41:49Z</time>
      </trkpt>
      <trkpt lat="46.01427" lon="4.65565">
        <ele>273</ele>
        <time>2017-11-02T14:43:49Z</time>
      </trkpt>
      <trkpt lat="46.01431" lon="4.65568">
        <ele>273</ele>
        <time>2017-11-02T14:45:49Z</time>
      </trkpt>
      <trkpt lat="46.01436" lon="4.65571">
        <ele>274</ele>
        <time>2017-11-02T14:47:49Z</time>
      </trkpt>
      <trkpt lat="46.01445" lon="4.65574">
        <ele>274</ele>
        <time>2017-11-02T14:49:49Z</time>
      </trkpt>
      <trkpt lat="46.01452" lon="4.65577">
        <ele>275</ele>
        <time>2017-11-02T14:51:49Z</time>
      </trkpt>
      <trkpt lat="46.01462" lon="4.65578">
        <ele>275</ele>
        <time>2017-11-02T14:53:49Z</time>
      </trkpt>
      <trkpt lat="46.01472" lon="4.65579">
        <ele>276</ele>
        <time>2017-11-02T14:55:49Z</time>
      </trkpt>
      <trkpt lat="46.01484" lon="4.6558">
        <ele>277</ele>
        <time>2017-11-02T14:57:49Z</time>
      </trkpt>
      <trkpt lat="46.01503" lon="4.65579">
        <ele>278</ele>
        <time>2017-11-02T14:59:49Z</time>
      </trkpt>
      <trkpt lat="46.0153" lon="4.65575">
        <ele>280</ele>
        <time>2017-11-02T15:01:49Z</time>
      </trkpt>
      <trkpt lat="46.01571" lon="4.6557">
        <ele>283</ele>
        <time>2017-11-02T15:03:49Z</time>
      </trkpt>
      <trkpt lat="46.01585" lon="4.6557">
        <ele>284</ele>
        <time>2017-11-02T15:05:49Z</time>
      </trkpt>
      <trkpt lat="46.01593" lon="4.65571">
        <ele>285</ele>
        <time>2017-11-02T15:07:49Z</time>
      </trkpt>
      <trkpt lat="46.01613" lon="4.65579">
        <ele>286</ele>
        <time>2017-11-02T15:09:49Z</time>
      </trkpt>
      <trkpt lat="46.0162" lon="4.65582">
        <ele>286</ele>
        <time>2017-11-02T15:11:49Z</time>
      </trkpt>
      <trkpt lat="46.01643" lon="4.65605">
        <ele>286</ele>
        <time>2017-11-02T15:13:49Z</time>
      </trkpt>
      <trkpt lat="46.01671" lon="4.65635">
        <ele>284</ele>
        <time>2017-11-02T15:15:49Z</time>
      </trkpt>
      <trkpt lat="46.01695" lon="4.65662">
        <ele>283</ele>
        <time>2017-11-02T15:17:49Z</time>
      </trkpt>
      <trkpt lat="46.01711" lon="4.65691">
        <ele>282</ele>
        <time>2017-11-02T15:19:49Z</time>
      </trkpt>
      <trkpt lat="46.01722" lon="4.65705">
        <ele>281</ele>
        <time>2017-11-02T15:21:49Z</time>
      </trkpt>
      <trkpt lat="46.01735" lon="4.65716">
        <ele>281</ele>
        <time>2017-11-02T15:23:49Z</time>
      </trkpt>
      <trkpt lat="46.0174" lon="4.65718">
        <ele>281</ele>
        <time>2017-11-02T15:25:49Z</time>
      </trkpt>
      <trkpt lat="46.01749" lon="4.65722">
        <ele>281</ele>
        <time>2017-11-02T15:27:49Z</time>
      </trkpt>
      <trkpt lat="46.01761" lon="4.65724">
        <ele>281</ele>
        <time>2017-11-02T15:29:49Z</time>
      </trkpt>
      <trkpt lat="46.01871" lon="4.6575">
        <ele>278</ele>
        <time>2017-11-02T15:31:49Z</time>
      </trkpt>
      <trkpt lat="46.01891" lon="4.65753">
        <ele>278</ele>
        <time>2017-11-02T15:33:49Z</time>
      </trkpt>
      <trkpt lat="46.01908" lon="4.65754">
        <ele>279</ele>
        <time>2017-11-02T15:35:49Z</time>
      </trkpt>
      <trkpt lat="46.01932" lon="4.65748">
        <ele>279</ele>
        <time>2017-11-02T15:37:49Z</time>
      </trkpt>
      <trkpt lat="46.01944" lon="4.65741">
        <ele>279</ele>
        <time>2017-11-02T15:39:49Z</time>
      </trkpt>
      <trkpt lat="46.01966" lon="4.65732">
        <ele>279</ele>
        <time>2017-11-02T15:41:49Z</time>
      </trkpt>
      <trkpt lat="46.0198" lon="4.65728">
        <ele>278</ele>
        <time>2017-11-02T15:43:49Z</time>
      </trkpt>
      <trkpt lat="46.01991" lon="4.6573">
        <ele>278</ele>
        <time>2017-11-02T15:45:49Z</time>
      </trkpt>
      <trkpt lat="46.02013" lon="4.65737">
        <ele>277</ele>
        <time>2017-11-02T15:47:49Z</time>
      </trkpt>
      <trkpt lat="46.02033" lon="4.65745">
        <ele>276</ele>
        <time>2017-11-02T15:49:49Z</time>
      </trkpt>
      <trkpt lat="46.02102" lon="4.6577">
        <ele>273</ele>
        <time>2017-11-02T15:51:49Z</time>
      </trkpt>
      <trkpt lat="46.02117" lon="4.65774">
        <ele>273</ele>
        <time>2017-11-02T15:53:49Z</time>
      </trkpt>
      <trkpt lat="46.02122" lon="4.65775">
        <ele>272</ele>
        <time>2017-11-02T15:55:49Z</time>
      </trkpt>
      <trkpt lat="46.02146" lon="4.65776">
        <ele>271</ele>
        <time>2017-11-02T15:57:49Z</time>
      </trkpt>
      <trkpt lat="46.02213" lon="4.65772">
        <ele>268</ele>
        <time>2017-11-02T15:59:49Z</time>
      </trkpt>
      <trkpt lat="46.02226" lon="4.65768">
        <ele>267</ele>
        <time>2017-11-02T16:01:49Z</time>
      </trkpt>
      <trkpt lat="46.02239" lon="4.65762">
        <ele>266</ele>
        <time>2017-11-02T16:03:49Z</time>
      </trkpt>
      <trkpt lat="46.02254" lon="4.65746">
        <ele>266</ele>
        <time>2017-11-02T16:05:49Z</time>
      </trkpt>
      <trkpt lat="46.02275" lon="4.65731">
        <ele>267</ele>
        <time>2017-11-02T16:07:49Z</time>
      </trkpt>
      <trkpt lat="46.0228" lon="4.65727">
        <ele>267</ele>
        <time>2017-11-02T16:09:49Z</time>
      </trkpt>
      <trkpt lat="46.02283" lon="4.65726">
        <ele>267</ele>
        <time>2017-11-02T16:11:49Z</time>
      </trkpt>
      <trkpt lat="46.02288" lon="4.65726">
        <ele>267</ele>
        <time>2017-11-02T16:13:49Z</time>
      </trkpt>
      <trkpt lat="46.02292" lon="4.65725">
        <ele>267</ele>
        <time>2017-11-02T16:15:49Z</time>
      </trkpt>
      <trkpt lat="46.02297" lon="4.65726">
        <ele>267</ele>
        <time>2017-11-02T16:17:49Z</time>
      </trkpt>
      <trkpt lat="46.02306" lon="4.65734">
        <ele>267</ele>
        <time>2017-11-02T16:19:49Z</time>
      </trkpt>
      <trkpt lat="46.02314" lon="4.65742">
        <ele>266</ele>
        <time>2017-11-02T16:21:49Z</time>
      </trkpt>
      <trkpt lat="46.02326" lon="4.65756">
        <ele>266</ele>
        <time>2017-11-02T16:23:49Z</time>
      </trkpt>
      <trkpt lat="46.02346" lon="4.65777">
        <ele>264</ele>
        <time>2017-11-02T16:25:49Z</time>
      </trkpt>
      <trkpt lat="46.02361" lon="4.65796">
        <ele>263</ele>
        <time>2017-11-02T16:27:49Z</time>
      </trkpt>
      <trkpt lat="46.02371" lon="4.65806">
        <ele>262</ele>
        <time>2017-11-02T16:29:49Z</time>
      </trkpt>
      <trkpt lat="46.02391" lon="4.65835">
        <ele>261</ele>
        <time>2017-11-02T16:31:49Z</time>
      </trkpt>
      <trkpt lat="46.02399" lon="4.65848">
        <ele>260</ele>
        <time>2017-11-02T16:33:49Z</time>
      </trkpt>
      <trkpt lat="46.02414" lon="4.6588">
        <ele>258</ele>
        <time>2017-11-02T16:35:49Z</time>
      </trkpt>
      <trkpt lat="46.02416" lon="4.65887">
        <ele>258</ele>
        <time>2017-11-02T16:37:49Z</time>
      </trkpt>
      <trkpt lat="46.02422" lon="4.65918">
        <ele>256</ele>
        <time>2017-11-02T16:39:49Z</time>
      </trkpt>
      <trkpt lat="46.02435" lon="4.66017">
        <ele>256</ele>
        <time>2017-11-02T16:41:49Z</time>
      </trkpt>
      <trkpt lat="46.02443" lon="4.66055">
        <ele>255</ele>
        <time>2017-11-02T16:43:49Z</time>
      </trkpt>
      <trkpt lat="46.02453" lon="4.6609">
        <ele>254</ele>
        <time>2017-11-02T16:45:49Z</time>
      </trkpt>
      <trkpt lat="46.02471" lon="4.66139">
        <ele>254</ele>
        <time>2017-11-02T16:47:49Z</time>
      </trkpt>
      <trkpt lat="46.02482" lon="4.66174">
        <ele>254</ele>
        <time>2017-11-02T16:49:49Z</time>
      </trkpt>
      <trkpt lat="46.02482" lon="4.66174">
        <ele>254</ele>
        <time>2017-11-02T16:51:49Z</time>
      </trkpt>
      <trkpt lat="46.02485" lon="4.66188">
        <ele>254</ele>
        <time>2017-11-02T16:53:49Z</time>
      </trkpt>
      <trkpt lat="46.02489" lon="4.66191">
        <ele>254</ele>
        <time>2017-11-02T16:55:49Z</time>
      </trkpt>
      <trkpt lat="46.02489" lon="4.66218">
        <ele>254</ele>
        <time>2017-11-02T16:57:49Z</time>
      </trkpt>
      <trkpt lat="46.0249" lon="4.6624">
        <ele>254</ele>
        <time>2017-11-02T16:59:49Z</time>
      </trkpt>
      <trkpt lat="46.02487" lon="4.66256">
        <ele>255</ele>
        <time>2017-11-02T17:01:49Z</time>
      </trkpt>
      <trkpt lat="46.02483" lon="4.66273">
        <ele>255</ele>
        <time>2017-11-02T17:03:49Z</time>
      </trkpt>
      <trkpt lat="46.02479" lon="4.66291">
        <ele>255</ele>
        <time>2017-11-02T17:05:49Z</time>
      </trkpt>
      <trkpt lat="46.02476" lon="4.66307">
        <ele>255</ele>
        <time>2017-11-02T17:07:49Z</time>
      </trkpt>
      <trkpt lat="46.02469" lon="4.66326">
        <ele>255</ele>
        <time>2017-11-02T17:09:49Z</time>
      </trkpt>
      <trkpt lat="46.0245" lon="4.66392">
        <ele>255</ele>
        <time>2017-11-02T17:11:49Z</time>
      </trkpt>
      <trkpt lat="46.02445" lon="4.66407">
        <ele>254</ele>
        <time>2017-11-02T17:13:49Z</time>
      </trkpt>
      <trkpt lat="46.02427" lon="4.66469">
        <ele>255</ele>
        <time>2017-11-02T17:15:49Z</time>
      </trkpt>
      <trkpt lat="46.02421" lon="4.66491">
        <ele>255</ele>
        <time>2017-11-02T17:17:49Z</time>
      </trkpt>
      <trkpt lat="46.0241" lon="4.6653">
        <ele>254</ele>
        <time>2017-11-02T17:19:49Z</time>
      </trkpt>
      <trkpt lat="46.02404" lon="4.66548">
        <ele>253</ele>
        <time>2017-11-02T17:21:49Z</time>
      </trkpt>
      <trkpt lat="46.02389" lon="4.6658">
        <ele>251</ele>
        <time>2017-11-02T17:23:49Z</time>
      </trkpt>
      <trkpt lat="46.02377" lon="4.66611">
        <ele>250</ele>
        <time>2017-11-02T17:25:49Z</time>
      </trkpt>
      <trkpt lat="46.02374" lon="4.66619">
        <ele>249</ele>
        <time>2017-11-02T17:27:49Z</time>
      </trkpt>
      <trkpt lat="46.02298" lon="4.6681">
        <ele>242</ele>
        <time>2017-11-02T17:29:49Z</time>
      </trkpt>
      <trkpt lat="46.02297" lon="4.66813">
        <ele>242</ele>
        <time>2017-11-02T17:31:49Z</time>
      </trkpt>
      <trkpt lat="46.02284" lon="4.66863">
        <ele>241</ele>
        <time>2017-11-02T17:33:49Z</time>
      </trkpt>
      <trkpt lat="46.02278" lon="4.66899">
        <ele>240</ele>
        <time>2017-11-02T17:35:49Z</time>
      </trkpt>
      <trkpt lat="46.02278" lon="4.66913">
        <ele>239</ele>
        <time>2017-11-02T17:37:49Z</time>
      </trkpt>
      <trkpt lat="46.02276" lon="4.66951">
        <ele>238</ele>
        <time>2017-11-02T17:39:49Z</time>
      </trkpt>
      <trkpt lat="46.02275" lon="4.66974">
        <ele>237</ele>
        <time>2017-11-02T17:41:49Z</time>
      </trkpt>
      <trkpt lat="46.02265" lon="4.67048">
        <ele>236</ele>
        <time>2017-11-02T17:43:49Z</time>
      </trkpt>
      <trkpt lat="46.02254" lon="4.67087">
        <ele>236</ele>
        <time>2017-11-02T17:45:49Z</time>
      </trkpt>
      <trkpt lat="46.02243" lon="4.67123">
        <ele>235</ele>
        <time>2017-11-02T17:47:49Z</time>
      </trkpt>
      <trkpt lat="46.02238" lon="4.67145">
        <ele>235</ele>
        <time>2017-11-02T17:49:49Z</time>
      </trkpt>
      <trkpt lat="46.02232" lon="4.6717">
        <ele>234</ele>
        <time>2017-11-02T17:51:49Z</time>
      </trkpt>
      <trkpt lat="46.02219" lon="4.67253">
        <ele>232</ele>
        <time>2017-11-02T17:53:49Z</time>
      </trkpt>
      <trkpt lat="46.02215" lon="4.67274">
        <ele>231</ele>
        <time>2017-11-02T17:55:49Z</time>
      </trkpt>
      <trkpt lat="46.02209" lon="4.67313">
        <ele>230</ele>
        <time>2017-11-02T17:57:49Z</time>
      </trkpt>
      <trkpt lat="46.02204" lon="4.67339">
        <ele>229</ele>
        <time>2017-11-02T17:59:49Z</time>
      </trkpt>
      <trkpt lat="46.02201" lon="4.67356">
        <ele>228</ele>
        <time>2017-11-02T18:01:49Z</time>
      </trkpt>
      <trkpt lat="46.02196" lon="4.67376">
        <ele>227</ele>
        <time>2017-11-02T18:03:49Z</time>
      </trkpt>
      <trkpt lat="46.02189" lon="4.67394">
        <ele>226</ele>
        <time>2017-11-02T18:05:49Z</time>
      </trkpt>
      <trkpt lat="46.02178" lon="4.67413">
        <ele>225</ele>
        <time>2017-11-02T18:07:49Z</time>
      </trkpt>
      <trkpt lat="46.02164" lon="4.67428">
        <ele>224</ele>
        <time>2017-11-02T18:09:49Z</time>
      </trkpt>
      <trkpt lat="46.02156" lon="4.67441">
        <ele>223</ele>
        <time>2017-11-02T18:11:49Z</time>
      </trkpt>
      <trkpt lat="46.02145" lon="4.67453">
        <ele>223</ele>
        <time>2017-11-02T18:13:49Z</time>
      </trkpt>
      <trkpt lat="46.02127" lon="4.67479">
        <ele>223</ele>
        <time>2017-11-02T18:15:49Z</time>
      </trkpt>
      <trkpt lat="46.02083" lon="4.67539">
        <ele>225</ele>
        <time>2017-11-02T18:17:49Z</time>
      </trkpt>
      <trkpt lat="46.02077" lon="4.67546">
        <ele>225</ele>
        <time>2017-11-02T18:19:49Z</time>
      </trkpt>
      <trkpt lat="46.02064" lon="4.67566">
        <ele>225</ele>
        <time>2017-11-02T18:21:49Z</time>
      </trkpt>
      <trkpt lat="46.02055" lon="4.67579">
        <ele>225</ele>
        <time>2017-11-02T18:23:49Z</time>
      </trkpt>
      <trkpt lat="46.02042" lon="4.67595">
        <ele>225</ele>
        <time>2017-11-02T18:25:49Z</time>
      </trkpt>
      <trkpt lat="46.02029" lon="4.67612">
        <ele>224</ele>
        <time>2017-11-02T18:27:49Z</time>
      </trkpt>
      <trkpt lat="46.02016" lon="4.6763">
        <ele>224</ele>
        <time>2017-11-02T18:29:49Z</time>
      </trkpt>
      <trkpt lat="46.02006" lon="4.67646">
        <ele>223</ele>
        <time>2017-11-02T18:31:49Z</time>
      </trkpt>
      <trkpt lat="46.01998" lon="4.67663">
        <ele>223</ele>
        <time>2017-11-02T18:33:49Z</time>
      </trkpt>
      <trkpt lat="46.01994" lon="4.67669">
        <ele>223</ele>
        <time>2017-11-02T18:35:49Z</time>
      </trkpt>
      <trkpt lat="46.01988" lon="4.67682">
        <ele>223</ele>
        <time>2017-11-02T18:37:49Z</time>
      </trkpt>
      <trkpt lat="46.01986" lon="4.67688">
        <ele>223</ele>
        <time>2017-11-02T18:39:49Z</time>
      </trkpt>
      <trkpt lat="46.01975" lon="4.67716">
        <ele>223</ele>
        <time>2017-11-02T18:41:49Z</time>
      </trkpt>
      <trkpt lat="46.01969" lon="4.6774">
        <ele>223</ele>
        <time>2017-11-02T18:43:49Z</time>
      </trkpt>
      <trkpt lat="46.01964" lon="4.6776">
        <ele>222</ele>
        <time>2017-11-02T18:45:49Z</time>
      </trkpt>
      <trkpt lat="46.01955" lon="4.678">
        <ele>221</ele>
        <time>2017-11-02T18:47:49Z</time>
      </trkpt>
      <trkpt lat="46.01947" lon="4.67861">
        <ele>220</ele>
        <time>2017-11-02T18:49:49Z</time>
      </trkpt>
      <trkpt lat="46.01934" lon="4.67953">
        <ele>218</ele>
        <time>2017-11-02T18:51:49Z</time>
      </trkpt>
      <trkpt lat="46.01931" lon="4.67983">
        <ele>218</ele>
        <time>2017-11-02T18:53:49Z</time>
      </trkpt>
      <trkpt lat="46.01927" lon="4.68019">
        <ele>217</ele>
        <time>2017-11-02T18:55:49Z</time>
      </trkpt>
      <trkpt lat="46.01926" lon="4.68029">
        <ele>217</ele>
        <time>2017-11-02T18:57:49Z</time>
      </trkpt>
      <trkpt lat="46.01913" lon="4.68105">
        <ele>215</ele>
        <time>2017-11-02T18:59:49Z</time>
      </trkpt>
      <trkpt lat="46.01911" lon="4.68115">
        <ele>214</ele>
        <time>2017-11-02T19:01:49Z</time>
      </trkpt>
      <trkpt lat="46.01908" lon="4.68132">
        <ele>214</ele>
        <time>2017-11-02T19:03:49Z</time>
      </trkpt>
      <trkpt lat="46.01904" lon="4.68151">
        <ele>214</ele>
        <time>2017-11-02T19:05:49Z</time>
      </trkpt>
      <trkpt lat="46.01896" lon="4.68179">
        <ele>213</ele>
        <time>2017-11-02T19:07:49Z</time>
      </trkpt>
      <trkpt lat="46.01881" lon="4.68217">
        <ele>212</ele>
        <time>2017-11-02T19:09:49Z</time>
      </trkpt>
      <trkpt lat="46.01864" lon="4.68258">
        <ele>211</ele>
        <time>2017-11-02T19:11:49Z</time>
      </trkpt>
      <trkpt lat="46.0186" lon="4.68264">
        <ele>211</ele>
        <time>2017-11-02T19:13:49Z</time>
      </trkpt>
      <trkpt lat="46.01855" lon="4.68273">
        <ele>210</ele>
        <time>2017-11-02T19:15:49Z</time>
      </trkpt>
      <trkpt lat="46.01838" lon="4.68302">
        <ele>209</ele>
        <time>2017-11-02T19:17:49Z</time>
      </trkpt>
      <trkpt lat="46.01833" lon="4.68308">
        <ele>209</ele>
        <time>2017-11-02T19:19:49Z</time>
      </trkpt>
      <trkpt lat="46.01829" lon="4.68317">
        <ele>209</ele>
        <time>2017-11-02T19:21:49Z</time>
      </trkpt>
      <trkpt lat="46.01818" lon="4.68338">
        <ele>210</ele>
        <time>2017-11-02T19:23:49Z</time>
      </trkpt>
      <trkpt lat="46.0181" lon="4.68358">
        <ele>210</ele>
        <time>2017-11-02T19:25:49Z</time>
      </trkpt>
      <trkpt lat="46.01807" lon="4.68366">
        <ele>210</ele>
        <time>2017-11-02T19:27:49Z</time>
      </trkpt>
      <trkpt lat="46.01804" lon="4.68371">
        <ele>210</ele>
        <time>2017-11-02T19:29:49Z</time>
      </trkpt>
      <trkpt lat="46.01803" lon="4.68375">
        <ele>210</ele>
        <time>2017-11-02T19:31:49Z</time>
      </trkpt>
      <trkpt lat="46.01801" lon="4.6838">
        <ele>210</ele>
        <time>2017-11-02T19:33:49Z</time>
      </trkpt>
      <trkpt lat="46.018" lon="4.68385">
        <ele>210</ele>
        <time>2017-11-02T19:35:49Z</time>
      </trkpt>
      <trkpt lat="46.01792" lon="4.68412">
        <ele>210</ele>
        <time>2017-11-02T19:37:49Z</time>
      </trkpt>
      <trkpt lat="46.01783" lon="4.6849">
        <ele>209</ele>
        <time>2017-11-02T19:39:49Z</time>
      </trkpt>
      <trkpt lat="46.01774" lon="4.6859">
        <ele>210</ele>
        <time>2017-11-02T19:41:49Z</time>
      </trkpt>
      <trkpt lat="46.01773" lon="4.68597">
        <ele>210</ele>
        <time>2017-11-02T19:43:49Z</time>
      </trkpt>
      <trkpt lat="46.01767" lon="4.6864">
        <ele>210</ele>
        <time>2017-11-02T19:45:49Z</time>
      </trkpt>
      <trkpt lat="46.01763" lon="4.6866">
        <ele>210</ele>
        <time>2017-11-02T19:47:49Z</time>
      </trkpt>
      <trkpt lat="46.01754" lon="4.68685">
        <ele>211</ele>
        <time>2017-11-02T19:49:49Z</time>
      </trkpt>
      <trkpt lat="46.01753" lon="4.68688">
        <ele>211</ele>
        <time>2017-11-02T19:51:49Z</time>
      </trkpt>
      <trkpt lat="46.01736" lon="4.68726">
        <ele>211</ele>
        <time>2017-11-02T19:53:49Z</time>
      </trkpt>
      <trkpt lat="46.01713" lon="4.68774">
        <ele>211</ele>
        <time>2017-11-02T19:55:49Z</time>
      </trkpt>
      <trkpt lat="46.01691" lon="4.68831">
        <ele>210</ele>
        <time>2017-11-02T19:57:49Z</time>
      </trkpt>
      <trkpt lat="46.01686" lon="4.68843">
        <ele>210</ele>
        <time>2017-11-02T19:59:49Z</time>
      </trkpt>
      <trkpt lat="46.01671" lon="4.68879">
        <ele>211</ele>
        <time>2017-11-02T20:01:49Z</time>
      </trkpt>
      <trkpt lat="46.01661" lon="4.68902">
        <ele>212</ele>
        <time>2017-11-02T20:03:49Z</time>
      </trkpt>
      <trkpt lat="46.01633" lon="4.68968">
        <ele>212</ele>
        <time>2017-11-02T20:05:49Z</time>
      </trkpt>
      <trkpt lat="46.0161" lon="4.6902">
        <ele>211</ele>
        <time>2017-11-02T20:07:49Z</time>
      </trkpt>
      <trkpt lat="46.01592" lon="4.69064">
        <ele>211</ele>
        <time>2017-11-02T20:09:49Z</time>
      </trkpt>
      <trkpt lat="46.0159" lon="4.69069">
        <ele>211</ele>
        <time>2017-11-02T20:11:49Z</time>
      </trkpt>
      <trkpt lat="46.01539" lon="4.69182">
        <ele>210</ele>
        <time>2017-11-02T20:13:49Z</time>
      </trkpt>
      <trkpt lat="46.01539" lon="4.69182">
        <ele>210</ele>
        <time>2017-11-02T20:15:49Z</time>
      </trkpt>
      <trkpt lat="46.01538" lon="4.69182">
        <ele>210</ele>
        <time>2017-11-02T20:17:49Z</time>
      </trkpt>
      <trkpt lat="46.01537" lon="4.69182">
        <ele>210</ele>
        <time>2017-11-02T20:19:49Z</time>
      </trkpt>
      <trkpt lat="46.01536" lon="4.69182">
        <ele>210</ele>
        <time>2017-11-02T20:21:49Z</time>
      </trkpt>
      <trkpt lat="46.01535" lon="4.69182">
        <ele>211</ele>
        <time>2017-11-02T20:23:49Z</time>
      </trkpt>
      <trkpt lat="46.01535" lon="4.69183">
        <ele>210</ele>
        <time>2017-11-02T20:25:49Z</time>
      </trkpt>
      <trkpt lat="46.01534" lon="4.69183">
        <ele>211</ele>
        <time>2017-11-02T20:27:49Z</time>
      </trkpt>
      <trkpt lat="46.01533" lon="4.69183">
        <ele>211</ele>
        <time>2017-11-02T20:29:49Z</time>
      </trkpt>
      <trkpt lat="46.01533" lon="4.69184">
        <ele>211</ele>
        <time>2017-11-02T20:31:49Z</time>
      </trkpt>
      <trkpt lat="46.01532" lon="4.69184">
        <ele>211</ele>
        <time>2017-11-02T20:33:49Z</time>
      </trkpt>
      <trkpt lat="46.01531" lon="4.69185">
        <ele>211</ele>
        <time>2017-11-02T20:35:49Z</time>
      </trkpt>
      <trkpt lat="46.0153" lon="4.69185">
        <ele>211</ele>
        <time>2017-11-02T20:37:49Z</time>
      </trkpt>
      <trkpt lat="46.0153" lon="4.69186">
        <ele>211</ele>
        <time>2017-11-02T20:39:49Z</time>
      </trkpt>
      <trkpt lat="46.01529" lon="4.69187">
        <ele>211</ele>
        <time>2017-11-02T20:41:49Z</time>
      </trkpt>
      <trkpt lat="46.01529" lon="4.69188">
        <ele>211</ele>
        <time>2017-11-02T20:43:49Z</time>
      </trkpt>
      <trkpt lat="46.01528" lon="4.69188">
        <ele>211</ele>
        <time>2017-11-02T20:45:49Z</time>
      </trkpt>
      <trkpt lat="46.01528" lon="4.69189">
        <ele>211</ele>
        <time>2017-11-02T20:47:49Z</time>
      </trkpt>
      <trkpt lat="46.01528" lon="4.6919">
        <ele>211</ele>
        <time>2017-11-02T20:49:49Z</time>
      </trkpt>
      <trkpt lat="46.01527" lon="4.69191">
        <ele>211</ele>
        <time>2017-11-02T20:51:49Z</time>
      </trkpt>
      <trkpt lat="46.01527" lon="4.69192">
        <ele>211</ele>
        <time>2017-11-02T20:53:49Z</time>
      </trkpt>
      <trkpt lat="46.01527" lon="4.69193">
        <ele>211</ele>
        <time>2017-11-02T20:55:49Z</time>
      </trkpt>
      <trkpt lat="46.01527" lon="4.69194">
        <ele>211</ele>
        <time>2017-11-02T20:57:49Z</time>
      </trkpt>
      <trkpt lat="46.01526" lon="4.69195">
        <ele>211</ele>
        <time>2017-11-02T20:59:49Z</time>
      </trkpt>
      <trkpt lat="46.01526" lon="4.69196">
        <ele>211</ele>
        <time>2017-11-02T21:01:49Z</time>
      </trkpt>
      <trkpt lat="46.01526" lon="4.69197">
        <ele>211</ele>
        <time>2017-11-02T21:03:49Z</time>
      </trkpt>
      <trkpt lat="46.01526" lon="4.69198">
        <ele>211</ele>
        <time>2017-11-02T21:05:49Z</time>
      </trkpt>
      <trkpt lat="46.01526" lon="4.69199">
        <ele>211</ele>
        <time>2017-11-02T21:07:49Z</time>
      </trkpt>
      <trkpt lat="46.01526" lon="4.692">
        <ele>211</ele>
        <time>2017-11-02T21:09:49Z</time>
      </trkpt>
      <trkpt lat="46.01527" lon="4.69201">
        <ele>211</ele>
        <time>2017-11-02T21:11:49Z</time>
      </trkpt>
      <trkpt lat="46.01527" lon="4.69202">
        <ele>211</ele>
        <time>2017-11-02T21:13:49Z</time>
      </trkpt>
      <trkpt lat="46.01527" lon="4.69203">
        <ele>211</ele>
        <time>2017-11-02T21:15:49Z</time>
      </trkpt>
      <trkpt lat="46.01527" lon="4.69204">
        <ele>211</ele>
        <time>2017-11-02T21:17:49Z</time>
      </trkpt>
      <trkpt lat="46.01527" lon="4.69205">
        <ele>211</ele>
        <time>2017-11-02T21:19:49Z</time>
      </trkpt>
      <trkpt lat="46.01528" lon="4.69205">
        <ele>211</ele>
        <time>2017-11-02T21:21:49Z</time>
      </trkpt>
      <trkpt lat="46.01528" lon="4.69206">
        <ele>211</ele>
        <time>2017-11-02T21:23:49Z</time>
      </trkpt>
      <trkpt lat="46.01528" lon="4.69207">
        <ele>211</ele>
        <time>2017-11-02T21:25:49Z</time>
      </trkpt>
      <trkpt lat="46.01529" lon="4.69207">
        <ele>210</ele>
        <time>2017-11-02T21:27:49Z</time>
      </trkpt>
      <trkpt lat="46.01529" lon="4.69208">
        <ele>210</ele>
        <time>2017-11-02T21:29:49Z</time>
      </trkpt>
      <trkpt lat="46.0153" lon="4.69209">
        <ele>210</ele>
        <time>2017-11-02T21:31:49Z</time>
      </trkpt>
      <trkpt lat="46.0153" lon="4.6921">
        <ele>210</ele>
        <time>2017-11-02T21:33:49Z</time>
      </trkpt>
      <trkpt lat="46.01531" lon="4.6921">
        <ele>210</ele>
        <time>2017-11-02T21:35:49Z</time>
      </trkpt>
      <trkpt lat="46.01531" lon="4.69211">
        <ele>210</ele>
        <time>2017-11-02T21:37:49Z</time>
      </trkpt>
      <trkpt lat="46.01532" lon="4.69211">
        <ele>210</ele>
        <time>2017-11-02T21:39:49Z</time>
      </trkpt>
      <trkpt lat="46.01533" lon="4.69212">
        <ele>210</ele>
        <time>2017-11-02T21:41:49Z</time>
      </trkpt>
      <trkpt lat="46.01534" lon="4.69212">
        <ele>210</ele>
        <time>2017-11-02T21:43:49Z</time>
      </trkpt>
      <trkpt lat="46.01534" lon="4.69213">
        <ele>210</ele>
        <time>2017-11-02T21:45:49Z</time>
      </trkpt>
      <trkpt lat="46.01535" lon="4.69213">
        <ele>210</ele>
        <time>2017-11-02T21:47:49Z</time>
      </trkpt>
      <trkpt lat="46.01536" lon="4.69213">
        <ele>210</ele>
        <time>2017-11-02T21:49:49Z</time>
      </trkpt>
      <trkpt lat="46.01537" lon="4.69213">
        <ele>210</ele>
        <time>2017-11-02T21:51:49Z</time>
      </trkpt>
      <trkpt lat="46.01538" lon="4.69213">
        <ele>210</ele>
        <time>2017-11-02T21:53:49Z</time>
      </trkpt>
      <trkpt lat="46.01539" lon="4.69213">
        <ele>210</ele>
        <time>2017-11-02T21:55:49Z</time>
      </trkpt>
      <trkpt lat="46.0154" lon="4.69213">
        <ele>210</ele>
        <time>2017-11-02T21:57:49Z</time>
      </trkpt>
      <trkpt lat="46.01541" lon="4.69212">
        <ele>210</ele>
        <time>2017-11-02T21:59:49Z</time>
      </trkpt>
      <trkpt lat="46.01542" lon="4.69212">
        <ele>210</ele>
        <time>2017-11-02T22:01:49Z</time>
      </trkpt>
      <trkpt lat="46.01542" lon="4.69211">
        <ele>210</ele>
        <time>2017-11-02T22:03:49Z</time>
      </trkpt>
      <trkpt lat="46.01543" lon="4.69211">
        <ele>210</ele>
        <time>2017-11-02T22:05:49Z</time>
      </trkpt>
      <trkpt lat="46.01544" lon="4.6921">
        <ele>210</ele>
        <time>2017-11-02T22:07:49Z</time>
      </trkpt>
      <trkpt lat="46.01544" lon="4.69209">
        <ele>210</ele>
        <time>2017-11-02T22:09:49Z</time>
      </trkpt>
      <trkpt lat="46.01545" lon="4.69209">
        <ele>210</ele>
        <time>2017-11-02T22:11:49Z</time>
      </trkpt>
      <trkpt lat="46.01545" lon="4.69208">
        <ele>210</ele>
        <time>2017-11-02T22:13:49Z</time>
      </trkpt>
      <trkpt lat="46.01546" lon="4.69207">
        <ele>210</ele>
        <time>2017-11-02T22:15:49Z</time>
      </trkpt>
      <trkpt lat="46.01546" lon="4.69206">
        <ele>210</ele>
        <time>2017-11-02T22:17:49Z</time>
      </trkpt>
      <trkpt lat="46.01547" lon="4.69205">
        <ele>210</ele>
        <time>2017-11-02T22:19:49Z</time>
      </trkpt>
      <trkpt lat="46.01547" lon="4.69204">
        <ele>210</ele>
        <time>2017-11-02T22:21:49Z</time>
      </trkpt>
      <trkpt lat="46.01547" lon="4.69203">
        <ele>210</ele>
        <time>2017-11-02T22:23:49Z</time>
      </trkpt>
      <trkpt lat="46.01547" lon="4.69202">
        <ele>210</ele>
        <time>2017-11-02T22:25:49Z</time>
      </trkpt>
      <trkpt lat="46.01548" lon="4.69202">
        <ele>210</ele>
        <time>2017-11-02T22:27:49Z</time>
      </trkpt>
      <trkpt lat="46.01548" lon="4.69201">
        <ele>210</ele>
        <time>2017-11-02T22:29:49Z</time>
      </trkpt>
      <trkpt lat="46.01548" lon="4.692">
        <ele>210</ele>
        <time>2017-11-02T22:31:49Z</time>
      </trkpt>
      <trkpt lat="46.01548" lon="4.69199">
        <ele>210</ele>
        <time>2017-11-02T22:33:49Z</time>
      </trkpt>
      <trkpt lat="46.01548" lon="4.69198">
        <ele>210</ele>
        <time>2017-11-02T22:35:49Z</time>
      </trkpt>
      <trkpt lat="46.01548" lon="4.69197">
        <ele>210</ele>
        <time>2017-11-02T22:37:49Z</time>
      </trkpt>
      <trkpt lat="46.01548" lon="4.69196">
        <ele>210</ele>
        <time>2017-11-02T22:39:49Z</time>
      </trkpt>
      <trkpt lat="46.01548" lon="4.69195">
        <ele>210</ele>
        <time>2017-11-02T22:41:49Z</time>
      </trkpt>
      <trkpt lat="46.01548" lon="4.69194">
        <ele>210</ele>
        <time>2017-11-02T22:43:49Z</time>
      </trkpt>
      <trkpt lat="46.01561" lon="4.69193">
        <ele>210</ele>
        <time>2017-11-02T22:45:49Z</time>
      </trkpt>
      <trkpt lat="46.01587" lon="4.69206">
        <ele>209</ele>
        <time>2017-11-02T22:47:49Z</time>
      </trkpt>
      <trkpt lat="46.01664" lon="4.69246">
        <ele>205</ele>
        <time>2017-11-02T22:49:49Z</time>
      </trkpt>
      <trkpt lat="46.01669" lon="4.69249">
        <ele>205</ele>
        <time>2017-11-02T22:51:49Z</time>
      </trkpt>
      <trkpt lat="46.01687" lon="4.69258">
        <ele>203</ele>
        <time>2017-11-02T22:53:49Z</time>
      </trkpt>
      <trkpt lat="46.01755" lon="4.69295">
        <ele>198</ele>
        <time>2017-11-02T22:55:49Z</time>
      </trkpt>
      <trkpt lat="46.01766" lon="4.69301">
        <ele>197</ele>
        <time>2017-11-02T22:57:49Z</time>
      </trkpt>
      <trkpt lat="46.01821" lon="4.6933">
        <ele>195</ele>
        <time>2017-11-02T22:59:49Z</time>
      </trkpt>
      <trkpt lat="46.01821" lon="4.6933">
        <ele>195</ele>
        <time>2017-11-02T23:01:49Z</time>
      </trkpt>
      <trkpt lat="46.01831" lon="4.69339">
        <ele>195</ele>
        <time>2017-11-02T23:03:49Z</time>
      </trkpt>
      <trkpt lat="46.01838" lon="4.69349">
        <ele>195</ele>
        <time>2017-11-02T23:05:49Z</time>
      </trkpt>
      <trkpt lat="46.01849" lon="4.69369">
        <ele>195</ele>
        <time>2017-11-02T23:07:49Z</time>
      </trkpt>
      <trkpt lat="46.01932" lon="4.69542">
        <ele>191</ele>
        <time>2017-11-02T23:09:49Z</time>
      </trkpt>
      <trkpt lat="46.01979" lon="4.69642">
        <ele>190</ele>
        <time>2017-11-02T23:11:49Z</time>
      </trkpt>
      <trkpt lat="46.01989" lon="4.69663">
        <ele>189</ele>
        <time>2017-11-02T23:13:49Z</time>
      </trkpt>
      <trkpt lat="46.01989" lon="4.69663">
        <ele>189</ele>
        <time>2017-11-02T23:15:49Z</time>
      </trkpt>
      <trkpt lat="46.01984" lon="4.69675">
        <ele>189</ele>
        <time>2017-11-02T23:17:49Z</time>
      </trkpt>
      <trkpt lat="46.01984" lon="4.6968">
        <ele>189</ele>
        <time>2017-11-02T23:19:49Z</time>
      </trkpt>
      <trkpt lat="46.01983" lon="4.69685">
        <ele>189</ele>
        <time>2017-11-02T23:21:49Z</time>
      </trkpt>
      <trkpt lat="46.01984" lon="4.69704">
        <ele>189</ele>
        <time>2017-11-02T23:23:49Z</time>
      </trkpt>
      <trkpt lat="46.01984" lon="4.69704">
        <ele>189</ele>
        <time>2017-11-02T23:25:49Z</time>
      </trkpt>
      <trkpt lat="46.01987" lon="4.69723">
        <ele>189</ele>
        <time>2017-11-02T23:27:49Z</time>
      </trkpt>
      <trkpt lat="46.02012" lon="4.69864">
        <ele>188</ele>
        <time>2017-11-02T23:29:49Z</time>
      </trkpt>
      <trkpt lat="46.02065" lon="4.70026">
        <ele>185</ele>
        <time>2017-11-02T23:31:49Z</time>
      </trkpt>
      <trkpt lat="46.02082" lon="4.70076">
        <ele>186</ele>
        <time>2017-11-02T23:33:49Z</time>
      </trkpt>
      <trkpt lat="46.021" lon="4.70127">
        <ele>186</ele>
        <time>2017-11-02T23:35:49Z</time>
      </trkpt>
      <trkpt lat="46.02105" lon="4.7014">
        <ele>186</ele>
        <time>2017-11-02T23:37:49Z</time>
      </trkpt>
      <trkpt lat="46.02117" lon="4.70176">
        <ele>186</ele>
        <time>2017-11-02T23:39:49Z</time>
      </trkpt>
      <trkpt lat="46.0213" lon="4.70216">
        <ele>185</ele>
        <time>2017-11-02T23:41:49Z</time>
      </trkpt>
      <trkpt lat="46.0214" lon="4.70253">
        <ele>185</ele>
        <time>2017-11-02T23:43:49Z</time>
      </trkpt>
      <trkpt lat="46.02146" lon="4.7027">
        <ele>184</ele>
        <time>2017-11-02T23:45:49Z</time>
      </trkpt>
      <trkpt lat="46.02154" lon="4.70284">
        <ele>183</ele>
        <time>2017-11-02T23:47:49Z</time>
      </trkpt>
      <trkpt lat="46.02163" lon="4.70298">
        <ele>182</ele>
        <time>2017-11-02T23:49:49Z</time>
      </trkpt>
      <trkpt lat="46.02179" lon="4.70317">
        <ele>181</ele>
        <time>2017-11-02T23:51:49Z</time>
      </trkpt>
      <trkpt lat="46.02202" lon="4.70346">
        <ele>180</ele>
        <time>2017-11-02T23:53:49Z</time>
      </trkpt>
      <trkpt lat="46.02208" lon="4.70352">
        <ele>180</ele>
        <time>2017-11-02T23:55:49Z</time>
      </trkpt>
      <trkpt lat="46.02219" lon="4.70368">
        <ele>179</ele>
        <time>2017-11-02T23:57:49Z</time>
      </trkpt>
      <trkpt lat="46.0223" lon="4.70383">
        <ele>179</ele>
        <time>2017-11-02T23:59:49Z</time>
      </trkpt>
      <trkpt lat="46.02252" lon="4.7041">
        <ele>179</ele>
        <time>2017-11-03T00:01:49Z</time>
      </trkpt>
      <trkpt lat="46.02264" lon="4.70424">
        <ele>180</ele>
        <time>2017-11-03T00:03:49Z</time>
      </trkpt>
      <trkpt lat="46.02275" lon="4.70437">
        <ele>180</ele>
        <time>2017-11-03T00:05:49Z</time>
      </trkpt>
      <trkpt lat="46.02275" lon="4.70437">
        <ele>180</ele>
        <time>2017-11-03T00:07:49Z</time>
      </trkpt>
      <trkpt lat="46.0227" lon="4.70442">
        <ele>180</ele>
        <time>2017-11-03T00:09:49Z</time>
      </trkpt>
      <trkpt lat="46.02261" lon="4.70449">
        <ele>180</ele>
        <time>2017-11-03T00:11:49Z</time>
      </trkpt>
      <trkpt lat="46.02255" lon="4.70452">
        <ele>180</ele>
        <time>2017-11-03T00:13:49Z</time>
      </trkpt>
      <trkpt lat="46.02249" lon="4.70457">
        <ele>180</ele>
        <time>2017-11-03T00:15:49Z</time>
      </trkpt>
      <trkpt lat="46.02245" lon="4.70462">
        <ele>181</ele>
        <time>2017-11-03T00:17:49Z</time>
      </trkpt>
      <trkpt lat="46.02241" lon="4.70468">
        <ele>181</ele>
        <time>2017-11-03T00:19:49Z</time>
      </trkpt>
      <trkpt lat="46.02238" lon="4.70476">
        <ele>181</ele>
        <time>2017-11-03T00:21:49Z</time>
      </trkpt>
      <trkpt lat="46.02234" lon="4.70491">
        <ele>181</ele>
        <time>2017-11-03T00:23:49Z</time>
      </trkpt>
      <trkpt lat="46.02233" lon="4.70501">
        <ele>182</ele>
        <time>2017-11-03T00:25:49Z</time>
      </trkpt>
      <trkpt lat="46.02232" lon="4.70512">
        <ele>182</ele>
        <time>2017-11-03T00:27:49Z</time>
      </trkpt>
      <trkpt lat="46.02232" lon="4.7054">
        <ele>181</ele>
        <time>2017-11-03T00:29:49Z</time>
      </trkpt>
      <trkpt lat="46.02232" lon="4.7054">
        <ele>181</ele>
        <time>2017-11-03T00:31:49Z</time>
      </trkpt>
      <trkpt lat="46.02243" lon="4.70545">
        <ele>182</ele>
        <time>2017-11-03T00:33:49Z</time>
      </trkpt>
      <trkpt lat="46.0226" lon="4.70553">
        <ele>182</ele>
        <time>2017-11-03T00:35:49Z</time>
      </trkpt>
      <trkpt lat="46.02286" lon="4.70561">
        <ele>182</ele>
        <time>2017-11-03T00:37:49Z</time>
      </trkpt>
      <trkpt lat="46.02295" lon="4.70563">
        <ele>182</ele>
        <time>2017-11-03T00:39:49Z</time>
      </trkpt>
      <trkpt lat="46.02307" lon="4.70568">
        <ele>182</ele>
        <time>2017-11-03T00:41:49Z</time>
      </trkpt>
      <trkpt lat="46.02307" lon="4.70568">
        <ele>182</ele>
        <time>2017-11-03T00:43:49Z</time>
      </trkpt>
      <trkpt lat="46.02307" lon="4.70565">
        <ele>182</ele>
        <time>2017-11-03T00:45:49Z</time>
      </trkpt>
      <trkpt lat="46.02312" lon="4.70537">
        <ele>182</ele>
        <time>2017-11-03T00:47:49Z</time>
      </trkpt>
      <trkpt lat="46.02317" lon="4.70511">
        <ele>182</ele>
        <time>2017-11-03T00:49:49Z</time>
      </trkpt>
      <trkpt lat="46.0232" lon="4.70501">
        <ele>182</ele>
        <time>2017-11-03T00:51:49Z</time>
      </trkpt>
      <trkpt lat="46.02326" lon="4.70494">
        <ele>182</ele>
        <time>2017-11-03T00:53:49Z</time>
      </trkpt>
      <trkpt lat="46.02326" lon="4.70494">
        <ele>182</ele>
        <time>2017-11-03T00:55:49Z</time>
      </trkpt>
      <trkpt lat="46.02303" lon="4.70466">
        <ele>181</ele>
        <time>2017-11-03T00:57:49Z</time>
      </trkpt>
      <trkpt lat="46.02275" lon="4.70437">
        <ele>180</ele>
        <time>2017-11-03T00:59:49Z</time>
      </trkpt>
      <trkpt lat="46.02275" lon="4.70437">
        <ele>180</ele>
        <time>2017-11-03T01:01:49Z</time>
      </trkpt>
      <trkpt lat="46.0227" lon="4.70442">
        <ele>180</ele>
        <time>2017-11-03T01:03:49Z</time>
      </trkpt>
      <trkpt lat="46.02261" lon="4.70449">
        <ele>180</ele>
        <time>2017-11-03T01:05:49Z</time>
      </trkpt>
      <trkpt lat="46.02255" lon="4.70452">
        <ele>180</ele>
        <time>2017-11-03T01:07:49Z</time>
      </trkpt>
      <trkpt lat="46.02249" lon="4.70457">
        <ele>180</ele>
        <time>2017-11-03T01:09:49Z</time>
      </trkpt>
      <trkpt lat="46.02245" lon="4.70462">
        <ele>181</ele>
        <time>2017-11-03T01:11:49Z</time>
      </trkpt>
      <trkpt lat="46.02241" lon="4.70468">
        <ele>181</ele>
        <time>2017-11-03T01:13:49Z</time>
      </trkpt>
      <trkpt lat="46.02238" lon="4.70476">
        <ele>181</ele>
        <time>2017-11-03T01:15:49Z</time>
      </trkpt>
      <trkpt lat="46.02234" lon="4.70491">
        <ele>181</ele>
        <time>2017-11-03T01:17:49Z</time>
      </trkpt>
      <trkpt lat="46.02233" lon="4.70501">
        <ele>182</ele>
        <time>2017-11-03T01:19:49Z</time>
      </trkpt>
      <trkpt lat="46.02232" lon="4.70512">
        <ele>182</ele>
        <time>2017-11-03T01:21:49Z</time>
      </trkpt>
      <trkpt lat="46.02232" lon="4.7054">
        <ele>181</ele>
        <time>2017-11-03T01:23:49Z</time>
      </trkpt>
      <trkpt lat="46.02232" lon="4.70542">
        <ele>181</ele>
        <time>2017-11-03T01:25:49Z</time>
      </trkpt>
      <trkpt lat="46.02233" lon="4.70557">
        <ele>181</ele>
        <time>2017-11-03T01:27:49Z</time>
      </trkpt>
      <trkpt lat="46.02234" lon="4.70567">
        <ele>181</ele>
        <time>2017-11-03T01:29:49Z</time>
      </trkpt>
      <trkpt lat="46.02236" lon="4.70585">
        <ele>181</ele>
        <time>2017-11-03T01:31:49Z</time>
      </trkpt>
      <trkpt lat="46.0224" lon="4.70605">
        <ele>182</ele>
        <time>2017-11-03T01:33:49Z</time>
      </trkpt>
      <trkpt lat="46.02243" lon="4.70623">
        <ele>182</ele>
        <time>2017-11-03T01:35:49Z</time>
      </trkpt>
      <trkpt lat="46.02246" lon="4.70633">
        <ele>182</ele>
        <time>2017-11-03T01:37:49Z</time>
      </trkpt>
      <trkpt lat="46.0225" lon="4.70644">
        <ele>182</ele>
        <time>2017-11-03T01:39:49Z</time>
      </trkpt>
      <trkpt lat="46.02257" lon="4.70661">
        <ele>182</ele>
        <time>2017-11-03T01:41:49Z</time>
      </trkpt>
      <trkpt lat="46.02261" lon="4.7067">
        <ele>182</ele>
        <time>2017-11-03T01:43:49Z</time>
      </trkpt>
      <trkpt lat="46.02266" lon="4.70686">
        <ele>182</ele>
        <time>2017-11-03T01:45:49Z</time>
      </trkpt>
      <trkpt lat="46.02273" lon="4.70694">
        <ele>182</ele>
        <time>2017-11-03T01:47:49Z</time>
      </trkpt>
      <trkpt lat="46.02281" lon="4.70708">
        <ele>181</ele>
        <time>2017-11-03T01:49:49Z</time>
      </trkpt>
      <trkpt lat="46.02294" lon="4.7073">
        <ele>181</ele>
        <time>2017-11-03T01:51:49Z</time>
      </trkpt>
      <trkpt lat="46.02304" lon="4.70745">
        <ele>180</ele>
        <time>2017-11-03T01:53:49Z</time>
      </trkpt>
      <trkpt lat="46.02304" lon="4.70745">
        <ele>180</ele>
        <time>2017-11-03T01:55:49Z</time>
      </trkpt>
      <trkpt lat="46.02303" lon="4.70766">
        <ele>180</ele>
        <time>2017-11-03T01:57:49Z</time>
      </trkpt>
      <trkpt lat="46.02303" lon="4.70766">
        <ele>180</ele>
        <time>2017-11-03T01:59:49Z</time>
      </trkpt>
      <trkpt lat="46.02326" lon="4.7077">
        <ele>180</ele>
        <time>2017-11-03T02:01:49Z</time>
      </trkpt>
      <trkpt lat="46.02385" lon="4.7078">
        <ele>185</ele>
        <time>2017-11-03T02:03:49Z</time>
      </trkpt>
      <trkpt lat="46.02389" lon="4.70783">
        <ele>185</ele>
        <time>2017-11-03T02:05:49Z</time>
      </trkpt>
      <trkpt lat="46.02391" lon="4.70784">
        <ele>185</ele>
        <time>2017-11-03T02:07:49Z</time>
      </trkpt>
      <trkpt lat="46.02393" lon="4.70786">
        <ele>185</ele>
        <time>2017-11-03T02:09:49Z</time>
      </trkpt>
      <trkpt lat="46.02394" lon="4.70786">
        <ele>185</ele>
        <time>2017-11-03T02:11:49Z</time>
      </trkpt>
      <trkpt lat="46.02396" lon="4.70787">
        <ele>185</ele>
        <time>2017-11-03T02:13:49Z</time>
      </trkpt>
      <trkpt lat="46.02398" lon="4.70787">
        <ele>186</ele>
        <time>2017-11-03T02:15:49Z</time>
      </trkpt>
      <trkpt lat="46.02403" lon="4.70787">
        <ele>186</ele>
        <time>2017-11-03T02:17:49Z</time>
      </trkpt>
      <trkpt lat="46.02407" lon="4.70786">
        <ele>186</ele>
        <time>2017-11-03T02:19:49Z</time>
      </trkpt>
      <trkpt lat="46.02411" lon="4.70784">
        <ele>187</ele>
        <time>2017-11-03T02:21:49Z</time>
      </trkpt>
      <trkpt lat="46.02414" lon="4.70782">
        <ele>187</ele>
        <time>2017-11-03T02:23:49Z</time>
      </trkpt>
      <trkpt lat="46.02417" lon="4.7078">
        <ele>187</ele>
        <time>2017-11-03T02:25:49Z</time>
      </trkpt>
      <trkpt lat="46.02419" lon="4.70779">
        <ele>187</ele>
        <time>2017-11-03T02:27:49Z</time>
      </trkpt>
      <trkpt lat="46.02423" lon="4.70779">
        <ele>188</ele>
        <time>2017-11-03T02:29:49Z</time>
      </trkpt>
      <trkpt lat="46.02423" lon="4.70779">
        <ele>188</ele>
        <time>2017-11-03T02:31:49Z</time>
      </trkpt>
      <trkpt lat="46.02424" lon="4.70779">
        <ele>188</ele>
        <time>2017-11-03T02:33:49Z</time>
      </trkpt>
      <trkpt lat="46.02424" lon="4.7078">
        <ele>188</ele>
        <time>2017-11-03T02:35:49Z</time>
      </trkpt>
      <trkpt lat="46.02425" lon="4.7078">
        <ele>188</ele>
        <time>2017-11-03T02:37:49Z</time>
      </trkpt>
      <trkpt lat="46.02426" lon="4.7078">
        <ele>188</ele>
        <time>2017-11-03T02:39:49Z</time>
      </trkpt>
      <trkpt lat="46.02426" lon="4.70781">
        <ele>188</ele>
        <time>2017-11-03T02:41:49Z</time>
      </trkpt>
      <trkpt lat="46.02427" lon="4.70781">
        <ele>188</ele>
        <time>2017-11-03T02:43:49Z</time>
      </trkpt>
      <trkpt lat="46.02428" lon="4.70781">
        <ele>188</ele>
        <time>2017-11-03T02:45:49Z</time>
      </trkpt>
      <trkpt lat="46.02429" lon="4.70781">
        <ele>188</ele>
        <time>2017-11-03T02:47:49Z</time>
      </trkpt>
      <trkpt lat="46.0243" lon="4.7078">
        <ele>188</ele>
        <time>2017-11-03T02:49:49Z</time>
      </trkpt>
      <trkpt lat="46.02431" lon="4.7078">
        <ele>188</ele>
        <time>2017-11-03T02:51:49Z</time>
      </trkpt>
      <trkpt lat="46.02431" lon="4.70779">
        <ele>188</ele>
        <time>2017-11-03T02:53:49Z</time>
      </trkpt>
      <trkpt lat="46.02432" lon="4.70779">
        <ele>188</ele>
        <time>2017-11-03T02:55:49Z</time>
      </trkpt>
      <trkpt lat="46.02432" lon="4.70778">
        <ele>188</ele>
        <time>2017-11-03T02:57:49Z</time>
      </trkpt>
      <trkpt lat="46.02433" lon="4.70778">
        <ele>188</ele>
        <time>2017-11-03T02:59:49Z</time>
      </trkpt>
      <trkpt lat="46.02433" lon="4.70777">
        <ele>188</ele>
        <time>2017-11-03T03:01:49Z</time>
      </trkpt>
      <trkpt lat="46.02434" lon="4.70776">
        <ele>189</ele>
        <time>2017-11-03T03:03:49Z</time>
      </trkpt>
      <trkpt lat="46.02434" lon="4.70775">
        <ele>189</ele>
        <time>2017-11-03T03:05:49Z</time>
      </trkpt>
      <trkpt lat="46.02434" lon="4.70774">
        <ele>189</ele>
        <time>2017-11-03T03:07:49Z</time>
      </trkpt>
      <trkpt lat="46.02435" lon="4.70774">
        <ele>189</ele>
        <time>2017-11-03T03:09:49Z</time>
      </trkpt>
      <trkpt lat="46.02435" lon="4.70773">
        <ele>189</ele>
        <time>2017-11-03T03:11:49Z</time>
      </trkpt>
      <trkpt lat="46.02435" lon="4.70772">
        <ele>189</ele>
        <time>2017-11-03T03:13:49Z</time>
      </trkpt>
      <trkpt lat="46.02435" lon="4.70771">
        <ele>189</ele>
        <time>2017-11-03T03:15:49Z</time>
      </trkpt>
      <trkpt lat="46.02435" lon="4.7077">
        <ele>189</ele>
        <time>2017-11-03T03:17:49Z</time>
      </trkpt>
      <trkpt lat="46.02437" lon="4.70762">
        <ele>189</ele>
        <time>2017-11-03T03:19:49Z</time>
      </trkpt>
      <trkpt lat="46.0244" lon="4.70749">
        <ele>189</ele>
        <time>2017-11-03T03:21:49Z</time>
      </trkpt>
      <trkpt lat="46.02444" lon="4.70742">
        <ele>190</ele>
        <time>2017-11-03T03:23:49Z</time>
      </trkpt>
      <trkpt lat="46.02446" lon="4.70738">
        <ele>190</ele>
        <time>2017-11-03T03:25:49Z</time>
      </trkpt>
      <trkpt lat="46.02447" lon="4.70736">
        <ele>190</ele>
        <time>2017-11-03T03:27:49Z</time>
      </trkpt>
      <trkpt lat="46.0245" lon="4.70728">
        <ele>190</ele>
        <time>2017-11-03T03:29:49Z</time>
      </trkpt>
      <trkpt lat="46.02453" lon="4.7072">
        <ele>190</ele>
        <time>2017-11-03T03:31:49Z</time>
      </trkpt>
      <trkpt lat="46.02455" lon="4.70711">
        <ele>190</ele>
        <time>2017-11-03T03:33:49Z</time>
      </trkpt>
      <trkpt lat="46.02458" lon="4.70698">
        <ele>190</ele>
        <time>2017-11-03T03:35:49Z</time>
      </trkpt>
      <trkpt lat="46.0246" lon="4.70691">
        <ele>190</ele>
        <time>2017-11-03T03:37:49Z</time>
      </trkpt>
      <trkpt lat="46.02463" lon="4.7068">
        <ele>190</ele>
        <time>2017-11-03T03:39:49Z</time>
      </trkpt>
    </trkseg>
  </trk>
</gpx>